<?xml version="1.0" encoding="UTF-8" standalone="no" ?>
<gpx xmlns="http://www.topografix.com/GPX/1/1" xmlns:xsi="http://www.w3.org/2001/XMLSchema-instance" xsi:schemaLocation="http://www.topografix.com/GPX/1/1 http://www.topografix.com/GPX/1/1/gpx.xsd" version="1.1" creator="VisuGPX - https://www.visugpx.com">
  <metadata>
    <name>Col de Mouzoulès - Lac des Pises</name>
    <desc><![CDATA[2015-05 - Col de Mouzoulès - Col des Portes - Lac des Pises - sommet du Grand Pas Ribaldès - Mas des Molières - le Travers - le Caladon

[b]album[/b] : [url]https://goo.gl/photos/bmHkQ4BLRahLYQ167[/url]

[img]https://3.bp.blogspot.com/-D9pl57OaIYQ/WNQowkqikeI/AAAAAAAARSY/PlJ6qtfaJ9k6OjshxC_He1P8YNxXr3vFgCLcB/s1600/2015-05_Col-Mouzoules_Col-des-Portes_Lac-des-Pises_le-Caladon_Photos_i.JPG[/img]

[b]Idées de randonnées dans la même région[/b]
Parcours : [url]https://www.visugpx.com/membres/24856/montagne/aigoual/[/url]
Photos : [url]https://jcvertygo.blogspot.com/p/mont-aigoual.html[/url]]]></desc>
  </metadata>
  <trk>
    <name><![CDATA[Col de Mouzoulès - Lac des Pises_1]]></name>
    <trkseg>
      <trkpt lat="43.99992" lon="3.53637">
        <ele>747.8</ele>
        <time>2015-05-31T11:17:46Z</time>
      </trkpt>
      <trkpt lat="43.99986" lon="3.5364">
        <ele>747.8</ele>
        <time>2015-05-31T11:17:51Z</time>
      </trkpt>
      <trkpt lat="43.9999" lon="3.53637">
        <ele>741.21717804988</ele>
        <time>2015-05-31T11:17:56Z</time>
      </trkpt>
      <trkpt lat="43.99995" lon="3.53633">
        <ele>741.21717804988</ele>
        <time>2015-05-31T11:18:01Z</time>
      </trkpt>
      <trkpt lat="44" lon="3.5363">
        <ele>745.28408173909</ele>
        <time>2015-05-31T11:18:06Z</time>
      </trkpt>
      <trkpt lat="44.00005" lon="3.53628">
        <ele>745.28408173909</ele>
        <time>2015-05-31T11:18:11Z</time>
      </trkpt>
      <trkpt lat="44.00025" lon="3.53614">
        <ele>748.89613192927</ele>
        <time>2015-05-31T11:18:31Z</time>
      </trkpt>
      <trkpt lat="44.0003" lon="3.53608">
        <ele>748.89613192927</ele>
        <time>2015-05-31T11:18:36Z</time>
      </trkpt>
      <trkpt lat="44.00034" lon="3.53602">
        <ele>752.38462657593</ele>
        <time>2015-05-31T11:18:41Z</time>
      </trkpt>
      <trkpt lat="44.00038" lon="3.53599">
        <ele>752.38462657593</ele>
        <time>2015-05-31T11:18:46Z</time>
      </trkpt>
      <trkpt lat="44.0004" lon="3.53596">
        <ele>752.38462657593</ele>
        <time>2015-05-31T11:18:52Z</time>
      </trkpt>
      <trkpt lat="44.0004" lon="3.53596">
        <ele>752.38462657593</ele>
        <time>2015-05-31T11:18:56Z</time>
      </trkpt>
      <trkpt lat="44.00045" lon="3.53603">
        <ele>755.68886970237</ele>
        <time>2015-05-31T11:19:19Z</time>
      </trkpt>
      <trkpt lat="44.00047" lon="3.53598">
        <ele>755.68886970237</ele>
        <time>2015-05-31T11:19:27Z</time>
      </trkpt>
      <trkpt lat="44.00054" lon="3.53586">
        <ele>758.86085182081</ele>
        <time>2015-05-31T11:19:36Z</time>
      </trkpt>
      <trkpt lat="44.00055" lon="3.53581">
        <ele>758.86085182081</ele>
        <time>2015-05-31T11:19:41Z</time>
      </trkpt>
      <trkpt lat="44.00061" lon="3.53574">
        <ele>761.75345266547</ele>
        <time>2015-05-31T11:19:58Z</time>
      </trkpt>
      <trkpt lat="44.00096" lon="3.53532">
        <ele>764.59198766254</ele>
        <time>2015-05-31T11:20:32Z</time>
      </trkpt>
      <trkpt lat="44.00097" lon="3.53529">
        <ele>764.59198766254</ele>
        <time>2015-05-31T11:20:36Z</time>
      </trkpt>
      <trkpt lat="44.00096" lon="3.53522">
        <ele>764.59198766254</ele>
        <time>2015-05-31T11:20:48Z</time>
      </trkpt>
      <trkpt lat="44.00095" lon="3.53516">
        <ele>767.04146908571</ele>
        <time>2015-05-31T11:21:13Z</time>
      </trkpt>
      <trkpt lat="44.00095" lon="3.53467">
        <ele>769.2101099204</ele>
        <time>2015-05-31T11:21:31Z</time>
      </trkpt>
      <trkpt lat="44.00095" lon="3.53459">
        <ele>769.2101099204</ele>
        <time>2015-05-31T11:21:36Z</time>
      </trkpt>
      <trkpt lat="44.00094" lon="3.5345">
        <ele>770.84999261175</ele>
        <time>2015-05-31T11:21:41Z</time>
      </trkpt>
      <trkpt lat="44.00095" lon="3.53443">
        <ele>770.84999261175</ele>
        <time>2015-05-31T11:21:46Z</time>
      </trkpt>
      <trkpt lat="44.00098" lon="3.53435">
        <ele>772.03135759996</ele>
        <time>2015-05-31T11:21:51Z</time>
      </trkpt>
      <trkpt lat="44.00099" lon="3.53429">
        <ele>772.03135759996</ele>
        <time>2015-05-31T11:21:56Z</time>
      </trkpt>
      <trkpt lat="44.001" lon="3.53418">
        <ele>772.88978841838</ele>
        <time>2015-05-31T11:22:05Z</time>
      </trkpt>
      <trkpt lat="44.00102" lon="3.53398">
        <ele>773.51138263357</ele>
        <time>2015-05-31T11:22:17Z</time>
      </trkpt>
      <trkpt lat="44.00108" lon="3.53369">
        <ele>774.02817331328</ele>
        <time>2015-05-31T11:22:38Z</time>
      </trkpt>
      <trkpt lat="44.00106" lon="3.53365">
        <ele>774.02817331328</ele>
        <time>2015-05-31T11:22:41Z</time>
      </trkpt>
      <trkpt lat="44.00105" lon="3.53359">
        <ele>774.02817331328</ele>
        <time>2015-05-31T11:22:50Z</time>
      </trkpt>
      <trkpt lat="44.00107" lon="3.53348">
        <ele>774.49103277334</ele>
        <time>2015-05-31T11:23:01Z</time>
      </trkpt>
      <trkpt lat="44.0011" lon="3.53335">
        <ele>774.84238115126</ele>
        <time>2015-05-31T11:23:08Z</time>
      </trkpt>
      <trkpt lat="44.00112" lon="3.53325">
        <ele>774.84238115126</ele>
        <time>2015-05-31T11:23:11Z</time>
      </trkpt>
      <trkpt lat="44.00117" lon="3.53298">
        <ele>775.49448171391</ele>
        <time>2015-05-31T11:23:31Z</time>
      </trkpt>
      <trkpt lat="44.00116" lon="3.53293">
        <ele>775.49448171391</ele>
        <time>2015-05-31T11:23:36Z</time>
      </trkpt>
      <trkpt lat="44.00116" lon="3.53286">
        <ele>776.03695384251</ele>
        <time>2015-05-31T11:23:41Z</time>
      </trkpt>
      <trkpt lat="44.00118" lon="3.53269">
        <ele>776.54594994373</ele>
        <time>2015-05-31T11:23:50Z</time>
      </trkpt>
      <trkpt lat="44.00132" lon="3.53227">
        <ele>777.42414943309</ele>
        <time>2015-05-31T11:24:36Z</time>
      </trkpt>
      <trkpt lat="44.0013" lon="3.53212">
        <ele>778.25656545531</ele>
        <time>2015-05-31T11:24:51Z</time>
      </trkpt>
      <trkpt lat="44.0013" lon="3.53204">
        <ele>778.25656545531</ele>
        <time>2015-05-31T11:24:56Z</time>
      </trkpt>
      <trkpt lat="44.0013" lon="3.532">
        <ele>778.25656545531</ele>
        <time>2015-05-31T11:25:01Z</time>
      </trkpt>
      <trkpt lat="44.00142" lon="3.53171">
        <ele>779.5331811377</ele>
        <time>2015-05-31T11:25:26Z</time>
      </trkpt>
      <trkpt lat="44.00147" lon="3.53162">
        <ele>779.5331811377</ele>
        <time>2015-05-31T11:25:32Z</time>
      </trkpt>
      <trkpt lat="44.00149" lon="3.53154">
        <ele>780.74886357445</ele>
        <time>2015-05-31T11:25:36Z</time>
      </trkpt>
      <trkpt lat="44.00152" lon="3.53125">
        <ele>781.94039182556</ele>
        <time>2015-05-31T11:25:58Z</time>
      </trkpt>
      <trkpt lat="44.00154" lon="3.5312">
        <ele>781.94039182556</ele>
        <time>2015-05-31T11:26:05Z</time>
      </trkpt>
      <trkpt lat="44.00159" lon="3.531">
        <ele>783.28300332485</ele>
        <time>2015-05-31T11:26:16Z</time>
      </trkpt>
      <trkpt lat="44.00157" lon="3.53092">
        <ele>783.28300332485</ele>
        <time>2015-05-31T11:26:21Z</time>
      </trkpt>
      <trkpt lat="44.00162" lon="3.53078">
        <ele>784.63227314942</ele>
        <time>2015-05-31T11:26:29Z</time>
      </trkpt>
      <trkpt lat="44.00163" lon="3.53077">
        <ele>784.63227314942</ele>
        <time>2015-05-31T11:26:34Z</time>
      </trkpt>
      <trkpt lat="44.00165" lon="3.53069">
        <ele>784.63227314942</ele>
        <time>2015-05-31T11:26:36Z</time>
      </trkpt>
      <trkpt lat="44.00169" lon="3.53042">
        <ele>785.94372047426</ele>
        <time>2015-05-31T11:26:56Z</time>
      </trkpt>
      <trkpt lat="44.0017" lon="3.53023">
        <ele>787.45728588876</ele>
        <time>2015-05-31T11:27:04Z</time>
      </trkpt>
      <trkpt lat="44.0017" lon="3.53021">
        <ele>787.45728588876</ele>
        <time>2015-05-31T11:27:06Z</time>
      </trkpt>
      <trkpt lat="44.0017" lon="3.53012">
        <ele>787.45728588876</ele>
        <time>2015-05-31T11:27:17Z</time>
      </trkpt>
      <trkpt lat="44.00171" lon="3.52972">
        <ele>789.26500643106</ele>
        <time>2015-05-31T11:27:36Z</time>
      </trkpt>
      <trkpt lat="44.00171" lon="3.52966">
        <ele>789.26500643106</ele>
        <time>2015-05-31T11:27:41Z</time>
      </trkpt>
      <trkpt lat="44.00169" lon="3.52929">
        <ele>791.29918889746</ele>
        <time>2015-05-31T11:28:03Z</time>
      </trkpt>
      <trkpt lat="44.00169" lon="3.52927">
        <ele>791.29918889746</ele>
        <time>2015-05-31T11:28:06Z</time>
      </trkpt>
      <trkpt lat="44.00169" lon="3.52918">
        <ele>791.29918889746</ele>
        <time>2015-05-31T11:28:11Z</time>
      </trkpt>
      <trkpt lat="44.00179" lon="3.52883">
        <ele>793.60995963214</ele>
        <time>2015-05-31T11:28:44Z</time>
      </trkpt>
      <trkpt lat="44.00192" lon="3.52859">
        <ele>795.93950504285</ele>
        <time>2015-05-31T11:28:58Z</time>
      </trkpt>
      <trkpt lat="44.0019" lon="3.52858">
        <ele>795.93950504285</ele>
        <time>2015-05-31T11:29:09Z</time>
      </trkpt>
      <trkpt lat="44.00202" lon="3.52847">
        <ele>798.39612314335</ele>
        <time>2015-05-31T11:29:24Z</time>
      </trkpt>
      <trkpt lat="44.00217" lon="3.5285">
        <ele>800.77446640236</ele>
        <time>2015-05-31T11:29:36Z</time>
      </trkpt>
      <trkpt lat="44.00221" lon="3.52853">
        <ele>800.77446640236</ele>
        <time>2015-05-31T11:29:44Z</time>
      </trkpt>
      <trkpt lat="44.00231" lon="3.52858">
        <ele>803.16187131511</ele>
        <time>2015-05-31T11:29:51Z</time>
      </trkpt>
      <trkpt lat="44.00259" lon="3.52893">
        <ele>805.90855604938</ele>
        <time>2015-05-31T11:30:34Z</time>
      </trkpt>
      <trkpt lat="44.00259" lon="3.52895">
        <ele>805.90855604938</ele>
        <time>2015-05-31T11:30:36Z</time>
      </trkpt>
      <trkpt lat="44.00262" lon="3.52899">
        <ele>805.90855604938</ele>
        <time>2015-05-31T11:30:41Z</time>
      </trkpt>
      <trkpt lat="44.00264" lon="3.52904">
        <ele>808.4384500887</ele>
        <time>2015-05-31T11:30:46Z</time>
      </trkpt>
      <trkpt lat="44.00264" lon="3.52909">
        <ele>808.4384500887</ele>
        <time>2015-05-31T11:30:51Z</time>
      </trkpt>
      <trkpt lat="44.00264" lon="3.52915">
        <ele>808.4384500887</ele>
        <time>2015-05-31T11:30:56Z</time>
      </trkpt>
      <trkpt lat="44.00267" lon="3.5292">
        <ele>810.83348194934</ele>
        <time>2015-05-31T11:31:01Z</time>
      </trkpt>
      <trkpt lat="44.0027" lon="3.52925">
        <ele>810.83348194934</ele>
        <time>2015-05-31T11:31:06Z</time>
      </trkpt>
      <trkpt lat="44.00273" lon="3.52934">
        <ele>813.05691453007</ele>
        <time>2015-05-31T11:31:11Z</time>
      </trkpt>
      <trkpt lat="44.00278" lon="3.52941">
        <ele>813.05691453007</ele>
        <time>2015-05-31T11:31:16Z</time>
      </trkpt>
      <trkpt lat="44.00281" lon="3.52946">
        <ele>815.06011398096</ele>
        <time>2015-05-31T11:31:21Z</time>
      </trkpt>
      <trkpt lat="44.00287" lon="3.52948">
        <ele>815.06011398096</ele>
        <time>2015-05-31T11:31:26Z</time>
      </trkpt>
      <trkpt lat="44.00288" lon="3.52949">
        <ele>815.06011398096</ele>
        <time>2015-05-31T11:31:31Z</time>
      </trkpt>
      <trkpt lat="44.00297" lon="3.52963">
        <ele>816.75431207718</ele>
        <time>2015-05-31T11:32:01Z</time>
      </trkpt>
      <trkpt lat="44.00301" lon="3.52969">
        <ele>816.75431207718</ele>
        <time>2015-05-31T11:32:06Z</time>
      </trkpt>
      <trkpt lat="44.00303" lon="3.52973">
        <ele>818.17432377715</ele>
        <time>2015-05-31T11:32:11Z</time>
      </trkpt>
      <trkpt lat="44.00308" lon="3.52977">
        <ele>818.17432377715</ele>
        <time>2015-05-31T11:32:24Z</time>
      </trkpt>
      <trkpt lat="44.00311" lon="3.52983">
        <ele>819.38436200255</ele>
        <time>2015-05-31T11:32:43Z</time>
      </trkpt>
      <trkpt lat="44.00312" lon="3.52992">
        <ele>819.38436200255</ele>
        <time>2015-05-31T11:32:46Z</time>
      </trkpt>
      <trkpt lat="44.00318" lon="3.52999">
        <ele>820.52066617793</ele>
        <time>2015-05-31T11:32:52Z</time>
      </trkpt>
      <trkpt lat="44.00321" lon="3.53002">
        <ele>820.52066617793</ele>
        <time>2015-05-31T11:32:57Z</time>
      </trkpt>
      <trkpt lat="44.00333" lon="3.53024">
        <ele>821.36955896027</ele>
        <time>2015-05-31T11:33:41Z</time>
      </trkpt>
      <trkpt lat="44.00338" lon="3.53033">
        <ele>821.36955896027</ele>
        <time>2015-05-31T11:33:52Z</time>
      </trkpt>
      <trkpt lat="44.00338" lon="3.53035">
        <ele>821.86639522724</ele>
        <time>2015-05-31T11:33:56Z</time>
      </trkpt>
      <trkpt lat="44.00341" lon="3.53039">
        <ele>821.86639522724</ele>
        <time>2015-05-31T11:34:03Z</time>
      </trkpt>
      <trkpt lat="44.0034" lon="3.53045">
        <ele>821.86639522724</ele>
        <time>2015-05-31T11:34:09Z</time>
      </trkpt>
      <trkpt lat="44.00371" lon="3.53091">
        <ele>822.41779810996</ele>
        <time>2015-05-31T11:34:41Z</time>
      </trkpt>
      <trkpt lat="44.0038" lon="3.53088">
        <ele>822.90695992029</ele>
        <time>2015-05-31T11:34:55Z</time>
      </trkpt>
      <trkpt lat="44.0038" lon="3.53088">
        <ele>822.90695992029</ele>
        <time>2015-05-31T11:35:02Z</time>
      </trkpt>
      <trkpt lat="44.00399" lon="3.5308">
        <ele>823.48116639415</ele>
        <time>2015-05-31T11:35:14Z</time>
      </trkpt>
      <trkpt lat="44.004" lon="3.53079">
        <ele>823.48116639415</ele>
        <time>2015-05-31T11:35:16Z</time>
      </trkpt>
      <trkpt lat="44.00405" lon="3.53074">
        <ele>823.48116639415</ele>
        <time>2015-05-31T11:35:21Z</time>
      </trkpt>
      <trkpt lat="44.00413" lon="3.53069">
        <ele>823.98978827875</ele>
        <time>2015-05-31T11:35:26Z</time>
      </trkpt>
      <trkpt lat="44.00423" lon="3.53062">
        <ele>824.41385780742</ele>
        <time>2015-05-31T11:35:31Z</time>
      </trkpt>
      <trkpt lat="44.00426" lon="3.53061">
        <ele>824.41385780742</ele>
        <time>2015-05-31T11:35:36Z</time>
      </trkpt>
      <trkpt lat="44.00434" lon="3.53051">
        <ele>824.82647801255</ele>
        <time>2015-05-31T11:35:41Z</time>
      </trkpt>
      <trkpt lat="44.00436" lon="3.53046">
        <ele>824.82647801255</ele>
        <time>2015-05-31T11:35:46Z</time>
      </trkpt>
      <trkpt lat="44.00437" lon="3.5304">
        <ele>824.82647801255</ele>
        <time>2015-05-31T11:35:51Z</time>
      </trkpt>
      <trkpt lat="44.00438" lon="3.53033">
        <ele>825.34008717655</ele>
        <time>2015-05-31T11:35:56Z</time>
      </trkpt>
      <trkpt lat="44.00441" lon="3.53029">
        <ele>825.34008717655</ele>
        <time>2015-05-31T11:36:01Z</time>
      </trkpt>
      <trkpt lat="44.00445" lon="3.53025">
        <ele>825.86148954181</ele>
        <time>2015-05-31T11:36:06Z</time>
      </trkpt>
      <trkpt lat="44.00451" lon="3.53019">
        <ele>825.86148954181</ele>
        <time>2015-05-31T11:36:11Z</time>
      </trkpt>
      <trkpt lat="44.00456" lon="3.53014">
        <ele>826.34972877712</ele>
        <time>2015-05-31T11:36:16Z</time>
      </trkpt>
      <trkpt lat="44.0046" lon="3.53012">
        <ele>826.34972877712</ele>
        <time>2015-05-31T11:36:21Z</time>
      </trkpt>
      <trkpt lat="44.00465" lon="3.53011">
        <ele>826.82713608695</ele>
        <time>2015-05-31T11:36:26Z</time>
      </trkpt>
      <trkpt lat="44.00471" lon="3.5301">
        <ele>826.82713608695</ele>
        <time>2015-05-31T11:36:31Z</time>
      </trkpt>
      <trkpt lat="44.00475" lon="3.53009">
        <ele>827.38897663793</ele>
        <time>2015-05-31T11:36:36Z</time>
      </trkpt>
      <trkpt lat="44.00481" lon="3.53008">
        <ele>827.38897663793</ele>
        <time>2015-05-31T11:36:41Z</time>
      </trkpt>
      <trkpt lat="44.00484" lon="3.53009">
        <ele>827.38897663793</ele>
        <time>2015-05-31T11:36:46Z</time>
      </trkpt>
      <trkpt lat="44.00484" lon="3.53009">
        <ele>827.38897663793</ele>
        <time>2015-05-31T11:36:51Z</time>
      </trkpt>
      <trkpt lat="44.00487" lon="3.53009">
        <ele>828.12205385914</ele>
        <time>2015-05-31T11:36:56Z</time>
      </trkpt>
      <trkpt lat="44.00492" lon="3.5301">
        <ele>828.12205385914</ele>
        <time>2015-05-31T11:37:01Z</time>
      </trkpt>
      <trkpt lat="44.00498" lon="3.53009">
        <ele>828.7467877535</ele>
        <time>2015-05-31T11:37:06Z</time>
      </trkpt>
      <trkpt lat="44.00505" lon="3.53009">
        <ele>828.7467877535</ele>
        <time>2015-05-31T11:37:11Z</time>
      </trkpt>
      <trkpt lat="44.00526" lon="3.53008">
        <ele>829.51365846494</ele>
        <time>2015-05-31T11:37:36Z</time>
      </trkpt>
      <trkpt lat="44.00534" lon="3.53008">
        <ele>829.51365846494</ele>
        <time>2015-05-31T11:37:46Z</time>
      </trkpt>
      <trkpt lat="44.00545" lon="3.53004">
        <ele>830.35434293217</ele>
        <time>2015-05-31T11:38:28Z</time>
      </trkpt>
      <trkpt lat="44.00593" lon="3.52978">
        <ele>832.27293974852</ele>
        <time>2015-05-31T11:38:47Z</time>
      </trkpt>
      <trkpt lat="44.00595" lon="3.52976">
        <ele>832.27293974852</ele>
        <time>2015-05-31T11:38:51Z</time>
      </trkpt>
      <trkpt lat="44.00606" lon="3.52968">
        <ele>834.38255173011</ele>
        <time>2015-05-31T11:39:01Z</time>
      </trkpt>
      <trkpt lat="44.00621" lon="3.52965">
        <ele>836.54850911763</ele>
        <time>2015-05-31T11:39:46Z</time>
      </trkpt>
      <trkpt lat="44.00629" lon="3.52959">
        <ele>838.20588685887</ele>
        <time>2015-05-31T11:39:51Z</time>
      </trkpt>
      <trkpt lat="44.00633" lon="3.52959">
        <ele>838.20588685887</ele>
        <time>2015-05-31T11:39:56Z</time>
      </trkpt>
      <trkpt lat="44.00636" lon="3.5296">
        <ele>838.20588685887</ele>
        <time>2015-05-31T11:40:06Z</time>
      </trkpt>
      <trkpt lat="44.00645" lon="3.52956">
        <ele>839.79201671181</ele>
        <time>2015-05-31T11:40:16Z</time>
      </trkpt>
      <trkpt lat="44.00684" lon="3.52932">
        <ele>841.38596329463</ele>
        <time>2015-05-31T11:40:51Z</time>
      </trkpt>
      <trkpt lat="44.00689" lon="3.52928">
        <ele>841.38596329463</ele>
        <time>2015-05-31T11:40:56Z</time>
      </trkpt>
      <trkpt lat="44.00692" lon="3.52925">
        <ele>842.84097113296</ele>
        <time>2015-05-31T11:41:08Z</time>
      </trkpt>
      <trkpt lat="44.00738" lon="3.52881">
        <ele>844.92710219101</ele>
        <time>2015-05-31T11:41:52Z</time>
      </trkpt>
      <trkpt lat="44.00742" lon="3.52877">
        <ele>844.92710219101</ele>
        <time>2015-05-31T11:41:56Z</time>
      </trkpt>
      <trkpt lat="44.00748" lon="3.52874">
        <ele>846.89420361351</ele>
        <time>2015-05-31T11:42:24Z</time>
      </trkpt>
      <trkpt lat="44.00784" lon="3.52844">
        <ele>848.88146384888</ele>
        <time>2015-05-31T11:42:36Z</time>
      </trkpt>
      <trkpt lat="44.00788" lon="3.52843">
        <ele>848.88146384888</ele>
        <time>2015-05-31T11:42:43Z</time>
      </trkpt>
      <trkpt lat="44.00793" lon="3.52844">
        <ele>850.72645565133</ele>
        <time>2015-05-31T11:42:46Z</time>
      </trkpt>
      <trkpt lat="44.00797" lon="3.52842">
        <ele>850.72645565133</ele>
        <time>2015-05-31T11:42:51Z</time>
      </trkpt>
      <trkpt lat="44.00802" lon="3.52838">
        <ele>852.51189438798</ele>
        <time>2015-05-31T11:43:00Z</time>
      </trkpt>
      <trkpt lat="44.00842" lon="3.5282">
        <ele>854.80667013776</ele>
        <time>2015-05-31T11:43:51Z</time>
      </trkpt>
      <trkpt lat="44.0084" lon="3.52821">
        <ele>854.80667013776</ele>
        <time>2015-05-31T11:44:01Z</time>
      </trkpt>
      <trkpt lat="44.00821" lon="3.52826">
        <ele>857.04877164505</ele>
        <time>2015-05-31T11:44:43Z</time>
      </trkpt>
      <trkpt lat="44.00791" lon="3.52846">
        <ele>859.7753494436</ele>
        <time>2015-05-31T11:44:51Z</time>
      </trkpt>
      <trkpt lat="44.00786" lon="3.52853">
        <ele>859.7753494436</ele>
        <time>2015-05-31T11:44:59Z</time>
      </trkpt>
      <trkpt lat="44.00747" lon="3.52905">
        <ele>863.09105609077</ele>
        <time>2015-05-31T11:45:51Z</time>
      </trkpt>
      <trkpt lat="44.00744" lon="3.5291">
        <ele>863.09105609077</ele>
        <time>2015-05-31T11:45:56Z</time>
      </trkpt>
      <trkpt lat="44.0074" lon="3.52916">
        <ele>866.21018943052</ele>
        <time>2015-05-31T11:46:01Z</time>
      </trkpt>
      <trkpt lat="44.00736" lon="3.52919">
        <ele>866.21018943052</ele>
        <time>2015-05-31T11:46:06Z</time>
      </trkpt>
      <trkpt lat="44.00695" lon="3.52954">
        <ele>869.7061924033</ele>
        <time>2015-05-31T11:46:51Z</time>
      </trkpt>
      <trkpt lat="44.00695" lon="3.52961">
        <ele>869.7061924033</ele>
        <time>2015-05-31T11:46:56Z</time>
      </trkpt>
      <trkpt lat="44.00696" lon="3.52976">
        <ele>872.2468963656</ele>
        <time>2015-05-31T11:47:34Z</time>
      </trkpt>
      <trkpt lat="44.00689" lon="3.52977">
        <ele>872.2468963656</ele>
        <time>2015-05-31T11:47:51Z</time>
      </trkpt>
      <trkpt lat="44.00684" lon="3.52985">
        <ele>874.21798763655</ele>
        <time>2015-05-31T11:48:10Z</time>
      </trkpt>
      <trkpt lat="44.00655" lon="3.53021">
        <ele>875.89124481039</ele>
        <time>2015-05-31T11:48:36Z</time>
      </trkpt>
      <trkpt lat="44.00639" lon="3.53025">
        <ele>877.33156090006</ele>
        <time>2015-05-31T11:48:51Z</time>
      </trkpt>
      <trkpt lat="44.00634" lon="3.53028">
        <ele>877.33156090006</ele>
        <time>2015-05-31T11:48:56Z</time>
      </trkpt>
      <trkpt lat="44.0063" lon="3.53031">
        <ele>878.54198914952</ele>
        <time>2015-05-31T11:49:01Z</time>
      </trkpt>
      <trkpt lat="44.0062" lon="3.53043">
        <ele>879.51158818227</ele>
        <time>2015-05-31T11:49:36Z</time>
      </trkpt>
      <trkpt lat="44.00603" lon="3.53062">
        <ele>880.27416111492</ele>
        <time>2015-05-31T11:49:51Z</time>
      </trkpt>
      <trkpt lat="44.00593" lon="3.53073">
        <ele>880.8760387765</ele>
        <time>2015-05-31T11:50:02Z</time>
      </trkpt>
      <trkpt lat="44.00572" lon="3.53095">
        <ele>881.46154438391</ele>
        <time>2015-05-31T11:50:24Z</time>
      </trkpt>
      <trkpt lat="44.00553" lon="3.5312">
        <ele>882.04912565903</ele>
        <time>2015-05-31T11:50:56Z</time>
      </trkpt>
      <trkpt lat="44.00524" lon="3.53141">
        <ele>882.77123989185</ele>
        <time>2015-05-31T11:51:21Z</time>
      </trkpt>
      <trkpt lat="44.00512" lon="3.53146">
        <ele>883.40417171899</ele>
        <time>2015-05-31T11:51:31Z</time>
      </trkpt>
      <trkpt lat="44.00511" lon="3.53147">
        <ele>883.40417171899</ele>
        <time>2015-05-31T11:51:51Z</time>
      </trkpt>
      <trkpt lat="44.00509" lon="3.53184">
        <ele>884.21674455889</ele>
        <time>2015-05-31T11:51:56Z</time>
      </trkpt>
      <trkpt lat="44.00511" lon="3.5319">
        <ele>884.21674455889</ele>
        <time>2015-05-31T11:52:02Z</time>
      </trkpt>
      <trkpt lat="44.00531" lon="3.53215">
        <ele>885.52965939115</ele>
        <time>2015-05-31T11:52:26Z</time>
      </trkpt>
      <trkpt lat="44.0054" lon="3.53222">
        <ele>886.88868682064</ele>
        <time>2015-05-31T11:52:36Z</time>
      </trkpt>
      <trkpt lat="44.00556" lon="3.53229">
        <ele>888.44968334544</ele>
        <time>2015-05-31T11:53:02Z</time>
      </trkpt>
      <trkpt lat="44.00577" lon="3.53236">
        <ele>890.14011348523</ele>
        <time>2015-05-31T11:53:16Z</time>
      </trkpt>
      <trkpt lat="44.00592" lon="3.53248">
        <ele>891.80582778507</ele>
        <time>2015-05-31T11:53:31Z</time>
      </trkpt>
      <trkpt lat="44.00595" lon="3.53258">
        <ele>891.80582778507</ele>
        <time>2015-05-31T11:53:42Z</time>
      </trkpt>
      <trkpt lat="44.00597" lon="3.53261">
        <ele>893.49156118818</ele>
        <time>2015-05-31T11:53:46Z</time>
      </trkpt>
      <trkpt lat="44.00599" lon="3.53266">
        <ele>893.49156118818</ele>
        <time>2015-05-31T11:53:51Z</time>
      </trkpt>
      <trkpt lat="44.00603" lon="3.5327">
        <ele>895.15214007082</ele>
        <time>2015-05-31T11:53:56Z</time>
      </trkpt>
      <trkpt lat="44.00611" lon="3.5327">
        <ele>895.15214007082</ele>
        <time>2015-05-31T11:54:01Z</time>
      </trkpt>
      <trkpt lat="44.00614" lon="3.53275">
        <ele>896.89001047419</ele>
        <time>2015-05-31T11:54:06Z</time>
      </trkpt>
      <trkpt lat="44.00615" lon="3.53282">
        <ele>896.89001047419</ele>
        <time>2015-05-31T11:54:11Z</time>
      </trkpt>
      <trkpt lat="44.0062" lon="3.53289">
        <ele>898.78542835459</ele>
        <time>2015-05-31T11:54:18Z</time>
      </trkpt>
      <trkpt lat="44.00639" lon="3.53307">
        <ele>901.070951252</ele>
        <time>2015-05-31T11:54:44Z</time>
      </trkpt>
      <trkpt lat="44.00646" lon="3.53317">
        <ele>903.41282056554</ele>
        <time>2015-05-31T11:54:56Z</time>
      </trkpt>
      <trkpt lat="44.00645" lon="3.5332">
        <ele>903.41282056554</ele>
        <time>2015-05-31T11:55:01Z</time>
      </trkpt>
      <trkpt lat="44.00649" lon="3.53324">
        <ele>903.41282056554</ele>
        <time>2015-05-31T11:55:10Z</time>
      </trkpt>
      <trkpt lat="44.00659" lon="3.53329">
        <ele>905.51611280617</ele>
        <time>2015-05-31T11:55:31Z</time>
      </trkpt>
      <trkpt lat="44.00651" lon="3.53323">
        <ele>905.51611280617</ele>
        <time>2015-05-31T11:55:53Z</time>
      </trkpt>
      <trkpt lat="44.00645" lon="3.53322">
        <ele>907.42559609042</ele>
        <time>2015-05-31T11:56:00Z</time>
      </trkpt>
      <trkpt lat="44.00566" lon="3.53322">
        <ele>909.24098753434</ele>
        <time>2015-05-31T11:56:56Z</time>
      </trkpt>
      <trkpt lat="44.0056" lon="3.53321">
        <ele>909.24098753434</ele>
        <time>2015-05-31T11:57:07Z</time>
      </trkpt>
      <trkpt lat="44.00533" lon="3.53349">
        <ele>911.1703065605</ele>
        <time>2015-05-31T11:57:36Z</time>
      </trkpt>
      <trkpt lat="44.00533" lon="3.53351">
        <ele>911.1703065605</ele>
        <time>2015-05-31T11:57:41Z</time>
      </trkpt>
      <trkpt lat="44.00531" lon="3.53353">
        <ele>911.1703065605</ele>
        <time>2015-05-31T11:57:54Z</time>
      </trkpt>
      <trkpt lat="44.00525" lon="3.53357">
        <ele>913.01659474762</ele>
        <time>2015-05-31T11:57:56Z</time>
      </trkpt>
      <trkpt lat="44.0052" lon="3.53359">
        <ele>913.01659474762</ele>
        <time>2015-05-31T11:58:01Z</time>
      </trkpt>
      <trkpt lat="44.00517" lon="3.53362">
        <ele>913.01659474762</ele>
        <time>2015-05-31T11:58:08Z</time>
      </trkpt>
      <trkpt lat="44.00481" lon="3.53377">
        <ele>915.34747349031</ele>
        <time>2015-05-31T11:59:04Z</time>
      </trkpt>
      <trkpt lat="44.00478" lon="3.53377">
        <ele>915.34747349031</ele>
        <time>2015-05-31T11:59:06Z</time>
      </trkpt>
      <trkpt lat="44.00476" lon="3.53376">
        <ele>915.34747349031</ele>
        <time>2015-05-31T11:59:16Z</time>
      </trkpt>
      <trkpt lat="44.00412" lon="3.53389">
        <ele>917.67808749248</ele>
        <time>2015-05-31T12:00:01Z</time>
      </trkpt>
      <trkpt lat="44.00411" lon="3.53471">
        <ele>920.39557815032</ele>
        <time>2015-05-31T12:00:56Z</time>
      </trkpt>
      <trkpt lat="44.00408" lon="3.53474">
        <ele>920.39557815032</ele>
        <time>2015-05-31T12:01:01Z</time>
      </trkpt>
      <trkpt lat="44.00407" lon="3.53483">
        <ele>922.89155067807</ele>
        <time>2015-05-31T12:01:06Z</time>
      </trkpt>
      <trkpt lat="44.00403" lon="3.53496">
        <ele>925.16533187131</ele>
        <time>2015-05-31T12:01:15Z</time>
      </trkpt>
      <trkpt lat="44.00405" lon="3.53532">
        <ele>926.8998062766</ele>
        <time>2015-05-31T12:01:47Z</time>
      </trkpt>
      <trkpt lat="44.00407" lon="3.53552">
        <ele>928.62443486963</ele>
        <time>2015-05-31T12:01:56Z</time>
      </trkpt>
      <trkpt lat="44.00409" lon="3.53556">
        <ele>928.62443486963</ele>
        <time>2015-05-31T12:02:01Z</time>
      </trkpt>
      <trkpt lat="44.00409" lon="3.53565">
        <ele>930.18109573816</ele>
        <time>2015-05-31T12:02:06Z</time>
      </trkpt>
      <trkpt lat="44.00409" lon="3.53571">
        <ele>930.18109573816</ele>
        <time>2015-05-31T12:02:18Z</time>
      </trkpt>
      <trkpt lat="44.0041" lon="3.53625">
        <ele>931.76975680698</ele>
        <time>2015-05-31T12:03:05Z</time>
      </trkpt>
      <trkpt lat="44.00415" lon="3.53644">
        <ele>933.12878644691</ele>
        <time>2015-05-31T12:03:42Z</time>
      </trkpt>
      <trkpt lat="44.00435" lon="3.53697">
        <ele>934.70831890478</ele>
        <time>2015-05-31T12:03:58Z</time>
      </trkpt>
      <trkpt lat="44.00437" lon="3.53698">
        <ele>934.70831890478</ele>
        <time>2015-05-31T12:04:01Z</time>
      </trkpt>
      <trkpt lat="44.00441" lon="3.53704">
        <ele>934.70831890478</ele>
        <time>2015-05-31T12:04:06Z</time>
      </trkpt>
      <trkpt lat="44.00466" lon="3.53679">
        <ele>936.07441807481</ele>
        <time>2015-05-31T12:04:46Z</time>
      </trkpt>
      <trkpt lat="44.00476" lon="3.53649">
        <ele>937.38778068531</ele>
        <time>2015-05-31T12:05:21Z</time>
      </trkpt>
      <trkpt lat="44.00476" lon="3.53648">
        <ele>937.38778068531</ele>
        <time>2015-05-31T12:05:26Z</time>
      </trkpt>
      <trkpt lat="44.00478" lon="3.53641">
        <ele>937.38778068531</ele>
        <time>2015-05-31T12:06:06Z</time>
      </trkpt>
      <trkpt lat="44.00479" lon="3.53639">
        <ele>937.38778068531</ele>
        <time>2015-05-31T12:07:16Z</time>
      </trkpt>
      <trkpt lat="44.0048" lon="3.53636">
        <ele>938.2641950272</ele>
        <time>2015-05-31T12:07:21Z</time>
      </trkpt>
      <trkpt lat="44.0048" lon="3.53636">
        <ele>938.2641950272</ele>
        <time>2015-05-31T12:07:26Z</time>
      </trkpt>
      <trkpt lat="44.0048" lon="3.53635">
        <ele>938.2641950272</ele>
        <time>2015-05-31T12:07:44Z</time>
      </trkpt>
      <trkpt lat="44.00481" lon="3.53633">
        <ele>938.2641950272</ele>
        <time>2015-05-31T12:07:51Z</time>
      </trkpt>
      <trkpt lat="44.00484" lon="3.53629">
        <ele>938.2641950272</ele>
        <time>2015-05-31T12:07:56Z</time>
      </trkpt>
      <trkpt lat="44.00486" lon="3.5363">
        <ele>938.2641950272</ele>
        <time>2015-05-31T12:08:01Z</time>
      </trkpt>
      <trkpt lat="44.00486" lon="3.5363">
        <ele>938.2641950272</ele>
        <time>2015-05-31T12:08:06Z</time>
      </trkpt>
      <trkpt lat="44.00484" lon="3.5363">
        <ele>939.01189130896</ele>
        <time>2015-05-31T12:08:21Z</time>
      </trkpt>
      <trkpt lat="44.00493" lon="3.53619">
        <ele>939.58533029301</ele>
        <time>2015-05-31T12:08:29Z</time>
      </trkpt>
      <trkpt lat="44.00494" lon="3.53617">
        <ele>939.58533029301</ele>
        <time>2015-05-31T12:08:31Z</time>
      </trkpt>
      <trkpt lat="44.00526" lon="3.53586">
        <ele>940.00045259915</ele>
        <time>2015-05-31T12:09:01Z</time>
      </trkpt>
      <trkpt lat="44.0053" lon="3.53579">
        <ele>940.00045259915</ele>
        <time>2015-05-31T12:09:06Z</time>
      </trkpt>
      <trkpt lat="44.00533" lon="3.53573">
        <ele>940.27245889391</ele>
        <time>2015-05-31T12:09:11Z</time>
      </trkpt>
      <trkpt lat="44.00536" lon="3.53566">
        <ele>940.27245889391</ele>
        <time>2015-05-31T12:09:16Z</time>
      </trkpt>
      <trkpt lat="44.0054" lon="3.53556">
        <ele>940.44463527583</ele>
        <time>2015-05-31T12:09:24Z</time>
      </trkpt>
      <trkpt lat="44.00541" lon="3.53554">
        <ele>940.44463527583</ele>
        <time>2015-05-31T12:09:33Z</time>
      </trkpt>
      <trkpt lat="44.00562" lon="3.53533">
        <ele>940.7014495017</ele>
        <time>2015-05-31T12:09:54Z</time>
      </trkpt>
      <trkpt lat="44.00562" lon="3.53532">
        <ele>940.7014495017</ele>
        <time>2015-05-31T12:09:56Z</time>
      </trkpt>
      <trkpt lat="44.00567" lon="3.53532">
        <ele>940.7014495017</ele>
        <time>2015-05-31T12:10:01Z</time>
      </trkpt>
      <trkpt lat="44.00571" lon="3.53528">
        <ele>941.04060244323</ele>
        <time>2015-05-31T12:10:08Z</time>
      </trkpt>
      <trkpt lat="44.00581" lon="3.53524">
        <ele>941.41645128321</ele>
        <time>2015-05-31T12:10:13Z</time>
      </trkpt>
      <trkpt lat="44.00583" lon="3.53523">
        <ele>941.41645128321</ele>
        <time>2015-05-31T12:10:21Z</time>
      </trkpt>
      <trkpt lat="44.00626" lon="3.53535">
        <ele>942.43505531332</ele>
        <time>2015-05-31T12:11:01Z</time>
      </trkpt>
      <trkpt lat="44.00676" lon="3.53528">
        <ele>943.92111641596</ele>
        <time>2015-05-31T12:11:46Z</time>
      </trkpt>
      <trkpt lat="44.00688" lon="3.53534">
        <ele>945.40820756048</ele>
        <time>2015-05-31T12:11:53Z</time>
      </trkpt>
      <trkpt lat="44.0069" lon="3.53536">
        <ele>945.40820756048</ele>
        <time>2015-05-31T12:11:56Z</time>
      </trkpt>
      <trkpt lat="44.00696" lon="3.53542">
        <ele>946.93967510445</ele>
        <time>2015-05-31T12:12:02Z</time>
      </trkpt>
      <trkpt lat="44.00699" lon="3.53544">
        <ele>946.93967510445</ele>
        <time>2015-05-31T12:12:06Z</time>
      </trkpt>
      <trkpt lat="44.00728" lon="3.53554">
        <ele>948.20962967222</ele>
        <time>2015-05-31T12:12:33Z</time>
      </trkpt>
      <trkpt lat="44.00732" lon="3.53549">
        <ele>948.20962967222</ele>
        <time>2015-05-31T12:12:36Z</time>
      </trkpt>
      <trkpt lat="44.00735" lon="3.53546">
        <ele>949.18032368163</ele>
        <time>2015-05-31T12:12:41Z</time>
      </trkpt>
      <trkpt lat="44.00742" lon="3.53544">
        <ele>949.18032368163</ele>
        <time>2015-05-31T12:13:06Z</time>
      </trkpt>
      <trkpt lat="44.00745" lon="3.53539">
        <ele>949.83198109048</ele>
        <time>2015-05-31T12:13:11Z</time>
      </trkpt>
      <trkpt lat="44.00748" lon="3.53534">
        <ele>949.83198109048</ele>
        <time>2015-05-31T12:13:16Z</time>
      </trkpt>
      <trkpt lat="44.00754" lon="3.53528">
        <ele>950.3344690788</ele>
        <time>2015-05-31T12:13:21Z</time>
      </trkpt>
      <trkpt lat="44.0076" lon="3.53523">
        <ele>950.3344690788</ele>
        <time>2015-05-31T12:13:26Z</time>
      </trkpt>
      <trkpt lat="44.00763" lon="3.53519">
        <ele>950.71583879545</ele>
        <time>2015-05-31T12:13:31Z</time>
      </trkpt>
      <trkpt lat="44.00767" lon="3.53517">
        <ele>950.71583879545</ele>
        <time>2015-05-31T12:13:36Z</time>
      </trkpt>
      <trkpt lat="44.00789" lon="3.53508">
        <ele>951.08883138297</ele>
        <time>2015-05-31T12:14:01Z</time>
      </trkpt>
      <trkpt lat="44.00793" lon="3.53507">
        <ele>951.08883138297</ele>
        <time>2015-05-31T12:14:06Z</time>
      </trkpt>
      <trkpt lat="44.00797" lon="3.5351">
        <ele>951.08883138297</ele>
        <time>2015-05-31T12:14:13Z</time>
      </trkpt>
      <trkpt lat="44.00801" lon="3.5351">
        <ele>951.61551417602</ele>
        <time>2015-05-31T12:14:31Z</time>
      </trkpt>
      <trkpt lat="44.00827" lon="3.53539">
        <ele>952.22938147608</ele>
        <time>2015-05-31T12:14:56Z</time>
      </trkpt>
      <trkpt lat="44.00828" lon="3.53535">
        <ele>952.22938147608</ele>
        <time>2015-05-31T12:15:02Z</time>
      </trkpt>
      <trkpt lat="44.0083" lon="3.53534">
        <ele>952.22938147608</ele>
        <time>2015-05-31T12:15:06Z</time>
      </trkpt>
      <trkpt lat="44.00835" lon="3.53533">
        <ele>952.88291209295</ele>
        <time>2015-05-31T12:15:11Z</time>
      </trkpt>
      <trkpt lat="44.00836" lon="3.53534">
        <ele>952.88291209295</ele>
        <time>2015-05-31T12:15:18Z</time>
      </trkpt>
      <trkpt lat="44.0084" lon="3.53529">
        <ele>952.88291209295</ele>
        <time>2015-05-31T12:15:56Z</time>
      </trkpt>
      <trkpt lat="44.00841" lon="3.5353">
        <ele>952.88291209295</ele>
        <time>2015-05-31T12:16:01Z</time>
      </trkpt>
      <trkpt lat="44.00831" lon="3.53538">
        <ele>954.19482427262</ele>
        <time>2015-05-31T12:16:56Z</time>
      </trkpt>
      <trkpt lat="44.00837" lon="3.5353">
        <ele>954.19482427262</ele>
        <time>2015-05-31T12:17:02Z</time>
      </trkpt>
      <trkpt lat="44.00839" lon="3.53529">
        <ele>955.69884456326</ele>
        <time>2015-05-31T12:17:06Z</time>
      </trkpt>
      <trkpt lat="44.0084" lon="3.53528">
        <ele>955.69884456326</ele>
        <time>2015-05-31T12:17:17Z</time>
      </trkpt>
      <trkpt lat="44.00862" lon="3.53501">
        <ele>956.96234908574</ele>
        <time>2015-05-31T12:18:06Z</time>
      </trkpt>
      <trkpt lat="44.00866" lon="3.53497">
        <ele>956.96234908574</ele>
        <time>2015-05-31T12:18:11Z</time>
      </trkpt>
      <trkpt lat="44.00868" lon="3.53492">
        <ele>956.96234908574</ele>
        <time>2015-05-31T12:18:16Z</time>
      </trkpt>
      <trkpt lat="44.00872" lon="3.53487">
        <ele>958.19039274158</ele>
        <time>2015-05-31T12:18:21Z</time>
      </trkpt>
      <trkpt lat="44.00876" lon="3.53484">
        <ele>958.19039274158</ele>
        <time>2015-05-31T12:18:28Z</time>
      </trkpt>
      <trkpt lat="44.00881" lon="3.53481">
        <ele>959.28478200791</ele>
        <time>2015-05-31T12:18:31Z</time>
      </trkpt>
      <trkpt lat="44.00885" lon="3.53473">
        <ele>959.28478200791</ele>
        <time>2015-05-31T12:18:36Z</time>
      </trkpt>
      <trkpt lat="44.00891" lon="3.53465">
        <ele>960.15486080381</ele>
        <time>2015-05-31T12:18:47Z</time>
      </trkpt>
      <trkpt lat="44.00907" lon="3.5345">
        <ele>960.73162463366</ele>
        <time>2015-05-31T12:18:53Z</time>
      </trkpt>
      <trkpt lat="44.0091" lon="3.53441">
        <ele>960.73162463366</ele>
        <time>2015-05-31T12:19:06Z</time>
      </trkpt>
      <trkpt lat="44.00902" lon="3.53421">
        <ele>961.22573011567</ele>
        <time>2015-05-31T12:19:27Z</time>
      </trkpt>
      <trkpt lat="44.00878" lon="3.5336">
        <ele>961.63078079475</ele>
        <time>2015-05-31T12:20:04Z</time>
      </trkpt>
      <trkpt lat="44.00864" lon="3.53334">
        <ele>961.89781448034</ele>
        <time>2015-05-31T12:20:21Z</time>
      </trkpt>
      <trkpt lat="44.00861" lon="3.53328">
        <ele>961.89781448034</ele>
        <time>2015-05-31T12:20:26Z</time>
      </trkpt>
      <trkpt lat="44.00867" lon="3.53291">
        <ele>962.52943246666</ele>
        <time>2015-05-31T12:21:06Z</time>
      </trkpt>
      <trkpt lat="44.00871" lon="3.53293">
        <ele>962.52943246666</ele>
        <time>2015-05-31T12:21:11Z</time>
      </trkpt>
      <trkpt lat="44.0092" lon="3.53277">
        <ele>964.79727352234</ele>
        <time>2015-05-31T12:22:06Z</time>
      </trkpt>
      <trkpt lat="44.00926" lon="3.53269">
        <ele>964.79727352234</ele>
        <time>2015-05-31T12:22:17Z</time>
      </trkpt>
      <trkpt lat="44.00956" lon="3.53213">
        <ele>968.14555723747</ele>
        <time>2015-05-31T12:23:06Z</time>
      </trkpt>
      <trkpt lat="44.00959" lon="3.53208">
        <ele>968.14555723747</ele>
        <time>2015-05-31T12:23:11Z</time>
      </trkpt>
      <trkpt lat="44.00964" lon="3.53204">
        <ele>971.55187103761</ele>
        <time>2015-05-31T12:23:16Z</time>
      </trkpt>
      <trkpt lat="44.00968" lon="3.53202">
        <ele>971.55187103761</ele>
        <time>2015-05-31T12:23:27Z</time>
      </trkpt>
      <trkpt lat="44.00973" lon="3.5319">
        <ele>975.13516851719</ele>
        <time>2015-05-31T12:23:31Z</time>
      </trkpt>
      <trkpt lat="44.00977" lon="3.53186">
        <ele>975.13516851719</ele>
        <time>2015-05-31T12:23:44Z</time>
      </trkpt>
      <trkpt lat="44.01001" lon="3.53179">
        <ele>979.40868572421</ele>
        <time>2015-05-31T12:24:01Z</time>
      </trkpt>
      <trkpt lat="44.01007" lon="3.53167">
        <ele>983.08786716139</ele>
        <time>2015-05-31T12:24:06Z</time>
      </trkpt>
      <trkpt lat="44.01017" lon="3.53162">
        <ele>986.42536181969</ele>
        <time>2015-05-31T12:24:11Z</time>
      </trkpt>
      <trkpt lat="44.01021" lon="3.53158">
        <ele>986.42536181969</ele>
        <time>2015-05-31T12:24:16Z</time>
      </trkpt>
      <trkpt lat="44.01027" lon="3.53146">
        <ele>989.20952928631</ele>
        <time>2015-05-31T12:24:33Z</time>
      </trkpt>
      <trkpt lat="44.01053" lon="3.53129">
        <ele>992.21145588339</ele>
        <time>2015-05-31T12:25:06Z</time>
      </trkpt>
      <trkpt lat="44.01104" lon="3.53137">
        <ele>995.04980549004</ele>
        <time>2015-05-31T12:26:06Z</time>
      </trkpt>
      <trkpt lat="44.01108" lon="3.53137">
        <ele>995.04980549004</ele>
        <time>2015-05-31T12:26:11Z</time>
      </trkpt>
      <trkpt lat="44.0112" lon="3.53132">
        <ele>997.84737848652</ele>
        <time>2015-05-31T12:26:18Z</time>
      </trkpt>
      <trkpt lat="44.0112" lon="3.53132">
        <ele>997.84737848652</ele>
        <time>2015-05-31T12:26:28Z</time>
      </trkpt>
      <trkpt lat="44.01145" lon="3.53128">
        <ele>1000.3146558625</ele>
        <time>2015-05-31T12:26:46Z</time>
      </trkpt>
      <trkpt lat="44.01165" lon="3.53125">
        <ele>1003.2076122203</ele>
        <time>2015-05-31T12:26:57Z</time>
      </trkpt>
      <trkpt lat="44.01169" lon="3.53123">
        <ele>1003.2076122203</ele>
        <time>2015-05-31T12:27:03Z</time>
      </trkpt>
      <trkpt lat="44.01177" lon="3.53121">
        <ele>1005.9862432232</ele>
        <time>2015-05-31T12:27:06Z</time>
      </trkpt>
      <trkpt lat="44.01183" lon="3.53117">
        <ele>1005.9862432232</ele>
        <time>2015-05-31T12:27:11Z</time>
      </trkpt>
      <trkpt lat="44.01191" lon="3.53113">
        <ele>1008.7991498492</ele>
        <time>2015-05-31T12:27:27Z</time>
      </trkpt>
      <trkpt lat="44.01229" lon="3.53104">
        <ele>1011.9281488858</ele>
        <time>2015-05-31T12:28:06Z</time>
      </trkpt>
      <trkpt lat="44.01241" lon="3.53108">
        <ele>1013.9618951743</ele>
        <time>2015-05-31T12:29:02Z</time>
      </trkpt>
      <trkpt lat="44.01247" lon="3.53112">
        <ele>1013.9618951743</ele>
        <time>2015-05-31T12:29:32Z</time>
      </trkpt>
      <trkpt lat="44.01289" lon="3.53128">
        <ele>1015.5125933773</ele>
        <time>2015-05-31T12:30:05Z</time>
      </trkpt>
      <trkpt lat="44.01294" lon="3.5313">
        <ele>1015.5125933773</ele>
        <time>2015-05-31T12:30:11Z</time>
      </trkpt>
      <trkpt lat="44.01303" lon="3.53136">
        <ele>1016.8751342513</ele>
        <time>2015-05-31T12:31:00Z</time>
      </trkpt>
      <trkpt lat="44.01353" lon="3.5315">
        <ele>1018.2513271565</ele>
        <time>2015-05-31T12:31:06Z</time>
      </trkpt>
      <trkpt lat="44.01407" lon="3.53175">
        <ele>1020.4911316479</ele>
        <time>2015-05-31T12:32:06Z</time>
      </trkpt>
      <trkpt lat="44.01414" lon="3.53177">
        <ele>1020.4911316479</ele>
        <time>2015-05-31T12:32:11Z</time>
      </trkpt>
      <trkpt lat="44.01442" lon="3.53171">
        <ele>1022.9674520183</ele>
        <time>2015-05-31T12:32:43Z</time>
      </trkpt>
      <trkpt lat="44.01443" lon="3.5317">
        <ele>1022.9674520183</ele>
        <time>2015-05-31T12:32:46Z</time>
      </trkpt>
      <trkpt lat="44.01456" lon="3.53169">
        <ele>1025.4445529353</ele>
        <time>2015-05-31T12:32:57Z</time>
      </trkpt>
      <trkpt lat="44.01465" lon="3.53166">
        <ele>1027.7041019125</ele>
        <time>2015-05-31T12:33:06Z</time>
      </trkpt>
      <trkpt lat="44.01468" lon="3.53166">
        <ele>1027.7041019125</ele>
        <time>2015-05-31T12:33:11Z</time>
      </trkpt>
      <trkpt lat="44.01474" lon="3.53164">
        <ele>1027.7041019125</ele>
        <time>2015-05-31T12:33:16Z</time>
      </trkpt>
      <trkpt lat="44.01481" lon="3.53163">
        <ele>1030.2362362751</ele>
        <time>2015-05-31T12:33:22Z</time>
      </trkpt>
      <trkpt lat="44.01487" lon="3.53163">
        <ele>1030.2362362751</ele>
        <time>2015-05-31T12:33:26Z</time>
      </trkpt>
      <trkpt lat="44.01495" lon="3.53162">
        <ele>1033.0764878437</ele>
        <time>2015-05-31T12:33:31Z</time>
      </trkpt>
      <trkpt lat="44.015" lon="3.53163">
        <ele>1033.0764878437</ele>
        <time>2015-05-31T12:33:36Z</time>
      </trkpt>
      <trkpt lat="44.01505" lon="3.53164">
        <ele>1035.925545086</ele>
        <time>2015-05-31T12:33:41Z</time>
      </trkpt>
      <trkpt lat="44.01508" lon="3.53165">
        <ele>1035.925545086</ele>
        <time>2015-05-31T12:33:46Z</time>
      </trkpt>
      <trkpt lat="44.01512" lon="3.53166">
        <ele>1035.925545086</ele>
        <time>2015-05-31T12:33:51Z</time>
      </trkpt>
      <trkpt lat="44.01516" lon="3.53166">
        <ele>1038.6790798789</ele>
        <time>2015-05-31T12:33:56Z</time>
      </trkpt>
      <trkpt lat="44.01518" lon="3.53165">
        <ele>1038.6790798789</ele>
        <time>2015-05-31T12:34:01Z</time>
      </trkpt>
      <trkpt lat="44.01522" lon="3.53164">
        <ele>1038.6790798789</ele>
        <time>2015-05-31T12:34:06Z</time>
      </trkpt>
      <trkpt lat="44.01528" lon="3.53165">
        <ele>1041.4713624607</ele>
        <time>2015-05-31T12:34:11Z</time>
      </trkpt>
      <trkpt lat="44.01578" lon="3.53139">
        <ele>1045.8102511203</ele>
        <time>2015-05-31T12:35:01Z</time>
      </trkpt>
      <trkpt lat="44.01592" lon="3.53136">
        <ele>1049.8749157052</ele>
        <time>2015-05-31T12:35:10Z</time>
      </trkpt>
      <trkpt lat="44.0162" lon="3.53133">
        <ele>1053.924657836</ele>
        <time>2015-05-31T12:35:36Z</time>
      </trkpt>
      <trkpt lat="44.01641" lon="3.5313">
        <ele>1057.7675510947</ele>
        <time>2015-05-31T12:35:56Z</time>
      </trkpt>
      <trkpt lat="44.01647" lon="3.5313">
        <ele>1057.7675510947</ele>
        <time>2015-05-31T12:36:06Z</time>
      </trkpt>
      <trkpt lat="44.01659" lon="3.53133">
        <ele>1061.3849905067</ele>
        <time>2015-05-31T12:36:11Z</time>
      </trkpt>
      <trkpt lat="44.01663" lon="3.53133">
        <ele>1061.3849905067</ele>
        <time>2015-05-31T12:36:20Z</time>
      </trkpt>
      <trkpt lat="44.01668" lon="3.53133">
        <ele>1064.774906944</ele>
        <time>2015-05-31T12:36:21Z</time>
      </trkpt>
      <trkpt lat="44.01688" lon="3.53144">
        <ele>1068.1667286466</ele>
        <time>2015-05-31T12:36:44Z</time>
      </trkpt>
      <trkpt lat="44.0169" lon="3.53145">
        <ele>1068.1667286466</ele>
        <time>2015-05-31T12:36:48Z</time>
      </trkpt>
      <trkpt lat="44.01706" lon="3.53154">
        <ele>1071.5137552568</ele>
        <time>2015-05-31T12:37:05Z</time>
      </trkpt>
      <trkpt lat="44.01711" lon="3.53157">
        <ele>1071.5137552568</ele>
        <time>2015-05-31T12:37:06Z</time>
      </trkpt>
      <trkpt lat="44.01721" lon="3.5316">
        <ele>1074.6720953959</ele>
        <time>2015-05-31T12:37:13Z</time>
      </trkpt>
      <trkpt lat="44.01723" lon="3.53161">
        <ele>1074.6720953959</ele>
        <time>2015-05-31T12:37:16Z</time>
      </trkpt>
      <trkpt lat="44.01741" lon="3.53158">
        <ele>1077.6387865133</ele>
        <time>2015-05-31T12:37:33Z</time>
      </trkpt>
      <trkpt lat="44.01763" lon="3.53165">
        <ele>1080.3252808145</ele>
        <time>2015-05-31T12:37:49Z</time>
      </trkpt>
      <trkpt lat="44.01764" lon="3.53165">
        <ele>1080.3252808145</ele>
        <time>2015-05-31T12:37:58Z</time>
      </trkpt>
      <trkpt lat="44.01759" lon="3.53134">
        <ele>1082.3333972179</ele>
        <time>2015-05-31T12:38:11Z</time>
      </trkpt>
      <trkpt lat="44.01751" lon="3.53124">
        <ele>1083.4979754028</ele>
        <time>2015-05-31T12:38:16Z</time>
      </trkpt>
      <trkpt lat="44.01746" lon="3.53118">
        <ele>1083.4979754028</ele>
        <time>2015-05-31T12:38:21Z</time>
      </trkpt>
      <trkpt lat="44.01745" lon="3.53116">
        <ele>1083.4979754028</ele>
        <time>2015-05-31T12:38:26Z</time>
      </trkpt>
      <trkpt lat="44.01742" lon="3.53107">
        <ele>1083.5099293864</ele>
        <time>2015-05-31T12:38:36Z</time>
      </trkpt>
      <trkpt lat="44.01738" lon="3.53102">
        <ele>1083.5099293864</ele>
        <time>2015-05-31T12:38:41Z</time>
      </trkpt>
      <trkpt lat="44.01735" lon="3.53099">
        <ele>1083.5099293864</ele>
        <time>2015-05-31T12:38:46Z</time>
      </trkpt>
      <trkpt lat="44.01733" lon="3.53097">
        <ele>1083.1093805911</ele>
        <time>2015-05-31T12:38:51Z</time>
      </trkpt>
      <trkpt lat="44.01732" lon="3.53098">
        <ele>1083.1093805911</ele>
        <time>2015-05-31T12:38:56Z</time>
      </trkpt>
      <trkpt lat="44.0173" lon="3.53094">
        <ele>1083.1093805911</ele>
        <time>2015-05-31T12:39:06Z</time>
      </trkpt>
      <trkpt lat="44.01727" lon="3.5309">
        <ele>1082.0465698526</ele>
        <time>2015-05-31T12:39:11Z</time>
      </trkpt>
      <trkpt lat="44.01725" lon="3.53088">
        <ele>1082.0465698526</ele>
        <time>2015-05-31T12:39:16Z</time>
      </trkpt>
      <trkpt lat="44.0172" lon="3.53079">
        <ele>1080.6107692337</ele>
        <time>2015-05-31T12:39:21Z</time>
      </trkpt>
      <trkpt lat="44.01717" lon="3.53073">
        <ele>1080.6107692337</ele>
        <time>2015-05-31T12:39:26Z</time>
      </trkpt>
      <trkpt lat="44.01715" lon="3.53069">
        <ele>1080.6107692337</ele>
        <time>2015-05-31T12:39:31Z</time>
      </trkpt>
      <trkpt lat="44.01713" lon="3.53065">
        <ele>1079.0566310066</ele>
        <time>2015-05-31T12:39:36Z</time>
      </trkpt>
      <trkpt lat="44.0171" lon="3.53058">
        <ele>1079.0566310066</ele>
        <time>2015-05-31T12:39:41Z</time>
      </trkpt>
      <trkpt lat="44.01707" lon="3.53054">
        <ele>1077.3898180254</ele>
        <time>2015-05-31T12:39:46Z</time>
      </trkpt>
      <trkpt lat="44.01705" lon="3.53049">
        <ele>1077.3898180254</ele>
        <time>2015-05-31T12:39:51Z</time>
      </trkpt>
      <trkpt lat="44.01705" lon="3.53048">
        <ele>1077.3898180254</ele>
        <time>2015-05-31T12:39:56Z</time>
      </trkpt>
      <trkpt lat="44.01704" lon="3.53049">
        <ele>1077.3898180254</ele>
        <time>2015-05-31T12:40:01Z</time>
      </trkpt>
      <trkpt lat="44.01702" lon="3.53062">
        <ele>1075.1114350359</ele>
        <time>2015-05-31T12:41:11Z</time>
      </trkpt>
      <trkpt lat="44.01712" lon="3.53063">
        <ele>1072.8560961521</ele>
        <time>2015-05-31T12:41:51Z</time>
      </trkpt>
      <trkpt lat="44.01706" lon="3.5305">
        <ele>1070.6207461004</ele>
        <time>2015-05-31T12:42:01Z</time>
      </trkpt>
      <trkpt lat="44.01701" lon="3.5304">
        <ele>1068.3735166843</ele>
        <time>2015-05-31T12:42:06Z</time>
      </trkpt>
      <trkpt lat="44.01696" lon="3.53033">
        <ele>1068.3735166843</ele>
        <time>2015-05-31T12:42:11Z</time>
      </trkpt>
      <trkpt lat="44.01692" lon="3.53029">
        <ele>1066.2288395483</ele>
        <time>2015-05-31T12:42:16Z</time>
      </trkpt>
      <trkpt lat="44.0169" lon="3.53024">
        <ele>1066.2288395483</ele>
        <time>2015-05-31T12:42:21Z</time>
      </trkpt>
      <trkpt lat="44.01685" lon="3.53018">
        <ele>1064.205776448</ele>
        <time>2015-05-31T12:42:26Z</time>
      </trkpt>
      <trkpt lat="44.0168" lon="3.53011">
        <ele>1064.205776448</ele>
        <time>2015-05-31T12:42:31Z</time>
      </trkpt>
      <trkpt lat="44.01678" lon="3.53006">
        <ele>1062.3934734313</ele>
        <time>2015-05-31T12:42:36Z</time>
      </trkpt>
      <trkpt lat="44.01676" lon="3.53003">
        <ele>1062.3934734313</ele>
        <time>2015-05-31T12:42:42Z</time>
      </trkpt>
      <trkpt lat="44.01673" lon="3.52996">
        <ele>1062.3934734313</ele>
        <time>2015-05-31T12:42:46Z</time>
      </trkpt>
      <trkpt lat="44.01671" lon="3.52988">
        <ele>1060.6287003498</ele>
        <time>2015-05-31T12:42:51Z</time>
      </trkpt>
      <trkpt lat="44.01668" lon="3.52983">
        <ele>1060.6287003498</ele>
        <time>2015-05-31T12:42:56Z</time>
      </trkpt>
      <trkpt lat="44.01665" lon="3.52977">
        <ele>1058.9183451522</ele>
        <time>2015-05-31T12:43:01Z</time>
      </trkpt>
      <trkpt lat="44.01664" lon="3.5297">
        <ele>1058.9183451522</ele>
        <time>2015-05-31T12:43:06Z</time>
      </trkpt>
      <trkpt lat="44.01662" lon="3.52961">
        <ele>1057.2683638333</ele>
        <time>2015-05-31T12:43:11Z</time>
      </trkpt>
      <trkpt lat="44.01658" lon="3.52957">
        <ele>1057.2683638333</ele>
        <time>2015-05-31T12:43:16Z</time>
      </trkpt>
      <trkpt lat="44.01652" lon="3.5295">
        <ele>1055.6694118171</ele>
        <time>2015-05-31T12:43:21Z</time>
      </trkpt>
      <trkpt lat="44.01647" lon="3.52948">
        <ele>1055.6694118171</ele>
        <time>2015-05-31T12:43:26Z</time>
      </trkpt>
      <trkpt lat="44.01642" lon="3.5294">
        <ele>1054.1412202928</ele>
        <time>2015-05-31T12:43:31Z</time>
      </trkpt>
      <trkpt lat="44.01638" lon="3.52933">
        <ele>1054.1412202928</ele>
        <time>2015-05-31T12:43:36Z</time>
      </trkpt>
      <trkpt lat="44.01636" lon="3.52929">
        <ele>1052.7159886515</ele>
        <time>2015-05-31T12:43:41Z</time>
      </trkpt>
      <trkpt lat="44.01629" lon="3.52921">
        <ele>1052.7159886515</ele>
        <time>2015-05-31T12:43:46Z</time>
      </trkpt>
      <trkpt lat="44.01625" lon="3.52914">
        <ele>1051.4085527731</ele>
        <time>2015-05-31T12:43:51Z</time>
      </trkpt>
      <trkpt lat="44.01621" lon="3.5291">
        <ele>1051.4085527731</ele>
        <time>2015-05-31T12:43:56Z</time>
      </trkpt>
      <trkpt lat="44.01618" lon="3.52905">
        <ele>1050.2464398964</ele>
        <time>2015-05-31T12:44:01Z</time>
      </trkpt>
      <trkpt lat="44.01616" lon="3.52897">
        <ele>1050.2464398964</ele>
        <time>2015-05-31T12:44:06Z</time>
      </trkpt>
      <trkpt lat="44.0161" lon="3.52893">
        <ele>1049.2256264731</ele>
        <time>2015-05-31T12:44:11Z</time>
      </trkpt>
      <trkpt lat="44.01606" lon="3.52887">
        <ele>1049.2256264731</ele>
        <time>2015-05-31T12:44:16Z</time>
      </trkpt>
      <trkpt lat="44.01601" lon="3.52882">
        <ele>1048.3272809271</ele>
        <time>2015-05-31T12:44:21Z</time>
      </trkpt>
      <trkpt lat="44.01595" lon="3.52876">
        <ele>1048.3272809271</ele>
        <time>2015-05-31T12:44:26Z</time>
      </trkpt>
      <trkpt lat="44.0159" lon="3.52868">
        <ele>1047.6197866726</ele>
        <time>2015-05-31T12:44:31Z</time>
      </trkpt>
      <trkpt lat="44.01587" lon="3.52864">
        <ele>1047.6197866726</ele>
        <time>2015-05-31T12:44:36Z</time>
      </trkpt>
      <trkpt lat="44.01583" lon="3.52867">
        <ele>1047.6197866726</ele>
        <time>2015-05-31T12:44:41Z</time>
      </trkpt>
      <trkpt lat="44.01586" lon="3.52869">
        <ele>1047.2665613487</ele>
        <time>2015-05-31T12:44:46Z</time>
      </trkpt>
      <trkpt lat="44.01589" lon="3.52873">
        <ele>1047.2665613487</ele>
        <time>2015-05-31T12:44:51Z</time>
      </trkpt>
      <trkpt lat="44.01592" lon="3.52878">
        <ele>1047.2665613487</ele>
        <time>2015-05-31T12:44:56Z</time>
      </trkpt>
      <trkpt lat="44.01596" lon="3.52883">
        <ele>1047.3456929473</ele>
        <time>2015-05-31T12:45:01Z</time>
      </trkpt>
      <trkpt lat="44.01599" lon="3.52887">
        <ele>1047.3456929473</ele>
        <time>2015-05-31T12:45:06Z</time>
      </trkpt>
      <trkpt lat="44.01603" lon="3.52889">
        <ele>1047.3456929473</ele>
        <time>2015-05-31T12:45:11Z</time>
      </trkpt>
      <trkpt lat="44.01608" lon="3.52894">
        <ele>1047.6542449027</ele>
        <time>2015-05-31T12:45:16Z</time>
      </trkpt>
      <trkpt lat="44.01615" lon="3.52903">
        <ele>1048.0753498866</ele>
        <time>2015-05-31T12:45:21Z</time>
      </trkpt>
      <trkpt lat="44.01619" lon="3.52907">
        <ele>1048.0753498866</ele>
        <time>2015-05-31T12:45:26Z</time>
      </trkpt>
      <trkpt lat="44.01625" lon="3.52909">
        <ele>1048.5866417999</ele>
        <time>2015-05-31T12:45:31Z</time>
      </trkpt>
      <trkpt lat="44.0163" lon="3.52911">
        <ele>1048.5866417999</ele>
        <time>2015-05-31T12:45:36Z</time>
      </trkpt>
      <trkpt lat="44.01634" lon="3.52915">
        <ele>1049.2389821798</ele>
        <time>2015-05-31T12:45:41Z</time>
      </trkpt>
      <trkpt lat="44.01636" lon="3.52916">
        <ele>1049.2389821798</ele>
        <time>2015-05-31T12:45:46Z</time>
      </trkpt>
      <trkpt lat="44.01639" lon="3.5292">
        <ele>1049.2389821798</ele>
        <time>2015-05-31T12:45:51Z</time>
      </trkpt>
      <trkpt lat="44.01644" lon="3.52926">
        <ele>1050.0212555101</ele>
        <time>2015-05-31T12:45:56Z</time>
      </trkpt>
      <trkpt lat="44.01647" lon="3.5293">
        <ele>1050.0212555101</ele>
        <time>2015-05-31T12:46:01Z</time>
      </trkpt>
      <trkpt lat="44.01649" lon="3.52934">
        <ele>1050.0212555101</ele>
        <time>2015-05-31T12:46:06Z</time>
      </trkpt>
      <trkpt lat="44.01652" lon="3.52938">
        <ele>1050.9514375466</ele>
        <time>2015-05-31T12:46:11Z</time>
      </trkpt>
      <trkpt lat="44.01656" lon="3.52943">
        <ele>1050.9514375466</ele>
        <time>2015-05-31T12:46:16Z</time>
      </trkpt>
      <trkpt lat="44.01659" lon="3.52946">
        <ele>1051.9014922173</ele>
        <time>2015-05-31T12:46:21Z</time>
      </trkpt>
      <trkpt lat="44.01664" lon="3.5295">
        <ele>1051.9014922173</ele>
        <time>2015-05-31T12:46:26Z</time>
      </trkpt>
      <trkpt lat="44.01669" lon="3.52959">
        <ele>1052.8678745585</ele>
        <time>2015-05-31T12:46:31Z</time>
      </trkpt>
      <trkpt lat="44.01673" lon="3.52963">
        <ele>1052.8678745585</ele>
        <time>2015-05-31T12:46:36Z</time>
      </trkpt>
      <trkpt lat="44.01675" lon="3.5297">
        <ele>1053.875946331</ele>
        <time>2015-05-31T12:46:41Z</time>
      </trkpt>
      <trkpt lat="44.01679" lon="3.52974">
        <ele>1053.875946331</ele>
        <time>2015-05-31T12:46:46Z</time>
      </trkpt>
      <trkpt lat="44.01685" lon="3.5298">
        <ele>1054.8048646728</ele>
        <time>2015-05-31T12:46:51Z</time>
      </trkpt>
      <trkpt lat="44.01691" lon="3.52987">
        <ele>1054.8048646728</ele>
        <time>2015-05-31T12:46:56Z</time>
      </trkpt>
      <trkpt lat="44.01694" lon="3.52991">
        <ele>1055.7445438122</ele>
        <time>2015-05-31T12:47:01Z</time>
      </trkpt>
      <trkpt lat="44.01698" lon="3.52996">
        <ele>1055.7445438122</ele>
        <time>2015-05-31T12:47:06Z</time>
      </trkpt>
      <trkpt lat="44.01703" lon="3.53">
        <ele>1056.7925912597</ele>
        <time>2015-05-31T12:47:11Z</time>
      </trkpt>
      <trkpt lat="44.0171" lon="3.53008">
        <ele>1056.7925912597</ele>
        <time>2015-05-31T12:47:16Z</time>
      </trkpt>
      <trkpt lat="44.01715" lon="3.53015">
        <ele>1057.8373162954</ele>
        <time>2015-05-31T12:47:21Z</time>
      </trkpt>
      <trkpt lat="44.01721" lon="3.5302">
        <ele>1057.8373162954</ele>
        <time>2015-05-31T12:47:26Z</time>
      </trkpt>
      <trkpt lat="44.01725" lon="3.53027">
        <ele>1058.8760651227</ele>
        <time>2015-05-31T12:47:31Z</time>
      </trkpt>
      <trkpt lat="44.01732" lon="3.53034">
        <ele>1058.8760651227</ele>
        <time>2015-05-31T12:47:36Z</time>
      </trkpt>
      <trkpt lat="44.01736" lon="3.53038">
        <ele>1059.8631200704</ele>
        <time>2015-05-31T12:47:41Z</time>
      </trkpt>
      <trkpt lat="44.01745" lon="3.53045">
        <ele>1060.770647554</ele>
        <time>2015-05-31T12:47:46Z</time>
      </trkpt>
      <trkpt lat="44.01752" lon="3.53053">
        <ele>1060.770647554</ele>
        <time>2015-05-31T12:47:51Z</time>
      </trkpt>
      <trkpt lat="44.01758" lon="3.53056">
        <ele>1061.6883509952</ele>
        <time>2015-05-31T12:47:56Z</time>
      </trkpt>
      <trkpt lat="44.01762" lon="3.53059">
        <ele>1061.6883509952</ele>
        <time>2015-05-31T12:48:01Z</time>
      </trkpt>
      <trkpt lat="44.01767" lon="3.5306">
        <ele>1062.4975499697</ele>
        <time>2015-05-31T12:48:06Z</time>
      </trkpt>
      <trkpt lat="44.01771" lon="3.5306">
        <ele>1062.4975499697</ele>
        <time>2015-05-31T12:48:11Z</time>
      </trkpt>
      <trkpt lat="44.01777" lon="3.53061">
        <ele>1063.160640374</ele>
        <time>2015-05-31T12:48:16Z</time>
      </trkpt>
      <trkpt lat="44.01783" lon="3.53058">
        <ele>1063.160640374</ele>
        <time>2015-05-31T12:48:22Z</time>
      </trkpt>
      <trkpt lat="44.01786" lon="3.53058">
        <ele>1063.8305401703</ele>
        <time>2015-05-31T12:48:26Z</time>
      </trkpt>
      <trkpt lat="44.01791" lon="3.53061">
        <ele>1063.8305401703</ele>
        <time>2015-05-31T12:48:31Z</time>
      </trkpt>
      <trkpt lat="44.01794" lon="3.53061">
        <ele>1063.8305401703</ele>
        <time>2015-05-31T12:48:36Z</time>
      </trkpt>
      <trkpt lat="44.01797" lon="3.53062">
        <ele>1064.4471706018</ele>
        <time>2015-05-31T12:48:41Z</time>
      </trkpt>
      <trkpt lat="44.01802" lon="3.53063">
        <ele>1064.4471706018</ele>
        <time>2015-05-31T12:48:46Z</time>
      </trkpt>
      <trkpt lat="44.01805" lon="3.53065">
        <ele>1064.4471706018</ele>
        <time>2015-05-31T12:48:51Z</time>
      </trkpt>
      <trkpt lat="44.01809" lon="3.53068">
        <ele>1065.012676365</ele>
        <time>2015-05-31T12:48:56Z</time>
      </trkpt>
      <trkpt lat="44.01811" lon="3.53071">
        <ele>1065.012676365</ele>
        <time>2015-05-31T12:49:04Z</time>
      </trkpt>
      <trkpt lat="44.01815" lon="3.53074">
        <ele>1065.012676365</ele>
        <time>2015-05-31T12:49:06Z</time>
      </trkpt>
      <trkpt lat="44.01877" lon="3.53118">
        <ele>1065.6300862634</ele>
        <time>2015-05-31T12:49:56Z</time>
      </trkpt>
      <trkpt lat="44.01883" lon="3.53123">
        <ele>1065.6300862634</ele>
        <time>2015-05-31T12:50:01Z</time>
      </trkpt>
      <trkpt lat="44.01889" lon="3.53127">
        <ele>1066.1785723056</ele>
        <time>2015-05-31T12:50:06Z</time>
      </trkpt>
      <trkpt lat="44.0189" lon="3.53129">
        <ele>1066.1785723056</ele>
        <time>2015-05-31T12:50:14Z</time>
      </trkpt>
      <trkpt lat="44.01899" lon="3.53138">
        <ele>1066.6905139878</ele>
        <time>2015-05-31T12:50:16Z</time>
      </trkpt>
      <trkpt lat="44.0194" lon="3.53179">
        <ele>1067.1095774409</ele>
        <time>2015-05-31T12:50:56Z</time>
      </trkpt>
      <trkpt lat="44.01942" lon="3.53186">
        <ele>1067.1095774409</ele>
        <time>2015-05-31T12:51:11Z</time>
      </trkpt>
      <trkpt lat="44.01963" lon="3.5327">
        <ele>1069.3149516017</ele>
        <time>2015-05-31T12:51:56Z</time>
      </trkpt>
      <trkpt lat="44.01967" lon="3.5328">
        <ele>1069.3149516017</ele>
        <time>2015-05-31T12:52:01Z</time>
      </trkpt>
      <trkpt lat="44.01976" lon="3.53341">
        <ele>1072.8235012933</ele>
        <time>2015-05-31T12:53:01Z</time>
      </trkpt>
      <trkpt lat="44.01971" lon="3.53345">
        <ele>1072.8235012933</ele>
        <time>2015-05-31T12:53:06Z</time>
      </trkpt>
      <trkpt lat="44.01966" lon="3.53349">
        <ele>1076.074326223</ele>
        <time>2015-05-31T12:53:11Z</time>
      </trkpt>
      <trkpt lat="44.01942" lon="3.53367">
        <ele>1079.1639743179</ele>
        <time>2015-05-31T12:53:31Z</time>
      </trkpt>
      <trkpt lat="44.01938" lon="3.53368">
        <ele>1079.1639743179</ele>
        <time>2015-05-31T12:53:36Z</time>
      </trkpt>
      <trkpt lat="44.01924" lon="3.53364">
        <ele>1082.081567913</ele>
        <time>2015-05-31T12:53:46Z</time>
      </trkpt>
      <trkpt lat="44.01922" lon="3.53363">
        <ele>1082.081567913</ele>
        <time>2015-05-31T12:53:56Z</time>
      </trkpt>
      <trkpt lat="44.01911" lon="3.53366">
        <ele>1084.7743882125</ele>
        <time>2015-05-31T12:53:56Z</time>
      </trkpt>
      <trkpt lat="44.01907" lon="3.53366">
        <ele>1084.7743882125</ele>
        <time>2015-05-31T12:54:01Z</time>
      </trkpt>
      <trkpt lat="44.01902" lon="3.53367">
        <ele>1084.7743882125</ele>
        <time>2015-05-31T12:54:11Z</time>
      </trkpt>
      <trkpt lat="44.01889" lon="3.53373">
        <ele>1087.4105118297</ele>
        <time>2015-05-31T12:54:21Z</time>
      </trkpt>
      <trkpt lat="44.01801" lon="3.53374">
        <ele>1090.3621326326</ele>
        <time>2015-05-31T12:55:23Z</time>
      </trkpt>
      <trkpt lat="44.01757" lon="3.5338">
        <ele>1093.5410345183</ele>
        <time>2015-05-31T12:56:01Z</time>
      </trkpt>
      <trkpt lat="44.0175" lon="3.53378">
        <ele>1093.5410345183</ele>
        <time>2015-05-31T12:56:07Z</time>
      </trkpt>
      <trkpt lat="44.0174" lon="3.53379">
        <ele>1096.8938270509</ele>
        <time>2015-05-31T12:56:13Z</time>
      </trkpt>
      <trkpt lat="44.01718" lon="3.534">
        <ele>1100.3995481427</ele>
        <time>2015-05-31T12:56:34Z</time>
      </trkpt>
      <trkpt lat="44.01716" lon="3.53402">
        <ele>1100.3995481427</ele>
        <time>2015-05-31T12:56:37Z</time>
      </trkpt>
      <trkpt lat="44.01699" lon="3.53419">
        <ele>1103.7647182473</ele>
        <time>2015-05-31T12:56:56Z</time>
      </trkpt>
      <trkpt lat="44.01695" lon="3.53423">
        <ele>1103.7647182473</ele>
        <time>2015-05-31T12:57:04Z</time>
      </trkpt>
      <trkpt lat="44.01684" lon="3.53429">
        <ele>1107.0206375012</ele>
        <time>2015-05-31T12:57:20Z</time>
      </trkpt>
      <trkpt lat="44.01665" lon="3.53441">
        <ele>1110.1103483008</ele>
        <time>2015-05-31T12:57:40Z</time>
      </trkpt>
      <trkpt lat="44.01649" lon="3.53456">
        <ele>1113.0393962021</ele>
        <time>2015-05-31T12:57:55Z</time>
      </trkpt>
      <trkpt lat="44.01641" lon="3.5346">
        <ele>1113.0393962021</ele>
        <time>2015-05-31T12:57:56Z</time>
      </trkpt>
      <trkpt lat="44.01635" lon="3.5347">
        <ele>1116.0441609389</ele>
        <time>2015-05-31T12:58:02Z</time>
      </trkpt>
      <trkpt lat="44.01632" lon="3.53474">
        <ele>1116.0441609389</ele>
        <time>2015-05-31T12:58:06Z</time>
      </trkpt>
      <trkpt lat="44.01625" lon="3.5348">
        <ele>1118.6807494072</ele>
        <time>2015-05-31T12:58:15Z</time>
      </trkpt>
      <trkpt lat="44.01623" lon="3.53483">
        <ele>1118.6807494072</ele>
        <time>2015-05-31T12:58:16Z</time>
      </trkpt>
      <trkpt lat="44.01598" lon="3.535">
        <ele>1121.0867473239</ele>
        <time>2015-05-31T12:58:47Z</time>
      </trkpt>
      <trkpt lat="44.01589" lon="3.53503">
        <ele>1123.2752047874</ele>
        <time>2015-05-31T12:58:47Z</time>
      </trkpt>
      <trkpt lat="44.01587" lon="3.53504">
        <ele>1123.2752047874</ele>
        <time>2015-05-31T12:58:55Z</time>
      </trkpt>
      <trkpt lat="44.01578" lon="3.5351">
        <ele>1125.2734437999</ele>
        <time>2015-05-31T12:59:01Z</time>
      </trkpt>
      <trkpt lat="44.01573" lon="3.53514">
        <ele>1125.2734437999</ele>
        <time>2015-05-31T12:59:06Z</time>
      </trkpt>
      <trkpt lat="44.01569" lon="3.53513">
        <ele>1127.0354598992</ele>
        <time>2015-05-31T12:59:11Z</time>
      </trkpt>
      <trkpt lat="44.01557" lon="3.53513">
        <ele>1128.6059515052</ele>
        <time>2015-05-31T12:59:27Z</time>
      </trkpt>
      <trkpt lat="44.01547" lon="3.53515">
        <ele>1129.9982324357</ele>
        <time>2015-05-31T12:59:31Z</time>
      </trkpt>
      <trkpt lat="44.01542" lon="3.53513">
        <ele>1129.9982324357</ele>
        <time>2015-05-31T12:59:36Z</time>
      </trkpt>
      <trkpt lat="44.01524" lon="3.53514">
        <ele>1131.5135335118</ele>
        <time>2015-05-31T12:59:52Z</time>
      </trkpt>
      <trkpt lat="44.01515" lon="3.53519">
        <ele>1132.8831505963</ele>
        <time>2015-05-31T12:59:56Z</time>
      </trkpt>
      <trkpt lat="44.0151" lon="3.53521">
        <ele>1132.8831505963</ele>
        <time>2015-05-31T13:00:03Z</time>
      </trkpt>
      <trkpt lat="44.01505" lon="3.53523">
        <ele>1134.0748422744</ele>
        <time>2015-05-31T13:00:06Z</time>
      </trkpt>
      <trkpt lat="44.01494" lon="3.53528">
        <ele>1135.3043597634</ele>
        <time>2015-05-31T13:00:34Z</time>
      </trkpt>
      <trkpt lat="44.01494" lon="3.53529">
        <ele>1135.3043597634</ele>
        <time>2015-05-31T13:00:52Z</time>
      </trkpt>
      <trkpt lat="44.01483" lon="3.53534">
        <ele>1136.6419231627</ele>
        <time>2015-05-31T13:00:56Z</time>
      </trkpt>
      <trkpt lat="44.01476" lon="3.53535">
        <ele>1136.6419231627</ele>
        <time>2015-05-31T13:01:01Z</time>
      </trkpt>
      <trkpt lat="44.01471" lon="3.53532">
        <ele>1137.8497696084</ele>
        <time>2015-05-31T13:01:06Z</time>
      </trkpt>
      <trkpt lat="44.01465" lon="3.53531">
        <ele>1137.8497696084</ele>
        <time>2015-05-31T13:01:11Z</time>
      </trkpt>
      <trkpt lat="44.01461" lon="3.53531">
        <ele>1139.0106997112</ele>
        <time>2015-05-31T13:01:16Z</time>
      </trkpt>
      <trkpt lat="44.01455" lon="3.53533">
        <ele>1139.0106997112</ele>
        <time>2015-05-31T13:01:21Z</time>
      </trkpt>
      <trkpt lat="44.01447" lon="3.53537">
        <ele>1140.0863631627</ele>
        <time>2015-05-31T13:01:26Z</time>
      </trkpt>
      <trkpt lat="44.01439" lon="3.53538">
        <ele>1140.0863631627</ele>
        <time>2015-05-31T13:01:31Z</time>
      </trkpt>
      <trkpt lat="44.01432" lon="3.53539">
        <ele>1141.0415436636</ele>
        <time>2015-05-31T13:01:36Z</time>
      </trkpt>
      <trkpt lat="44.01426" lon="3.53541">
        <ele>1141.0415436636</ele>
        <time>2015-05-31T13:01:41Z</time>
      </trkpt>
      <trkpt lat="44.01425" lon="3.5354">
        <ele>1141.0415436636</ele>
        <time>2015-05-31T13:01:46Z</time>
      </trkpt>
      <trkpt lat="44.01425" lon="3.5354">
        <ele>1141.0415436636</ele>
        <time>2015-05-31T13:01:51Z</time>
      </trkpt>
      <trkpt lat="44.01421" lon="3.53543">
        <ele>1141.8728382652</ele>
        <time>2015-05-31T13:02:17Z</time>
      </trkpt>
      <trkpt lat="44.01415" lon="3.53545">
        <ele>1141.8728382652</ele>
        <time>2015-05-31T13:02:21Z</time>
      </trkpt>
      <trkpt lat="44.01408" lon="3.53547">
        <ele>1142.5054403273</ele>
        <time>2015-05-31T13:02:26Z</time>
      </trkpt>
      <trkpt lat="44.01405" lon="3.53548">
        <ele>1142.5054403273</ele>
        <time>2015-05-31T13:02:37Z</time>
      </trkpt>
      <trkpt lat="44.0139" lon="3.53559">
        <ele>1142.9571046898</ele>
        <time>2015-05-31T13:02:49Z</time>
      </trkpt>
      <trkpt lat="44.01388" lon="3.53569">
        <ele>1142.9571046898</ele>
        <time>2015-05-31T13:02:51Z</time>
      </trkpt>
      <trkpt lat="44.01387" lon="3.53574">
        <ele>1143.4753971398</ele>
        <time>2015-05-31T13:02:56Z</time>
      </trkpt>
      <trkpt lat="44.0139" lon="3.53578">
        <ele>1143.4753971398</ele>
        <time>2015-05-31T13:03:02Z</time>
      </trkpt>
      <trkpt lat="44.01394" lon="3.53581">
        <ele>1143.4753971398</ele>
        <time>2015-05-31T13:03:06Z</time>
      </trkpt>
      <trkpt lat="44.01412" lon="3.53576">
        <ele>1144.188650422</ele>
        <time>2015-05-31T13:03:26Z</time>
      </trkpt>
      <trkpt lat="44.01419" lon="3.53567">
        <ele>1144.9846517083</ele>
        <time>2015-05-31T13:03:41Z</time>
      </trkpt>
      <trkpt lat="44.01441" lon="3.53565">
        <ele>1145.9897738007</ele>
        <time>2015-05-31T13:04:01Z</time>
      </trkpt>
      <trkpt lat="44.01459" lon="3.53569">
        <ele>1146.9314081504</ele>
        <time>2015-05-31T13:04:26Z</time>
      </trkpt>
      <trkpt lat="44.01472" lon="3.5357">
        <ele>1147.8165320276</ele>
        <time>2015-05-31T13:04:42Z</time>
      </trkpt>
      <trkpt lat="44.01493" lon="3.53573">
        <ele>1148.6085112553</ele>
        <time>2015-05-31T13:05:01Z</time>
      </trkpt>
      <trkpt lat="44.01501" lon="3.53578">
        <ele>1148.6085112553</ele>
        <time>2015-05-31T13:05:06Z</time>
      </trkpt>
      <trkpt lat="44.01516" lon="3.53584">
        <ele>1149.6195015984</ele>
        <time>2015-05-31T13:05:20Z</time>
      </trkpt>
      <trkpt lat="44.01521" lon="3.53585">
        <ele>1149.6195015984</ele>
        <time>2015-05-31T13:05:26Z</time>
      </trkpt>
      <trkpt lat="44.01522" lon="3.53585">
        <ele>1149.6195015984</ele>
        <time>2015-05-31T13:05:31Z</time>
      </trkpt>
      <trkpt lat="44.01522" lon="3.53586">
        <ele>1149.6195015984</ele>
        <time>2015-05-31T13:05:51Z</time>
      </trkpt>
      <trkpt lat="44.01524" lon="3.53588">
        <ele>1149.9419556772</ele>
        <time>2015-05-31T13:05:56Z</time>
      </trkpt>
      <trkpt lat="44.01524" lon="3.53589">
        <ele>1149.9419556772</ele>
        <time>2015-05-31T13:06:01Z</time>
      </trkpt>
      <trkpt lat="44.01527" lon="3.53591">
        <ele>1149.9419556772</ele>
        <time>2015-05-31T13:06:11Z</time>
      </trkpt>
      <trkpt lat="44.01531" lon="3.53593">
        <ele>1149.9419556772</ele>
        <time>2015-05-31T13:06:19Z</time>
      </trkpt>
      <trkpt lat="44.01558" lon="3.53604">
        <ele>1150.250051307</ele>
        <time>2015-05-31T13:06:41Z</time>
      </trkpt>
      <trkpt lat="44.0158" lon="3.53602">
        <ele>1150.606400179</ele>
        <time>2015-05-31T13:07:01Z</time>
      </trkpt>
      <trkpt lat="44.01583" lon="3.536">
        <ele>1150.606400179</ele>
        <time>2015-05-31T13:07:06Z</time>
      </trkpt>
      <trkpt lat="44.01588" lon="3.53597">
        <ele>1150.9391239273</ele>
        <time>2015-05-31T13:07:11Z</time>
      </trkpt>
      <trkpt lat="44.01592" lon="3.53593">
        <ele>1150.9391239273</ele>
        <time>2015-05-31T13:07:16Z</time>
      </trkpt>
      <trkpt lat="44.01596" lon="3.53594">
        <ele>1150.9391239273</ele>
        <time>2015-05-31T13:07:21Z</time>
      </trkpt>
      <trkpt lat="44.01603" lon="3.53597">
        <ele>1151.3401505133</ele>
        <time>2015-05-31T13:07:26Z</time>
      </trkpt>
      <trkpt lat="44.01606" lon="3.53593">
        <ele>1151.3401505133</ele>
        <time>2015-05-31T13:07:31Z</time>
      </trkpt>
      <trkpt lat="44.01614" lon="3.53589">
        <ele>1151.8943949136</ele>
        <time>2015-05-31T13:07:36Z</time>
      </trkpt>
      <trkpt lat="44.01619" lon="3.53586">
        <ele>1151.8943949136</ele>
        <time>2015-05-31T13:07:41Z</time>
      </trkpt>
      <trkpt lat="44.01624" lon="3.53583">
        <ele>1152.4926866405</ele>
        <time>2015-05-31T13:07:46Z</time>
      </trkpt>
      <trkpt lat="44.01629" lon="3.53578">
        <ele>1152.4926866405</ele>
        <time>2015-05-31T13:07:51Z</time>
      </trkpt>
      <trkpt lat="44.01636" lon="3.53577">
        <ele>1153.0913185408</ele>
        <time>2015-05-31T13:07:56Z</time>
      </trkpt>
      <trkpt lat="44.01641" lon="3.53574">
        <ele>1153.0913185408</ele>
        <time>2015-05-31T13:08:01Z</time>
      </trkpt>
      <trkpt lat="44.01646" lon="3.53575">
        <ele>1153.7217688522</ele>
        <time>2015-05-31T13:08:06Z</time>
      </trkpt>
      <trkpt lat="44.01652" lon="3.53574">
        <ele>1153.7217688522</ele>
        <time>2015-05-31T13:08:11Z</time>
      </trkpt>
      <trkpt lat="44.01659" lon="3.53575">
        <ele>1154.3842100819</ele>
        <time>2015-05-31T13:08:16Z</time>
      </trkpt>
      <trkpt lat="44.01669" lon="3.53581">
        <ele>1155.0065734419</ele>
        <time>2015-05-31T13:08:21Z</time>
      </trkpt>
      <trkpt lat="44.01678" lon="3.53583">
        <ele>1155.0065734419</ele>
        <time>2015-05-31T13:08:26Z</time>
      </trkpt>
      <trkpt lat="44.01687" lon="3.53588">
        <ele>1155.7238682142</ele>
        <time>2015-05-31T13:08:31Z</time>
      </trkpt>
      <trkpt lat="44.01693" lon="3.5359">
        <ele>1155.7238682142</ele>
        <time>2015-05-31T13:08:36Z</time>
      </trkpt>
      <trkpt lat="44.01698" lon="3.53592">
        <ele>1156.6320132822</ele>
        <time>2015-05-31T13:08:41Z</time>
      </trkpt>
      <trkpt lat="44.01702" lon="3.53593">
        <ele>1156.6320132822</ele>
        <time>2015-05-31T13:08:46Z</time>
      </trkpt>
      <trkpt lat="44.01705" lon="3.53595">
        <ele>1156.6320132822</ele>
        <time>2015-05-31T13:08:51Z</time>
      </trkpt>
      <trkpt lat="44.01709" lon="3.53596">
        <ele>1157.761618404</ele>
        <time>2015-05-31T13:08:56Z</time>
      </trkpt>
      <trkpt lat="44.01716" lon="3.53599">
        <ele>1157.761618404</ele>
        <time>2015-05-31T13:09:01Z</time>
      </trkpt>
      <trkpt lat="44.01722" lon="3.53599">
        <ele>1158.909764572</ele>
        <time>2015-05-31T13:09:06Z</time>
      </trkpt>
      <trkpt lat="44.01726" lon="3.53599">
        <ele>1158.909764572</ele>
        <time>2015-05-31T13:09:11Z</time>
      </trkpt>
      <trkpt lat="44.01732" lon="3.53601">
        <ele>1160.1477094065</ele>
        <time>2015-05-31T13:09:16Z</time>
      </trkpt>
      <trkpt lat="44.01737" lon="3.5361">
        <ele>1160.1477094065</ele>
        <time>2015-05-31T13:09:21Z</time>
      </trkpt>
      <trkpt lat="44.01744" lon="3.53611">
        <ele>1161.5411507103</ele>
        <time>2015-05-31T13:09:26Z</time>
      </trkpt>
      <trkpt lat="44.01747" lon="3.53614">
        <ele>1161.5411507103</ele>
        <time>2015-05-31T13:09:31Z</time>
      </trkpt>
      <trkpt lat="44.01751" lon="3.53618">
        <ele>1163.1072225625</ele>
        <time>2015-05-31T13:09:36Z</time>
      </trkpt>
      <trkpt lat="44.01755" lon="3.53624">
        <ele>1163.1072225625</ele>
        <time>2015-05-31T13:09:41Z</time>
      </trkpt>
      <trkpt lat="44.01759" lon="3.5363">
        <ele>1164.7315539967</ele>
        <time>2015-05-31T13:09:46Z</time>
      </trkpt>
      <trkpt lat="44.01762" lon="3.53638">
        <ele>1164.7315539967</ele>
        <time>2015-05-31T13:09:51Z</time>
      </trkpt>
      <trkpt lat="44.01765" lon="3.53644">
        <ele>1166.3511900986</ele>
        <time>2015-05-31T13:09:56Z</time>
      </trkpt>
      <trkpt lat="44.01769" lon="3.5365">
        <ele>1166.3511900986</ele>
        <time>2015-05-31T13:10:01Z</time>
      </trkpt>
      <trkpt lat="44.01772" lon="3.53655">
        <ele>1167.9509984914</ele>
        <time>2015-05-31T13:10:06Z</time>
      </trkpt>
      <trkpt lat="44.01777" lon="3.5366">
        <ele>1167.9509984914</ele>
        <time>2015-05-31T13:10:11Z</time>
      </trkpt>
      <trkpt lat="44.01783" lon="3.53663">
        <ele>1169.5025610302</ele>
        <time>2015-05-31T13:10:16Z</time>
      </trkpt>
      <trkpt lat="44.01786" lon="3.53667">
        <ele>1169.5025610302</ele>
        <time>2015-05-31T13:10:21Z</time>
      </trkpt>
      <trkpt lat="44.0179" lon="3.53672">
        <ele>1171.0084690611</ele>
        <time>2015-05-31T13:10:26Z</time>
      </trkpt>
      <trkpt lat="44.01791" lon="3.53679">
        <ele>1171.0084690611</ele>
        <time>2015-05-31T13:10:31Z</time>
      </trkpt>
      <trkpt lat="44.01794" lon="3.53683">
        <ele>1172.4423992729</ele>
        <time>2015-05-31T13:10:36Z</time>
      </trkpt>
      <trkpt lat="44.01797" lon="3.53688">
        <ele>1172.4423992729</ele>
        <time>2015-05-31T13:10:41Z</time>
      </trkpt>
      <trkpt lat="44.018" lon="3.5369">
        <ele>1172.4423992729</ele>
        <time>2015-05-31T13:10:46Z</time>
      </trkpt>
      <trkpt lat="44.01804" lon="3.53696">
        <ele>1174.1260059437</ele>
        <time>2015-05-31T13:10:51Z</time>
      </trkpt>
      <trkpt lat="44.01809" lon="3.537">
        <ele>1174.1260059437</ele>
        <time>2015-05-31T13:10:56Z</time>
      </trkpt>
      <trkpt lat="44.01815" lon="3.53703">
        <ele>1175.8377944431</ele>
        <time>2015-05-31T13:11:01Z</time>
      </trkpt>
      <trkpt lat="44.01826" lon="3.537">
        <ele>1177.4877360996</ele>
        <time>2015-05-31T13:11:06Z</time>
      </trkpt>
      <trkpt lat="44.01828" lon="3.53707">
        <ele>1177.4877360996</ele>
        <time>2015-05-31T13:11:11Z</time>
      </trkpt>
      <trkpt lat="44.01831" lon="3.53711">
        <ele>1179.2952131527</ele>
        <time>2015-05-31T13:11:16Z</time>
      </trkpt>
      <trkpt lat="44.01836" lon="3.53714">
        <ele>1179.2952131527</ele>
        <time>2015-05-31T13:11:21Z</time>
      </trkpt>
      <trkpt lat="44.0184" lon="3.53716">
        <ele>1181.2757019084</ele>
        <time>2015-05-31T13:11:26Z</time>
      </trkpt>
      <trkpt lat="44.01844" lon="3.53716">
        <ele>1181.2757019084</ele>
        <time>2015-05-31T13:11:31Z</time>
      </trkpt>
      <trkpt lat="44.01851" lon="3.53718">
        <ele>1183.342180728</ele>
        <time>2015-05-31T13:11:36Z</time>
      </trkpt>
      <trkpt lat="44.01854" lon="3.53721">
        <ele>1183.342180728</ele>
        <time>2015-05-31T13:11:41Z</time>
      </trkpt>
      <trkpt lat="44.01858" lon="3.53722">
        <ele>1183.342180728</ele>
        <time>2015-05-31T13:11:46Z</time>
      </trkpt>
      <trkpt lat="44.01863" lon="3.53726">
        <ele>1185.8461218048</ele>
        <time>2015-05-31T13:11:51Z</time>
      </trkpt>
      <trkpt lat="44.01871" lon="3.53733">
        <ele>1185.8461218048</ele>
        <time>2015-05-31T13:11:56Z</time>
      </trkpt>
      <trkpt lat="44.01877" lon="3.53735">
        <ele>1188.4634678</ele>
        <time>2015-05-31T13:12:01Z</time>
      </trkpt>
      <trkpt lat="44.01882" lon="3.53742">
        <ele>1188.4634678</ele>
        <time>2015-05-31T13:12:06Z</time>
      </trkpt>
      <trkpt lat="44.01892" lon="3.53758">
        <ele>1190.7351509615</ele>
        <time>2015-05-31T13:12:11Z</time>
      </trkpt>
      <trkpt lat="44.01898" lon="3.53762">
        <ele>1190.7351509615</ele>
        <time>2015-05-31T13:12:16Z</time>
      </trkpt>
      <trkpt lat="44.01908" lon="3.53769">
        <ele>1193.0726740339</ele>
        <time>2015-05-31T13:12:21Z</time>
      </trkpt>
      <trkpt lat="44.01915" lon="3.53779">
        <ele>1195.208666633</ele>
        <time>2015-05-31T13:12:26Z</time>
      </trkpt>
      <trkpt lat="44.0192" lon="3.53785">
        <ele>1195.208666633</ele>
        <time>2015-05-31T13:12:31Z</time>
      </trkpt>
      <trkpt lat="44.01923" lon="3.53791">
        <ele>1196.8671881224</ele>
        <time>2015-05-31T13:12:36Z</time>
      </trkpt>
      <trkpt lat="44.01928" lon="3.53799">
        <ele>1196.8671881224</ele>
        <time>2015-05-31T13:12:41Z</time>
      </trkpt>
      <trkpt lat="44.01933" lon="3.53807">
        <ele>1198.2118786053</ele>
        <time>2015-05-31T13:12:46Z</time>
      </trkpt>
      <trkpt lat="44.01938" lon="3.53814">
        <ele>1198.2118786053</ele>
        <time>2015-05-31T13:12:51Z</time>
      </trkpt>
      <trkpt lat="44.01941" lon="3.5382">
        <ele>1199.3232307957</ele>
        <time>2015-05-31T13:12:56Z</time>
      </trkpt>
      <trkpt lat="44.01944" lon="3.53827">
        <ele>1199.3232307957</ele>
        <time>2015-05-31T13:13:01Z</time>
      </trkpt>
      <trkpt lat="44.01947" lon="3.53832">
        <ele>1200.3485810776</ele>
        <time>2015-05-31T13:13:06Z</time>
      </trkpt>
      <trkpt lat="44.01951" lon="3.53833">
        <ele>1200.3485810776</ele>
        <time>2015-05-31T13:13:11Z</time>
      </trkpt>
      <trkpt lat="44.01956" lon="3.53835">
        <ele>1201.3814928683</ele>
        <time>2015-05-31T13:13:16Z</time>
      </trkpt>
      <trkpt lat="44.01961" lon="3.53836">
        <ele>1201.3814928683</ele>
        <time>2015-05-31T13:13:21Z</time>
      </trkpt>
      <trkpt lat="44.01963" lon="3.53837">
        <ele>1201.3814928683</ele>
        <time>2015-05-31T13:13:26Z</time>
      </trkpt>
      <trkpt lat="44.01969" lon="3.53841">
        <ele>1202.5374951136</ele>
        <time>2015-05-31T13:13:31Z</time>
      </trkpt>
      <trkpt lat="44.01978" lon="3.53846">
        <ele>1203.6783285719</ele>
        <time>2015-05-31T13:13:36Z</time>
      </trkpt>
      <trkpt lat="44.01983" lon="3.53844">
        <ele>1203.6783285719</ele>
        <time>2015-05-31T13:13:41Z</time>
      </trkpt>
      <trkpt lat="44.01988" lon="3.53842">
        <ele>1204.8488948064</ele>
        <time>2015-05-31T13:13:46Z</time>
      </trkpt>
      <trkpt lat="44.01991" lon="3.53839">
        <ele>1204.8488948064</ele>
        <time>2015-05-31T13:13:51Z</time>
      </trkpt>
      <trkpt lat="44.01995" lon="3.53839">
        <ele>1204.8488948064</ele>
        <time>2015-05-31T13:13:56Z</time>
      </trkpt>
      <trkpt lat="44.01998" lon="3.53838">
        <ele>1206.2492607537</ele>
        <time>2015-05-31T13:14:01Z</time>
      </trkpt>
      <trkpt lat="44.02003" lon="3.53836">
        <ele>1206.2492607537</ele>
        <time>2015-05-31T13:14:06Z</time>
      </trkpt>
      <trkpt lat="44.02005" lon="3.53831">
        <ele>1206.2492607537</ele>
        <time>2015-05-31T13:14:11Z</time>
      </trkpt>
      <trkpt lat="44.02011" lon="3.5383">
        <ele>1207.8335965176</ele>
        <time>2015-05-31T13:14:16Z</time>
      </trkpt>
      <trkpt lat="44.02016" lon="3.53826">
        <ele>1207.8335965176</ele>
        <time>2015-05-31T13:14:21Z</time>
      </trkpt>
      <trkpt lat="44.02023" lon="3.53825">
        <ele>1209.4724770581</ele>
        <time>2015-05-31T13:14:26Z</time>
      </trkpt>
      <trkpt lat="44.02028" lon="3.53826">
        <ele>1209.4724770581</ele>
        <time>2015-05-31T13:14:31Z</time>
      </trkpt>
      <trkpt lat="44.02034" lon="3.53821">
        <ele>1211.0890856472</ele>
        <time>2015-05-31T13:14:36Z</time>
      </trkpt>
      <trkpt lat="44.02041" lon="3.53808">
        <ele>1212.2952863758</ele>
        <time>2015-05-31T13:14:41Z</time>
      </trkpt>
      <trkpt lat="44.02047" lon="3.53807">
        <ele>1212.2952863758</ele>
        <time>2015-05-31T13:14:46Z</time>
      </trkpt>
      <trkpt lat="44.02051" lon="3.53803">
        <ele>1213.2370147479</ele>
        <time>2015-05-31T13:14:51Z</time>
      </trkpt>
      <trkpt lat="44.02052" lon="3.5379">
        <ele>1213.2370147479</ele>
        <time>2015-05-31T13:14:56Z</time>
      </trkpt>
      <trkpt lat="44.02052" lon="3.53778">
        <ele>1213.9493660692</ele>
        <time>2015-05-31T13:15:01Z</time>
      </trkpt>
      <trkpt lat="44.02054" lon="3.53764">
        <ele>1214.4655124395</ele>
        <time>2015-05-31T13:15:06Z</time>
      </trkpt>
      <trkpt lat="44.02058" lon="3.53756">
        <ele>1214.4655124395</ele>
        <time>2015-05-31T13:15:11Z</time>
      </trkpt>
      <trkpt lat="44.02057" lon="3.53749">
        <ele>1214.8167445564</ele>
        <time>2015-05-31T13:15:16Z</time>
      </trkpt>
      <trkpt lat="44.02066" lon="3.53741">
        <ele>1214.7875251152</ele>
        <time>2015-05-31T13:15:21Z</time>
      </trkpt>
      <trkpt lat="44.02073" lon="3.53737">
        <ele>1214.7875251152</ele>
        <time>2015-05-31T13:15:26Z</time>
      </trkpt>
      <trkpt lat="44.02075" lon="3.53729">
        <ele>1214.4386048466</ele>
        <time>2015-05-31T13:15:31Z</time>
      </trkpt>
      <trkpt lat="44.02076" lon="3.53722">
        <ele>1214.4386048466</ele>
        <time>2015-05-31T13:15:36Z</time>
      </trkpt>
      <trkpt lat="44.02079" lon="3.53716">
        <ele>1213.8847895749</ele>
        <time>2015-05-31T13:15:41Z</time>
      </trkpt>
      <trkpt lat="44.02084" lon="3.53713">
        <ele>1213.8847895749</ele>
        <time>2015-05-31T13:15:46Z</time>
      </trkpt>
      <trkpt lat="44.02089" lon="3.5371">
        <ele>1213.0888793053</ele>
        <time>2015-05-31T13:15:51Z</time>
      </trkpt>
      <trkpt lat="44.02091" lon="3.53701">
        <ele>1213.0888793053</ele>
        <time>2015-05-31T13:15:56Z</time>
      </trkpt>
      <trkpt lat="44.0209" lon="3.537">
        <ele>1213.0888793053</ele>
        <time>2015-05-31T13:16:01Z</time>
      </trkpt>
      <trkpt lat="44.02091" lon="3.53698">
        <ele>1211.5702909237</ele>
        <time>2015-05-31T13:16:11Z</time>
      </trkpt>
      <trkpt lat="44.02093" lon="3.53694">
        <ele>1211.5702909237</ele>
        <time>2015-05-31T13:16:16Z</time>
      </trkpt>
      <trkpt lat="44.0212" lon="3.5368">
        <ele>1210.1971180007</ele>
        <time>2015-05-31T13:16:41Z</time>
      </trkpt>
      <trkpt lat="44.02123" lon="3.53674">
        <ele>1210.1971180007</ele>
        <time>2015-05-31T13:16:46Z</time>
      </trkpt>
      <trkpt lat="44.02125" lon="3.53671">
        <ele>1210.1971180007</ele>
        <time>2015-05-31T13:16:51Z</time>
      </trkpt>
      <trkpt lat="44.02129" lon="3.53666">
        <ele>1209.1967509457</ele>
        <time>2015-05-31T13:16:56Z</time>
      </trkpt>
      <trkpt lat="44.02135" lon="3.53664">
        <ele>1209.1967509457</ele>
        <time>2015-05-31T13:17:01Z</time>
      </trkpt>
      <trkpt lat="44.02141" lon="3.53661">
        <ele>1208.3896347729</ele>
        <time>2015-05-31T13:17:06Z</time>
      </trkpt>
      <trkpt lat="44.02152" lon="3.53659">
        <ele>1207.6519875955</ele>
        <time>2015-05-31T13:17:11Z</time>
      </trkpt>
      <trkpt lat="44.02159" lon="3.53658">
        <ele>1207.6519875955</ele>
        <time>2015-05-31T13:17:16Z</time>
      </trkpt>
      <trkpt lat="44.02164" lon="3.5365">
        <ele>1206.9696854205</ele>
        <time>2015-05-31T13:17:21Z</time>
      </trkpt>
      <trkpt lat="44.0217" lon="3.53646">
        <ele>1206.9696854205</ele>
        <time>2015-05-31T13:17:26Z</time>
      </trkpt>
      <trkpt lat="44.02173" lon="3.53638">
        <ele>1206.372594408</ele>
        <time>2015-05-31T13:17:31Z</time>
      </trkpt>
      <trkpt lat="44.02178" lon="3.53635">
        <ele>1206.372594408</ele>
        <time>2015-05-31T13:17:36Z</time>
      </trkpt>
      <trkpt lat="44.02182" lon="3.53626">
        <ele>1205.9600722395</ele>
        <time>2015-05-31T13:17:41Z</time>
      </trkpt>
      <trkpt lat="44.02186" lon="3.5362">
        <ele>1205.9600722395</ele>
        <time>2015-05-31T13:17:46Z</time>
      </trkpt>
      <trkpt lat="44.0219" lon="3.53615">
        <ele>1205.7514696317</ele>
        <time>2015-05-31T13:17:51Z</time>
      </trkpt>
      <trkpt lat="44.02193" lon="3.53613">
        <ele>1205.7514696317</ele>
        <time>2015-05-31T13:17:56Z</time>
      </trkpt>
      <trkpt lat="44.02197" lon="3.53612">
        <ele>1205.7514696317</ele>
        <time>2015-05-31T13:18:01Z</time>
      </trkpt>
      <trkpt lat="44.02201" lon="3.53611">
        <ele>1205.8072405193</ele>
        <time>2015-05-31T13:18:06Z</time>
      </trkpt>
      <trkpt lat="44.02205" lon="3.53611">
        <ele>1205.8072405193</ele>
        <time>2015-05-31T13:18:11Z</time>
      </trkpt>
      <trkpt lat="44.02214" lon="3.53611">
        <ele>1205.9951754814</ele>
        <time>2015-05-31T13:18:16Z</time>
      </trkpt>
      <trkpt lat="44.02221" lon="3.53611">
        <ele>1205.9951754814</ele>
        <time>2015-05-31T13:18:21Z</time>
      </trkpt>
      <trkpt lat="44.02227" lon="3.53612">
        <ele>1206.3507947252</ele>
        <time>2015-05-31T13:18:26Z</time>
      </trkpt>
      <trkpt lat="44.02234" lon="3.53608">
        <ele>1206.3507947252</ele>
        <time>2015-05-31T13:18:31Z</time>
      </trkpt>
      <trkpt lat="44.02241" lon="3.53605">
        <ele>1206.9064090743</ele>
        <time>2015-05-31T13:18:36Z</time>
      </trkpt>
      <trkpt lat="44.02249" lon="3.53608">
        <ele>1206.9064090743</ele>
        <time>2015-05-31T13:18:43Z</time>
      </trkpt>
      <trkpt lat="44.02256" lon="3.53607">
        <ele>1207.8065601595</ele>
        <time>2015-05-31T13:18:50Z</time>
      </trkpt>
      <trkpt lat="44.02257" lon="3.53607">
        <ele>1207.8065601595</ele>
        <time>2015-05-31T13:18:51Z</time>
      </trkpt>
      <trkpt lat="44.02264" lon="3.53605">
        <ele>1207.8065601595</ele>
        <time>2015-05-31T13:18:56Z</time>
      </trkpt>
      <trkpt lat="44.02269" lon="3.53608">
        <ele>1209.0688007231</ele>
        <time>2015-05-31T13:19:01Z</time>
      </trkpt>
      <trkpt lat="44.02275" lon="3.53607">
        <ele>1209.0688007231</ele>
        <time>2015-05-31T13:19:06Z</time>
      </trkpt>
      <trkpt lat="44.02301" lon="3.53599">
        <ele>1211.4576524842</ele>
        <time>2015-05-31T13:19:31Z</time>
      </trkpt>
      <trkpt lat="44.02308" lon="3.53597">
        <ele>1211.4576524842</ele>
        <time>2015-05-31T13:19:36Z</time>
      </trkpt>
      <trkpt lat="44.02313" lon="3.53599">
        <ele>1214.0209475735</ele>
        <time>2015-05-31T13:19:41Z</time>
      </trkpt>
      <trkpt lat="44.02315" lon="3.53599">
        <ele>1214.0209475735</ele>
        <time>2015-05-31T13:19:47Z</time>
      </trkpt>
      <trkpt lat="44.02318" lon="3.53601">
        <ele>1214.0209475735</ele>
        <time>2015-05-31T13:19:54Z</time>
      </trkpt>
      <trkpt lat="44.0233" lon="3.53601">
        <ele>1216.9855591787</ele>
        <time>2015-05-31T13:20:01Z</time>
      </trkpt>
      <trkpt lat="44.02334" lon="3.53602">
        <ele>1216.9855591787</ele>
        <time>2015-05-31T13:20:06Z</time>
      </trkpt>
      <trkpt lat="44.02334" lon="3.53601">
        <ele>1216.9855591787</ele>
        <time>2015-05-31T13:20:11Z</time>
      </trkpt>
      <trkpt lat="44.02345" lon="3.536">
        <ele>1219.7967286014</ele>
        <time>2015-05-31T13:20:16Z</time>
      </trkpt>
      <trkpt lat="44.02353" lon="3.536">
        <ele>1219.7967286014</ele>
        <time>2015-05-31T13:20:21Z</time>
      </trkpt>
      <trkpt lat="44.02358" lon="3.53601">
        <ele>1222.574939427</ele>
        <time>2015-05-31T13:20:26Z</time>
      </trkpt>
      <trkpt lat="44.02364" lon="3.53604">
        <ele>1222.574939427</ele>
        <time>2015-05-31T13:20:31Z</time>
      </trkpt>
      <trkpt lat="44.02371" lon="3.53609">
        <ele>1225.4463192891</ele>
        <time>2015-05-31T13:20:36Z</time>
      </trkpt>
      <trkpt lat="44.02402" lon="3.53614">
        <ele>1228.5418912457</ele>
        <time>2015-05-31T13:21:01Z</time>
      </trkpt>
      <trkpt lat="44.02403" lon="3.53617">
        <ele>1228.5418912457</ele>
        <time>2015-05-31T13:21:06Z</time>
      </trkpt>
      <trkpt lat="44.02408" lon="3.53618">
        <ele>1228.5418912457</ele>
        <time>2015-05-31T13:21:11Z</time>
      </trkpt>
      <trkpt lat="44.02412" lon="3.5362">
        <ele>1231.5068868968</ele>
        <time>2015-05-31T13:21:24Z</time>
      </trkpt>
      <trkpt lat="44.02427" lon="3.53609">
        <ele>1234.4885785019</ele>
        <time>2015-05-31T13:21:57Z</time>
      </trkpt>
      <trkpt lat="44.02423" lon="3.53565">
        <ele>1236.3552552778</ele>
        <time>2015-05-31T13:22:01Z</time>
      </trkpt>
      <trkpt lat="44.02419" lon="3.5356">
        <ele>1236.3552552778</ele>
        <time>2015-05-31T13:22:06Z</time>
      </trkpt>
      <trkpt lat="44.02411" lon="3.53544">
        <ele>1236.5803386207</ele>
        <time>2015-05-31T13:22:11Z</time>
      </trkpt>
      <trkpt lat="44.02411" lon="3.53532">
        <ele>1236.5803386207</ele>
        <time>2015-05-31T13:22:16Z</time>
      </trkpt>
      <trkpt lat="44.02408" lon="3.53519">
        <ele>1236.3234760445</ele>
        <time>2015-05-31T13:22:21Z</time>
      </trkpt>
      <trkpt lat="44.02398" lon="3.53515">
        <ele>1236.1849805778</ele>
        <time>2015-05-31T13:22:26Z</time>
      </trkpt>
      <trkpt lat="44.02393" lon="3.53505">
        <ele>1236.1849805778</ele>
        <time>2015-05-31T13:22:31Z</time>
      </trkpt>
      <trkpt lat="44.0239" lon="3.53499">
        <ele>1236.418159505</ele>
        <time>2015-05-31T13:22:36Z</time>
      </trkpt>
      <trkpt lat="44.02386" lon="3.53491">
        <ele>1236.418159505</ele>
        <time>2015-05-31T13:22:41Z</time>
      </trkpt>
      <trkpt lat="44.02384" lon="3.53484">
        <ele>1236.7235059361</ele>
        <time>2015-05-31T13:22:46Z</time>
      </trkpt>
      <trkpt lat="44.02383" lon="3.53478">
        <ele>1236.7235059361</ele>
        <time>2015-05-31T13:22:51Z</time>
      </trkpt>
      <trkpt lat="44.02382" lon="3.5347">
        <ele>1236.8809942635</ele>
        <time>2015-05-31T13:22:56Z</time>
      </trkpt>
      <trkpt lat="44.02382" lon="3.53459">
        <ele>1236.8809942635</ele>
        <time>2015-05-31T13:23:01Z</time>
      </trkpt>
      <trkpt lat="44.0238" lon="3.53449">
        <ele>1236.903372359</ele>
        <time>2015-05-31T13:23:06Z</time>
      </trkpt>
      <trkpt lat="44.02381" lon="3.53441">
        <ele>1236.903372359</ele>
        <time>2015-05-31T13:23:11Z</time>
      </trkpt>
      <trkpt lat="44.02381" lon="3.53433">
        <ele>1236.7163846577</ele>
        <time>2015-05-31T13:23:16Z</time>
      </trkpt>
      <trkpt lat="44.02381" lon="3.53423">
        <ele>1236.7163846577</ele>
        <time>2015-05-31T13:23:21Z</time>
      </trkpt>
      <trkpt lat="44.02378" lon="3.53416">
        <ele>1236.2806517024</ele>
        <time>2015-05-31T13:23:26Z</time>
      </trkpt>
      <trkpt lat="44.02374" lon="3.53408">
        <ele>1236.2806517024</ele>
        <time>2015-05-31T13:23:31Z</time>
      </trkpt>
      <trkpt lat="44.02373" lon="3.53399">
        <ele>1235.6612643902</ele>
        <time>2015-05-31T13:23:36Z</time>
      </trkpt>
      <trkpt lat="44.02371" lon="3.53391">
        <ele>1235.6612643902</ele>
        <time>2015-05-31T13:23:41Z</time>
      </trkpt>
      <trkpt lat="44.02353" lon="3.53366">
        <ele>1234.4722931756</ele>
        <time>2015-05-31T13:24:01Z</time>
      </trkpt>
      <trkpt lat="44.02351" lon="3.53354">
        <ele>1234.4722931756</ele>
        <time>2015-05-31T13:24:06Z</time>
      </trkpt>
      <trkpt lat="44.02348" lon="3.53346">
        <ele>1233.1359346163</ele>
        <time>2015-05-31T13:24:11Z</time>
      </trkpt>
      <trkpt lat="44.02346" lon="3.53338">
        <ele>1233.1359346163</ele>
        <time>2015-05-31T13:24:16Z</time>
      </trkpt>
      <trkpt lat="44.02347" lon="3.53328">
        <ele>1231.6690592104</ele>
        <time>2015-05-31T13:24:24Z</time>
      </trkpt>
      <trkpt lat="44.02338" lon="3.53316">
        <ele>1229.9435018365</ele>
        <time>2015-05-31T13:24:39Z</time>
      </trkpt>
      <trkpt lat="44.02334" lon="3.53297">
        <ele>1228.3023270824</ele>
        <time>2015-05-31T13:25:01Z</time>
      </trkpt>
      <trkpt lat="44.02333" lon="3.53287">
        <ele>1228.3023270824</ele>
        <time>2015-05-31T13:25:06Z</time>
      </trkpt>
      <trkpt lat="44.02331" lon="3.53278">
        <ele>1226.875735864</ele>
        <time>2015-05-31T13:25:11Z</time>
      </trkpt>
      <trkpt lat="44.02323" lon="3.53265">
        <ele>1225.6683796187</ele>
        <time>2015-05-31T13:25:24Z</time>
      </trkpt>
      <trkpt lat="44.02332" lon="3.53206">
        <ele>1224.7991373502</ele>
        <time>2015-05-31T13:25:46Z</time>
      </trkpt>
      <trkpt lat="44.02334" lon="3.53147">
        <ele>1224.4923840323</ele>
        <time>2015-05-31T13:26:01Z</time>
      </trkpt>
      <trkpt lat="44.02329" lon="3.53143">
        <ele>1224.4923840323</ele>
        <time>2015-05-31T13:26:06Z</time>
      </trkpt>
      <trkpt lat="44.0232" lon="3.53138">
        <ele>1224.5652191111</ele>
        <time>2015-05-31T13:26:11Z</time>
      </trkpt>
      <trkpt lat="44.02316" lon="3.53133">
        <ele>1224.5652191111</ele>
        <time>2015-05-31T13:26:16Z</time>
      </trkpt>
      <trkpt lat="44.02308" lon="3.53128">
        <ele>1224.9622873961</ele>
        <time>2015-05-31T13:26:21Z</time>
      </trkpt>
      <trkpt lat="44.02297" lon="3.53132">
        <ele>1225.4439352404</ele>
        <time>2015-05-31T13:26:26Z</time>
      </trkpt>
      <trkpt lat="44.02284" lon="3.53129">
        <ele>1225.9751165144</ele>
        <time>2015-05-31T13:26:34Z</time>
      </trkpt>
      <trkpt lat="44.02282" lon="3.53128">
        <ele>1225.9751165144</ele>
        <time>2015-05-31T13:26:36Z</time>
      </trkpt>
      <trkpt lat="44.02257" lon="3.53092">
        <ele>1226.8401686367</ele>
        <time>2015-05-31T13:27:01Z</time>
      </trkpt>
      <trkpt lat="44.02255" lon="3.53083">
        <ele>1226.8401686367</ele>
        <time>2015-05-31T13:27:06Z</time>
      </trkpt>
      <trkpt lat="44.02252" lon="3.53078">
        <ele>1227.7683062761</ele>
        <time>2015-05-31T13:27:11Z</time>
      </trkpt>
      <trkpt lat="44.0225" lon="3.53071">
        <ele>1227.7683062761</ele>
        <time>2015-05-31T13:27:16Z</time>
      </trkpt>
      <trkpt lat="44.02241" lon="3.53057">
        <ele>1228.8974813205</ele>
        <time>2015-05-31T13:27:30Z</time>
      </trkpt>
      <trkpt lat="44.02242" lon="3.52964">
        <ele>1230.3692923416</ele>
        <time>2015-05-31T13:28:11Z</time>
      </trkpt>
      <trkpt lat="44.02246" lon="3.52907">
        <ele>1232.1698096718</ele>
        <time>2015-05-31T13:29:11Z</time>
      </trkpt>
      <trkpt lat="44.0225" lon="3.52902">
        <ele>1232.1698096718</ele>
        <time>2015-05-31T13:29:16Z</time>
      </trkpt>
      <trkpt lat="44.02255" lon="3.52898">
        <ele>1234.0257639714</ele>
        <time>2015-05-31T13:29:21Z</time>
      </trkpt>
      <trkpt lat="44.02262" lon="3.52897">
        <ele>1234.0257639714</ele>
        <time>2015-05-31T13:29:26Z</time>
      </trkpt>
      <trkpt lat="44.02273" lon="3.52898">
        <ele>1235.9575894363</ele>
        <time>2015-05-31T13:29:33Z</time>
      </trkpt>
      <trkpt lat="44.02275" lon="3.52897">
        <ele>1235.9575894363</ele>
        <time>2015-05-31T13:29:36Z</time>
      </trkpt>
      <trkpt lat="44.02282" lon="3.52897">
        <ele>1235.9575894363</ele>
        <time>2015-05-31T13:29:45Z</time>
      </trkpt>
      <trkpt lat="44.02287" lon="3.52894">
        <ele>1237.7534165373</ele>
        <time>2015-05-31T13:29:46Z</time>
      </trkpt>
      <trkpt lat="44.02317" lon="3.52885">
        <ele>1239.5055452974</ele>
        <time>2015-05-31T13:30:11Z</time>
      </trkpt>
      <trkpt lat="44.02323" lon="3.52886">
        <ele>1239.5055452974</ele>
        <time>2015-05-31T13:30:16Z</time>
      </trkpt>
      <trkpt lat="44.02328" lon="3.52885">
        <ele>1241.3428660649</ele>
        <time>2015-05-31T13:30:26Z</time>
      </trkpt>
      <trkpt lat="44.02339" lon="3.52871">
        <ele>1243.3269441107</ele>
        <time>2015-05-31T13:30:35Z</time>
      </trkpt>
      <trkpt lat="44.02365" lon="3.52862">
        <ele>1246.6529286012</ele>
        <time>2015-05-31T13:30:56Z</time>
      </trkpt>
      <trkpt lat="44.02368" lon="3.52862">
        <ele>1246.6529286012</ele>
        <time>2015-05-31T13:31:07Z</time>
      </trkpt>
      <trkpt lat="44.0238" lon="3.52859">
        <ele>1250.5510194738</ele>
        <time>2015-05-31T13:31:11Z</time>
      </trkpt>
      <trkpt lat="44.02386" lon="3.52858">
        <ele>1250.5510194738</ele>
        <time>2015-05-31T13:31:16Z</time>
      </trkpt>
      <trkpt lat="44.02398" lon="3.52846">
        <ele>1254.839646131</ele>
        <time>2015-05-31T13:31:33Z</time>
      </trkpt>
      <trkpt lat="44.02449" lon="3.52843">
        <ele>1260.012489004</ele>
        <time>2015-05-31T13:32:11Z</time>
      </trkpt>
      <trkpt lat="44.02455" lon="3.52843">
        <ele>1260.012489004</ele>
        <time>2015-05-31T13:32:16Z</time>
      </trkpt>
      <trkpt lat="44.0246" lon="3.52844">
        <ele>1265.0546716376</ele>
        <time>2015-05-31T13:32:21Z</time>
      </trkpt>
      <trkpt lat="44.02464" lon="3.52843">
        <ele>1265.0546716376</ele>
        <time>2015-05-31T13:32:26Z</time>
      </trkpt>
      <trkpt lat="44.02468" lon="3.5284">
        <ele>1265.0546716376</ele>
        <time>2015-05-31T13:32:31Z</time>
      </trkpt>
      <trkpt lat="44.02479" lon="3.52851">
        <ele>1269.7325300729</ele>
        <time>2015-05-31T13:33:08Z</time>
      </trkpt>
      <trkpt lat="44.02481" lon="3.52851">
        <ele>1269.7325300729</ele>
        <time>2015-05-31T13:33:11Z</time>
      </trkpt>
      <trkpt lat="44.02487" lon="3.52854">
        <ele>1269.7325300729</ele>
        <time>2015-05-31T13:33:26Z</time>
      </trkpt>
      <trkpt lat="44.0249" lon="3.52858">
        <ele>1269.4930066918</ele>
        <time>2015-05-31T13:34:11Z</time>
      </trkpt>
      <trkpt lat="44.02489" lon="3.52861">
        <ele>1269.4930066918</ele>
        <time>2015-05-31T13:34:27Z</time>
      </trkpt>
      <trkpt lat="44.0249" lon="3.52863">
        <ele>1269.4930066918</ele>
        <time>2015-05-31T13:34:31Z</time>
      </trkpt>
      <trkpt lat="44.02489" lon="3.52863">
        <ele>1269.4930066918</ele>
        <time>2015-05-31T13:34:56Z</time>
      </trkpt>
      <trkpt lat="44.0249" lon="3.52863">
        <ele>1269.4930066918</ele>
        <time>2015-05-31T13:35:01Z</time>
      </trkpt>
      <trkpt lat="44.0249" lon="3.52861">
        <ele>1269.4930066918</ele>
        <time>2015-05-31T13:35:09Z</time>
      </trkpt>
      <trkpt lat="44.0249" lon="3.5286">
        <ele>1269.4930066918</ele>
        <time>2015-05-31T13:35:16Z</time>
      </trkpt>
      <trkpt lat="44.0249" lon="3.52862">
        <ele>1269.1672475233</ele>
        <time>2015-05-31T13:35:21Z</time>
      </trkpt>
      <trkpt lat="44.02493" lon="3.52864">
        <ele>1269.1672475233</ele>
        <time>2015-05-31T13:35:26Z</time>
      </trkpt>
      <trkpt lat="44.02493" lon="3.52864">
        <ele>1269.1672475233</ele>
        <time>2015-05-31T13:35:32Z</time>
      </trkpt>
      <trkpt lat="44.02494" lon="3.52869">
        <ele>1269.1672475233</ele>
        <time>2015-05-31T13:35:41Z</time>
      </trkpt>
      <trkpt lat="44.02498" lon="3.5287">
        <ele>1268.6203594903</ele>
        <time>2015-05-31T13:35:46Z</time>
      </trkpt>
      <trkpt lat="44.02517" lon="3.52884">
        <ele>1267.6848990817</ele>
        <time>2015-05-31T13:36:11Z</time>
      </trkpt>
      <trkpt lat="44.02523" lon="3.52891">
        <ele>1267.6848990817</ele>
        <time>2015-05-31T13:36:16Z</time>
      </trkpt>
      <trkpt lat="44.02526" lon="3.52897">
        <ele>1266.7545659045</ele>
        <time>2015-05-31T13:36:25Z</time>
      </trkpt>
      <trkpt lat="44.02528" lon="3.52906">
        <ele>1266.7545659045</ele>
        <time>2015-05-31T13:36:26Z</time>
      </trkpt>
      <trkpt lat="44.02532" lon="3.52914">
        <ele>1265.7907201596</ele>
        <time>2015-05-31T13:37:11Z</time>
      </trkpt>
      <trkpt lat="44.02573" lon="3.52935">
        <ele>1264.5415716513</ele>
        <time>2015-05-31T13:37:16Z</time>
      </trkpt>
      <trkpt lat="44.02578" lon="3.52944">
        <ele>1264.5415716513</ele>
        <time>2015-05-31T13:37:22Z</time>
      </trkpt>
      <trkpt lat="44.02582" lon="3.52952">
        <ele>1263.4375996543</ele>
        <time>2015-05-31T13:37:26Z</time>
      </trkpt>
      <trkpt lat="44.02585" lon="3.52952">
        <ele>1263.4375996543</ele>
        <time>2015-05-31T13:37:31Z</time>
      </trkpt>
      <trkpt lat="44.02595" lon="3.52954">
        <ele>1262.4305489461</ele>
        <time>2015-05-31T13:37:41Z</time>
      </trkpt>
      <trkpt lat="44.02601" lon="3.5297">
        <ele>1261.4034017929</ele>
        <time>2015-05-31T13:37:49Z</time>
      </trkpt>
      <trkpt lat="44.02612" lon="3.52994">
        <ele>1260.3919058138</ele>
        <time>2015-05-31T13:38:04Z</time>
      </trkpt>
      <trkpt lat="44.02613" lon="3.52994">
        <ele>1260.3919058138</ele>
        <time>2015-05-31T13:38:06Z</time>
      </trkpt>
      <trkpt lat="44.02621" lon="3.53007">
        <ele>1259.4579462063</ele>
        <time>2015-05-31T13:38:13Z</time>
      </trkpt>
      <trkpt lat="44.02624" lon="3.53008">
        <ele>1259.4579462063</ele>
        <time>2015-05-31T13:38:16Z</time>
      </trkpt>
      <trkpt lat="44.02628" lon="3.53015">
        <ele>1258.6442039748</ele>
        <time>2015-05-31T13:38:21Z</time>
      </trkpt>
      <trkpt lat="44.02636" lon="3.5302">
        <ele>1258.6442039748</ele>
        <time>2015-05-31T13:38:26Z</time>
      </trkpt>
      <trkpt lat="44.02643" lon="3.53028">
        <ele>1257.9177893856</ele>
        <time>2015-05-31T13:38:33Z</time>
      </trkpt>
      <trkpt lat="44.02643" lon="3.53029">
        <ele>1257.9177893856</ele>
        <time>2015-05-31T13:38:42Z</time>
      </trkpt>
      <trkpt lat="44.02679" lon="3.53051">
        <ele>1257.9684869744</ele>
        <time>2015-05-31T13:39:14Z</time>
      </trkpt>
      <trkpt lat="44.02682" lon="3.53049">
        <ele>1257.9684869744</ele>
        <time>2015-05-31T13:39:34Z</time>
      </trkpt>
      <trkpt lat="44.02709" lon="3.53001">
        <ele>1258.3091032801</ele>
        <time>2015-05-31T13:40:12Z</time>
      </trkpt>
      <trkpt lat="44.02713" lon="3.52985">
        <ele>1259.8131815165</ele>
        <time>2015-05-31T13:40:16Z</time>
      </trkpt>
      <trkpt lat="44.02717" lon="3.52966">
        <ele>1261.4853822607</ele>
        <time>2015-05-31T13:40:25Z</time>
      </trkpt>
      <trkpt lat="44.02718" lon="3.52963">
        <ele>1261.4853822607</ele>
        <time>2015-05-31T13:40:26Z</time>
      </trkpt>
      <trkpt lat="44.0272" lon="3.5295">
        <ele>1263.1955704651</ele>
        <time>2015-05-31T13:40:31Z</time>
      </trkpt>
      <trkpt lat="44.02726" lon="3.52922">
        <ele>1265.0391882116</ele>
        <time>2015-05-31T13:40:40Z</time>
      </trkpt>
      <trkpt lat="44.02746" lon="3.52851">
        <ele>1267.7383513918</ele>
        <time>2015-05-31T13:41:14Z</time>
      </trkpt>
      <trkpt lat="44.02747" lon="3.52849">
        <ele>1267.7383513918</ele>
        <time>2015-05-31T13:41:16Z</time>
      </trkpt>
      <trkpt lat="44.02757" lon="3.52842">
        <ele>1270.3312570143</ele>
        <time>2015-05-31T13:41:21Z</time>
      </trkpt>
      <trkpt lat="44.02759" lon="3.52834">
        <ele>1270.3312570143</ele>
        <time>2015-05-31T13:41:26Z</time>
      </trkpt>
      <trkpt lat="44.02759" lon="3.52832">
        <ele>1270.3312570143</ele>
        <time>2015-05-31T13:41:36Z</time>
      </trkpt>
      <trkpt lat="44.0278" lon="3.52814">
        <ele>1273.2384637983</ele>
        <time>2015-05-31T13:42:06Z</time>
      </trkpt>
      <trkpt lat="44.02795" lon="3.52805">
        <ele>1276.329969327</ele>
        <time>2015-05-31T13:42:16Z</time>
      </trkpt>
      <trkpt lat="44.02795" lon="3.52805">
        <ele>1276.329969327</ele>
        <time>2015-05-31T13:42:27Z</time>
      </trkpt>
      <trkpt lat="44.02832" lon="3.52779">
        <ele>1280.118925984</ele>
        <time>2015-05-31T13:42:49Z</time>
      </trkpt>
      <trkpt lat="44.02834" lon="3.52779">
        <ele>1280.118925984</ele>
        <time>2015-05-31T13:42:51Z</time>
      </trkpt>
      <trkpt lat="44.02838" lon="3.52777">
        <ele>1280.118925984</ele>
        <time>2015-05-31T13:43:00Z</time>
      </trkpt>
      <trkpt lat="44.0286" lon="3.5276">
        <ele>1284.3006852232</ele>
        <time>2015-05-31T13:43:14Z</time>
      </trkpt>
      <trkpt lat="44.02861" lon="3.52759">
        <ele>1284.3006852232</ele>
        <time>2015-05-31T13:43:16Z</time>
      </trkpt>
      <trkpt lat="44.0289" lon="3.52748">
        <ele>1287.3093564197</ele>
        <time>2015-05-31T13:43:38Z</time>
      </trkpt>
      <trkpt lat="44.02893" lon="3.52743">
        <ele>1287.3093564197</ele>
        <time>2015-05-31T13:43:41Z</time>
      </trkpt>
      <trkpt lat="44.02895" lon="3.52738">
        <ele>1287.3093564197</ele>
        <time>2015-05-31T13:43:52Z</time>
      </trkpt>
      <trkpt lat="44.02906" lon="3.52715">
        <ele>1289.8158898225</ele>
        <time>2015-05-31T13:43:58Z</time>
      </trkpt>
      <trkpt lat="44.02926" lon="3.52683">
        <ele>1291.7661333855</ele>
        <time>2015-05-31T13:44:14Z</time>
      </trkpt>
      <trkpt lat="44.02927" lon="3.52681">
        <ele>1291.7661333855</ele>
        <time>2015-05-31T13:44:16Z</time>
      </trkpt>
      <trkpt lat="44.02931" lon="3.52671">
        <ele>1293.47185808</ele>
        <time>2015-05-31T13:44:21Z</time>
      </trkpt>
      <trkpt lat="44.02931" lon="3.52664">
        <ele>1293.47185808</ele>
        <time>2015-05-31T13:44:26Z</time>
      </trkpt>
      <trkpt lat="44.02937" lon="3.52644">
        <ele>1294.9345045819</ele>
        <time>2015-05-31T13:44:36Z</time>
      </trkpt>
      <trkpt lat="44.0296" lon="3.52607">
        <ele>1296.069729907</ele>
        <time>2015-05-31T13:44:56Z</time>
      </trkpt>
      <trkpt lat="44.02976" lon="3.52569">
        <ele>1296.973341313</ele>
        <time>2015-05-31T13:45:16Z</time>
      </trkpt>
      <trkpt lat="44.02991" lon="3.52537">
        <ele>1297.9942545092</ele>
        <time>2015-05-31T13:45:40Z</time>
      </trkpt>
      <trkpt lat="44.03" lon="3.52518">
        <ele>1298.8790695157</ele>
        <time>2015-05-31T13:45:51Z</time>
      </trkpt>
      <trkpt lat="44.03007" lon="3.52506">
        <ele>1299.566397082</ele>
        <time>2015-05-31T13:46:00Z</time>
      </trkpt>
      <trkpt lat="44.03003" lon="3.52479">
        <ele>1299.7549941515</ele>
        <time>2015-05-31T13:46:16Z</time>
      </trkpt>
      <trkpt lat="44.02984" lon="3.52437">
        <ele>1298.8069274854</ele>
        <time>2015-05-31T13:46:39Z</time>
      </trkpt>
      <trkpt lat="44.02978" lon="3.52436">
        <ele>1298.8069274854</ele>
        <time>2015-05-31T13:46:41Z</time>
      </trkpt>
      <trkpt lat="44.02975" lon="3.52435">
        <ele>1297.3737149916</ele>
        <time>2015-05-31T13:46:46Z</time>
      </trkpt>
      <trkpt lat="44.02965" lon="3.5243">
        <ele>1295.1236771725</ele>
        <time>2015-05-31T13:47:07Z</time>
      </trkpt>
      <trkpt lat="44.02961" lon="3.5243">
        <ele>1295.1236771725</ele>
        <time>2015-05-31T13:47:11Z</time>
      </trkpt>
      <trkpt lat="44.02957" lon="3.52433">
        <ele>1295.1236771725</ele>
        <time>2015-05-31T13:47:16Z</time>
      </trkpt>
      <trkpt lat="44.02949" lon="3.52436">
        <ele>1292.8326254413</ele>
        <time>2015-05-31T13:47:21Z</time>
      </trkpt>
      <trkpt lat="44.02943" lon="3.52435">
        <ele>1292.8326254413</ele>
        <time>2015-05-31T13:47:26Z</time>
      </trkpt>
      <trkpt lat="44.02935" lon="3.52432">
        <ele>1290.5133255671</ele>
        <time>2015-05-31T13:47:31Z</time>
      </trkpt>
      <trkpt lat="44.02928" lon="3.52433">
        <ele>1290.5133255671</ele>
        <time>2015-05-31T13:47:36Z</time>
      </trkpt>
      <trkpt lat="44.02923" lon="3.52434">
        <ele>1288.2496887221</ele>
        <time>2015-05-31T13:47:41Z</time>
      </trkpt>
      <trkpt lat="44.02915" lon="3.52436">
        <ele>1288.2496887221</ele>
        <time>2015-05-31T13:47:46Z</time>
      </trkpt>
      <trkpt lat="44.02908" lon="3.52436">
        <ele>1286.061584531</ele>
        <time>2015-05-31T13:47:51Z</time>
      </trkpt>
      <trkpt lat="44.02901" lon="3.52437">
        <ele>1286.061584531</ele>
        <time>2015-05-31T13:47:56Z</time>
      </trkpt>
      <trkpt lat="44.02894" lon="3.52436">
        <ele>1283.9238780428</ele>
        <time>2015-05-31T13:48:01Z</time>
      </trkpt>
      <trkpt lat="44.02888" lon="3.52433">
        <ele>1283.9238780428</ele>
        <time>2015-05-31T13:48:06Z</time>
      </trkpt>
      <trkpt lat="44.02883" lon="3.5243">
        <ele>1281.885074838</ele>
        <time>2015-05-31T13:48:11Z</time>
      </trkpt>
      <trkpt lat="44.02879" lon="3.52426">
        <ele>1281.885074838</ele>
        <time>2015-05-31T13:48:16Z</time>
      </trkpt>
      <trkpt lat="44.02876" lon="3.52421">
        <ele>1279.9176463541</ele>
        <time>2015-05-31T13:48:21Z</time>
      </trkpt>
      <trkpt lat="44.02873" lon="3.52412">
        <ele>1279.9176463541</ele>
        <time>2015-05-31T13:48:26Z</time>
      </trkpt>
      <trkpt lat="44.02871" lon="3.52404">
        <ele>1277.9813214907</ele>
        <time>2015-05-31T13:48:31Z</time>
      </trkpt>
      <trkpt lat="44.02867" lon="3.52393">
        <ele>1277.9813214907</ele>
        <time>2015-05-31T13:48:36Z</time>
      </trkpt>
      <trkpt lat="44.02864" lon="3.52386">
        <ele>1276.1105890459</ele>
        <time>2015-05-31T13:48:41Z</time>
      </trkpt>
      <trkpt lat="44.02862" lon="3.52377">
        <ele>1276.1105890459</ele>
        <time>2015-05-31T13:48:46Z</time>
      </trkpt>
      <trkpt lat="44.02859" lon="3.52368">
        <ele>1274.3226312418</ele>
        <time>2015-05-31T13:48:51Z</time>
      </trkpt>
      <trkpt lat="44.02857" lon="3.5236">
        <ele>1274.3226312418</ele>
        <time>2015-05-31T13:48:56Z</time>
      </trkpt>
      <trkpt lat="44.02857" lon="3.52354">
        <ele>1272.604126452</ele>
        <time>2015-05-31T13:49:01Z</time>
      </trkpt>
      <trkpt lat="44.02858" lon="3.52346">
        <ele>1272.604126452</ele>
        <time>2015-05-31T13:49:06Z</time>
      </trkpt>
      <trkpt lat="44.0286" lon="3.52338">
        <ele>1270.9711644076</ele>
        <time>2015-05-31T13:49:11Z</time>
      </trkpt>
      <trkpt lat="44.02859" lon="3.52333">
        <ele>1270.9711644076</ele>
        <time>2015-05-31T13:49:16Z</time>
      </trkpt>
      <trkpt lat="44.02859" lon="3.52328">
        <ele>1270.9711644076</ele>
        <time>2015-05-31T13:49:21Z</time>
      </trkpt>
      <trkpt lat="44.02862" lon="3.5232">
        <ele>1269.409390418</ele>
        <time>2015-05-31T13:49:26Z</time>
      </trkpt>
      <trkpt lat="44.02863" lon="3.52312">
        <ele>1269.409390418</ele>
        <time>2015-05-31T13:49:31Z</time>
      </trkpt>
      <trkpt lat="44.02867" lon="3.52302">
        <ele>1268.0203894586</ele>
        <time>2015-05-31T13:49:36Z</time>
      </trkpt>
      <trkpt lat="44.0287" lon="3.52296">
        <ele>1268.0203894586</ele>
        <time>2015-05-31T13:49:41Z</time>
      </trkpt>
      <trkpt lat="44.02872" lon="3.5229">
        <ele>1266.7534822201</ele>
        <time>2015-05-31T13:49:46Z</time>
      </trkpt>
      <trkpt lat="44.02871" lon="3.52286">
        <ele>1266.7534822201</ele>
        <time>2015-05-31T13:49:51Z</time>
      </trkpt>
      <trkpt lat="44.02873" lon="3.52276">
        <ele>1265.6332190669</ele>
        <time>2015-05-31T13:49:56Z</time>
      </trkpt>
      <trkpt lat="44.02875" lon="3.52267">
        <ele>1265.6332190669</ele>
        <time>2015-05-31T13:50:01Z</time>
      </trkpt>
      <trkpt lat="44.02878" lon="3.52257">
        <ele>1264.6673197296</ele>
        <time>2015-05-31T13:50:06Z</time>
      </trkpt>
      <trkpt lat="44.02879" lon="3.52247">
        <ele>1264.6673197296</ele>
        <time>2015-05-31T13:50:11Z</time>
      </trkpt>
      <trkpt lat="44.02881" lon="3.52238">
        <ele>1263.8478913483</ele>
        <time>2015-05-31T13:50:16Z</time>
      </trkpt>
      <trkpt lat="44.0288" lon="3.52234">
        <ele>1263.8478913483</ele>
        <time>2015-05-31T13:50:21Z</time>
      </trkpt>
      <trkpt lat="44.02878" lon="3.52232">
        <ele>1263.8478913483</ele>
        <time>2015-05-31T13:50:26Z</time>
      </trkpt>
      <trkpt lat="44.02873" lon="3.52218">
        <ele>1262.6770347035</ele>
        <time>2015-05-31T13:50:46Z</time>
      </trkpt>
      <trkpt lat="44.02871" lon="3.52214">
        <ele>1262.6770347035</ele>
        <time>2015-05-31T13:50:51Z</time>
      </trkpt>
      <trkpt lat="44.0287" lon="3.52209">
        <ele>1262.6770347035</ele>
        <time>2015-05-31T13:50:56Z</time>
      </trkpt>
      <trkpt lat="44.02871" lon="3.52204">
        <ele>1261.5877085624</ele>
        <time>2015-05-31T13:51:01Z</time>
      </trkpt>
      <trkpt lat="44.02873" lon="3.52196">
        <ele>1261.5877085624</ele>
        <time>2015-05-31T13:51:06Z</time>
      </trkpt>
      <trkpt lat="44.02874" lon="3.5219">
        <ele>1260.6203728024</ele>
        <time>2015-05-31T13:51:11Z</time>
      </trkpt>
      <trkpt lat="44.0288" lon="3.52178">
        <ele>1259.797579833</ele>
        <time>2015-05-31T13:51:16Z</time>
      </trkpt>
      <trkpt lat="44.02884" lon="3.52167">
        <ele>1259.797579833</ele>
        <time>2015-05-31T13:51:21Z</time>
      </trkpt>
      <trkpt lat="44.02886" lon="3.5216">
        <ele>1259.1108215789</ele>
        <time>2015-05-31T13:51:26Z</time>
      </trkpt>
      <trkpt lat="44.02888" lon="3.52155">
        <ele>1259.1108215789</ele>
        <time>2015-05-31T13:51:31Z</time>
      </trkpt>
      <trkpt lat="44.0289" lon="3.52152">
        <ele>1259.1108215789</ele>
        <time>2015-05-31T13:51:36Z</time>
      </trkpt>
      <trkpt lat="44.02892" lon="3.52145">
        <ele>1258.9551762654</ele>
        <time>2015-05-31T13:52:11Z</time>
      </trkpt>
      <trkpt lat="44.02892" lon="3.52139">
        <ele>1258.9551762654</ele>
        <time>2015-05-31T13:52:16Z</time>
      </trkpt>
      <trkpt lat="44.02892" lon="3.52138">
        <ele>1258.9551762654</ele>
        <time>2015-05-31T13:52:21Z</time>
      </trkpt>
      <trkpt lat="44.02893" lon="3.52122">
        <ele>1258.8303837837</ele>
        <time>2015-05-31T13:52:26Z</time>
      </trkpt>
      <trkpt lat="44.02895" lon="3.52118">
        <ele>1258.8303837837</ele>
        <time>2015-05-31T13:52:31Z</time>
      </trkpt>
      <trkpt lat="44.02898" lon="3.52114">
        <ele>1258.8303837837</ele>
        <time>2015-05-31T13:52:36Z</time>
      </trkpt>
      <trkpt lat="44.02899" lon="3.52109">
        <ele>1258.705031132</ele>
        <time>2015-05-31T13:52:41Z</time>
      </trkpt>
      <trkpt lat="44.02903" lon="3.52103">
        <ele>1258.705031132</ele>
        <time>2015-05-31T13:52:46Z</time>
      </trkpt>
      <trkpt lat="44.02906" lon="3.52095">
        <ele>1258.6075218113</ele>
        <time>2015-05-31T13:52:51Z</time>
      </trkpt>
      <trkpt lat="44.02908" lon="3.52088">
        <ele>1258.6075218113</ele>
        <time>2015-05-31T13:52:56Z</time>
      </trkpt>
      <trkpt lat="44.02912" lon="3.52083">
        <ele>1258.5495584386</ele>
        <time>2015-05-31T13:53:01Z</time>
      </trkpt>
      <trkpt lat="44.02915" lon="3.52081">
        <ele>1258.5495584386</ele>
        <time>2015-05-31T13:53:06Z</time>
      </trkpt>
      <trkpt lat="44.0292" lon="3.52078">
        <ele>1258.5273483963</ele>
        <time>2015-05-31T13:53:11Z</time>
      </trkpt>
      <trkpt lat="44.02926" lon="3.52078">
        <ele>1258.5273483963</ele>
        <time>2015-05-31T13:53:16Z</time>
      </trkpt>
      <trkpt lat="44.02928" lon="3.52078">
        <ele>1258.5273483963</ele>
        <time>2015-05-31T13:53:21Z</time>
      </trkpt>
      <trkpt lat="44.02934" lon="3.52076">
        <ele>1258.4362972047</ele>
        <time>2015-05-31T13:53:26Z</time>
      </trkpt>
      <trkpt lat="44.02941" lon="3.52075">
        <ele>1258.4362972047</ele>
        <time>2015-05-31T13:53:31Z</time>
      </trkpt>
      <trkpt lat="44.02949" lon="3.52073">
        <ele>1258.4245844413</ele>
        <time>2015-05-31T13:53:36Z</time>
      </trkpt>
      <trkpt lat="44.02957" lon="3.52072">
        <ele>1258.4245844413</ele>
        <time>2015-05-31T13:53:41Z</time>
      </trkpt>
      <trkpt lat="44.02962" lon="3.52072">
        <ele>1258.4706786493</ele>
        <time>2015-05-31T13:53:46Z</time>
      </trkpt>
      <trkpt lat="44.02966" lon="3.52072">
        <ele>1258.4706786493</ele>
        <time>2015-05-31T13:53:51Z</time>
      </trkpt>
      <trkpt lat="44.02973" lon="3.5207">
        <ele>1258.6985084708</ele>
        <time>2015-05-31T13:53:56Z</time>
      </trkpt>
      <trkpt lat="44.02977" lon="3.5207">
        <ele>1258.6985084708</ele>
        <time>2015-05-31T13:54:01Z</time>
      </trkpt>
      <trkpt lat="44.02983" lon="3.52075">
        <ele>1258.9629286299</ele>
        <time>2015-05-31T13:54:06Z</time>
      </trkpt>
      <trkpt lat="44.02989" lon="3.52082">
        <ele>1258.9629286299</ele>
        <time>2015-05-31T13:54:11Z</time>
      </trkpt>
      <trkpt lat="44.02996" lon="3.52089">
        <ele>1259.1725368354</ele>
        <time>2015-05-31T13:54:16Z</time>
      </trkpt>
      <trkpt lat="44.03002" lon="3.52091">
        <ele>1259.1725368354</ele>
        <time>2015-05-31T13:54:21Z</time>
      </trkpt>
      <trkpt lat="44.03009" lon="3.52096">
        <ele>1259.3292255977</ele>
        <time>2015-05-31T13:54:26Z</time>
      </trkpt>
      <trkpt lat="44.03017" lon="3.52097">
        <ele>1259.3292255977</ele>
        <time>2015-05-31T13:54:31Z</time>
      </trkpt>
      <trkpt lat="44.03022" lon="3.52098">
        <ele>1259.4492773719</ele>
        <time>2015-05-31T13:54:36Z</time>
      </trkpt>
      <trkpt lat="44.03024" lon="3.52096">
        <ele>1259.4492773719</ele>
        <time>2015-05-31T13:54:41Z</time>
      </trkpt>
      <trkpt lat="44.0303" lon="3.52092">
        <ele>1259.4902146565</ele>
        <time>2015-05-31T13:54:51Z</time>
      </trkpt>
      <trkpt lat="44.03035" lon="3.52089">
        <ele>1259.4902146565</ele>
        <time>2015-05-31T13:54:56Z</time>
      </trkpt>
      <trkpt lat="44.03042" lon="3.52089">
        <ele>1259.3264205367</ele>
        <time>2015-05-31T13:55:01Z</time>
      </trkpt>
      <trkpt lat="44.03048" lon="3.52088">
        <ele>1259.3264205367</ele>
        <time>2015-05-31T13:55:06Z</time>
      </trkpt>
      <trkpt lat="44.03054" lon="3.52089">
        <ele>1259.0005932118</ele>
        <time>2015-05-31T13:55:11Z</time>
      </trkpt>
      <trkpt lat="44.0306" lon="3.5209">
        <ele>1259.0005932118</ele>
        <time>2015-05-31T13:55:16Z</time>
      </trkpt>
      <trkpt lat="44.03067" lon="3.52091">
        <ele>1258.7977333186</ele>
        <time>2015-05-31T13:55:21Z</time>
      </trkpt>
      <trkpt lat="44.03073" lon="3.52091">
        <ele>1258.7977333186</ele>
        <time>2015-05-31T13:55:26Z</time>
      </trkpt>
      <trkpt lat="44.0308" lon="3.52091">
        <ele>1258.6212818759</ele>
        <time>2015-05-31T13:55:31Z</time>
      </trkpt>
      <trkpt lat="44.03086" lon="3.52087">
        <ele>1258.6212818759</ele>
        <time>2015-05-31T13:55:36Z</time>
      </trkpt>
      <trkpt lat="44.03092" lon="3.52085">
        <ele>1258.6555129577</ele>
        <time>2015-05-31T13:55:41Z</time>
      </trkpt>
      <trkpt lat="44.03099" lon="3.52084">
        <ele>1258.6555129577</ele>
        <time>2015-05-31T13:55:46Z</time>
      </trkpt>
      <trkpt lat="44.03105" lon="3.52082">
        <ele>1258.7535348512</ele>
        <time>2015-05-31T13:55:51Z</time>
      </trkpt>
      <trkpt lat="44.03111" lon="3.52083">
        <ele>1258.7535348512</ele>
        <time>2015-05-31T13:55:56Z</time>
      </trkpt>
      <trkpt lat="44.03117" lon="3.52082">
        <ele>1259.0673008015</ele>
        <time>2015-05-31T13:56:01Z</time>
      </trkpt>
      <trkpt lat="44.03124" lon="3.52084">
        <ele>1259.0673008015</ele>
        <time>2015-05-31T13:56:06Z</time>
      </trkpt>
      <trkpt lat="44.0313" lon="3.52079">
        <ele>1259.5352570885</ele>
        <time>2015-05-31T13:56:11Z</time>
      </trkpt>
      <trkpt lat="44.03136" lon="3.52072">
        <ele>1259.5352570885</ele>
        <time>2015-05-31T13:56:16Z</time>
      </trkpt>
      <trkpt lat="44.03141" lon="3.52071">
        <ele>1260.2584840634</ele>
        <time>2015-05-31T13:56:21Z</time>
      </trkpt>
      <trkpt lat="44.03146" lon="3.5207">
        <ele>1260.2584840634</ele>
        <time>2015-05-31T13:56:26Z</time>
      </trkpt>
      <trkpt lat="44.03151" lon="3.5207">
        <ele>1261.2578951705</ele>
        <time>2015-05-31T13:56:31Z</time>
      </trkpt>
      <trkpt lat="44.03157" lon="3.5207">
        <ele>1261.2578951705</ele>
        <time>2015-05-31T13:56:36Z</time>
      </trkpt>
      <trkpt lat="44.03162" lon="3.52069">
        <ele>1262.5377205346</ele>
        <time>2015-05-31T13:56:41Z</time>
      </trkpt>
      <trkpt lat="44.03168" lon="3.52068">
        <ele>1262.5377205346</ele>
        <time>2015-05-31T13:56:46Z</time>
      </trkpt>
      <trkpt lat="44.03173" lon="3.52069">
        <ele>1263.8705636357</ele>
        <time>2015-05-31T13:56:51Z</time>
      </trkpt>
      <trkpt lat="44.03178" lon="3.52068">
        <ele>1263.8705636357</ele>
        <time>2015-05-31T13:56:56Z</time>
      </trkpt>
      <trkpt lat="44.03188" lon="3.52073">
        <ele>1265.1032869385</ele>
        <time>2015-05-31T13:57:01Z</time>
      </trkpt>
      <trkpt lat="44.03193" lon="3.52072">
        <ele>1265.1032869385</ele>
        <time>2015-05-31T13:57:06Z</time>
      </trkpt>
      <trkpt lat="44.03199" lon="3.5207">
        <ele>1266.4113968737</ele>
        <time>2015-05-31T13:57:11Z</time>
      </trkpt>
      <trkpt lat="44.03206" lon="3.52072">
        <ele>1266.4113968737</ele>
        <time>2015-05-31T13:57:16Z</time>
      </trkpt>
      <trkpt lat="44.03213" lon="3.52078">
        <ele>1267.4818073635</ele>
        <time>2015-05-31T13:57:21Z</time>
      </trkpt>
      <trkpt lat="44.03219" lon="3.52083">
        <ele>1267.4818073635</ele>
        <time>2015-05-31T13:57:26Z</time>
      </trkpt>
      <trkpt lat="44.03224" lon="3.52085">
        <ele>1268.5872183421</ele>
        <time>2015-05-31T13:57:31Z</time>
      </trkpt>
      <trkpt lat="44.03234" lon="3.52087">
        <ele>1269.6920701705</ele>
        <time>2015-05-31T13:57:36Z</time>
      </trkpt>
      <trkpt lat="44.03242" lon="3.52085">
        <ele>1269.6920701705</ele>
        <time>2015-05-31T13:57:41Z</time>
      </trkpt>
      <trkpt lat="44.03248" lon="3.52081">
        <ele>1270.6626379369</ele>
        <time>2015-05-31T13:57:46Z</time>
      </trkpt>
      <trkpt lat="44.03255" lon="3.5208">
        <ele>1270.6626379369</ele>
        <time>2015-05-31T13:57:51Z</time>
      </trkpt>
      <trkpt lat="44.03263" lon="3.52083">
        <ele>1271.4907885724</ele>
        <time>2015-05-31T13:57:56Z</time>
      </trkpt>
      <trkpt lat="44.0327" lon="3.52083">
        <ele>1271.4907885724</ele>
        <time>2015-05-31T13:58:01Z</time>
      </trkpt>
      <trkpt lat="44.03278" lon="3.52085">
        <ele>1272.2415473016</ele>
        <time>2015-05-31T13:58:06Z</time>
      </trkpt>
      <trkpt lat="44.03284" lon="3.52081">
        <ele>1272.2415473016</ele>
        <time>2015-05-31T13:58:11Z</time>
      </trkpt>
      <trkpt lat="44.03288" lon="3.5208">
        <ele>1272.8746091408</ele>
        <time>2015-05-31T13:58:16Z</time>
      </trkpt>
      <trkpt lat="44.03291" lon="3.52077">
        <ele>1272.8746091408</ele>
        <time>2015-05-31T13:58:21Z</time>
      </trkpt>
      <trkpt lat="44.03298" lon="3.52075">
        <ele>1273.5836455323</ele>
        <time>2015-05-31T13:58:26Z</time>
      </trkpt>
      <trkpt lat="44.03304" lon="3.52071">
        <ele>1273.5836455323</ele>
        <time>2015-05-31T13:58:31Z</time>
      </trkpt>
      <trkpt lat="44.03312" lon="3.52069">
        <ele>1274.1733057082</ele>
        <time>2015-05-31T13:58:36Z</time>
      </trkpt>
      <trkpt lat="44.03318" lon="3.52069">
        <ele>1274.1733057082</ele>
        <time>2015-05-31T13:58:41Z</time>
      </trkpt>
      <trkpt lat="44.03327" lon="3.52069">
        <ele>1274.6936075496</ele>
        <time>2015-05-31T13:58:46Z</time>
      </trkpt>
      <trkpt lat="44.03332" lon="3.52067">
        <ele>1274.6936075496</ele>
        <time>2015-05-31T13:58:51Z</time>
      </trkpt>
      <trkpt lat="44.03346" lon="3.52075">
        <ele>1274.1247682846</ele>
        <time>2015-05-31T13:58:56Z</time>
      </trkpt>
      <trkpt lat="44.03354" lon="3.52078">
        <ele>1274.1247682846</ele>
        <time>2015-05-31T13:59:01Z</time>
      </trkpt>
      <trkpt lat="44.03362" lon="3.52079">
        <ele>1272.5626679058</ele>
        <time>2015-05-31T13:59:06Z</time>
      </trkpt>
      <trkpt lat="44.03365" lon="3.52079">
        <ele>1272.5626679058</ele>
        <time>2015-05-31T13:59:11Z</time>
      </trkpt>
      <trkpt lat="44.03365" lon="3.52079">
        <ele>1272.5626679058</ele>
        <time>2015-05-31T13:59:16Z</time>
      </trkpt>
      <trkpt lat="44.03366" lon="3.52065">
        <ele>1270.9780910136</ele>
        <time>2015-05-31T13:59:26Z</time>
      </trkpt>
      <trkpt lat="44.03367" lon="3.52064">
        <ele>1270.9780910136</ele>
        <time>2015-05-31T13:59:31Z</time>
      </trkpt>
      <trkpt lat="44.03372" lon="3.52062">
        <ele>1270.9780910136</ele>
        <time>2015-05-31T14:00:06Z</time>
      </trkpt>
      <trkpt lat="44.03373" lon="3.52062">
        <ele>1270.9780910136</ele>
        <time>2015-05-31T14:00:11Z</time>
      </trkpt>
      <trkpt lat="44.03373" lon="3.52062">
        <ele>1270.9780910136</ele>
        <time>2015-05-31T14:00:16Z</time>
      </trkpt>
      <trkpt lat="44.03375" lon="3.52062">
        <ele>1269.1465731313</ele>
        <time>2015-05-31T14:00:21Z</time>
      </trkpt>
      <trkpt lat="44.03373" lon="3.52063">
        <ele>1269.1465731313</ele>
        <time>2015-05-31T14:00:31Z</time>
      </trkpt>
      <trkpt lat="44.03373" lon="3.52062">
        <ele>1269.1465731313</ele>
        <time>2015-05-31T14:00:36Z</time>
      </trkpt>
      <trkpt lat="44.03383" lon="3.52059">
        <ele>1265.5062336346</ele>
        <time>2015-05-31T14:03:11Z</time>
      </trkpt>
      <trkpt lat="44.03371" lon="3.52062">
        <ele>1262.2898594961</ele>
        <time>2015-05-31T14:03:41Z</time>
      </trkpt>
      <trkpt lat="44.03371" lon="3.52061">
        <ele>1262.2898594961</ele>
        <time>2015-05-31T14:03:46Z</time>
      </trkpt>
      <trkpt lat="44.03383" lon="3.5206">
        <ele>1259.2160158202</ele>
        <time>2015-05-31T14:04:31Z</time>
      </trkpt>
      <trkpt lat="44.0339" lon="3.5206">
        <ele>1259.2160158202</ele>
        <time>2015-05-31T14:04:36Z</time>
      </trkpt>
      <trkpt lat="44.03392" lon="3.52063">
        <ele>1256.4126152517</ele>
        <time>2015-05-31T14:04:41Z</time>
      </trkpt>
      <trkpt lat="44.03397" lon="3.52063">
        <ele>1256.4126152517</ele>
        <time>2015-05-31T14:04:46Z</time>
      </trkpt>
      <trkpt lat="44.03403" lon="3.52063">
        <ele>1253.8820756528</ele>
        <time>2015-05-31T14:04:51Z</time>
      </trkpt>
      <trkpt lat="44.03408" lon="3.52064">
        <ele>1253.8820756528</ele>
        <time>2015-05-31T14:04:56Z</time>
      </trkpt>
      <trkpt lat="44.03413" lon="3.52062">
        <ele>1251.7122681412</ele>
        <time>2015-05-31T14:05:01Z</time>
      </trkpt>
      <trkpt lat="44.03418" lon="3.52058">
        <ele>1251.7122681412</ele>
        <time>2015-05-31T14:05:06Z</time>
      </trkpt>
      <trkpt lat="44.03423" lon="3.52059">
        <ele>1249.8970443547</ele>
        <time>2015-05-31T14:05:11Z</time>
      </trkpt>
      <trkpt lat="44.03429" lon="3.5206">
        <ele>1249.8970443547</ele>
        <time>2015-05-31T14:05:16Z</time>
      </trkpt>
      <trkpt lat="44.03434" lon="3.52061">
        <ele>1248.5016714134</ele>
        <time>2015-05-31T14:05:21Z</time>
      </trkpt>
      <trkpt lat="44.0344" lon="3.52059">
        <ele>1248.5016714134</ele>
        <time>2015-05-31T14:05:26Z</time>
      </trkpt>
      <trkpt lat="44.03445" lon="3.52058">
        <ele>1247.3403508712</ele>
        <time>2015-05-31T14:05:31Z</time>
      </trkpt>
      <trkpt lat="44.03451" lon="3.52058">
        <ele>1247.3403508712</ele>
        <time>2015-05-31T14:05:36Z</time>
      </trkpt>
      <trkpt lat="44.03457" lon="3.52059">
        <ele>1246.5283909816</ele>
        <time>2015-05-31T14:05:41Z</time>
      </trkpt>
      <trkpt lat="44.03465" lon="3.52056">
        <ele>1246.5283909816</ele>
        <time>2015-05-31T14:05:46Z</time>
      </trkpt>
      <trkpt lat="44.03475" lon="3.52053">
        <ele>1245.7968523322</ele>
        <time>2015-05-31T14:05:51Z</time>
      </trkpt>
      <trkpt lat="44.0348" lon="3.52051">
        <ele>1245.7968523322</ele>
        <time>2015-05-31T14:05:56Z</time>
      </trkpt>
      <trkpt lat="44.03484" lon="3.52052">
        <ele>1245.3717871384</ele>
        <time>2015-05-31T14:06:01Z</time>
      </trkpt>
      <trkpt lat="44.03491" lon="3.52053">
        <ele>1245.3717871384</ele>
        <time>2015-05-31T14:06:06Z</time>
      </trkpt>
      <trkpt lat="44.03496" lon="3.52053">
        <ele>1245.2311031658</ele>
        <time>2015-05-31T14:06:11Z</time>
      </trkpt>
      <trkpt lat="44.03503" lon="3.5205">
        <ele>1245.2311031658</ele>
        <time>2015-05-31T14:06:16Z</time>
      </trkpt>
      <trkpt lat="44.0351" lon="3.52046">
        <ele>1245.3534387548</ele>
        <time>2015-05-31T14:06:21Z</time>
      </trkpt>
      <trkpt lat="44.03515" lon="3.52044">
        <ele>1245.3534387548</ele>
        <time>2015-05-31T14:06:26Z</time>
      </trkpt>
      <trkpt lat="44.03523" lon="3.52043">
        <ele>1245.4875993081</ele>
        <time>2015-05-31T14:06:31Z</time>
      </trkpt>
      <trkpt lat="44.0353" lon="3.52041">
        <ele>1245.4875993081</ele>
        <time>2015-05-31T14:06:36Z</time>
      </trkpt>
      <trkpt lat="44.03538" lon="3.52039">
        <ele>1245.4583766866</ele>
        <time>2015-05-31T14:06:41Z</time>
      </trkpt>
      <trkpt lat="44.03544" lon="3.52035">
        <ele>1245.4583766866</ele>
        <time>2015-05-31T14:06:46Z</time>
      </trkpt>
      <trkpt lat="44.03549" lon="3.52034">
        <ele>1245.7379132633</ele>
        <time>2015-05-31T14:06:51Z</time>
      </trkpt>
      <trkpt lat="44.03554" lon="3.52033">
        <ele>1245.7379132633</ele>
        <time>2015-05-31T14:06:56Z</time>
      </trkpt>
      <trkpt lat="44.03558" lon="3.5203">
        <ele>1245.9413102355</ele>
        <time>2015-05-31T14:07:01Z</time>
      </trkpt>
      <trkpt lat="44.03564" lon="3.52029">
        <ele>1245.9413102355</ele>
        <time>2015-05-31T14:07:06Z</time>
      </trkpt>
      <trkpt lat="44.03569" lon="3.52027">
        <ele>1246.2453195107</ele>
        <time>2015-05-31T14:07:11Z</time>
      </trkpt>
      <trkpt lat="44.03576" lon="3.52026">
        <ele>1246.2453195107</ele>
        <time>2015-05-31T14:07:16Z</time>
      </trkpt>
      <trkpt lat="44.03585" lon="3.52026">
        <ele>1246.4675203011</ele>
        <time>2015-05-31T14:07:21Z</time>
      </trkpt>
      <trkpt lat="44.03588" lon="3.52022">
        <ele>1246.4675203011</ele>
        <time>2015-05-31T14:07:26Z</time>
      </trkpt>
      <trkpt lat="44.03588" lon="3.5202">
        <ele>1246.4675203011</ele>
        <time>2015-05-31T14:07:31Z</time>
      </trkpt>
      <trkpt lat="44.03603" lon="3.52025">
        <ele>1245.7329447784</ele>
        <time>2015-05-31T14:07:41Z</time>
      </trkpt>
      <trkpt lat="44.0361" lon="3.52025">
        <ele>1245.7329447784</ele>
        <time>2015-05-31T14:07:46Z</time>
      </trkpt>
      <trkpt lat="44.03616" lon="3.52019">
        <ele>1244.8764239214</ele>
        <time>2015-05-31T14:07:51Z</time>
      </trkpt>
      <trkpt lat="44.03625" lon="3.52003">
        <ele>1244.0953356408</ele>
        <time>2015-05-31T14:07:56Z</time>
      </trkpt>
      <trkpt lat="44.03631" lon="3.51994">
        <ele>1243.4282122413</ele>
        <time>2015-05-31T14:08:01Z</time>
      </trkpt>
      <trkpt lat="44.03635" lon="3.51991">
        <ele>1243.4282122413</ele>
        <time>2015-05-31T14:08:06Z</time>
      </trkpt>
      <trkpt lat="44.03632" lon="3.51991">
        <ele>1243.4282122413</ele>
        <time>2015-05-31T14:08:11Z</time>
      </trkpt>
      <trkpt lat="44.03632" lon="3.51991">
        <ele>1243.4282122413</ele>
        <time>2015-05-31T14:08:16Z</time>
      </trkpt>
      <trkpt lat="44.03632" lon="3.51981">
        <ele>1242.1898548903</ele>
        <time>2015-05-31T14:08:51Z</time>
      </trkpt>
      <trkpt lat="44.03633" lon="3.5198">
        <ele>1242.1898548903</ele>
        <time>2015-05-31T14:08:56Z</time>
      </trkpt>
      <trkpt lat="44.03632" lon="3.51978">
        <ele>1242.1898548903</ele>
        <time>2015-05-31T14:09:01Z</time>
      </trkpt>
      <trkpt lat="44.03633" lon="3.51981">
        <ele>1242.1898548903</ele>
        <time>2015-05-31T14:09:26Z</time>
      </trkpt>
      <trkpt lat="44.03635" lon="3.51976">
        <ele>1240.7125190656</ele>
        <time>2015-05-31T14:09:31Z</time>
      </trkpt>
      <trkpt lat="44.03635" lon="3.51974">
        <ele>1240.7125190656</ele>
        <time>2015-05-31T14:09:36Z</time>
      </trkpt>
      <trkpt lat="44.03634" lon="3.51968">
        <ele>1240.7125190656</ele>
        <time>2015-05-31T14:09:46Z</time>
      </trkpt>
      <trkpt lat="44.03639" lon="3.51966">
        <ele>1239.3767487377</ele>
        <time>2015-05-31T14:09:51Z</time>
      </trkpt>
      <trkpt lat="44.03643" lon="3.51957">
        <ele>1239.3767487377</ele>
        <time>2015-05-31T14:09:56Z</time>
      </trkpt>
      <trkpt lat="44.03647" lon="3.51952">
        <ele>1238.0735464399</ele>
        <time>2015-05-31T14:10:01Z</time>
      </trkpt>
      <trkpt lat="44.03651" lon="3.51947">
        <ele>1238.0735464399</ele>
        <time>2015-05-31T14:10:06Z</time>
      </trkpt>
      <trkpt lat="44.03655" lon="3.51944">
        <ele>1236.8891365682</ele>
        <time>2015-05-31T14:10:11Z</time>
      </trkpt>
      <trkpt lat="44.03656" lon="3.51943">
        <ele>1236.8891365682</ele>
        <time>2015-05-31T14:10:16Z</time>
      </trkpt>
      <trkpt lat="44.03656" lon="3.51943">
        <ele>1236.8891365682</ele>
        <time>2015-05-31T14:10:21Z</time>
      </trkpt>
      <trkpt lat="44.03657" lon="3.51931">
        <ele>1235.7156900682</ele>
        <time>2015-05-31T14:10:36Z</time>
      </trkpt>
      <trkpt lat="44.03661" lon="3.51926">
        <ele>1235.7156900682</ele>
        <time>2015-05-31T14:10:41Z</time>
      </trkpt>
      <trkpt lat="44.03669" lon="3.5192">
        <ele>1234.6117462985</ele>
        <time>2015-05-31T14:10:46Z</time>
      </trkpt>
      <trkpt lat="44.03673" lon="3.51915">
        <ele>1234.6117462985</ele>
        <time>2015-05-31T14:10:51Z</time>
      </trkpt>
      <trkpt lat="44.03676" lon="3.51914">
        <ele>1234.6117462985</ele>
        <time>2015-05-31T14:10:56Z</time>
      </trkpt>
      <trkpt lat="44.03679" lon="3.51909">
        <ele>1233.6745370812</ele>
        <time>2015-05-31T14:11:01Z</time>
      </trkpt>
      <trkpt lat="44.03684" lon="3.51902">
        <ele>1233.6745370812</ele>
        <time>2015-05-31T14:11:06Z</time>
      </trkpt>
      <trkpt lat="44.03688" lon="3.51891">
        <ele>1232.8351154776</ele>
        <time>2015-05-31T14:11:11Z</time>
      </trkpt>
      <trkpt lat="44.03694" lon="3.51886">
        <ele>1232.8351154776</ele>
        <time>2015-05-31T14:11:16Z</time>
      </trkpt>
      <trkpt lat="44.03699" lon="3.5188">
        <ele>1232.1013349542</ele>
        <time>2015-05-31T14:11:21Z</time>
      </trkpt>
      <trkpt lat="44.03703" lon="3.51874">
        <ele>1232.1013349542</ele>
        <time>2015-05-31T14:11:26Z</time>
      </trkpt>
      <trkpt lat="44.03708" lon="3.51867">
        <ele>1231.3648424761</ele>
        <time>2015-05-31T14:11:31Z</time>
      </trkpt>
      <trkpt lat="44.03711" lon="3.51861">
        <ele>1231.3648424761</ele>
        <time>2015-05-31T14:11:36Z</time>
      </trkpt>
      <trkpt lat="44.03715" lon="3.51852">
        <ele>1230.8278436806</ele>
        <time>2015-05-31T14:11:41Z</time>
      </trkpt>
      <trkpt lat="44.0372" lon="3.51845">
        <ele>1230.8278436806</ele>
        <time>2015-05-31T14:11:46Z</time>
      </trkpt>
      <trkpt lat="44.03723" lon="3.51839">
        <ele>1230.4176917636</ele>
        <time>2015-05-31T14:11:51Z</time>
      </trkpt>
      <trkpt lat="44.03726" lon="3.51831">
        <ele>1230.4176917636</ele>
        <time>2015-05-31T14:11:56Z</time>
      </trkpt>
      <trkpt lat="44.03728" lon="3.51825">
        <ele>1230.0666857121</ele>
        <time>2015-05-31T14:12:01Z</time>
      </trkpt>
      <trkpt lat="44.03728" lon="3.51824">
        <ele>1230.0666857121</ele>
        <time>2015-05-31T14:12:06Z</time>
      </trkpt>
      <trkpt lat="44.03725" lon="3.51815">
        <ele>1230.0666857121</ele>
        <time>2015-05-31T14:12:31Z</time>
      </trkpt>
      <trkpt lat="44.03728" lon="3.51809">
        <ele>1229.5966121572</ele>
        <time>2015-05-31T14:12:36Z</time>
      </trkpt>
      <trkpt lat="44.03732" lon="3.51799">
        <ele>1229.5966121572</ele>
        <time>2015-05-31T14:12:41Z</time>
      </trkpt>
      <trkpt lat="44.03736" lon="3.51792">
        <ele>1229.1020569179</ele>
        <time>2015-05-31T14:12:46Z</time>
      </trkpt>
      <trkpt lat="44.03738" lon="3.51784">
        <ele>1229.1020569179</ele>
        <time>2015-05-31T14:12:51Z</time>
      </trkpt>
      <trkpt lat="44.0374" lon="3.51775">
        <ele>1228.598648447</ele>
        <time>2015-05-31T14:12:56Z</time>
      </trkpt>
      <trkpt lat="44.03742" lon="3.51767">
        <ele>1228.598648447</ele>
        <time>2015-05-31T14:13:01Z</time>
      </trkpt>
      <trkpt lat="44.03745" lon="3.5176">
        <ele>1228.1585179818</ele>
        <time>2015-05-31T14:13:06Z</time>
      </trkpt>
      <trkpt lat="44.03748" lon="3.51751">
        <ele>1228.1585179818</ele>
        <time>2015-05-31T14:13:11Z</time>
      </trkpt>
      <trkpt lat="44.03751" lon="3.51742">
        <ele>1227.7474277051</ele>
        <time>2015-05-31T14:13:16Z</time>
      </trkpt>
      <trkpt lat="44.03754" lon="3.51735">
        <ele>1227.7474277051</ele>
        <time>2015-05-31T14:13:21Z</time>
      </trkpt>
      <trkpt lat="44.03759" lon="3.5173">
        <ele>1227.4056174767</ele>
        <time>2015-05-31T14:13:26Z</time>
      </trkpt>
      <trkpt lat="44.03764" lon="3.51723">
        <ele>1227.4056174767</ele>
        <time>2015-05-31T14:13:31Z</time>
      </trkpt>
      <trkpt lat="44.03768" lon="3.51714">
        <ele>1227.112524409</ele>
        <time>2015-05-31T14:13:36Z</time>
      </trkpt>
      <trkpt lat="44.03772" lon="3.51705">
        <ele>1227.112524409</ele>
        <time>2015-05-31T14:13:41Z</time>
      </trkpt>
      <trkpt lat="44.03776" lon="3.51695">
        <ele>1226.8489553034</ele>
        <time>2015-05-31T14:13:46Z</time>
      </trkpt>
      <trkpt lat="44.0378" lon="3.51687">
        <ele>1226.8489553034</ele>
        <time>2015-05-31T14:13:51Z</time>
      </trkpt>
      <trkpt lat="44.03785" lon="3.51681">
        <ele>1226.640277115</ele>
        <time>2015-05-31T14:13:56Z</time>
      </trkpt>
      <trkpt lat="44.03789" lon="3.51673">
        <ele>1226.640277115</ele>
        <time>2015-05-31T14:14:01Z</time>
      </trkpt>
      <trkpt lat="44.03793" lon="3.51667">
        <ele>1226.4810208509</ele>
        <time>2015-05-31T14:14:06Z</time>
      </trkpt>
      <trkpt lat="44.03797" lon="3.51659">
        <ele>1226.4810208509</ele>
        <time>2015-05-31T14:14:11Z</time>
      </trkpt>
      <trkpt lat="44.038" lon="3.51651">
        <ele>1226.4236329726</ele>
        <time>2015-05-31T14:14:16Z</time>
      </trkpt>
      <trkpt lat="44.03803" lon="3.51644">
        <ele>1226.4236329726</ele>
        <time>2015-05-31T14:14:21Z</time>
      </trkpt>
      <trkpt lat="44.03806" lon="3.51638">
        <ele>1226.4587892767</ele>
        <time>2015-05-31T14:14:26Z</time>
      </trkpt>
      <trkpt lat="44.03811" lon="3.51632">
        <ele>1226.4587892767</ele>
        <time>2015-05-31T14:14:31Z</time>
      </trkpt>
      <trkpt lat="44.03815" lon="3.51626">
        <ele>1226.6208412391</ele>
        <time>2015-05-31T14:14:36Z</time>
      </trkpt>
      <trkpt lat="44.03819" lon="3.51619">
        <ele>1226.6208412391</ele>
        <time>2015-05-31T14:14:41Z</time>
      </trkpt>
      <trkpt lat="44.03822" lon="3.51611">
        <ele>1226.7971717193</ele>
        <time>2015-05-31T14:14:46Z</time>
      </trkpt>
      <trkpt lat="44.03826" lon="3.51603">
        <ele>1226.7971717193</ele>
        <time>2015-05-31T14:14:51Z</time>
      </trkpt>
      <trkpt lat="44.03829" lon="3.51596">
        <ele>1227.0995903829</ele>
        <time>2015-05-31T14:14:56Z</time>
      </trkpt>
      <trkpt lat="44.03833" lon="3.51591">
        <ele>1227.0995903829</ele>
        <time>2015-05-31T14:15:01Z</time>
      </trkpt>
      <trkpt lat="44.03837" lon="3.51583">
        <ele>1227.3719723183</ele>
        <time>2015-05-31T14:15:06Z</time>
      </trkpt>
      <trkpt lat="44.03843" lon="3.51577">
        <ele>1227.3719723183</ele>
        <time>2015-05-31T14:15:11Z</time>
      </trkpt>
      <trkpt lat="44.03848" lon="3.51568">
        <ele>1227.6571282661</ele>
        <time>2015-05-31T14:15:16Z</time>
      </trkpt>
      <trkpt lat="44.03852" lon="3.51561">
        <ele>1227.6571282661</ele>
        <time>2015-05-31T14:15:21Z</time>
      </trkpt>
      <trkpt lat="44.03856" lon="3.51554">
        <ele>1227.879442292</ele>
        <time>2015-05-31T14:15:26Z</time>
      </trkpt>
      <trkpt lat="44.03861" lon="3.51548">
        <ele>1227.879442292</ele>
        <time>2015-05-31T14:15:31Z</time>
      </trkpt>
      <trkpt lat="44.03867" lon="3.51543">
        <ele>1228.0267211994</ele>
        <time>2015-05-31T14:15:36Z</time>
      </trkpt>
      <trkpt lat="44.03869" lon="3.51537">
        <ele>1228.0267211994</ele>
        <time>2015-05-31T14:15:41Z</time>
      </trkpt>
      <trkpt lat="44.03869" lon="3.51535">
        <ele>1228.0267211994</ele>
        <time>2015-05-31T14:15:46Z</time>
      </trkpt>
      <trkpt lat="44.03875" lon="3.51531">
        <ele>1228.0158730281</ele>
        <time>2015-05-31T14:16:01Z</time>
      </trkpt>
      <trkpt lat="44.03878" lon="3.51525">
        <ele>1228.0158730281</ele>
        <time>2015-05-31T14:16:06Z</time>
      </trkpt>
      <trkpt lat="44.03884" lon="3.51521">
        <ele>1227.986573092</ele>
        <time>2015-05-31T14:16:11Z</time>
      </trkpt>
      <trkpt lat="44.03887" lon="3.5151">
        <ele>1227.986573092</ele>
        <time>2015-05-31T14:16:16Z</time>
      </trkpt>
      <trkpt lat="44.03891" lon="3.51504">
        <ele>1227.9242313171</ele>
        <time>2015-05-31T14:16:21Z</time>
      </trkpt>
      <trkpt lat="44.03895" lon="3.51497">
        <ele>1227.9242313171</ele>
        <time>2015-05-31T14:16:26Z</time>
      </trkpt>
      <trkpt lat="44.039" lon="3.51491">
        <ele>1227.8298883068</ele>
        <time>2015-05-31T14:16:31Z</time>
      </trkpt>
      <trkpt lat="44.03904" lon="3.51486">
        <ele>1227.8298883068</ele>
        <time>2015-05-31T14:16:36Z</time>
      </trkpt>
      <trkpt lat="44.03908" lon="3.51479">
        <ele>1227.5893639313</ele>
        <time>2015-05-31T14:16:41Z</time>
      </trkpt>
      <trkpt lat="44.0391" lon="3.51467">
        <ele>1227.5893639313</ele>
        <time>2015-05-31T14:16:46Z</time>
      </trkpt>
      <trkpt lat="44.03914" lon="3.5146">
        <ele>1227.3279077229</ele>
        <time>2015-05-31T14:16:51Z</time>
      </trkpt>
      <trkpt lat="44.03917" lon="3.51453">
        <ele>1227.3279077229</ele>
        <time>2015-05-31T14:16:56Z</time>
      </trkpt>
      <trkpt lat="44.0392" lon="3.51446">
        <ele>1227.1040355816</ele>
        <time>2015-05-31T14:17:01Z</time>
      </trkpt>
      <trkpt lat="44.03923" lon="3.51442">
        <ele>1227.1040355816</ele>
        <time>2015-05-31T14:17:06Z</time>
      </trkpt>
      <trkpt lat="44.03928" lon="3.51439">
        <ele>1226.856621695</ele>
        <time>2015-05-31T14:17:11Z</time>
      </trkpt>
      <trkpt lat="44.03933" lon="3.51436">
        <ele>1226.856621695</ele>
        <time>2015-05-31T14:17:16Z</time>
      </trkpt>
      <trkpt lat="44.03936" lon="3.51431">
        <ele>1226.6588459997</ele>
        <time>2015-05-31T14:17:21Z</time>
      </trkpt>
      <trkpt lat="44.0394" lon="3.51427">
        <ele>1226.6588459997</ele>
        <time>2015-05-31T14:17:26Z</time>
      </trkpt>
      <trkpt lat="44.03943" lon="3.51417">
        <ele>1226.4198987096</ele>
        <time>2015-05-31T14:17:31Z</time>
      </trkpt>
      <trkpt lat="44.03949" lon="3.51411">
        <ele>1226.4198987096</ele>
        <time>2015-05-31T14:17:36Z</time>
      </trkpt>
      <trkpt lat="44.0395" lon="3.51403">
        <ele>1226.1855022132</ele>
        <time>2015-05-31T14:17:41Z</time>
      </trkpt>
      <trkpt lat="44.03952" lon="3.51394">
        <ele>1226.1855022132</ele>
        <time>2015-05-31T14:17:46Z</time>
      </trkpt>
      <trkpt lat="44.03952" lon="3.51386">
        <ele>1225.998051481</ele>
        <time>2015-05-31T14:17:51Z</time>
      </trkpt>
      <trkpt lat="44.03955" lon="3.5138">
        <ele>1225.998051481</ele>
        <time>2015-05-31T14:17:56Z</time>
      </trkpt>
      <trkpt lat="44.03954" lon="3.51369">
        <ele>1225.9111492049</ele>
        <time>2015-05-31T14:18:01Z</time>
      </trkpt>
      <trkpt lat="44.03954" lon="3.51359">
        <ele>1225.9111492049</ele>
        <time>2015-05-31T14:18:06Z</time>
      </trkpt>
      <trkpt lat="44.03956" lon="3.5135">
        <ele>1225.9165753838</ele>
        <time>2015-05-31T14:18:11Z</time>
      </trkpt>
      <trkpt lat="44.03959" lon="3.5134">
        <ele>1225.9165753838</ele>
        <time>2015-05-31T14:18:16Z</time>
      </trkpt>
      <trkpt lat="44.03961" lon="3.51332">
        <ele>1225.9488511335</ele>
        <time>2015-05-31T14:18:21Z</time>
      </trkpt>
      <trkpt lat="44.03963" lon="3.51323">
        <ele>1225.9488511335</ele>
        <time>2015-05-31T14:18:26Z</time>
      </trkpt>
      <trkpt lat="44.03966" lon="3.51316">
        <ele>1226.0769729736</ele>
        <time>2015-05-31T14:18:31Z</time>
      </trkpt>
      <trkpt lat="44.03967" lon="3.51305">
        <ele>1226.0769729736</ele>
        <time>2015-05-31T14:18:36Z</time>
      </trkpt>
      <trkpt lat="44.03971" lon="3.51296">
        <ele>1226.4366969938</ele>
        <time>2015-05-31T14:18:41Z</time>
      </trkpt>
      <trkpt lat="44.03971" lon="3.51289">
        <ele>1226.4366969938</ele>
        <time>2015-05-31T14:18:46Z</time>
      </trkpt>
      <trkpt lat="44.03969" lon="3.5128">
        <ele>1226.9802664192</ele>
        <time>2015-05-31T14:18:51Z</time>
      </trkpt>
      <trkpt lat="44.03969" lon="3.51273">
        <ele>1226.9802664192</ele>
        <time>2015-05-31T14:18:56Z</time>
      </trkpt>
      <trkpt lat="44.03967" lon="3.51266">
        <ele>1227.6917844633</ele>
        <time>2015-05-31T14:19:01Z</time>
      </trkpt>
      <trkpt lat="44.03965" lon="3.51257">
        <ele>1227.6917844633</ele>
        <time>2015-05-31T14:19:06Z</time>
      </trkpt>
      <trkpt lat="44.03961" lon="3.51248">
        <ele>1228.4696330583</ele>
        <time>2015-05-31T14:19:11Z</time>
      </trkpt>
      <trkpt lat="44.03957" lon="3.51239">
        <ele>1228.4696330583</ele>
        <time>2015-05-31T14:19:16Z</time>
      </trkpt>
      <trkpt lat="44.03956" lon="3.5123">
        <ele>1229.2483480797</ele>
        <time>2015-05-31T14:19:21Z</time>
      </trkpt>
      <trkpt lat="44.03956" lon="3.51219">
        <ele>1229.2483480797</ele>
        <time>2015-05-31T14:19:26Z</time>
      </trkpt>
      <trkpt lat="44.03953" lon="3.5121">
        <ele>1230.0682072304</ele>
        <time>2015-05-31T14:19:31Z</time>
      </trkpt>
      <trkpt lat="44.03954" lon="3.51201">
        <ele>1230.0682072304</ele>
        <time>2015-05-31T14:19:36Z</time>
      </trkpt>
      <trkpt lat="44.03957" lon="3.51194">
        <ele>1230.9808871807</ele>
        <time>2015-05-31T14:19:41Z</time>
      </trkpt>
      <trkpt lat="44.03961" lon="3.51189">
        <ele>1230.9808871807</ele>
        <time>2015-05-31T14:19:46Z</time>
      </trkpt>
      <trkpt lat="44.03964" lon="3.51187">
        <ele>1230.9808871807</ele>
        <time>2015-05-31T14:19:51Z</time>
      </trkpt>
      <trkpt lat="44.03965" lon="3.51179">
        <ele>1231.9764301279</ele>
        <time>2015-05-31T14:19:56Z</time>
      </trkpt>
      <trkpt lat="44.03963" lon="3.5117">
        <ele>1231.9764301279</ele>
        <time>2015-05-31T14:20:01Z</time>
      </trkpt>
      <trkpt lat="44.03964" lon="3.51163">
        <ele>1233.0022148483</ele>
        <time>2015-05-31T14:20:06Z</time>
      </trkpt>
      <trkpt lat="44.03968" lon="3.51158">
        <ele>1233.0022148483</ele>
        <time>2015-05-31T14:20:11Z</time>
      </trkpt>
      <trkpt lat="44.03969" lon="3.51151">
        <ele>1234.1535873521</ele>
        <time>2015-05-31T14:20:16Z</time>
      </trkpt>
      <trkpt lat="44.0397" lon="3.51144">
        <ele>1234.1535873521</ele>
        <time>2015-05-31T14:20:21Z</time>
      </trkpt>
      <trkpt lat="44.03972" lon="3.51136">
        <ele>1235.4753840462</ele>
        <time>2015-05-31T14:20:26Z</time>
      </trkpt>
      <trkpt lat="44.03973" lon="3.5113">
        <ele>1235.4753840462</ele>
        <time>2015-05-31T14:20:31Z</time>
      </trkpt>
      <trkpt lat="44.03972" lon="3.51121">
        <ele>1236.8934657392</ele>
        <time>2015-05-31T14:20:36Z</time>
      </trkpt>
      <trkpt lat="44.03971" lon="3.51113">
        <ele>1236.8934657392</ele>
        <time>2015-05-31T14:20:41Z</time>
      </trkpt>
      <trkpt lat="44.03971" lon="3.51108">
        <ele>1238.3677818633</ele>
        <time>2015-05-31T14:20:46Z</time>
      </trkpt>
      <trkpt lat="44.03973" lon="3.511">
        <ele>1238.3677818633</ele>
        <time>2015-05-31T14:20:51Z</time>
      </trkpt>
      <trkpt lat="44.03973" lon="3.51092">
        <ele>1239.918806374</ele>
        <time>2015-05-31T14:20:56Z</time>
      </trkpt>
      <trkpt lat="44.03973" lon="3.51083">
        <ele>1239.918806374</ele>
        <time>2015-05-31T14:21:01Z</time>
      </trkpt>
      <trkpt lat="44.03973" lon="3.51077">
        <ele>1241.5077507317</ele>
        <time>2015-05-31T14:21:06Z</time>
      </trkpt>
      <trkpt lat="44.03972" lon="3.5107">
        <ele>1241.5077507317</ele>
        <time>2015-05-31T14:21:11Z</time>
      </trkpt>
      <trkpt lat="44.0397" lon="3.51062">
        <ele>1243.1851426002</ele>
        <time>2015-05-31T14:21:16Z</time>
      </trkpt>
      <trkpt lat="44.0397" lon="3.51059">
        <ele>1243.1851426002</ele>
        <time>2015-05-31T14:21:21Z</time>
      </trkpt>
      <trkpt lat="44.03975" lon="3.51055">
        <ele>1243.1851426002</ele>
        <time>2015-05-31T14:21:26Z</time>
      </trkpt>
      <trkpt lat="44.03977" lon="3.51049">
        <ele>1245.1129506819</ele>
        <time>2015-05-31T14:21:31Z</time>
      </trkpt>
      <trkpt lat="44.03976" lon="3.5104">
        <ele>1245.1129506819</ele>
        <time>2015-05-31T14:21:36Z</time>
      </trkpt>
      <trkpt lat="44.03978" lon="3.51034">
        <ele>1247.094793721</ele>
        <time>2015-05-31T14:21:41Z</time>
      </trkpt>
      <trkpt lat="44.0398" lon="3.51029">
        <ele>1247.094793721</ele>
        <time>2015-05-31T14:21:46Z</time>
      </trkpt>
      <trkpt lat="44.03984" lon="3.51026">
        <ele>1247.094793721</ele>
        <time>2015-05-31T14:21:51Z</time>
      </trkpt>
      <trkpt lat="44.03988" lon="3.51021">
        <ele>1249.4818999483</ele>
        <time>2015-05-31T14:21:56Z</time>
      </trkpt>
      <trkpt lat="44.03991" lon="3.51014">
        <ele>1249.4818999483</ele>
        <time>2015-05-31T14:22:01Z</time>
      </trkpt>
      <trkpt lat="44.03992" lon="3.51007">
        <ele>1251.8925453889</ele>
        <time>2015-05-31T14:22:06Z</time>
      </trkpt>
      <trkpt lat="44.03994" lon="3.51002">
        <ele>1251.8925453889</ele>
        <time>2015-05-31T14:22:11Z</time>
      </trkpt>
      <trkpt lat="44.03996" lon="3.50998">
        <ele>1251.8925453889</ele>
        <time>2015-05-31T14:22:16Z</time>
      </trkpt>
      <trkpt lat="44.03999" lon="3.50994">
        <ele>1254.4198635992</ele>
        <time>2015-05-31T14:22:21Z</time>
      </trkpt>
      <trkpt lat="44.04004" lon="3.50989">
        <ele>1254.4198635992</ele>
        <time>2015-05-31T14:22:26Z</time>
      </trkpt>
      <trkpt lat="44.04007" lon="3.50984">
        <ele>1257.0058533947</ele>
        <time>2015-05-31T14:22:31Z</time>
      </trkpt>
      <trkpt lat="44.04013" lon="3.50979">
        <ele>1257.0058533947</ele>
        <time>2015-05-31T14:22:36Z</time>
      </trkpt>
      <trkpt lat="44.04017" lon="3.50977">
        <ele>1259.5535290138</ele>
        <time>2015-05-31T14:22:41Z</time>
      </trkpt>
      <trkpt lat="44.04019" lon="3.50974">
        <ele>1259.5535290138</ele>
        <time>2015-05-31T14:22:46Z</time>
      </trkpt>
      <trkpt lat="44.0402" lon="3.5097">
        <ele>1259.5535290138</ele>
        <time>2015-05-31T14:22:51Z</time>
      </trkpt>
      <trkpt lat="44.04022" lon="3.50967">
        <ele>1259.5535290138</ele>
        <time>2015-05-31T14:22:56Z</time>
      </trkpt>
      <trkpt lat="44.04028" lon="3.5096">
        <ele>1261.9012400729</ele>
        <time>2015-05-31T14:23:31Z</time>
      </trkpt>
      <trkpt lat="44.0403" lon="3.50956">
        <ele>1261.9012400729</ele>
        <time>2015-05-31T14:23:36Z</time>
      </trkpt>
      <trkpt lat="44.04033" lon="3.5095">
        <ele>1261.9012400729</ele>
        <time>2015-05-31T14:23:41Z</time>
      </trkpt>
      <trkpt lat="44.04035" lon="3.50946">
        <ele>1263.8855243977</ele>
        <time>2015-05-31T14:23:46Z</time>
      </trkpt>
      <trkpt lat="44.04036" lon="3.50944">
        <ele>1263.8855243977</ele>
        <time>2015-05-31T14:23:51Z</time>
      </trkpt>
      <trkpt lat="44.04037" lon="3.50943">
        <ele>1263.8855243977</ele>
        <time>2015-05-31T14:23:56Z</time>
      </trkpt>
      <trkpt lat="44.0404" lon="3.50942">
        <ele>1263.8855243977</ele>
        <time>2015-05-31T14:24:01Z</time>
      </trkpt>
      <trkpt lat="44.04043" lon="3.50942">
        <ele>1263.8855243977</ele>
        <time>2015-05-31T14:24:06Z</time>
      </trkpt>
      <trkpt lat="44.04042" lon="3.50939">
        <ele>1265.0823011239</ele>
        <time>2015-05-31T14:25:01Z</time>
      </trkpt>
      <trkpt lat="44.04044" lon="3.50932">
        <ele>1265.0823011239</ele>
        <time>2015-05-31T14:25:06Z</time>
      </trkpt>
      <trkpt lat="44.04043" lon="3.50921">
        <ele>1266.066559602</ele>
        <time>2015-05-31T14:25:11Z</time>
      </trkpt>
      <trkpt lat="44.04043" lon="3.50921">
        <ele>1266.066559602</ele>
        <time>2015-05-31T14:25:16Z</time>
      </trkpt>
      <trkpt lat="44.04046" lon="3.50915">
        <ele>1266.066559602</ele>
        <time>2015-05-31T14:25:41Z</time>
      </trkpt>
      <trkpt lat="44.04047" lon="3.50907">
        <ele>1266.8674160931</ele>
        <time>2015-05-31T14:25:46Z</time>
      </trkpt>
      <trkpt lat="44.04046" lon="3.50898">
        <ele>1266.8674160931</ele>
        <time>2015-05-31T14:25:51Z</time>
      </trkpt>
      <trkpt lat="44.04045" lon="3.5089">
        <ele>1267.5269234559</ele>
        <time>2015-05-31T14:25:56Z</time>
      </trkpt>
      <trkpt lat="44.04051" lon="3.50889">
        <ele>1267.5269234559</ele>
        <time>2015-05-31T14:26:01Z</time>
      </trkpt>
      <trkpt lat="44.04055" lon="3.50887">
        <ele>1268.1134036246</ele>
        <time>2015-05-31T14:26:06Z</time>
      </trkpt>
      <trkpt lat="44.04056" lon="3.50883">
        <ele>1268.1134036246</ele>
        <time>2015-05-31T14:26:11Z</time>
      </trkpt>
      <trkpt lat="44.04058" lon="3.50879">
        <ele>1268.1134036246</ele>
        <time>2015-05-31T14:26:16Z</time>
      </trkpt>
      <trkpt lat="44.0406" lon="3.50874">
        <ele>1268.6184372477</ele>
        <time>2015-05-31T14:26:21Z</time>
      </trkpt>
      <trkpt lat="44.04061" lon="3.5087">
        <ele>1268.6184372477</ele>
        <time>2015-05-31T14:26:26Z</time>
      </trkpt>
      <trkpt lat="44.04062" lon="3.50869">
        <ele>1268.6184372477</ele>
        <time>2015-05-31T14:26:31Z</time>
      </trkpt>
      <trkpt lat="44.04063" lon="3.50871">
        <ele>1268.6184372477</ele>
        <time>2015-05-31T14:27:31Z</time>
      </trkpt>
      <trkpt lat="44.04066" lon="3.50872">
        <ele>1268.6184372477</ele>
        <time>2015-05-31T14:27:36Z</time>
      </trkpt>
      <trkpt lat="44.04071" lon="3.50871">
        <ele>1268.7895791992</ele>
        <time>2015-05-31T14:27:41Z</time>
      </trkpt>
      <trkpt lat="44.04073" lon="3.5087">
        <ele>1268.7895791992</ele>
        <time>2015-05-31T14:27:46Z</time>
      </trkpt>
      <trkpt lat="44.04072" lon="3.50868">
        <ele>1268.7895791992</ele>
        <time>2015-05-31T14:28:16Z</time>
      </trkpt>
      <trkpt lat="44.04072" lon="3.50863">
        <ele>1268.7895791992</ele>
        <time>2015-05-31T14:28:21Z</time>
      </trkpt>
      <trkpt lat="44.04072" lon="3.50859">
        <ele>1268.7830691132</ele>
        <time>2015-05-31T14:28:26Z</time>
      </trkpt>
      <trkpt lat="44.04073" lon="3.50856">
        <ele>1268.7830691132</ele>
        <time>2015-05-31T14:28:31Z</time>
      </trkpt>
      <trkpt lat="44.04072" lon="3.50855">
        <ele>1268.7830691132</ele>
        <time>2015-05-31T14:28:36Z</time>
      </trkpt>
      <trkpt lat="44.04067" lon="3.50862">
        <ele>1268.5569129988</ele>
        <time>2015-05-31T14:29:31Z</time>
      </trkpt>
      <trkpt lat="44.04068" lon="3.50863">
        <ele>1268.5569129988</ele>
        <time>2015-05-31T14:29:36Z</time>
      </trkpt>
      <trkpt lat="44.04069" lon="3.50863">
        <ele>1268.5569129988</ele>
        <time>2015-05-31T14:29:41Z</time>
      </trkpt>
      <trkpt lat="44.04068" lon="3.50852">
        <ele>1268.2458265958</ele>
        <time>2015-05-31T14:29:51Z</time>
      </trkpt>
      <trkpt lat="44.04067" lon="3.5085">
        <ele>1268.2458265958</ele>
        <time>2015-05-31T14:29:56Z</time>
      </trkpt>
      <trkpt lat="44.04066" lon="3.50848">
        <ele>1268.2458265958</ele>
        <time>2015-05-31T14:30:01Z</time>
      </trkpt>
      <trkpt lat="44.04068" lon="3.50852">
        <ele>1268.2458265958</ele>
        <time>2015-05-31T14:32:26Z</time>
      </trkpt>
      <trkpt lat="44.0407" lon="3.50855">
        <ele>1267.7731721631</ele>
        <time>2015-05-31T14:32:31Z</time>
      </trkpt>
      <trkpt lat="44.0407" lon="3.50855">
        <ele>1267.7731721631</ele>
        <time>2015-05-31T14:32:36Z</time>
      </trkpt>
      <trkpt lat="44.04069" lon="3.50857">
        <ele>1267.7731721631</ele>
        <time>2015-05-31T14:51:28Z</time>
      </trkpt>
      <trkpt lat="44.04069" lon="3.50862">
        <ele>1267.7731721631</ele>
        <time>2015-05-31T14:52:06Z</time>
      </trkpt>
      <trkpt lat="44.04067" lon="3.50872">
        <ele>1266.9819723949</ele>
        <time>2015-05-31T14:52:20Z</time>
      </trkpt>
      <trkpt lat="44.04065" lon="3.5088">
        <ele>1266.9819723949</ele>
        <time>2015-05-31T14:52:26Z</time>
      </trkpt>
      <trkpt lat="44.04059" lon="3.50885">
        <ele>1266.1888588568</ele>
        <time>2015-05-31T14:52:33Z</time>
      </trkpt>
      <trkpt lat="44.04056" lon="3.50885">
        <ele>1266.1888588568</ele>
        <time>2015-05-31T14:52:36Z</time>
      </trkpt>
      <trkpt lat="44.0404" lon="3.50927">
        <ele>1265.7304548936</ele>
        <time>2015-05-31T14:53:04Z</time>
      </trkpt>
      <trkpt lat="44.0404" lon="3.50931">
        <ele>1265.7304548936</ele>
        <time>2015-05-31T14:53:06Z</time>
      </trkpt>
      <trkpt lat="44.0404" lon="3.50938">
        <ele>1265.7304548936</ele>
        <time>2015-05-31T14:53:11Z</time>
      </trkpt>
      <trkpt lat="44.04038" lon="3.50947">
        <ele>1265.3556812573</ele>
        <time>2015-05-31T14:53:16Z</time>
      </trkpt>
      <trkpt lat="44.04036" lon="3.50956">
        <ele>1265.3556812573</ele>
        <time>2015-05-31T14:53:21Z</time>
      </trkpt>
      <trkpt lat="44.04034" lon="3.50963">
        <ele>1265.0622312229</ele>
        <time>2015-05-31T14:53:26Z</time>
      </trkpt>
      <trkpt lat="44.04032" lon="3.5097">
        <ele>1265.0622312229</ele>
        <time>2015-05-31T14:53:31Z</time>
      </trkpt>
      <trkpt lat="44.04028" lon="3.50974">
        <ele>1264.8477136855</ele>
        <time>2015-05-31T14:53:36Z</time>
      </trkpt>
      <trkpt lat="44.04024" lon="3.50979">
        <ele>1264.8477136855</ele>
        <time>2015-05-31T14:53:41Z</time>
      </trkpt>
      <trkpt lat="44.0402" lon="3.50982">
        <ele>1264.7384794568</ele>
        <time>2015-05-31T14:53:46Z</time>
      </trkpt>
      <trkpt lat="44.04015" lon="3.50984">
        <ele>1264.7384794568</ele>
        <time>2015-05-31T14:53:51Z</time>
      </trkpt>
      <trkpt lat="44.0401" lon="3.50984">
        <ele>1264.6721396355</ele>
        <time>2015-05-31T14:53:56Z</time>
      </trkpt>
      <trkpt lat="44.04004" lon="3.50985">
        <ele>1264.6721396355</ele>
        <time>2015-05-31T14:54:01Z</time>
      </trkpt>
      <trkpt lat="44.03997" lon="3.50987">
        <ele>1264.6627755992</ele>
        <time>2015-05-31T14:54:06Z</time>
      </trkpt>
      <trkpt lat="44.03995" lon="3.50989">
        <ele>1264.6627755992</ele>
        <time>2015-05-31T14:54:11Z</time>
      </trkpt>
      <trkpt lat="44.0399" lon="3.50995">
        <ele>1264.6655770249</ele>
        <time>2015-05-31T14:54:16Z</time>
      </trkpt>
      <trkpt lat="44.03982" lon="3.50998">
        <ele>1264.6655770249</ele>
        <time>2015-05-31T14:54:21Z</time>
      </trkpt>
      <trkpt lat="44.03978" lon="3.51004">
        <ele>1264.6677563788</ele>
        <time>2015-05-31T14:54:26Z</time>
      </trkpt>
      <trkpt lat="44.03974" lon="3.51012">
        <ele>1264.6677563788</ele>
        <time>2015-05-31T14:54:31Z</time>
      </trkpt>
      <trkpt lat="44.03969" lon="3.51019">
        <ele>1264.6141733469</ele>
        <time>2015-05-31T14:54:36Z</time>
      </trkpt>
      <trkpt lat="44.03961" lon="3.51025">
        <ele>1264.4826531683</ele>
        <time>2015-05-31T14:54:41Z</time>
      </trkpt>
      <trkpt lat="44.03957" lon="3.51028">
        <ele>1264.4826531683</ele>
        <time>2015-05-31T14:54:46Z</time>
      </trkpt>
      <trkpt lat="44.03954" lon="3.51029">
        <ele>1264.4826531683</ele>
        <time>2015-05-31T14:54:51Z</time>
      </trkpt>
      <trkpt lat="44.03955" lon="3.51028">
        <ele>1264.4826531683</ele>
        <time>2015-05-31T14:54:56Z</time>
      </trkpt>
      <trkpt lat="44.03951" lon="3.51031">
        <ele>1264.1231016157</ele>
        <time>2015-05-31T14:55:11Z</time>
      </trkpt>
      <trkpt lat="44.03946" lon="3.51034">
        <ele>1264.1231016157</ele>
        <time>2015-05-31T14:55:16Z</time>
      </trkpt>
      <trkpt lat="44.03938" lon="3.51035">
        <ele>1263.7717086036</ele>
        <time>2015-05-31T14:55:21Z</time>
      </trkpt>
      <trkpt lat="44.03932" lon="3.51034">
        <ele>1263.7717086036</ele>
        <time>2015-05-31T14:55:26Z</time>
      </trkpt>
      <trkpt lat="44.03925" lon="3.51036">
        <ele>1263.4598722828</ele>
        <time>2015-05-31T14:55:31Z</time>
      </trkpt>
      <trkpt lat="44.03919" lon="3.51035">
        <ele>1263.4598722828</ele>
        <time>2015-05-31T14:55:36Z</time>
      </trkpt>
      <trkpt lat="44.03914" lon="3.51032">
        <ele>1263.1156179224</ele>
        <time>2015-05-31T14:55:41Z</time>
      </trkpt>
      <trkpt lat="44.03909" lon="3.51029">
        <ele>1263.1156179224</ele>
        <time>2015-05-31T14:55:46Z</time>
      </trkpt>
      <trkpt lat="44.03904" lon="3.5103">
        <ele>1262.7155012372</ele>
        <time>2015-05-31T14:55:51Z</time>
      </trkpt>
      <trkpt lat="44.03899" lon="3.5103">
        <ele>1262.7155012372</ele>
        <time>2015-05-31T14:55:56Z</time>
      </trkpt>
      <trkpt lat="44.03893" lon="3.51036">
        <ele>1262.2234615071</ele>
        <time>2015-05-31T14:56:01Z</time>
      </trkpt>
      <trkpt lat="44.03891" lon="3.5104">
        <ele>1262.2234615071</ele>
        <time>2015-05-31T14:56:06Z</time>
      </trkpt>
      <trkpt lat="44.03889" lon="3.51046">
        <ele>1262.2234615071</ele>
        <time>2015-05-31T14:56:11Z</time>
      </trkpt>
      <trkpt lat="44.0389" lon="3.51055">
        <ele>1261.5774352342</ele>
        <time>2015-05-31T14:56:16Z</time>
      </trkpt>
      <trkpt lat="44.03891" lon="3.51061">
        <ele>1261.5774352342</ele>
        <time>2015-05-31T14:56:21Z</time>
      </trkpt>
      <trkpt lat="44.03894" lon="3.51068">
        <ele>1260.8211370276</ele>
        <time>2015-05-31T14:56:26Z</time>
      </trkpt>
      <trkpt lat="44.03894" lon="3.51075">
        <ele>1260.8211370276</ele>
        <time>2015-05-31T14:56:31Z</time>
      </trkpt>
      <trkpt lat="44.03893" lon="3.51083">
        <ele>1259.9520516034</ele>
        <time>2015-05-31T14:56:36Z</time>
      </trkpt>
      <trkpt lat="44.03897" lon="3.5109">
        <ele>1259.9520516034</ele>
        <time>2015-05-31T14:56:41Z</time>
      </trkpt>
      <trkpt lat="44.03902" lon="3.51094">
        <ele>1258.8383656987</ele>
        <time>2015-05-31T14:56:46Z</time>
      </trkpt>
      <trkpt lat="44.03907" lon="3.51097">
        <ele>1258.8383656987</ele>
        <time>2015-05-31T14:56:51Z</time>
      </trkpt>
      <trkpt lat="44.03913" lon="3.511">
        <ele>1257.6899868615</ele>
        <time>2015-05-31T14:56:56Z</time>
      </trkpt>
      <trkpt lat="44.03917" lon="3.51106">
        <ele>1257.6899868615</ele>
        <time>2015-05-31T14:57:01Z</time>
      </trkpt>
      <trkpt lat="44.03925" lon="3.51108">
        <ele>1256.4275797801</ele>
        <time>2015-05-31T14:57:06Z</time>
      </trkpt>
      <trkpt lat="44.03933" lon="3.51111">
        <ele>1256.4275797801</ele>
        <time>2015-05-31T14:57:11Z</time>
      </trkpt>
      <trkpt lat="44.03941" lon="3.51112">
        <ele>1254.8625527713</ele>
        <time>2015-05-31T14:57:16Z</time>
      </trkpt>
      <trkpt lat="44.03945" lon="3.51118">
        <ele>1254.8625527713</ele>
        <time>2015-05-31T14:57:21Z</time>
      </trkpt>
      <trkpt lat="44.03948" lon="3.51124">
        <ele>1253.1091174806</ele>
        <time>2015-05-31T14:57:26Z</time>
      </trkpt>
      <trkpt lat="44.03951" lon="3.51131">
        <ele>1253.1091174806</ele>
        <time>2015-05-31T14:57:31Z</time>
      </trkpt>
      <trkpt lat="44.03954" lon="3.5114">
        <ele>1251.3311400075</ele>
        <time>2015-05-31T14:57:36Z</time>
      </trkpt>
      <trkpt lat="44.03958" lon="3.51147">
        <ele>1251.3311400075</ele>
        <time>2015-05-31T14:57:41Z</time>
      </trkpt>
      <trkpt lat="44.03958" lon="3.51156">
        <ele>1249.4209817069</ele>
        <time>2015-05-31T14:57:46Z</time>
      </trkpt>
      <trkpt lat="44.03958" lon="3.51164">
        <ele>1249.4209817069</ele>
        <time>2015-05-31T14:57:51Z</time>
      </trkpt>
      <trkpt lat="44.03958" lon="3.51173">
        <ele>1247.4808940118</ele>
        <time>2015-05-31T14:57:56Z</time>
      </trkpt>
      <trkpt lat="44.03957" lon="3.51181">
        <ele>1247.4808940118</ele>
        <time>2015-05-31T14:58:01Z</time>
      </trkpt>
      <trkpt lat="44.03955" lon="3.51188">
        <ele>1245.4614391866</ele>
        <time>2015-05-31T14:58:06Z</time>
      </trkpt>
      <trkpt lat="44.03954" lon="3.51197">
        <ele>1245.4614391866</ele>
        <time>2015-05-31T14:58:11Z</time>
      </trkpt>
      <trkpt lat="44.03955" lon="3.51205">
        <ele>1243.360109726</ele>
        <time>2015-05-31T14:58:16Z</time>
      </trkpt>
      <trkpt lat="44.03957" lon="3.51213">
        <ele>1243.360109726</ele>
        <time>2015-05-31T14:58:21Z</time>
      </trkpt>
      <trkpt lat="44.03957" lon="3.51222">
        <ele>1241.304348381</ele>
        <time>2015-05-31T14:58:26Z</time>
      </trkpt>
      <trkpt lat="44.03956" lon="3.51231">
        <ele>1241.304348381</ele>
        <time>2015-05-31T14:58:31Z</time>
      </trkpt>
      <trkpt lat="44.03957" lon="3.5124">
        <ele>1239.2966501009</ele>
        <time>2015-05-31T14:58:36Z</time>
      </trkpt>
      <trkpt lat="44.03957" lon="3.51245">
        <ele>1239.2966501009</ele>
        <time>2015-05-31T14:58:41Z</time>
      </trkpt>
      <trkpt lat="44.0396" lon="3.51253">
        <ele>1237.3246068305</ele>
        <time>2015-05-31T14:58:46Z</time>
      </trkpt>
      <trkpt lat="44.03962" lon="3.51261">
        <ele>1237.3246068305</ele>
        <time>2015-05-31T14:58:51Z</time>
      </trkpt>
      <trkpt lat="44.03965" lon="3.51271">
        <ele>1235.2611555009</ele>
        <time>2015-05-31T14:58:56Z</time>
      </trkpt>
      <trkpt lat="44.03971" lon="3.51279">
        <ele>1235.2611555009</ele>
        <time>2015-05-31T14:59:01Z</time>
      </trkpt>
      <trkpt lat="44.03971" lon="3.51287">
        <ele>1233.1759875467</ele>
        <time>2015-05-31T14:59:06Z</time>
      </trkpt>
      <trkpt lat="44.0397" lon="3.51296">
        <ele>1233.1759875467</ele>
        <time>2015-05-31T14:59:11Z</time>
      </trkpt>
      <trkpt lat="44.03969" lon="3.51303">
        <ele>1231.1047310177</ele>
        <time>2015-05-31T14:59:16Z</time>
      </trkpt>
      <trkpt lat="44.03967" lon="3.51311">
        <ele>1231.1047310177</ele>
        <time>2015-05-31T14:59:21Z</time>
      </trkpt>
      <trkpt lat="44.03963" lon="3.51319">
        <ele>1229.0369401915</ele>
        <time>2015-05-31T14:59:26Z</time>
      </trkpt>
      <trkpt lat="44.03961" lon="3.51326">
        <ele>1229.0369401915</ele>
        <time>2015-05-31T14:59:31Z</time>
      </trkpt>
      <trkpt lat="44.03959" lon="3.51336">
        <ele>1226.9627417136</ele>
        <time>2015-05-31T14:59:36Z</time>
      </trkpt>
      <trkpt lat="44.03957" lon="3.51345">
        <ele>1226.9627417136</ele>
        <time>2015-05-31T14:59:41Z</time>
      </trkpt>
      <trkpt lat="44.03957" lon="3.51355">
        <ele>1224.9160532195</ele>
        <time>2015-05-31T14:59:46Z</time>
      </trkpt>
      <trkpt lat="44.03958" lon="3.51364">
        <ele>1224.9160532195</ele>
        <time>2015-05-31T14:59:51Z</time>
      </trkpt>
      <trkpt lat="44.03956" lon="3.51369">
        <ele>1222.7406934967</ele>
        <time>2015-05-31T14:59:56Z</time>
      </trkpt>
      <trkpt lat="44.03955" lon="3.51377">
        <ele>1222.7406934967</ele>
        <time>2015-05-31T15:00:01Z</time>
      </trkpt>
      <trkpt lat="44.03955" lon="3.51387">
        <ele>1220.3497742486</ele>
        <time>2015-05-31T15:00:06Z</time>
      </trkpt>
      <trkpt lat="44.03953" lon="3.51396">
        <ele>1220.3497742486</ele>
        <time>2015-05-31T15:00:11Z</time>
      </trkpt>
      <trkpt lat="44.03951" lon="3.51404">
        <ele>1217.893787055</ele>
        <time>2015-05-31T15:00:16Z</time>
      </trkpt>
      <trkpt lat="44.03949" lon="3.51411">
        <ele>1217.893787055</ele>
        <time>2015-05-31T15:00:21Z</time>
      </trkpt>
      <trkpt lat="44.03945" lon="3.51418">
        <ele>1215.4833432313</ele>
        <time>2015-05-31T15:00:26Z</time>
      </trkpt>
      <trkpt lat="44.0394" lon="3.51421">
        <ele>1215.4833432313</ele>
        <time>2015-05-31T15:00:31Z</time>
      </trkpt>
      <trkpt lat="44.03935" lon="3.51426">
        <ele>1213.1053262772</ele>
        <time>2015-05-31T15:00:36Z</time>
      </trkpt>
      <trkpt lat="44.03932" lon="3.51431">
        <ele>1213.1053262772</ele>
        <time>2015-05-31T15:00:41Z</time>
      </trkpt>
      <trkpt lat="44.0393" lon="3.51438">
        <ele>1210.905829324</ele>
        <time>2015-05-31T15:00:46Z</time>
      </trkpt>
      <trkpt lat="44.03927" lon="3.51442">
        <ele>1210.905829324</ele>
        <time>2015-05-31T15:00:51Z</time>
      </trkpt>
      <trkpt lat="44.03926" lon="3.51448">
        <ele>1210.905829324</ele>
        <time>2015-05-31T15:00:56Z</time>
      </trkpt>
      <trkpt lat="44.03922" lon="3.51454">
        <ele>1208.6160174443</ele>
        <time>2015-05-31T15:01:01Z</time>
      </trkpt>
      <trkpt lat="44.03919" lon="3.51462">
        <ele>1208.6160174443</ele>
        <time>2015-05-31T15:01:06Z</time>
      </trkpt>
      <trkpt lat="44.03912" lon="3.51472">
        <ele>1206.3039199599</ele>
        <time>2015-05-31T15:01:11Z</time>
      </trkpt>
      <trkpt lat="44.0391" lon="3.51476">
        <ele>1206.3039199599</ele>
        <time>2015-05-31T15:01:16Z</time>
      </trkpt>
      <trkpt lat="44.03907" lon="3.51481">
        <ele>1206.3039199599</ele>
        <time>2015-05-31T15:01:21Z</time>
      </trkpt>
      <trkpt lat="44.03905" lon="3.51487">
        <ele>1203.8595180848</ele>
        <time>2015-05-31T15:01:26Z</time>
      </trkpt>
      <trkpt lat="44.03902" lon="3.51493">
        <ele>1203.8595180848</ele>
        <time>2015-05-31T15:01:31Z</time>
      </trkpt>
      <trkpt lat="44.03897" lon="3.515">
        <ele>1201.5413469132</ele>
        <time>2015-05-31T15:01:36Z</time>
      </trkpt>
      <trkpt lat="44.03893" lon="3.51508">
        <ele>1201.5413469132</ele>
        <time>2015-05-31T15:01:41Z</time>
      </trkpt>
      <trkpt lat="44.03877" lon="3.51527">
        <ele>1199.3146102133</ele>
        <time>2015-05-31T15:02:06Z</time>
      </trkpt>
      <trkpt lat="44.03863" lon="3.51532">
        <ele>1196.9160623745</ele>
        <time>2015-05-31T15:02:11Z</time>
      </trkpt>
      <trkpt lat="44.0386" lon="3.51539">
        <ele>1196.9160623745</ele>
        <time>2015-05-31T15:02:16Z</time>
      </trkpt>
      <trkpt lat="44.03856" lon="3.51543">
        <ele>1194.6641436697</ele>
        <time>2015-05-31T15:02:21Z</time>
      </trkpt>
      <trkpt lat="44.03856" lon="3.5155">
        <ele>1194.6641436697</ele>
        <time>2015-05-31T15:02:26Z</time>
      </trkpt>
      <trkpt lat="44.03851" lon="3.51558">
        <ele>1192.62274962</ele>
        <time>2015-05-31T15:02:31Z</time>
      </trkpt>
      <trkpt lat="44.03846" lon="3.51562">
        <ele>1192.62274962</ele>
        <time>2015-05-31T15:02:36Z</time>
      </trkpt>
      <trkpt lat="44.03836" lon="3.51565">
        <ele>1190.7926891501</ele>
        <time>2015-05-31T15:02:41Z</time>
      </trkpt>
      <trkpt lat="44.03833" lon="3.5157">
        <ele>1190.7926891501</ele>
        <time>2015-05-31T15:02:46Z</time>
      </trkpt>
      <trkpt lat="44.03828" lon="3.51575">
        <ele>1189.2316121678</ele>
        <time>2015-05-31T15:02:51Z</time>
      </trkpt>
      <trkpt lat="44.03825" lon="3.51577">
        <ele>1189.2316121678</ele>
        <time>2015-05-31T15:02:56Z</time>
      </trkpt>
      <trkpt lat="44.03819" lon="3.51579">
        <ele>1188.0208586877</ele>
        <time>2015-05-31T15:03:01Z</time>
      </trkpt>
      <trkpt lat="44.03813" lon="3.51585">
        <ele>1188.0208586877</ele>
        <time>2015-05-31T15:03:06Z</time>
      </trkpt>
      <trkpt lat="44.03811" lon="3.51589">
        <ele>1187.0905675709</ele>
        <time>2015-05-31T15:03:11Z</time>
      </trkpt>
      <trkpt lat="44.03812" lon="3.51591">
        <ele>1187.0905675709</ele>
        <time>2015-05-31T15:03:16Z</time>
      </trkpt>
      <trkpt lat="44.03813" lon="3.51594">
        <ele>1187.0905675709</ele>
        <time>2015-05-31T15:03:26Z</time>
      </trkpt>
      <trkpt lat="44.03804" lon="3.51584">
        <ele>1187.3550609253</ele>
        <time>2015-05-31T15:03:31Z</time>
      </trkpt>
      <trkpt lat="44.03798" lon="3.51579">
        <ele>1187.3550609253</ele>
        <time>2015-05-31T15:03:36Z</time>
      </trkpt>
      <trkpt lat="44.03795" lon="3.5158">
        <ele>1188.5339768914</ele>
        <time>2015-05-31T15:03:41Z</time>
      </trkpt>
      <trkpt lat="44.03795" lon="3.5158">
        <ele>1188.5339768914</ele>
        <time>2015-05-31T15:03:46Z</time>
      </trkpt>
      <trkpt lat="44.03793" lon="3.51579">
        <ele>1188.5339768914</ele>
        <time>2015-05-31T15:03:51Z</time>
      </trkpt>
      <trkpt lat="44.03791" lon="3.51578">
        <ele>1188.5339768914</ele>
        <time>2015-05-31T15:03:56Z</time>
      </trkpt>
      <trkpt lat="44.0379" lon="3.51574">
        <ele>1188.5339768914</ele>
        <time>2015-05-31T15:04:01Z</time>
      </trkpt>
      <trkpt lat="44.0379" lon="3.51572">
        <ele>1188.5339768914</ele>
        <time>2015-05-31T15:04:06Z</time>
      </trkpt>
      <trkpt lat="44.0379" lon="3.51571">
        <ele>1191.6474986755</ele>
        <time>2015-05-31T15:04:11Z</time>
      </trkpt>
      <trkpt lat="44.03784" lon="3.51564">
        <ele>1191.6474986755</ele>
        <time>2015-05-31T15:04:16Z</time>
      </trkpt>
      <trkpt lat="44.03779" lon="3.51557">
        <ele>1195.7907756465</ele>
        <time>2015-05-31T15:04:21Z</time>
      </trkpt>
      <trkpt lat="44.03777" lon="3.51555">
        <ele>1195.7907756465</ele>
        <time>2015-05-31T15:04:26Z</time>
      </trkpt>
      <trkpt lat="44.03774" lon="3.51554">
        <ele>1195.7907756465</ele>
        <time>2015-05-31T15:04:36Z</time>
      </trkpt>
      <trkpt lat="44.03774" lon="3.51555">
        <ele>1195.7907756465</ele>
        <time>2015-05-31T15:04:41Z</time>
      </trkpt>
      <trkpt lat="44.03776" lon="3.51538">
        <ele>1200.4684032713</ele>
        <time>2015-05-31T15:04:51Z</time>
      </trkpt>
      <trkpt lat="44.03777" lon="3.51538">
        <ele>1200.4684032713</ele>
        <time>2015-05-31T15:04:56Z</time>
      </trkpt>
      <trkpt lat="44.03771" lon="3.51537">
        <ele>1200.4684032713</ele>
        <time>2015-05-31T15:05:06Z</time>
      </trkpt>
      <trkpt lat="44.03774" lon="3.51541">
        <ele>1205.1622688306</ele>
        <time>2015-05-31T15:05:16Z</time>
      </trkpt>
      <trkpt lat="44.03775" lon="3.51539">
        <ele>1205.1622688306</ele>
        <time>2015-05-31T15:05:21Z</time>
      </trkpt>
      <trkpt lat="44.03775" lon="3.51539">
        <ele>1205.1622688306</ele>
        <time>2015-05-31T15:05:28Z</time>
      </trkpt>
      <trkpt lat="44.03772" lon="3.51542">
        <ele>1205.1622688306</ele>
        <time>2015-05-31T15:07:41Z</time>
      </trkpt>
      <trkpt lat="44.0377" lon="3.51542">
        <ele>1210.4155548735</ele>
        <time>2015-05-31T15:07:46Z</time>
      </trkpt>
      <trkpt lat="44.03767" lon="3.51539">
        <ele>1210.4155548735</ele>
        <time>2015-05-31T15:07:51Z</time>
      </trkpt>
      <trkpt lat="44.03765" lon="3.51537">
        <ele>1210.4155548735</ele>
        <time>2015-05-31T15:07:56Z</time>
      </trkpt>
      <trkpt lat="44.03764" lon="3.51534">
        <ele>1210.4155548735</ele>
        <time>2015-05-31T15:08:01Z</time>
      </trkpt>
      <trkpt lat="44.03763" lon="3.51532">
        <ele>1215.8222113585</ele>
        <time>2015-05-31T15:08:06Z</time>
      </trkpt>
      <trkpt lat="44.03763" lon="3.51528">
        <ele>1215.8222113585</ele>
        <time>2015-05-31T15:08:11Z</time>
      </trkpt>
      <trkpt lat="44.03764" lon="3.51526">
        <ele>1215.8222113585</ele>
        <time>2015-05-31T15:08:16Z</time>
      </trkpt>
      <trkpt lat="44.03764" lon="3.51526">
        <ele>1215.8222113585</ele>
        <time>2015-05-31T15:08:21Z</time>
      </trkpt>
      <trkpt lat="44.03761" lon="3.51518">
        <ele>1221.1066485084</ele>
        <time>2015-05-31T15:08:31Z</time>
      </trkpt>
      <trkpt lat="44.03757" lon="3.51515">
        <ele>1221.1066485084</ele>
        <time>2015-05-31T15:08:36Z</time>
      </trkpt>
      <trkpt lat="44.03755" lon="3.51514">
        <ele>1221.1066485084</ele>
        <time>2015-05-31T15:08:41Z</time>
      </trkpt>
      <trkpt lat="44.03755" lon="3.51514">
        <ele>1221.1066485084</ele>
        <time>2015-05-31T15:08:46Z</time>
      </trkpt>
      <trkpt lat="44.03756" lon="3.51505">
        <ele>1226.042912988</ele>
        <time>2015-05-31T15:08:51Z</time>
      </trkpt>
      <trkpt lat="44.03757" lon="3.51499">
        <ele>1226.042912988</ele>
        <time>2015-05-31T15:08:56Z</time>
      </trkpt>
      <trkpt lat="44.03758" lon="3.51494">
        <ele>1226.042912988</ele>
        <time>2015-05-31T15:09:01Z</time>
      </trkpt>
      <trkpt lat="44.0376" lon="3.51486">
        <ele>1230.6390580599</ele>
        <time>2015-05-31T15:09:06Z</time>
      </trkpt>
      <trkpt lat="44.03761" lon="3.5148">
        <ele>1230.6390580599</ele>
        <time>2015-05-31T15:09:11Z</time>
      </trkpt>
      <trkpt lat="44.03761" lon="3.51475">
        <ele>1230.6390580599</ele>
        <time>2015-05-31T15:09:16Z</time>
      </trkpt>
      <trkpt lat="44.03758" lon="3.51471">
        <ele>1235.0623193669</ele>
        <time>2015-05-31T15:09:21Z</time>
      </trkpt>
      <trkpt lat="44.03756" lon="3.51465">
        <ele>1235.0623193669</ele>
        <time>2015-05-31T15:09:26Z</time>
      </trkpt>
      <trkpt lat="44.03753" lon="3.5146">
        <ele>1239.2955239606</ele>
        <time>2015-05-31T15:09:31Z</time>
      </trkpt>
      <trkpt lat="44.03751" lon="3.51456">
        <ele>1239.2955239606</ele>
        <time>2015-05-31T15:09:36Z</time>
      </trkpt>
      <trkpt lat="44.0375" lon="3.51451">
        <ele>1239.2955239606</ele>
        <time>2015-05-31T15:09:41Z</time>
      </trkpt>
      <trkpt lat="44.03752" lon="3.51447">
        <ele>1243.3812851092</ele>
        <time>2015-05-31T15:09:46Z</time>
      </trkpt>
      <trkpt lat="44.03754" lon="3.5144">
        <ele>1243.3812851092</ele>
        <time>2015-05-31T15:09:51Z</time>
      </trkpt>
      <trkpt lat="44.03754" lon="3.51434">
        <ele>1247.3022197529</ele>
        <time>2015-05-31T15:09:56Z</time>
      </trkpt>
      <trkpt lat="44.03751" lon="3.51425">
        <ele>1247.3022197529</ele>
        <time>2015-05-31T15:10:01Z</time>
      </trkpt>
      <trkpt lat="44.03747" lon="3.51418">
        <ele>1250.9421849182</ele>
        <time>2015-05-31T15:10:06Z</time>
      </trkpt>
      <trkpt lat="44.03747" lon="3.5141">
        <ele>1250.9421849182</ele>
        <time>2015-05-31T15:10:11Z</time>
      </trkpt>
      <trkpt lat="44.03744" lon="3.51404">
        <ele>1254.3244460429</ele>
        <time>2015-05-31T15:10:16Z</time>
      </trkpt>
      <trkpt lat="44.03742" lon="3.51397">
        <ele>1254.3244460429</ele>
        <time>2015-05-31T15:10:21Z</time>
      </trkpt>
      <trkpt lat="44.03742" lon="3.51391">
        <ele>1257.3996211053</ele>
        <time>2015-05-31T15:10:26Z</time>
      </trkpt>
      <trkpt lat="44.0374" lon="3.51386">
        <ele>1257.3996211053</ele>
        <time>2015-05-31T15:10:31Z</time>
      </trkpt>
      <trkpt lat="44.03737" lon="3.51383">
        <ele>1257.3996211053</ele>
        <time>2015-05-31T15:10:36Z</time>
      </trkpt>
      <trkpt lat="44.03737" lon="3.51379">
        <ele>1260.2673247048</ele>
        <time>2015-05-31T15:10:41Z</time>
      </trkpt>
      <trkpt lat="44.03733" lon="3.51377">
        <ele>1260.2673247048</ele>
        <time>2015-05-31T15:10:46Z</time>
      </trkpt>
      <trkpt lat="44.03733" lon="3.51377">
        <ele>1260.2673247048</ele>
        <time>2015-05-31T15:10:51Z</time>
      </trkpt>
      <trkpt lat="44.03732" lon="3.51373">
        <ele>1260.2673247048</ele>
        <time>2015-05-31T15:10:56Z</time>
      </trkpt>
      <trkpt lat="44.03733" lon="3.51367">
        <ele>1263.0784756013</ele>
        <time>2015-05-31T15:11:01Z</time>
      </trkpt>
      <trkpt lat="44.03732" lon="3.51362">
        <ele>1263.0784756013</ele>
        <time>2015-05-31T15:11:06Z</time>
      </trkpt>
      <trkpt lat="44.03732" lon="3.51361">
        <ele>1263.0784756013</ele>
        <time>2015-05-31T15:11:11Z</time>
      </trkpt>
      <trkpt lat="44.03732" lon="3.51363">
        <ele>1263.0784756013</ele>
        <time>2015-05-31T15:11:42Z</time>
      </trkpt>
      <trkpt lat="44.03726" lon="3.51366">
        <ele>1265.5843557377</ele>
        <time>2015-05-31T15:11:54Z</time>
      </trkpt>
      <trkpt lat="44.03724" lon="3.51371">
        <ele>1265.5843557377</ele>
        <time>2015-05-31T15:12:01Z</time>
      </trkpt>
      <trkpt lat="44.03719" lon="3.51373">
        <ele>1267.8295695323</ele>
        <time>2015-05-31T15:12:06Z</time>
      </trkpt>
      <trkpt lat="44.03714" lon="3.51374">
        <ele>1267.8295695323</ele>
        <time>2015-05-31T15:12:11Z</time>
      </trkpt>
      <trkpt lat="44.0368" lon="3.51355">
        <ele>1269.8565509599</ele>
        <time>2015-05-31T15:12:56Z</time>
      </trkpt>
      <trkpt lat="44.03675" lon="3.51354">
        <ele>1269.8565509599</ele>
        <time>2015-05-31T15:13:01Z</time>
      </trkpt>
      <trkpt lat="44.03673" lon="3.51354">
        <ele>1269.8565509599</ele>
        <time>2015-05-31T15:13:06Z</time>
      </trkpt>
      <trkpt lat="44.0367" lon="3.51353">
        <ele>1271.6047144322</ele>
        <time>2015-05-31T15:13:11Z</time>
      </trkpt>
      <trkpt lat="44.03668" lon="3.51353">
        <ele>1271.6047144322</ele>
        <time>2015-05-31T15:13:16Z</time>
      </trkpt>
      <trkpt lat="44.03666" lon="3.51353">
        <ele>1271.6047144322</ele>
        <time>2015-05-31T15:13:21Z</time>
      </trkpt>
      <trkpt lat="44.03654" lon="3.51349">
        <ele>1273.1631675006</ele>
        <time>2015-05-31T15:13:41Z</time>
      </trkpt>
      <trkpt lat="44.03646" lon="3.51349">
        <ele>1273.1631675006</ele>
        <time>2015-05-31T15:13:46Z</time>
      </trkpt>
      <trkpt lat="44.0364" lon="3.51346">
        <ele>1274.5144595661</ele>
        <time>2015-05-31T15:13:51Z</time>
      </trkpt>
      <trkpt lat="44.03635" lon="3.51344">
        <ele>1274.5144595661</ele>
        <time>2015-05-31T15:13:56Z</time>
      </trkpt>
      <trkpt lat="44.03631" lon="3.51341">
        <ele>1275.7297855373</ele>
        <time>2015-05-31T15:14:01Z</time>
      </trkpt>
      <trkpt lat="44.03627" lon="3.5134">
        <ele>1275.7297855373</ele>
        <time>2015-05-31T15:14:06Z</time>
      </trkpt>
      <trkpt lat="44.03625" lon="3.51337">
        <ele>1275.7297855373</ele>
        <time>2015-05-31T15:14:11Z</time>
      </trkpt>
      <trkpt lat="44.03604" lon="3.5135">
        <ele>1277.1640117766</ele>
        <time>2015-05-31T15:14:38Z</time>
      </trkpt>
      <trkpt lat="44.03603" lon="3.5135">
        <ele>1277.1640117766</ele>
        <time>2015-05-31T15:14:41Z</time>
      </trkpt>
      <trkpt lat="44.03592" lon="3.51356">
        <ele>1279.8229262429</ele>
        <time>2015-05-31T15:15:21Z</time>
      </trkpt>
      <trkpt lat="44.03591" lon="3.51356">
        <ele>1279.8229262429</ele>
        <time>2015-05-31T15:15:26Z</time>
      </trkpt>
      <trkpt lat="44.03584" lon="3.51358">
        <ele>1279.8229262429</ele>
        <time>2015-05-31T15:16:01Z</time>
      </trkpt>
      <trkpt lat="44.03582" lon="3.51358">
        <ele>1282.6032966812</ele>
        <time>2015-05-31T15:16:06Z</time>
      </trkpt>
      <trkpt lat="44.03579" lon="3.51358">
        <ele>1282.6032966812</ele>
        <time>2015-05-31T15:16:11Z</time>
      </trkpt>
      <trkpt lat="44.03579" lon="3.51359">
        <ele>1282.6032966812</ele>
        <time>2015-05-31T15:16:16Z</time>
      </trkpt>
      <trkpt lat="44.03577" lon="3.51363">
        <ele>1282.6032966812</ele>
        <time>2015-05-31T15:16:21Z</time>
      </trkpt>
      <trkpt lat="44.03572" lon="3.51364">
        <ele>1285.11693818</ele>
        <time>2015-05-31T15:16:26Z</time>
      </trkpt>
      <trkpt lat="44.03571" lon="3.51363">
        <ele>1285.11693818</ele>
        <time>2015-05-31T15:16:31Z</time>
      </trkpt>
      <trkpt lat="44.03571" lon="3.51363">
        <ele>1285.11693818</ele>
        <time>2015-05-31T15:16:36Z</time>
      </trkpt>
      <trkpt lat="44.03564" lon="3.51362">
        <ele>1285.11693818</ele>
        <time>2015-05-31T15:16:46Z</time>
      </trkpt>
      <trkpt lat="44.03551" lon="3.51366">
        <ele>1287.4951552024</ele>
        <time>2015-05-31T15:16:51Z</time>
      </trkpt>
      <trkpt lat="44.03549" lon="3.51367">
        <ele>1287.4951552024</ele>
        <time>2015-05-31T15:16:56Z</time>
      </trkpt>
      <trkpt lat="44.03537" lon="3.51374">
        <ele>1290.1196266971</ele>
        <time>2015-05-31T15:17:27Z</time>
      </trkpt>
      <trkpt lat="44.03528" lon="3.51379">
        <ele>1292.4212231115</ele>
        <time>2015-05-31T15:17:36Z</time>
      </trkpt>
      <trkpt lat="44.03508" lon="3.51382">
        <ele>1294.4934289222</ele>
        <time>2015-05-31T15:18:01Z</time>
      </trkpt>
      <trkpt lat="44.03505" lon="3.51382">
        <ele>1294.4934289222</ele>
        <time>2015-05-31T15:18:06Z</time>
      </trkpt>
      <trkpt lat="44.03503" lon="3.51379">
        <ele>1294.4934289222</ele>
        <time>2015-05-31T15:18:11Z</time>
      </trkpt>
      <trkpt lat="44.03502" lon="3.51379">
        <ele>1294.4934289222</ele>
        <time>2015-05-31T15:18:16Z</time>
      </trkpt>
      <trkpt lat="44.03501" lon="3.51379">
        <ele>1294.4934289222</ele>
        <time>2015-05-31T15:18:21Z</time>
      </trkpt>
      <trkpt lat="44.03491" lon="3.51382">
        <ele>1296.4093057579</ele>
        <time>2015-05-31T15:18:26Z</time>
      </trkpt>
      <trkpt lat="44.03487" lon="3.51386">
        <ele>1296.4093057579</ele>
        <time>2015-05-31T15:18:31Z</time>
      </trkpt>
      <trkpt lat="44.03484" lon="3.51384">
        <ele>1298.0498427046</ele>
        <time>2015-05-31T15:18:36Z</time>
      </trkpt>
      <trkpt lat="44.03477" lon="3.51386">
        <ele>1298.0498427046</ele>
        <time>2015-05-31T15:18:46Z</time>
      </trkpt>
      <trkpt lat="44.03459" lon="3.51395">
        <ele>1299.6371869138</ele>
        <time>2015-05-31T15:19:06Z</time>
      </trkpt>
      <trkpt lat="44.03446" lon="3.51393">
        <ele>1301.5504236006</ele>
        <time>2015-05-31T15:19:31Z</time>
      </trkpt>
      <trkpt lat="44.03452" lon="3.51384">
        <ele>1303.145669809</ele>
        <time>2015-05-31T15:20:01Z</time>
      </trkpt>
      <trkpt lat="44.03443" lon="3.5138">
        <ele>1303.145669809</ele>
        <time>2015-05-31T15:20:31Z</time>
      </trkpt>
      <trkpt lat="44.03443" lon="3.51379">
        <ele>1306.0899286082</ele>
        <time>2015-05-31T15:20:36Z</time>
      </trkpt>
      <trkpt lat="44.03441" lon="3.51375">
        <ele>1306.0899286082</ele>
        <time>2015-05-31T15:20:41Z</time>
      </trkpt>
      <trkpt lat="44.03442" lon="3.51364">
        <ele>1308.8833561758</ele>
        <time>2015-05-31T15:21:01Z</time>
      </trkpt>
      <trkpt lat="44.03443" lon="3.51356">
        <ele>1308.8833561758</ele>
        <time>2015-05-31T15:21:06Z</time>
      </trkpt>
      <trkpt lat="44.03444" lon="3.51349">
        <ele>1311.4626654225</ele>
        <time>2015-05-31T15:21:11Z</time>
      </trkpt>
      <trkpt lat="44.03444" lon="3.51343">
        <ele>1311.4626654225</ele>
        <time>2015-05-31T15:21:16Z</time>
      </trkpt>
      <trkpt lat="44.03443" lon="3.51339">
        <ele>1311.4626654225</ele>
        <time>2015-05-31T15:21:21Z</time>
      </trkpt>
      <trkpt lat="44.03443" lon="3.51336">
        <ele>1313.8708245541</ele>
        <time>2015-05-31T15:21:26Z</time>
      </trkpt>
      <trkpt lat="44.03436" lon="3.51333">
        <ele>1313.8708245541</ele>
        <time>2015-05-31T15:21:41Z</time>
      </trkpt>
      <trkpt lat="44.03435" lon="3.51333">
        <ele>1313.8708245541</ele>
        <time>2015-05-31T15:21:46Z</time>
      </trkpt>
      <trkpt lat="44.03428" lon="3.51333">
        <ele>1316.1050150548</ele>
        <time>2015-05-31T15:22:01Z</time>
      </trkpt>
      <trkpt lat="44.03427" lon="3.51336">
        <ele>1316.1050150548</ele>
        <time>2015-05-31T15:22:06Z</time>
      </trkpt>
      <trkpt lat="44.03427" lon="3.51323">
        <ele>1318.1776411663</ele>
        <time>2015-05-31T15:22:36Z</time>
      </trkpt>
      <trkpt lat="44.03427" lon="3.51323">
        <ele>1318.1776411663</ele>
        <time>2015-05-31T15:22:41Z</time>
      </trkpt>
      <trkpt lat="44.03418" lon="3.51321">
        <ele>1319.9710577492</ele>
        <time>2015-05-31T15:22:56Z</time>
      </trkpt>
      <trkpt lat="44.03412" lon="3.51322">
        <ele>1319.9710577492</ele>
        <time>2015-05-31T15:23:01Z</time>
      </trkpt>
      <trkpt lat="44.03408" lon="3.51321">
        <ele>1321.4924332428</ele>
        <time>2015-05-31T15:23:06Z</time>
      </trkpt>
      <trkpt lat="44.03407" lon="3.51321">
        <ele>1321.4924332428</ele>
        <time>2015-05-31T15:23:11Z</time>
      </trkpt>
      <trkpt lat="44.03402" lon="3.51323">
        <ele>1321.4924332428</ele>
        <time>2015-05-31T15:23:21Z</time>
      </trkpt>
      <trkpt lat="44.03397" lon="3.51321">
        <ele>1322.8501389369</ele>
        <time>2015-05-31T15:23:26Z</time>
      </trkpt>
      <trkpt lat="44.03391" lon="3.51323">
        <ele>1322.8501389369</ele>
        <time>2015-05-31T15:23:31Z</time>
      </trkpt>
      <trkpt lat="44.03386" lon="3.51323">
        <ele>1324.0298318265</ele>
        <time>2015-05-31T15:23:36Z</time>
      </trkpt>
      <trkpt lat="44.03379" lon="3.51324">
        <ele>1324.0298318265</ele>
        <time>2015-05-31T15:23:41Z</time>
      </trkpt>
      <trkpt lat="44.03368" lon="3.51327">
        <ele>1325.0476073652</ele>
        <time>2015-05-31T15:23:46Z</time>
      </trkpt>
      <trkpt lat="44.03363" lon="3.51327">
        <ele>1325.0476073652</ele>
        <time>2015-05-31T15:23:51Z</time>
      </trkpt>
      <trkpt lat="44.03357" lon="3.51328">
        <ele>1326.0918158978</ele>
        <time>2015-05-31T15:23:56Z</time>
      </trkpt>
      <trkpt lat="44.03354" lon="3.51325">
        <ele>1326.0918158978</ele>
        <time>2015-05-31T15:24:01Z</time>
      </trkpt>
      <trkpt lat="44.03351" lon="3.51326">
        <ele>1326.0918158978</ele>
        <time>2015-05-31T15:24:06Z</time>
      </trkpt>
      <trkpt lat="44.03348" lon="3.51326">
        <ele>1327.2504670607</ele>
        <time>2015-05-31T15:24:11Z</time>
      </trkpt>
      <trkpt lat="44.03346" lon="3.51325">
        <ele>1327.2504670607</ele>
        <time>2015-05-31T15:24:16Z</time>
      </trkpt>
      <trkpt lat="44.03345" lon="3.51323">
        <ele>1327.2504670607</ele>
        <time>2015-05-31T15:24:21Z</time>
      </trkpt>
      <trkpt lat="44.03345" lon="3.51324">
        <ele>1327.2504670607</ele>
        <time>2015-05-31T15:24:26Z</time>
      </trkpt>
      <trkpt lat="44.03341" lon="3.51325">
        <ele>1327.2504670607</ele>
        <time>2015-05-31T15:24:31Z</time>
      </trkpt>
      <trkpt lat="44.03328" lon="3.5133">
        <ele>1328.9650866147</ele>
        <time>2015-05-31T15:25:09Z</time>
      </trkpt>
      <trkpt lat="44.03318" lon="3.51331">
        <ele>1330.6056200906</ele>
        <time>2015-05-31T15:25:26Z</time>
      </trkpt>
      <trkpt lat="44.03316" lon="3.51329">
        <ele>1330.6056200906</ele>
        <time>2015-05-31T15:25:31Z</time>
      </trkpt>
      <trkpt lat="44.03314" lon="3.5133">
        <ele>1330.6056200906</ele>
        <time>2015-05-31T15:25:36Z</time>
      </trkpt>
      <trkpt lat="44.0331" lon="3.51329">
        <ele>1332.0784877166</ele>
        <time>2015-05-31T15:25:46Z</time>
      </trkpt>
      <trkpt lat="44.03306" lon="3.51329">
        <ele>1332.0784877166</ele>
        <time>2015-05-31T15:25:51Z</time>
      </trkpt>
      <trkpt lat="44.03301" lon="3.51332">
        <ele>1333.355096924</ele>
        <time>2015-05-31T15:25:56Z</time>
      </trkpt>
      <trkpt lat="44.03299" lon="3.51334">
        <ele>1333.355096924</ele>
        <time>2015-05-31T15:26:01Z</time>
      </trkpt>
      <trkpt lat="44.03295" lon="3.51334">
        <ele>1333.355096924</ele>
        <time>2015-05-31T15:26:06Z</time>
      </trkpt>
      <trkpt lat="44.03291" lon="3.51331">
        <ele>1334.4671415222</ele>
        <time>2015-05-31T15:26:11Z</time>
      </trkpt>
      <trkpt lat="44.0329" lon="3.5133">
        <ele>1334.4671415222</ele>
        <time>2015-05-31T15:26:16Z</time>
      </trkpt>
      <trkpt lat="44.03273" lon="3.51341">
        <ele>1335.7038324326</ele>
        <time>2015-05-31T15:26:36Z</time>
      </trkpt>
      <trkpt lat="44.0327" lon="3.51339">
        <ele>1335.7038324326</ele>
        <time>2015-05-31T15:26:41Z</time>
      </trkpt>
      <trkpt lat="44.03269" lon="3.51339">
        <ele>1335.7038324326</ele>
        <time>2015-05-31T15:26:46Z</time>
      </trkpt>
      <trkpt lat="44.03267" lon="3.5134">
        <ele>1335.7038324326</ele>
        <time>2015-05-31T15:26:51Z</time>
      </trkpt>
      <trkpt lat="44.03262" lon="3.51338">
        <ele>1336.8860169359</ele>
        <time>2015-05-31T15:26:56Z</time>
      </trkpt>
      <trkpt lat="44.03258" lon="3.51335">
        <ele>1336.8860169359</ele>
        <time>2015-05-31T15:27:01Z</time>
      </trkpt>
      <trkpt lat="44.03258" lon="3.51327">
        <ele>1337.9487017776</ele>
        <time>2015-05-31T15:27:06Z</time>
      </trkpt>
      <trkpt lat="44.03257" lon="3.51322">
        <ele>1337.9487017776</ele>
        <time>2015-05-31T15:27:11Z</time>
      </trkpt>
      <trkpt lat="44.03257" lon="3.51317">
        <ele>1337.9487017776</ele>
        <time>2015-05-31T15:27:16Z</time>
      </trkpt>
      <trkpt lat="44.03256" lon="3.51316">
        <ele>1337.9487017776</ele>
        <time>2015-05-31T15:27:21Z</time>
      </trkpt>
      <trkpt lat="44.03256" lon="3.51309">
        <ele>1339.0625423531</ele>
        <time>2015-05-31T15:27:26Z</time>
      </trkpt>
      <trkpt lat="44.03254" lon="3.51298">
        <ele>1339.0625423531</ele>
        <time>2015-05-31T15:27:36Z</time>
      </trkpt>
      <trkpt lat="44.03255" lon="3.51298">
        <ele>1340.2125355946</ele>
        <time>2015-05-31T15:27:41Z</time>
      </trkpt>
      <trkpt lat="44.03257" lon="3.51295">
        <ele>1340.2125355946</ele>
        <time>2015-05-31T15:27:51Z</time>
      </trkpt>
      <trkpt lat="44.03256" lon="3.51294">
        <ele>1340.2125355946</ele>
        <time>2015-05-31T15:27:56Z</time>
      </trkpt>
      <trkpt lat="44.03255" lon="3.51294">
        <ele>1340.2125355946</ele>
        <time>2015-05-31T15:28:01Z</time>
      </trkpt>
      <trkpt lat="44.03249" lon="3.51296">
        <ele>1341.4999169688</ele>
        <time>2015-05-31T15:28:06Z</time>
      </trkpt>
      <trkpt lat="44.03247" lon="3.51295">
        <ele>1341.4999169688</ele>
        <time>2015-05-31T15:28:11Z</time>
      </trkpt>
      <trkpt lat="44.03251" lon="3.51287">
        <ele>1342.9892218617</ele>
        <time>2015-05-31T15:28:16Z</time>
      </trkpt>
      <trkpt lat="44.0325" lon="3.51286">
        <ele>1342.9892218617</ele>
        <time>2015-05-31T15:28:21Z</time>
      </trkpt>
      <trkpt lat="44.03249" lon="3.51284">
        <ele>1342.9892218617</ele>
        <time>2015-05-31T15:28:26Z</time>
      </trkpt>
      <trkpt lat="44.03242" lon="3.5128">
        <ele>1344.581097211</ele>
        <time>2015-05-31T15:28:31Z</time>
      </trkpt>
      <trkpt lat="44.03241" lon="3.51278">
        <ele>1344.581097211</ele>
        <time>2015-05-31T15:28:36Z</time>
      </trkpt>
      <trkpt lat="44.03241" lon="3.51275">
        <ele>1344.581097211</ele>
        <time>2015-05-31T15:28:41Z</time>
      </trkpt>
      <trkpt lat="44.03239" lon="3.51276">
        <ele>1344.581097211</ele>
        <time>2015-05-31T15:28:46Z</time>
      </trkpt>
      <trkpt lat="44.03235" lon="3.51275">
        <ele>1346.3272511459</ele>
        <time>2015-05-31T15:28:51Z</time>
      </trkpt>
      <trkpt lat="44.03226" lon="3.51275">
        <ele>1348.2895110351</ele>
        <time>2015-05-31T15:28:56Z</time>
      </trkpt>
      <trkpt lat="44.03226" lon="3.51275">
        <ele>1348.2895110351</ele>
        <time>2015-05-31T15:29:01Z</time>
      </trkpt>
      <trkpt lat="44.03222" lon="3.51272">
        <ele>1348.2895110351</ele>
        <time>2015-05-31T15:29:11Z</time>
      </trkpt>
      <trkpt lat="44.03219" lon="3.51271">
        <ele>1348.2895110351</ele>
        <time>2015-05-31T15:29:16Z</time>
      </trkpt>
      <trkpt lat="44.03207" lon="3.51269">
        <ele>1353.0608582766</ele>
        <time>2015-05-31T15:29:42Z</time>
      </trkpt>
      <trkpt lat="44.03193" lon="3.51288">
        <ele>1359.5772061664</ele>
        <time>2015-05-31T15:30:26Z</time>
      </trkpt>
      <trkpt lat="44.03193" lon="3.51293">
        <ele>1359.5772061664</ele>
        <time>2015-05-31T15:30:44Z</time>
      </trkpt>
      <trkpt lat="44.03192" lon="3.51293">
        <ele>1359.5772061664</ele>
        <time>2015-05-31T15:30:54Z</time>
      </trkpt>
      <trkpt lat="44.03185" lon="3.51299">
        <ele>1366.9053663346</ele>
        <time>2015-05-31T15:31:26Z</time>
      </trkpt>
      <trkpt lat="44.0318" lon="3.51304">
        <ele>1366.9053663346</ele>
        <time>2015-05-31T15:31:45Z</time>
      </trkpt>
      <trkpt lat="44.03177" lon="3.5131">
        <ele>1374.2649048965</ele>
        <time>2015-05-31T15:32:06Z</time>
      </trkpt>
      <trkpt lat="44.03172" lon="3.51323">
        <ele>1381.1488480751</ele>
        <time>2015-05-31T15:32:31Z</time>
      </trkpt>
      <trkpt lat="44.03173" lon="3.51332">
        <ele>1381.1488480751</ele>
        <time>2015-05-31T15:33:21Z</time>
      </trkpt>
      <trkpt lat="44.03172" lon="3.51331">
        <ele>1381.1488480751</ele>
        <time>2015-05-31T15:33:26Z</time>
      </trkpt>
      <trkpt lat="44.03167" lon="3.51331">
        <ele>1389.0488009565</ele>
        <time>2015-05-31T15:34:56Z</time>
      </trkpt>
      <trkpt lat="44.03165" lon="3.51331">
        <ele>1389.0488009565</ele>
        <time>2015-05-31T15:35:23Z</time>
      </trkpt>
      <trkpt lat="44.03159" lon="3.51326">
        <ele>1396.4042059621</ele>
        <time>2015-05-31T15:35:28Z</time>
      </trkpt>
      <trkpt lat="44.03159" lon="3.51325">
        <ele>1396.4042059621</ele>
        <time>2015-05-31T15:35:31Z</time>
      </trkpt>
      <trkpt lat="44.03155" lon="3.51322">
        <ele>1396.4042059621</ele>
        <time>2015-05-31T15:35:36Z</time>
      </trkpt>
      <trkpt lat="44.03152" lon="3.51321">
        <ele>1396.4042059621</ele>
        <time>2015-05-31T15:35:41Z</time>
      </trkpt>
      <trkpt lat="44.03152" lon="3.51322">
        <ele>1396.4042059621</ele>
        <time>2015-05-31T15:35:46Z</time>
      </trkpt>
      <trkpt lat="44.03154" lon="3.51327">
        <ele>1403.601044287</ele>
        <time>2015-05-31T15:37:01Z</time>
      </trkpt>
      <trkpt lat="44.03151" lon="3.51325">
        <ele>1403.601044287</ele>
        <time>2015-05-31T15:38:01Z</time>
      </trkpt>
      <trkpt lat="44.03156" lon="3.51326">
        <ele>1403.601044287</ele>
        <time>2015-05-31T15:39:26Z</time>
      </trkpt>
      <trkpt lat="44.03155" lon="3.51326">
        <ele>1403.601044287</ele>
        <time>2015-05-31T15:39:31Z</time>
      </trkpt>
      <trkpt lat="44.03154" lon="3.51331">
        <ele>1410.8246472445</ele>
        <time>2015-05-31T15:41:46Z</time>
      </trkpt>
      <trkpt lat="44.03153" lon="3.51334">
        <ele>1410.8246472445</ele>
        <time>2015-05-31T15:41:51Z</time>
      </trkpt>
      <trkpt lat="44.03151" lon="3.51335">
        <ele>1410.8246472445</ele>
        <time>2015-05-31T15:41:56Z</time>
      </trkpt>
      <trkpt lat="44.03151" lon="3.51337">
        <ele>1410.8246472445</ele>
        <time>2015-05-31T15:42:01Z</time>
      </trkpt>
      <trkpt lat="44.03151" lon="3.51337">
        <ele>1410.8246472445</ele>
        <time>2015-05-31T15:42:06Z</time>
      </trkpt>
      <trkpt lat="44.0315" lon="3.5134">
        <ele>1410.8246472445</ele>
        <time>2015-05-31T15:42:41Z</time>
      </trkpt>
      <trkpt lat="44.03157" lon="3.51347">
        <ele>1417.2813312361</ele>
        <time>2015-05-31T15:49:01Z</time>
      </trkpt>
      <trkpt lat="44.03158" lon="3.51346">
        <ele>1417.2813312361</ele>
        <time>2015-05-31T15:49:06Z</time>
      </trkpt>
      <trkpt lat="44.03162" lon="3.51357">
        <ele>1422.9154299413</ele>
        <time>2015-05-31T15:50:06Z</time>
      </trkpt>
      <trkpt lat="44.03162" lon="3.51358">
        <ele>1422.9154299413</ele>
        <time>2015-05-31T15:50:11Z</time>
      </trkpt>
      <trkpt lat="44.03165" lon="3.51364">
        <ele>1422.9154299413</ele>
        <time>2015-05-31T15:50:16Z</time>
      </trkpt>
      <trkpt lat="44.03165" lon="3.51364">
        <ele>1422.9154299413</ele>
        <time>2015-05-31T15:50:21Z</time>
      </trkpt>
      <trkpt lat="44.03168" lon="3.51378">
        <ele>1427.4041158534</ele>
        <time>2015-05-31T15:51:46Z</time>
      </trkpt>
      <trkpt lat="44.03168" lon="3.51382">
        <ele>1427.4041158534</ele>
        <time>2015-05-31T15:51:51Z</time>
      </trkpt>
      <trkpt lat="44.03168" lon="3.51389">
        <ele>1427.4041158534</ele>
        <time>2015-05-31T15:51:56Z</time>
      </trkpt>
      <trkpt lat="44.03168" lon="3.51397">
        <ele>1431.1867152291</ele>
        <time>2015-05-31T15:52:01Z</time>
      </trkpt>
      <trkpt lat="44.03168" lon="3.51401">
        <ele>1431.1867152291</ele>
        <time>2015-05-31T15:52:06Z</time>
      </trkpt>
      <trkpt lat="44.03168" lon="3.51408">
        <ele>1431.1867152291</ele>
        <time>2015-05-31T15:52:11Z</time>
      </trkpt>
      <trkpt lat="44.03168" lon="3.51412">
        <ele>1434.3266518686</ele>
        <time>2015-05-31T15:52:16Z</time>
      </trkpt>
      <trkpt lat="44.03166" lon="3.5143">
        <ele>1436.0200711011</ele>
        <time>2015-05-31T15:53:16Z</time>
      </trkpt>
      <trkpt lat="44.03165" lon="3.51433">
        <ele>1436.0200711011</ele>
        <time>2015-05-31T15:53:21Z</time>
      </trkpt>
      <trkpt lat="44.03164" lon="3.51433">
        <ele>1436.0200711011</ele>
        <time>2015-05-31T15:53:27Z</time>
      </trkpt>
      <trkpt lat="44.03164" lon="3.51437">
        <ele>1436.0200711011</ele>
        <time>2015-05-31T15:53:31Z</time>
      </trkpt>
      <trkpt lat="44.03161" lon="3.51444">
        <ele>1437.0972646849</ele>
        <time>2015-05-31T15:53:39Z</time>
      </trkpt>
      <trkpt lat="44.03161" lon="3.51444">
        <ele>1437.0972646849</ele>
        <time>2015-05-31T15:53:41Z</time>
      </trkpt>
      <trkpt lat="44.0316" lon="3.51447">
        <ele>1437.0972646849</ele>
        <time>2015-05-31T15:53:52Z</time>
      </trkpt>
      <trkpt lat="44.03154" lon="3.51462">
        <ele>1437.7241948241</ele>
        <time>2015-05-31T15:53:58Z</time>
      </trkpt>
      <trkpt lat="44.03154" lon="3.51466">
        <ele>1437.7241948241</ele>
        <time>2015-05-31T15:54:01Z</time>
      </trkpt>
      <trkpt lat="44.03149" lon="3.51473">
        <ele>1438.0128337429</ele>
        <time>2015-05-31T15:54:06Z</time>
      </trkpt>
      <trkpt lat="44.03147" lon="3.51481">
        <ele>1438.0128337429</ele>
        <time>2015-05-31T15:54:11Z</time>
      </trkpt>
      <trkpt lat="44.03147" lon="3.51488">
        <ele>1437.9527269613</ele>
        <time>2015-05-31T15:54:16Z</time>
      </trkpt>
      <trkpt lat="44.03147" lon="3.5149">
        <ele>1437.9527269613</ele>
        <time>2015-05-31T15:54:21Z</time>
      </trkpt>
      <trkpt lat="44.03147" lon="3.51494">
        <ele>1437.9527269613</ele>
        <time>2015-05-31T15:54:26Z</time>
      </trkpt>
      <trkpt lat="44.03147" lon="3.51496">
        <ele>1437.9527269613</ele>
        <time>2015-05-31T15:54:31Z</time>
      </trkpt>
      <trkpt lat="44.03152" lon="3.51503">
        <ele>1437.4920370113</ele>
        <time>2015-05-31T15:54:41Z</time>
      </trkpt>
      <trkpt lat="44.0316" lon="3.51519">
        <ele>1436.7568602912</ele>
        <time>2015-05-31T15:54:51Z</time>
      </trkpt>
      <trkpt lat="44.03167" lon="3.5153">
        <ele>1435.6342553222</ele>
        <time>2015-05-31T15:54:56Z</time>
      </trkpt>
      <trkpt lat="44.03173" lon="3.51536">
        <ele>1435.6342553222</ele>
        <time>2015-05-31T15:55:01Z</time>
      </trkpt>
      <trkpt lat="44.03172" lon="3.51541">
        <ele>1433.963016063</ele>
        <time>2015-05-31T15:55:06Z</time>
      </trkpt>
      <trkpt lat="44.03177" lon="3.51543">
        <ele>1433.963016063</ele>
        <time>2015-05-31T15:55:11Z</time>
      </trkpt>
      <trkpt lat="44.03179" lon="3.51545">
        <ele>1433.963016063</ele>
        <time>2015-05-31T15:55:16Z</time>
      </trkpt>
      <trkpt lat="44.03183" lon="3.51547">
        <ele>1431.9987885186</ele>
        <time>2015-05-31T15:55:21Z</time>
      </trkpt>
      <trkpt lat="44.03185" lon="3.5155">
        <ele>1431.9987885186</ele>
        <time>2015-05-31T15:55:26Z</time>
      </trkpt>
      <trkpt lat="44.03188" lon="3.51553">
        <ele>1431.9987885186</ele>
        <time>2015-05-31T15:55:31Z</time>
      </trkpt>
      <trkpt lat="44.0319" lon="3.51555">
        <ele>1429.8927170824</ele>
        <time>2015-05-31T15:55:36Z</time>
      </trkpt>
      <trkpt lat="44.03191" lon="3.51559">
        <ele>1429.8927170824</ele>
        <time>2015-05-31T15:55:41Z</time>
      </trkpt>
      <trkpt lat="44.03196" lon="3.51561">
        <ele>1429.8927170824</ele>
        <time>2015-05-31T15:55:46Z</time>
      </trkpt>
      <trkpt lat="44.03199" lon="3.51564">
        <ele>1427.6121939607</ele>
        <time>2015-05-31T15:55:51Z</time>
      </trkpt>
      <trkpt lat="44.03206" lon="3.51566">
        <ele>1427.6121939607</ele>
        <time>2015-05-31T15:55:56Z</time>
      </trkpt>
      <trkpt lat="44.03213" lon="3.51567">
        <ele>1425.2570470699</ele>
        <time>2015-05-31T15:56:01Z</time>
      </trkpt>
      <trkpt lat="44.03216" lon="3.51569">
        <ele>1425.2570470699</ele>
        <time>2015-05-31T15:56:06Z</time>
      </trkpt>
      <trkpt lat="44.0322" lon="3.51568">
        <ele>1425.2570470699</ele>
        <time>2015-05-31T15:56:11Z</time>
      </trkpt>
      <trkpt lat="44.03224" lon="3.5157">
        <ele>1422.746864272</ele>
        <time>2015-05-31T15:56:16Z</time>
      </trkpt>
      <trkpt lat="44.03228" lon="3.51571">
        <ele>1422.746864272</ele>
        <time>2015-05-31T15:56:21Z</time>
      </trkpt>
      <trkpt lat="44.03232" lon="3.51573">
        <ele>1422.746864272</ele>
        <time>2015-05-31T15:56:26Z</time>
      </trkpt>
      <trkpt lat="44.03235" lon="3.51572">
        <ele>1420.1514722987</ele>
        <time>2015-05-31T15:56:31Z</time>
      </trkpt>
      <trkpt lat="44.03239" lon="3.51577">
        <ele>1420.1514722987</ele>
        <time>2015-05-31T15:56:36Z</time>
      </trkpt>
      <trkpt lat="44.03243" lon="3.5158">
        <ele>1420.1514722987</ele>
        <time>2015-05-31T15:56:41Z</time>
      </trkpt>
      <trkpt lat="44.03247" lon="3.51583">
        <ele>1417.348219047</ele>
        <time>2015-05-31T15:56:46Z</time>
      </trkpt>
      <trkpt lat="44.03252" lon="3.51587">
        <ele>1417.348219047</ele>
        <time>2015-05-31T15:56:51Z</time>
      </trkpt>
      <trkpt lat="44.03258" lon="3.51585">
        <ele>1414.4543517209</ele>
        <time>2015-05-31T15:56:56Z</time>
      </trkpt>
      <trkpt lat="44.03261" lon="3.51585">
        <ele>1414.4543517209</ele>
        <time>2015-05-31T15:57:01Z</time>
      </trkpt>
      <trkpt lat="44.03266" lon="3.51584">
        <ele>1414.4543517209</ele>
        <time>2015-05-31T15:57:06Z</time>
      </trkpt>
      <trkpt lat="44.03266" lon="3.51587">
        <ele>1411.448761252</ele>
        <time>2015-05-31T15:57:11Z</time>
      </trkpt>
      <trkpt lat="44.03269" lon="3.51589">
        <ele>1411.448761252</ele>
        <time>2015-05-31T15:57:16Z</time>
      </trkpt>
      <trkpt lat="44.03277" lon="3.51594">
        <ele>1408.3839367371</ele>
        <time>2015-05-31T15:57:21Z</time>
      </trkpt>
      <trkpt lat="44.03281" lon="3.51593">
        <ele>1408.3839367371</ele>
        <time>2015-05-31T15:57:26Z</time>
      </trkpt>
      <trkpt lat="44.03284" lon="3.51594">
        <ele>1408.3839367371</ele>
        <time>2015-05-31T15:57:31Z</time>
      </trkpt>
      <trkpt lat="44.0329" lon="3.51596">
        <ele>1405.1354004562</ele>
        <time>2015-05-31T15:57:36Z</time>
      </trkpt>
      <trkpt lat="44.03295" lon="3.51594">
        <ele>1405.1354004562</ele>
        <time>2015-05-31T15:57:41Z</time>
      </trkpt>
      <trkpt lat="44.03296" lon="3.51597">
        <ele>1405.1354004562</ele>
        <time>2015-05-31T15:57:46Z</time>
      </trkpt>
      <trkpt lat="44.03301" lon="3.51597">
        <ele>1401.7464921381</ele>
        <time>2015-05-31T15:57:51Z</time>
      </trkpt>
      <trkpt lat="44.03303" lon="3.51596">
        <ele>1401.7464921381</ele>
        <time>2015-05-31T15:57:56Z</time>
      </trkpt>
      <trkpt lat="44.03307" lon="3.51595">
        <ele>1401.7464921381</ele>
        <time>2015-05-31T15:58:01Z</time>
      </trkpt>
      <trkpt lat="44.0331" lon="3.51597">
        <ele>1398.0556225032</ele>
        <time>2015-05-31T15:58:06Z</time>
      </trkpt>
      <trkpt lat="44.03312" lon="3.51598">
        <ele>1398.0556225032</ele>
        <time>2015-05-31T15:58:11Z</time>
      </trkpt>
      <trkpt lat="44.03317" lon="3.51598">
        <ele>1398.0556225032</ele>
        <time>2015-05-31T15:58:16Z</time>
      </trkpt>
      <trkpt lat="44.03329" lon="3.51598">
        <ele>1394.0720402352</ele>
        <time>2015-05-31T15:58:21Z</time>
      </trkpt>
      <trkpt lat="44.03333" lon="3.516">
        <ele>1394.0720402352</ele>
        <time>2015-05-31T15:58:26Z</time>
      </trkpt>
      <trkpt lat="44.03335" lon="3.51599">
        <ele>1394.0720402352</ele>
        <time>2015-05-31T15:58:31Z</time>
      </trkpt>
      <trkpt lat="44.03337" lon="3.51599">
        <ele>1394.0720402352</ele>
        <time>2015-05-31T15:58:36Z</time>
      </trkpt>
      <trkpt lat="44.03337" lon="3.516">
        <ele>1394.0720402352</ele>
        <time>2015-05-31T15:58:41Z</time>
      </trkpt>
      <trkpt lat="44.03337" lon="3.516">
        <ele>1394.0720402352</ele>
        <time>2015-05-31T15:58:51Z</time>
      </trkpt>
      <trkpt lat="44.03336" lon="3.516">
        <ele>1389.4444379069</ele>
        <time>2015-05-31T15:58:56Z</time>
      </trkpt>
      <trkpt lat="44.03339" lon="3.516">
        <ele>1389.4444379069</ele>
        <time>2015-05-31T15:59:01Z</time>
      </trkpt>
      <trkpt lat="44.03335" lon="3.51599">
        <ele>1389.4444379069</ele>
        <time>2015-05-31T15:59:06Z</time>
      </trkpt>
      <trkpt lat="44.03335" lon="3.51599">
        <ele>1389.4444379069</ele>
        <time>2015-05-31T15:59:11Z</time>
      </trkpt>
      <trkpt lat="44.0334" lon="3.51597">
        <ele>1384.9295177337</ele>
        <time>2015-05-31T15:59:16Z</time>
      </trkpt>
      <trkpt lat="44.03341" lon="3.51596">
        <ele>1384.9295177337</ele>
        <time>2015-05-31T15:59:21Z</time>
      </trkpt>
      <trkpt lat="44.03344" lon="3.51605">
        <ele>1384.9295177337</ele>
        <time>2015-05-31T15:59:36Z</time>
      </trkpt>
      <trkpt lat="44.03348" lon="3.51605">
        <ele>1380.3197236336</ele>
        <time>2015-05-31T15:59:41Z</time>
      </trkpt>
      <trkpt lat="44.03345" lon="3.5161">
        <ele>1380.3197236336</ele>
        <time>2015-05-31T15:59:46Z</time>
      </trkpt>
      <trkpt lat="44.03345" lon="3.5161">
        <ele>1380.3197236336</ele>
        <time>2015-05-31T15:59:51Z</time>
      </trkpt>
      <trkpt lat="44.03346" lon="3.51618">
        <ele>1372.9005911704</ele>
        <time>2015-05-31T16:00:36Z</time>
      </trkpt>
      <trkpt lat="44.03346" lon="3.51623">
        <ele>1372.9005911704</ele>
        <time>2015-05-31T16:00:41Z</time>
      </trkpt>
      <trkpt lat="44.03347" lon="3.51627">
        <ele>1372.9005911704</ele>
        <time>2015-05-31T16:00:46Z</time>
      </trkpt>
      <trkpt lat="44.03349" lon="3.51631">
        <ele>1365.8712440658</ele>
        <time>2015-05-31T16:00:51Z</time>
      </trkpt>
      <trkpt lat="44.0335" lon="3.51633">
        <ele>1365.8712440658</ele>
        <time>2015-05-31T16:00:56Z</time>
      </trkpt>
      <trkpt lat="44.03355" lon="3.51639">
        <ele>1365.8712440658</ele>
        <time>2015-05-31T16:01:21Z</time>
      </trkpt>
      <trkpt lat="44.03356" lon="3.5164">
        <ele>1358.8796279533</ele>
        <time>2015-05-31T16:01:26Z</time>
      </trkpt>
      <trkpt lat="44.03357" lon="3.51641">
        <ele>1358.8796279533</ele>
        <time>2015-05-31T16:01:31Z</time>
      </trkpt>
      <trkpt lat="44.03359" lon="3.51639">
        <ele>1358.8796279533</ele>
        <time>2015-05-31T16:01:36Z</time>
      </trkpt>
      <trkpt lat="44.03363" lon="3.5164">
        <ele>1358.8796279533</ele>
        <time>2015-05-31T16:01:41Z</time>
      </trkpt>
      <trkpt lat="44.03367" lon="3.5164">
        <ele>1352.2473976627</ele>
        <time>2015-05-31T16:01:46Z</time>
      </trkpt>
      <trkpt lat="44.03368" lon="3.51639">
        <ele>1352.2473976627</ele>
        <time>2015-05-31T16:01:51Z</time>
      </trkpt>
      <trkpt lat="44.0338" lon="3.51646">
        <ele>1345.9827788633</ele>
        <time>2015-05-31T16:02:11Z</time>
      </trkpt>
      <trkpt lat="44.03384" lon="3.51649">
        <ele>1345.9827788633</ele>
        <time>2015-05-31T16:02:16Z</time>
      </trkpt>
      <trkpt lat="44.03391" lon="3.51651">
        <ele>1340.1205967493</ele>
        <time>2015-05-31T16:02:21Z</time>
      </trkpt>
      <trkpt lat="44.03396" lon="3.51654">
        <ele>1340.1205967493</ele>
        <time>2015-05-31T16:02:26Z</time>
      </trkpt>
      <trkpt lat="44.03402" lon="3.51658">
        <ele>1334.7634466067</ele>
        <time>2015-05-31T16:02:31Z</time>
      </trkpt>
      <trkpt lat="44.03403" lon="3.51663">
        <ele>1334.7634466067</ele>
        <time>2015-05-31T16:02:36Z</time>
      </trkpt>
      <trkpt lat="44.03405" lon="3.5167">
        <ele>1329.9034893978</ele>
        <time>2015-05-31T16:02:41Z</time>
      </trkpt>
      <trkpt lat="44.03406" lon="3.51677">
        <ele>1329.9034893978</ele>
        <time>2015-05-31T16:02:46Z</time>
      </trkpt>
      <trkpt lat="44.03407" lon="3.51681">
        <ele>1329.9034893978</ele>
        <time>2015-05-31T16:02:51Z</time>
      </trkpt>
      <trkpt lat="44.03408" lon="3.51687">
        <ele>1325.3729426468</ele>
        <time>2015-05-31T16:02:56Z</time>
      </trkpt>
      <trkpt lat="44.03412" lon="3.51694">
        <ele>1325.3729426468</ele>
        <time>2015-05-31T16:03:01Z</time>
      </trkpt>
      <trkpt lat="44.03415" lon="3.51699">
        <ele>1321.1301178781</ele>
        <time>2015-05-31T16:03:06Z</time>
      </trkpt>
      <trkpt lat="44.03419" lon="3.51702">
        <ele>1321.1301178781</ele>
        <time>2015-05-31T16:03:11Z</time>
      </trkpt>
      <trkpt lat="44.03423" lon="3.51708">
        <ele>1316.8900071269</ele>
        <time>2015-05-31T16:03:16Z</time>
      </trkpt>
      <trkpt lat="44.03423" lon="3.51713">
        <ele>1316.8900071269</ele>
        <time>2015-05-31T16:03:21Z</time>
      </trkpt>
      <trkpt lat="44.03427" lon="3.51725">
        <ele>1311.926801756</ele>
        <time>2015-05-31T16:03:26Z</time>
      </trkpt>
      <trkpt lat="44.03427" lon="3.51725">
        <ele>1311.926801756</ele>
        <time>2015-05-31T16:03:31Z</time>
      </trkpt>
      <trkpt lat="44.03424" lon="3.51741">
        <ele>1306.3044438695</ele>
        <time>2015-05-31T16:03:46Z</time>
      </trkpt>
      <trkpt lat="44.03425" lon="3.51743">
        <ele>1306.3044438695</ele>
        <time>2015-05-31T16:03:51Z</time>
      </trkpt>
      <trkpt lat="44.03426" lon="3.51746">
        <ele>1306.3044438695</ele>
        <time>2015-05-31T16:03:56Z</time>
      </trkpt>
      <trkpt lat="44.03426" lon="3.51756">
        <ele>1300.9913767516</ele>
        <time>2015-05-31T16:04:02Z</time>
      </trkpt>
      <trkpt lat="44.03427" lon="3.51758">
        <ele>1300.9913767516</ele>
        <time>2015-05-31T16:04:06Z</time>
      </trkpt>
      <trkpt lat="44.0343" lon="3.51763">
        <ele>1300.9913767516</ele>
        <time>2015-05-31T16:04:11Z</time>
      </trkpt>
      <trkpt lat="44.03434" lon="3.51768">
        <ele>1296.2926383954</ele>
        <time>2015-05-31T16:04:16Z</time>
      </trkpt>
      <trkpt lat="44.0344" lon="3.51772">
        <ele>1296.2926383954</ele>
        <time>2015-05-31T16:04:21Z</time>
      </trkpt>
      <trkpt lat="44.03448" lon="3.51776">
        <ele>1292.0562727822</ele>
        <time>2015-05-31T16:04:26Z</time>
      </trkpt>
      <trkpt lat="44.03453" lon="3.51778">
        <ele>1292.0562727822</ele>
        <time>2015-05-31T16:04:31Z</time>
      </trkpt>
      <trkpt lat="44.03457" lon="3.51779">
        <ele>1288.2405524175</ele>
        <time>2015-05-31T16:04:36Z</time>
      </trkpt>
      <trkpt lat="44.03462" lon="3.51783">
        <ele>1288.2405524175</ele>
        <time>2015-05-31T16:04:41Z</time>
      </trkpt>
      <trkpt lat="44.03465" lon="3.51786">
        <ele>1284.8627835224</ele>
        <time>2015-05-31T16:04:46Z</time>
      </trkpt>
      <trkpt lat="44.0347" lon="3.51788">
        <ele>1284.8627835224</ele>
        <time>2015-05-31T16:04:51Z</time>
      </trkpt>
      <trkpt lat="44.03473" lon="3.51791">
        <ele>1284.8627835224</ele>
        <time>2015-05-31T16:04:56Z</time>
      </trkpt>
      <trkpt lat="44.03477" lon="3.51795">
        <ele>1281.850832455</ele>
        <time>2015-05-31T16:05:01Z</time>
      </trkpt>
      <trkpt lat="44.03483" lon="3.51798">
        <ele>1281.850832455</ele>
        <time>2015-05-31T16:05:06Z</time>
      </trkpt>
      <trkpt lat="44.03489" lon="3.51801">
        <ele>1279.237268752</ele>
        <time>2015-05-31T16:05:11Z</time>
      </trkpt>
      <trkpt lat="44.0349" lon="3.51808">
        <ele>1279.237268752</ele>
        <time>2015-05-31T16:05:16Z</time>
      </trkpt>
      <trkpt lat="44.03491" lon="3.51806">
        <ele>1279.237268752</ele>
        <time>2015-05-31T16:05:21Z</time>
      </trkpt>
      <trkpt lat="44.03516" lon="3.51816">
        <ele>1275.8401974243</ele>
        <time>2015-05-31T16:06:01Z</time>
      </trkpt>
      <trkpt lat="44.03521" lon="3.51821">
        <ele>1275.8401974243</ele>
        <time>2015-05-31T16:06:06Z</time>
      </trkpt>
      <trkpt lat="44.03525" lon="3.51825">
        <ele>1272.9009509037</ele>
        <time>2015-05-31T16:06:11Z</time>
      </trkpt>
      <trkpt lat="44.0353" lon="3.51831">
        <ele>1272.9009509037</ele>
        <time>2015-05-31T16:06:16Z</time>
      </trkpt>
      <trkpt lat="44.03539" lon="3.51831">
        <ele>1270.343079924</ele>
        <time>2015-05-31T16:06:21Z</time>
      </trkpt>
      <trkpt lat="44.03546" lon="3.51836">
        <ele>1270.343079924</ele>
        <time>2015-05-31T16:06:26Z</time>
      </trkpt>
      <trkpt lat="44.03549" lon="3.51839">
        <ele>1267.4602539412</ele>
        <time>2015-05-31T16:06:31Z</time>
      </trkpt>
      <trkpt lat="44.03551" lon="3.5184">
        <ele>1267.4602539412</ele>
        <time>2015-05-31T16:06:36Z</time>
      </trkpt>
      <trkpt lat="44.03552" lon="3.51841">
        <ele>1267.4602539412</ele>
        <time>2015-05-31T16:06:41Z</time>
      </trkpt>
      <trkpt lat="44.03555" lon="3.51841">
        <ele>1267.4602539412</ele>
        <time>2015-05-31T16:06:46Z</time>
      </trkpt>
      <trkpt lat="44.03555" lon="3.51841">
        <ele>1267.4602539412</ele>
        <time>2015-05-31T16:06:51Z</time>
      </trkpt>
      <trkpt lat="44.03557" lon="3.51844">
        <ele>1263.6418600548</ele>
        <time>2015-05-31T16:06:56Z</time>
      </trkpt>
      <trkpt lat="44.03558" lon="3.51846">
        <ele>1263.6418600548</ele>
        <time>2015-05-31T16:07:01Z</time>
      </trkpt>
      <trkpt lat="44.03559" lon="3.51846">
        <ele>1263.6418600548</ele>
        <time>2015-05-31T16:07:06Z</time>
      </trkpt>
      <trkpt lat="44.03562" lon="3.51846">
        <ele>1263.6418600548</ele>
        <time>2015-05-31T16:07:11Z</time>
      </trkpt>
      <trkpt lat="44.03569" lon="3.51853">
        <ele>1259.9241081897</ele>
        <time>2015-05-31T16:07:16Z</time>
      </trkpt>
      <trkpt lat="44.03568" lon="3.51858">
        <ele>1259.9241081897</ele>
        <time>2015-05-31T16:07:21Z</time>
      </trkpt>
      <trkpt lat="44.03563" lon="3.51859">
        <ele>1259.9241081897</ele>
        <time>2015-05-31T16:07:26Z</time>
      </trkpt>
      <trkpt lat="44.03555" lon="3.51861">
        <ele>1256.4306914665</ele>
        <time>2015-05-31T16:07:31Z</time>
      </trkpt>
      <trkpt lat="44.0355" lon="3.51863">
        <ele>1256.4306914665</ele>
        <time>2015-05-31T16:07:36Z</time>
      </trkpt>
      <trkpt lat="44.03545" lon="3.51864">
        <ele>1253.3329801174</ele>
        <time>2015-05-31T16:07:41Z</time>
      </trkpt>
      <trkpt lat="44.0354" lon="3.51869">
        <ele>1253.3329801174</ele>
        <time>2015-05-31T16:07:46Z</time>
      </trkpt>
      <trkpt lat="44.03536" lon="3.51876">
        <ele>1250.6298903333</ele>
        <time>2015-05-31T16:07:51Z</time>
      </trkpt>
      <trkpt lat="44.03533" lon="3.51882">
        <ele>1250.6298903333</ele>
        <time>2015-05-31T16:07:56Z</time>
      </trkpt>
      <trkpt lat="44.03532" lon="3.51889">
        <ele>1248.304687382</ele>
        <time>2015-05-31T16:08:01Z</time>
      </trkpt>
      <trkpt lat="44.03527" lon="3.51892">
        <ele>1248.304687382</ele>
        <time>2015-05-31T16:08:06Z</time>
      </trkpt>
      <trkpt lat="44.03524" lon="3.51894">
        <ele>1248.304687382</ele>
        <time>2015-05-31T16:08:11Z</time>
      </trkpt>
      <trkpt lat="44.03522" lon="3.51895">
        <ele>1246.2829714663</ele>
        <time>2015-05-31T16:08:16Z</time>
      </trkpt>
      <trkpt lat="44.03518" lon="3.51897">
        <ele>1246.2829714663</ele>
        <time>2015-05-31T16:08:21Z</time>
      </trkpt>
      <trkpt lat="44.03513" lon="3.51902">
        <ele>1244.6244915466</ele>
        <time>2015-05-31T16:08:26Z</time>
      </trkpt>
      <trkpt lat="44.03508" lon="3.51909">
        <ele>1244.6244915466</ele>
        <time>2015-05-31T16:08:31Z</time>
      </trkpt>
      <trkpt lat="44.035" lon="3.51919">
        <ele>1243.2537492174</ele>
        <time>2015-05-31T16:08:36Z</time>
      </trkpt>
      <trkpt lat="44.03492" lon="3.51923">
        <ele>1243.2537492174</ele>
        <time>2015-05-31T16:08:41Z</time>
      </trkpt>
      <trkpt lat="44.03483" lon="3.51929">
        <ele>1242.1431063112</ele>
        <time>2015-05-31T16:08:46Z</time>
      </trkpt>
      <trkpt lat="44.03476" lon="3.51931">
        <ele>1242.1431063112</ele>
        <time>2015-05-31T16:08:51Z</time>
      </trkpt>
      <trkpt lat="44.0347" lon="3.5193">
        <ele>1241.3526081096</ele>
        <time>2015-05-31T16:08:56Z</time>
      </trkpt>
      <trkpt lat="44.03464" lon="3.51933">
        <ele>1241.3526081096</ele>
        <time>2015-05-31T16:09:01Z</time>
      </trkpt>
      <trkpt lat="44.03458" lon="3.51935">
        <ele>1240.8648802225</ele>
        <time>2015-05-31T16:09:06Z</time>
      </trkpt>
      <trkpt lat="44.03452" lon="3.51942">
        <ele>1240.8648802225</ele>
        <time>2015-05-31T16:09:11Z</time>
      </trkpt>
      <trkpt lat="44.03444" lon="3.51948">
        <ele>1240.6629493396</ele>
        <time>2015-05-31T16:09:16Z</time>
      </trkpt>
      <trkpt lat="44.03437" lon="3.51952">
        <ele>1240.6629493396</ele>
        <time>2015-05-31T16:09:21Z</time>
      </trkpt>
      <trkpt lat="44.03431" lon="3.51953">
        <ele>1240.7302909231</ele>
        <time>2015-05-31T16:09:26Z</time>
      </trkpt>
      <trkpt lat="44.03424" lon="3.51955">
        <ele>1240.7302909231</ele>
        <time>2015-05-31T16:09:31Z</time>
      </trkpt>
      <trkpt lat="44.03419" lon="3.51956">
        <ele>1241.0220500186</ele>
        <time>2015-05-31T16:09:36Z</time>
      </trkpt>
      <trkpt lat="44.03415" lon="3.51957">
        <ele>1241.0220500186</ele>
        <time>2015-05-31T16:09:41Z</time>
      </trkpt>
      <trkpt lat="44.0341" lon="3.51958">
        <ele>1241.5105110424</ele>
        <time>2015-05-31T16:09:46Z</time>
      </trkpt>
      <trkpt lat="44.03404" lon="3.51963">
        <ele>1241.5105110424</ele>
        <time>2015-05-31T16:09:51Z</time>
      </trkpt>
      <trkpt lat="44.03398" lon="3.51968">
        <ele>1242.1695343478</ele>
        <time>2015-05-31T16:09:56Z</time>
      </trkpt>
      <trkpt lat="44.03395" lon="3.51969">
        <ele>1242.1695343478</ele>
        <time>2015-05-31T16:10:01Z</time>
      </trkpt>
      <trkpt lat="44.0339" lon="3.51973">
        <ele>1242.1695343478</ele>
        <time>2015-05-31T16:10:06Z</time>
      </trkpt>
      <trkpt lat="44.03384" lon="3.51977">
        <ele>1242.9889531218</ele>
        <time>2015-05-31T16:10:11Z</time>
      </trkpt>
      <trkpt lat="44.03381" lon="3.51983">
        <ele>1242.9889531218</ele>
        <time>2015-05-31T16:10:16Z</time>
      </trkpt>
      <trkpt lat="44.03377" lon="3.51985">
        <ele>1243.9446335213</ele>
        <time>2015-05-31T16:10:21Z</time>
      </trkpt>
      <trkpt lat="44.03371" lon="3.51987">
        <ele>1243.9446335213</ele>
        <time>2015-05-31T16:10:26Z</time>
      </trkpt>
      <trkpt lat="44.03356" lon="3.51992">
        <ele>1245.1148834951</ele>
        <time>2015-05-31T16:10:31Z</time>
      </trkpt>
      <trkpt lat="44.03345" lon="3.51993">
        <ele>1246.4421549755</ele>
        <time>2015-05-31T16:10:36Z</time>
      </trkpt>
      <trkpt lat="44.03338" lon="3.51989">
        <ele>1246.4421549755</ele>
        <time>2015-05-31T16:10:41Z</time>
      </trkpt>
      <trkpt lat="44.03332" lon="3.51987">
        <ele>1247.8152645632</ele>
        <time>2015-05-31T16:10:46Z</time>
      </trkpt>
      <trkpt lat="44.03324" lon="3.51987">
        <ele>1247.8152645632</ele>
        <time>2015-05-31T16:10:51Z</time>
      </trkpt>
      <trkpt lat="44.03319" lon="3.51986">
        <ele>1249.2754235062</ele>
        <time>2015-05-31T16:10:56Z</time>
      </trkpt>
      <trkpt lat="44.03313" lon="3.51985">
        <ele>1249.2754235062</ele>
        <time>2015-05-31T16:11:01Z</time>
      </trkpt>
      <trkpt lat="44.03306" lon="3.51984">
        <ele>1250.7887814015</ele>
        <time>2015-05-31T16:11:06Z</time>
      </trkpt>
      <trkpt lat="44.03303" lon="3.51984">
        <ele>1250.7887814015</ele>
        <time>2015-05-31T16:11:11Z</time>
      </trkpt>
      <trkpt lat="44.03298" lon="3.51983">
        <ele>1250.7887814015</ele>
        <time>2015-05-31T16:11:16Z</time>
      </trkpt>
      <trkpt lat="44.03295" lon="3.51979">
        <ele>1252.3673432278</ele>
        <time>2015-05-31T16:11:21Z</time>
      </trkpt>
      <trkpt lat="44.03289" lon="3.5198">
        <ele>1252.3673432278</ele>
        <time>2015-05-31T16:11:26Z</time>
      </trkpt>
      <trkpt lat="44.03286" lon="3.51981">
        <ele>1253.9502954983</ele>
        <time>2015-05-31T16:11:31Z</time>
      </trkpt>
      <trkpt lat="44.03283" lon="3.5198">
        <ele>1253.9502954983</ele>
        <time>2015-05-31T16:11:36Z</time>
      </trkpt>
      <trkpt lat="44.03275" lon="3.51981">
        <ele>1255.640119521</ele>
        <time>2015-05-31T16:11:41Z</time>
      </trkpt>
      <trkpt lat="44.03265" lon="3.51983">
        <ele>1257.3588665334</ele>
        <time>2015-05-31T16:11:46Z</time>
      </trkpt>
      <trkpt lat="44.03257" lon="3.51985">
        <ele>1257.3588665334</ele>
        <time>2015-05-31T16:11:51Z</time>
      </trkpt>
      <trkpt lat="44.03251" lon="3.51988">
        <ele>1259.1354541204</ele>
        <time>2015-05-31T16:11:56Z</time>
      </trkpt>
      <trkpt lat="44.03248" lon="3.51986">
        <ele>1259.1354541204</ele>
        <time>2015-05-31T16:12:01Z</time>
      </trkpt>
      <trkpt lat="44.03244" lon="3.51988">
        <ele>1259.1354541204</ele>
        <time>2015-05-31T16:12:06Z</time>
      </trkpt>
      <trkpt lat="44.03237" lon="3.51986">
        <ele>1261.0256899949</ele>
        <time>2015-05-31T16:12:11Z</time>
      </trkpt>
      <trkpt lat="44.0323" lon="3.51985">
        <ele>1261.0256899949</ele>
        <time>2015-05-31T16:12:16Z</time>
      </trkpt>
      <trkpt lat="44.03221" lon="3.51985">
        <ele>1262.9516272889</ele>
        <time>2015-05-31T16:12:21Z</time>
      </trkpt>
      <trkpt lat="44.03211" lon="3.51984">
        <ele>1264.7980833889</ele>
        <time>2015-05-31T16:12:26Z</time>
      </trkpt>
      <trkpt lat="44.03203" lon="3.51985">
        <ele>1264.7980833889</ele>
        <time>2015-05-31T16:12:31Z</time>
      </trkpt>
      <trkpt lat="44.03198" lon="3.51986">
        <ele>1266.6606938651</ele>
        <time>2015-05-31T16:12:36Z</time>
      </trkpt>
      <trkpt lat="44.03195" lon="3.51984">
        <ele>1266.6606938651</ele>
        <time>2015-05-31T16:12:41Z</time>
      </trkpt>
      <trkpt lat="44.0319" lon="3.51984">
        <ele>1266.6606938651</ele>
        <time>2015-05-31T16:12:46Z</time>
      </trkpt>
      <trkpt lat="44.03184" lon="3.51984">
        <ele>1268.4987068307</ele>
        <time>2015-05-31T16:12:51Z</time>
      </trkpt>
      <trkpt lat="44.03178" lon="3.51983">
        <ele>1268.4987068307</ele>
        <time>2015-05-31T16:12:56Z</time>
      </trkpt>
      <trkpt lat="44.03165" lon="3.51988">
        <ele>1270.3468751206</ele>
        <time>2015-05-31T16:13:01Z</time>
      </trkpt>
      <trkpt lat="44.03152" lon="3.51987">
        <ele>1272.3242253576</ele>
        <time>2015-05-31T16:13:06Z</time>
      </trkpt>
      <trkpt lat="44.03146" lon="3.51987">
        <ele>1272.3242253576</ele>
        <time>2015-05-31T16:13:11Z</time>
      </trkpt>
      <trkpt lat="44.03142" lon="3.51987">
        <ele>1274.1375559089</ele>
        <time>2015-05-31T16:13:16Z</time>
      </trkpt>
      <trkpt lat="44.03139" lon="3.51986">
        <ele>1274.1375559089</ele>
        <time>2015-05-31T16:13:21Z</time>
      </trkpt>
      <trkpt lat="44.03132" lon="3.51985">
        <ele>1275.7322184281</ele>
        <time>2015-05-31T16:13:26Z</time>
      </trkpt>
      <trkpt lat="44.03129" lon="3.51985">
        <ele>1275.7322184281</ele>
        <time>2015-05-31T16:13:31Z</time>
      </trkpt>
      <trkpt lat="44.03121" lon="3.51982">
        <ele>1277.0585774701</ele>
        <time>2015-05-31T16:13:36Z</time>
      </trkpt>
      <trkpt lat="44.03115" lon="3.51982">
        <ele>1277.0585774701</ele>
        <time>2015-05-31T16:13:41Z</time>
      </trkpt>
      <trkpt lat="44.03109" lon="3.51981">
        <ele>1278.0717760857</ele>
        <time>2015-05-31T16:13:46Z</time>
      </trkpt>
      <trkpt lat="44.03103" lon="3.5198">
        <ele>1278.0717760857</ele>
        <time>2015-05-31T16:13:51Z</time>
      </trkpt>
      <trkpt lat="44.03099" lon="3.5198">
        <ele>1278.7891468155</ele>
        <time>2015-05-31T16:13:56Z</time>
      </trkpt>
      <trkpt lat="44.03092" lon="3.51979">
        <ele>1278.7891468155</ele>
        <time>2015-05-31T16:14:01Z</time>
      </trkpt>
      <trkpt lat="44.03086" lon="3.51979">
        <ele>1279.2279390634</ele>
        <time>2015-05-31T16:14:06Z</time>
      </trkpt>
      <trkpt lat="44.0308" lon="3.5198">
        <ele>1279.2279390634</ele>
        <time>2015-05-31T16:14:11Z</time>
      </trkpt>
      <trkpt lat="44.03073" lon="3.51979">
        <ele>1279.4773187222</ele>
        <time>2015-05-31T16:14:16Z</time>
      </trkpt>
      <trkpt lat="44.03069" lon="3.51977">
        <ele>1279.4773187222</ele>
        <time>2015-05-31T16:14:21Z</time>
      </trkpt>
      <trkpt lat="44.03065" lon="3.51974">
        <ele>1279.4773187222</ele>
        <time>2015-05-31T16:14:26Z</time>
      </trkpt>
      <trkpt lat="44.03061" lon="3.51971">
        <ele>1279.4045966772</ele>
        <time>2015-05-31T16:14:31Z</time>
      </trkpt>
      <trkpt lat="44.03056" lon="3.5197">
        <ele>1279.4045966772</ele>
        <time>2015-05-31T16:14:36Z</time>
      </trkpt>
      <trkpt lat="44.03051" lon="3.51966">
        <ele>1279.0898027032</ele>
        <time>2015-05-31T16:14:41Z</time>
      </trkpt>
      <trkpt lat="44.03045" lon="3.51963">
        <ele>1279.0898027032</ele>
        <time>2015-05-31T16:14:46Z</time>
      </trkpt>
      <trkpt lat="44.03037" lon="3.51961">
        <ele>1278.5936483184</ele>
        <time>2015-05-31T16:14:51Z</time>
      </trkpt>
      <trkpt lat="44.03028" lon="3.51959">
        <ele>1278.5936483184</ele>
        <time>2015-05-31T16:14:56Z</time>
      </trkpt>
      <trkpt lat="44.03024" lon="3.51956">
        <ele>1277.9155212027</ele>
        <time>2015-05-31T16:15:01Z</time>
      </trkpt>
      <trkpt lat="44.03017" lon="3.51953">
        <ele>1277.9155212027</ele>
        <time>2015-05-31T16:15:06Z</time>
      </trkpt>
      <trkpt lat="44.03" lon="3.5195">
        <ele>1277.2141366556</ele>
        <time>2015-05-31T16:15:11Z</time>
      </trkpt>
      <trkpt lat="44.02987" lon="3.5195">
        <ele>1276.521555028</ele>
        <time>2015-05-31T16:15:16Z</time>
      </trkpt>
      <trkpt lat="44.02981" lon="3.51947">
        <ele>1276.521555028</ele>
        <time>2015-05-31T16:15:21Z</time>
      </trkpt>
      <trkpt lat="44.02977" lon="3.51942">
        <ele>1275.7811962785</ele>
        <time>2015-05-31T16:15:26Z</time>
      </trkpt>
      <trkpt lat="44.02969" lon="3.51945">
        <ele>1275.7811962785</ele>
        <time>2015-05-31T16:15:31Z</time>
      </trkpt>
      <trkpt lat="44.02964" lon="3.51942">
        <ele>1274.9986002201</ele>
        <time>2015-05-31T16:15:36Z</time>
      </trkpt>
      <trkpt lat="44.02962" lon="3.51937">
        <ele>1274.9986002201</ele>
        <time>2015-05-31T16:15:41Z</time>
      </trkpt>
      <trkpt lat="44.02961" lon="3.5193">
        <ele>1274.1791829261</ele>
        <time>2015-05-31T16:15:46Z</time>
      </trkpt>
      <trkpt lat="44.02957" lon="3.51922">
        <ele>1274.1791829261</ele>
        <time>2015-05-31T16:15:51Z</time>
      </trkpt>
      <trkpt lat="44.02955" lon="3.51915">
        <ele>1273.3282111033</ele>
        <time>2015-05-31T16:15:56Z</time>
      </trkpt>
      <trkpt lat="44.02952" lon="3.51909">
        <ele>1273.3282111033</ele>
        <time>2015-05-31T16:16:01Z</time>
      </trkpt>
      <trkpt lat="44.02949" lon="3.51904">
        <ele>1272.4363683608</ele>
        <time>2015-05-31T16:16:06Z</time>
      </trkpt>
      <trkpt lat="44.02942" lon="3.51903">
        <ele>1272.4363683608</ele>
        <time>2015-05-31T16:16:11Z</time>
      </trkpt>
      <trkpt lat="44.02942" lon="3.519">
        <ele>1271.524067915</ele>
        <time>2015-05-31T16:16:16Z</time>
      </trkpt>
      <trkpt lat="44.02935" lon="3.51898">
        <ele>1271.524067915</ele>
        <time>2015-05-31T16:16:21Z</time>
      </trkpt>
      <trkpt lat="44.02937" lon="3.519">
        <ele>1270.7544833636</ele>
        <time>2015-05-31T16:16:26Z</time>
      </trkpt>
      <trkpt lat="44.02936" lon="3.519">
        <ele>1270.7544833636</ele>
        <time>2015-05-31T16:16:31Z</time>
      </trkpt>
      <trkpt lat="44.02929" lon="3.519">
        <ele>1270.7544833636</ele>
        <time>2015-05-31T16:16:36Z</time>
      </trkpt>
      <trkpt lat="44.02918" lon="3.51898">
        <ele>1270.1775992625</ele>
        <time>2015-05-31T16:16:41Z</time>
      </trkpt>
      <trkpt lat="44.02908" lon="3.51895">
        <ele>1269.6519049137</ele>
        <time>2015-05-31T16:16:46Z</time>
      </trkpt>
      <trkpt lat="44.02898" lon="3.51891">
        <ele>1269.1326572185</ele>
        <time>2015-05-31T16:16:51Z</time>
      </trkpt>
      <trkpt lat="44.02892" lon="3.5189">
        <ele>1269.1326572185</ele>
        <time>2015-05-31T16:16:56Z</time>
      </trkpt>
      <trkpt lat="44.02881" lon="3.51893">
        <ele>1268.7081202428</ele>
        <time>2015-05-31T16:17:01Z</time>
      </trkpt>
      <trkpt lat="44.02875" lon="3.5189">
        <ele>1268.7081202428</ele>
        <time>2015-05-31T16:17:06Z</time>
      </trkpt>
      <trkpt lat="44.02866" lon="3.5189">
        <ele>1268.3877819299</ele>
        <time>2015-05-31T16:17:11Z</time>
      </trkpt>
      <trkpt lat="44.02858" lon="3.51888">
        <ele>1268.3877819299</ele>
        <time>2015-05-31T16:17:16Z</time>
      </trkpt>
      <trkpt lat="44.0285" lon="3.51884">
        <ele>1268.2233951658</ele>
        <time>2015-05-31T16:17:21Z</time>
      </trkpt>
      <trkpt lat="44.02844" lon="3.51878">
        <ele>1268.2233951658</ele>
        <time>2015-05-31T16:17:26Z</time>
      </trkpt>
      <trkpt lat="44.02842" lon="3.51872">
        <ele>1268.2480767768</ele>
        <time>2015-05-31T16:17:31Z</time>
      </trkpt>
      <trkpt lat="44.02839" lon="3.51867">
        <ele>1268.2480767768</ele>
        <time>2015-05-31T16:17:36Z</time>
      </trkpt>
      <trkpt lat="44.02835" lon="3.51864">
        <ele>1268.6793347362</ele>
        <time>2015-05-31T16:17:41Z</time>
      </trkpt>
      <trkpt lat="44.02835" lon="3.51857">
        <ele>1268.6793347362</ele>
        <time>2015-05-31T16:17:46Z</time>
      </trkpt>
      <trkpt lat="44.0283" lon="3.51853">
        <ele>1269.5013993223</ele>
        <time>2015-05-31T16:17:51Z</time>
      </trkpt>
      <trkpt lat="44.02828" lon="3.51845">
        <ele>1269.5013993223</ele>
        <time>2015-05-31T16:17:56Z</time>
      </trkpt>
      <trkpt lat="44.02826" lon="3.5184">
        <ele>1270.5976931618</ele>
        <time>2015-05-31T16:18:01Z</time>
      </trkpt>
      <trkpt lat="44.02822" lon="3.5184">
        <ele>1270.5976931618</ele>
        <time>2015-05-31T16:18:06Z</time>
      </trkpt>
      <trkpt lat="44.02828" lon="3.51835">
        <ele>1272.0179668094</ele>
        <time>2015-05-31T16:18:11Z</time>
      </trkpt>
      <trkpt lat="44.02828" lon="3.51834">
        <ele>1272.0179668094</ele>
        <time>2015-05-31T16:18:16Z</time>
      </trkpt>
      <trkpt lat="44.02829" lon="3.51829">
        <ele>1272.0179668094</ele>
        <time>2015-05-31T16:18:21Z</time>
      </trkpt>
      <trkpt lat="44.02836" lon="3.51829">
        <ele>1273.7641909931</ele>
        <time>2015-05-31T16:18:26Z</time>
      </trkpt>
      <trkpt lat="44.02836" lon="3.51834">
        <ele>1273.7641909931</ele>
        <time>2015-05-31T16:18:31Z</time>
      </trkpt>
      <trkpt lat="44.02826" lon="3.51831">
        <ele>1276.5866817344</ele>
        <time>2015-05-31T16:18:56Z</time>
      </trkpt>
      <trkpt lat="44.02826" lon="3.5183">
        <ele>1276.5866817344</ele>
        <time>2015-05-31T16:19:01Z</time>
      </trkpt>
      <trkpt lat="44.02824" lon="3.51833">
        <ele>1276.5866817344</ele>
        <time>2015-05-31T16:19:21Z</time>
      </trkpt>
      <trkpt lat="44.02817" lon="3.51831">
        <ele>1279.9094787185</ele>
        <time>2015-05-31T16:19:26Z</time>
      </trkpt>
      <trkpt lat="44.02811" lon="3.51829">
        <ele>1279.9094787185</ele>
        <time>2015-05-31T16:19:31Z</time>
      </trkpt>
      <trkpt lat="44.02807" lon="3.51826">
        <ele>1283.0390596224</ele>
        <time>2015-05-31T16:19:36Z</time>
      </trkpt>
      <trkpt lat="44.02803" lon="3.51822">
        <ele>1283.0390596224</ele>
        <time>2015-05-31T16:19:41Z</time>
      </trkpt>
      <trkpt lat="44.02798" lon="3.51819">
        <ele>1285.8810830698</ele>
        <time>2015-05-31T16:19:46Z</time>
      </trkpt>
      <trkpt lat="44.02792" lon="3.51816">
        <ele>1285.8810830698</ele>
        <time>2015-05-31T16:19:51Z</time>
      </trkpt>
      <trkpt lat="44.02789" lon="3.51818">
        <ele>1288.4787318591</ele>
        <time>2015-05-31T16:19:56Z</time>
      </trkpt>
      <trkpt lat="44.02785" lon="3.51816">
        <ele>1288.4787318591</ele>
        <time>2015-05-31T16:20:01Z</time>
      </trkpt>
      <trkpt lat="44.02781" lon="3.51815">
        <ele>1288.4787318591</ele>
        <time>2015-05-31T16:20:06Z</time>
      </trkpt>
      <trkpt lat="44.02779" lon="3.51815">
        <ele>1290.7286918487</ele>
        <time>2015-05-31T16:20:11Z</time>
      </trkpt>
      <trkpt lat="44.02775" lon="3.51813">
        <ele>1290.7286918487</ele>
        <time>2015-05-31T16:20:19Z</time>
      </trkpt>
      <trkpt lat="44.02774" lon="3.51812">
        <ele>1290.7286918487</ele>
        <time>2015-05-31T16:20:26Z</time>
      </trkpt>
      <trkpt lat="44.02767" lon="3.51805">
        <ele>1292.6516134284</ele>
        <time>2015-05-31T16:20:46Z</time>
      </trkpt>
      <trkpt lat="44.02765" lon="3.51796">
        <ele>1292.6516134284</ele>
        <time>2015-05-31T16:21:06Z</time>
      </trkpt>
      <trkpt lat="44.02762" lon="3.51793">
        <ele>1294.3541314497</ele>
        <time>2015-05-31T16:21:11Z</time>
      </trkpt>
      <trkpt lat="44.02762" lon="3.51792">
        <ele>1294.3541314497</ele>
        <time>2015-05-31T16:21:18Z</time>
      </trkpt>
      <trkpt lat="44.02758" lon="3.51763">
        <ele>1295.8349084277</ele>
        <time>2015-05-31T16:21:46Z</time>
      </trkpt>
      <trkpt lat="44.02745" lon="3.51743">
        <ele>1297.1366814757</ele>
        <time>2015-05-31T16:22:27Z</time>
      </trkpt>
      <trkpt lat="44.02738" lon="3.51736">
        <ele>1297.1366814757</ele>
        <time>2015-05-31T16:22:46Z</time>
      </trkpt>
      <trkpt lat="44.02739" lon="3.51724">
        <ele>1298.3429030083</ele>
        <time>2015-05-31T16:22:58Z</time>
      </trkpt>
      <trkpt lat="44.02737" lon="3.51721">
        <ele>1298.3429030083</ele>
        <time>2015-05-31T16:23:01Z</time>
      </trkpt>
      <trkpt lat="44.02737" lon="3.51712">
        <ele>1299.3583454471</ele>
        <time>2015-05-31T16:23:06Z</time>
      </trkpt>
      <trkpt lat="44.02734" lon="3.51704">
        <ele>1299.3583454471</ele>
        <time>2015-05-31T16:23:11Z</time>
      </trkpt>
      <trkpt lat="44.02723" lon="3.51673">
        <ele>1300.0666000166</ele>
        <time>2015-05-31T16:23:31Z</time>
      </trkpt>
      <trkpt lat="44.02718" lon="3.51667">
        <ele>1300.0666000166</ele>
        <time>2015-05-31T16:23:36Z</time>
      </trkpt>
      <trkpt lat="44.02715" lon="3.51663">
        <ele>1300.5337080636</ele>
        <time>2015-05-31T16:23:41Z</time>
      </trkpt>
      <trkpt lat="44.02711" lon="3.51659">
        <ele>1300.5337080636</ele>
        <time>2015-05-31T16:23:46Z</time>
      </trkpt>
      <trkpt lat="44.02708" lon="3.51653">
        <ele>1300.7063421782</ele>
        <time>2015-05-31T16:23:57Z</time>
      </trkpt>
      <trkpt lat="44.02691" lon="3.51633">
        <ele>1300.6512920247</ele>
        <time>2015-05-31T16:24:12Z</time>
      </trkpt>
      <trkpt lat="44.02686" lon="3.5163">
        <ele>1300.6512920247</ele>
        <time>2015-05-31T16:24:16Z</time>
      </trkpt>
      <trkpt lat="44.02683" lon="3.51626">
        <ele>1300.5032080703</ele>
        <time>2015-05-31T16:24:26Z</time>
      </trkpt>
      <trkpt lat="44.026" lon="3.51517">
        <ele>1298.9028230584</ele>
        <time>2015-05-31T16:25:51Z</time>
      </trkpt>
      <trkpt lat="44.02597" lon="3.51515">
        <ele>1298.9028230584</ele>
        <time>2015-05-31T16:25:56Z</time>
      </trkpt>
      <trkpt lat="44.02587" lon="3.51514">
        <ele>1297.1600138145</ele>
        <time>2015-05-31T16:26:05Z</time>
      </trkpt>
      <trkpt lat="44.02572" lon="3.51507">
        <ele>1295.408020468</ele>
        <time>2015-05-31T16:26:18Z</time>
      </trkpt>
      <trkpt lat="44.02527" lon="3.51519">
        <ele>1293.4100413315</ele>
        <time>2015-05-31T16:26:51Z</time>
      </trkpt>
      <trkpt lat="44.02523" lon="3.51521">
        <ele>1293.4100413315</ele>
        <time>2015-05-31T16:27:02Z</time>
      </trkpt>
      <trkpt lat="44.02509" lon="3.51525">
        <ele>1291.4084907755</ele>
        <time>2015-05-31T16:27:06Z</time>
      </trkpt>
      <trkpt lat="44.02549" lon="3.51496">
        <ele>1289.7144057445</ele>
        <time>2015-05-31T16:27:50Z</time>
      </trkpt>
      <trkpt lat="44.02531" lon="3.51485">
        <ele>1287.2892217352</ele>
        <time>2015-05-31T16:28:47Z</time>
      </trkpt>
      <trkpt lat="44.02527" lon="3.51484">
        <ele>1287.2892217352</ele>
        <time>2015-05-31T16:28:51Z</time>
      </trkpt>
      <trkpt lat="44.02523" lon="3.51483">
        <ele>1287.2892217352</ele>
        <time>2015-05-31T16:28:56Z</time>
      </trkpt>
      <trkpt lat="44.02515" lon="3.51481">
        <ele>1284.9451974806</ele>
        <time>2015-05-31T16:29:08Z</time>
      </trkpt>
      <trkpt lat="44.02486" lon="3.51494">
        <ele>1282.5699227194</ele>
        <time>2015-05-31T16:29:24Z</time>
      </trkpt>
      <trkpt lat="44.02485" lon="3.51496">
        <ele>1282.5699227194</ele>
        <time>2015-05-31T16:29:29Z</time>
      </trkpt>
      <trkpt lat="44.02482" lon="3.51496">
        <ele>1282.5699227194</ele>
        <time>2015-05-31T16:29:37Z</time>
      </trkpt>
      <trkpt lat="44.02478" lon="3.51487">
        <ele>1280.1600859113</ele>
        <time>2015-05-31T16:29:47Z</time>
      </trkpt>
      <trkpt lat="44.02478" lon="3.51487">
        <ele>1280.1600859113</ele>
        <time>2015-05-31T16:29:47Z</time>
      </trkpt>
      <trkpt lat="44.0248" lon="3.51483">
        <ele>1280.1600859113</ele>
        <time>2015-05-31T16:29:54Z</time>
      </trkpt>
      <trkpt lat="44.02484" lon="3.51476">
        <ele>1277.8855077456</ele>
        <time>2015-05-31T16:30:04Z</time>
      </trkpt>
      <trkpt lat="44.02487" lon="3.51446">
        <ele>1275.5283088246</ele>
        <time>2015-05-31T16:30:20Z</time>
      </trkpt>
      <trkpt lat="44.0248" lon="3.51436">
        <ele>1273.1172543068</ele>
        <time>2015-05-31T16:30:23Z</time>
      </trkpt>
      <trkpt lat="44.02456" lon="3.51398">
        <ele>1270.1169302561</ele>
        <time>2015-05-31T16:30:46Z</time>
      </trkpt>
      <trkpt lat="44.0245" lon="3.51393">
        <ele>1270.1169302561</ele>
        <time>2015-05-31T16:30:54Z</time>
      </trkpt>
      <trkpt lat="44.02442" lon="3.51389">
        <ele>1267.2144226867</ele>
        <time>2015-05-31T16:30:56Z</time>
      </trkpt>
      <trkpt lat="44.02439" lon="3.51381">
        <ele>1267.2144226867</ele>
        <time>2015-05-31T16:31:02Z</time>
      </trkpt>
      <trkpt lat="44.02438" lon="3.51374">
        <ele>1264.4117733356</ele>
        <time>2015-05-31T16:31:06Z</time>
      </trkpt>
      <trkpt lat="44.02431" lon="3.5137">
        <ele>1264.4117733356</ele>
        <time>2015-05-31T16:31:11Z</time>
      </trkpt>
      <trkpt lat="44.02426" lon="3.51353">
        <ele>1261.6239080456</ele>
        <time>2015-05-31T16:31:27Z</time>
      </trkpt>
      <trkpt lat="44.024" lon="3.5134">
        <ele>1258.7573202236</ele>
        <time>2015-05-31T16:31:41Z</time>
      </trkpt>
      <trkpt lat="44.0238" lon="3.51336">
        <ele>1256.0424000094</ele>
        <time>2015-05-31T16:31:51Z</time>
      </trkpt>
      <trkpt lat="44.02376" lon="3.51334">
        <ele>1256.0424000094</ele>
        <time>2015-05-31T16:31:56Z</time>
      </trkpt>
      <trkpt lat="44.02372" lon="3.51331">
        <ele>1253.5478326377</ele>
        <time>2015-05-31T16:32:01Z</time>
      </trkpt>
      <trkpt lat="44.02356" lon="3.51328">
        <ele>1251.2643358154</ele>
        <time>2015-05-31T16:32:06Z</time>
      </trkpt>
      <trkpt lat="44.02346" lon="3.51325">
        <ele>1249.1680557396</ele>
        <time>2015-05-31T16:32:11Z</time>
      </trkpt>
      <trkpt lat="44.02338" lon="3.51322">
        <ele>1249.1680557396</ele>
        <time>2015-05-31T16:32:16Z</time>
      </trkpt>
      <trkpt lat="44.02333" lon="3.51315">
        <ele>1247.1064158553</ele>
        <time>2015-05-31T16:32:21Z</time>
      </trkpt>
      <trkpt lat="44.02328" lon="3.51311">
        <ele>1247.1064158553</ele>
        <time>2015-05-31T16:32:26Z</time>
      </trkpt>
      <trkpt lat="44.02319" lon="3.51307">
        <ele>1245.1106365782</ele>
        <time>2015-05-31T16:32:31Z</time>
      </trkpt>
      <trkpt lat="44.02314" lon="3.51299">
        <ele>1245.1106365782</ele>
        <time>2015-05-31T16:32:36Z</time>
      </trkpt>
      <trkpt lat="44.02311" lon="3.51296">
        <ele>1243.3245057356</ele>
        <time>2015-05-31T16:32:45Z</time>
      </trkpt>
      <trkpt lat="44.02312" lon="3.51284">
        <ele>1241.5922001607</ele>
        <time>2015-05-31T16:33:00Z</time>
      </trkpt>
      <trkpt lat="44.02305" lon="3.51279">
        <ele>1241.5922001607</ele>
        <time>2015-05-31T16:33:14Z</time>
      </trkpt>
      <trkpt lat="44.02309" lon="3.51278">
        <ele>1239.8410163102</ele>
        <time>2015-05-31T16:33:16Z</time>
      </trkpt>
      <trkpt lat="44.02315" lon="3.51281">
        <ele>1239.8410163102</ele>
        <time>2015-05-31T16:33:27Z</time>
      </trkpt>
      <trkpt lat="44.02332" lon="3.51298">
        <ele>1238.4789873796</ele>
        <time>2015-05-31T16:33:31Z</time>
      </trkpt>
      <trkpt lat="44.02342" lon="3.51305">
        <ele>1237.3784773026</ele>
        <time>2015-05-31T16:33:36Z</time>
      </trkpt>
      <trkpt lat="44.02343" lon="3.51308">
        <ele>1237.3784773026</ele>
        <time>2015-05-31T16:33:41Z</time>
      </trkpt>
      <trkpt lat="44.02348" lon="3.51312">
        <ele>1237.3784773026</ele>
        <time>2015-05-31T16:33:49Z</time>
      </trkpt>
      <trkpt lat="44.02353" lon="3.51319">
        <ele>1236.3626438773</ele>
        <time>2015-05-31T16:33:51Z</time>
      </trkpt>
      <trkpt lat="44.02358" lon="3.51329">
        <ele>1236.3626438773</ele>
        <time>2015-05-31T16:33:57Z</time>
      </trkpt>
      <trkpt lat="44.02362" lon="3.5133">
        <ele>1235.2960278491</ele>
        <time>2015-05-31T16:34:01Z</time>
      </trkpt>
      <trkpt lat="44.02364" lon="3.51337">
        <ele>1235.2960278491</ele>
        <time>2015-05-31T16:34:06Z</time>
      </trkpt>
      <trkpt lat="44.02363" lon="3.51349">
        <ele>1234.2980723009</ele>
        <time>2015-05-31T16:34:13Z</time>
      </trkpt>
      <trkpt lat="44.02362" lon="3.51353">
        <ele>1234.2980723009</ele>
        <time>2015-05-31T16:34:16Z</time>
      </trkpt>
      <trkpt lat="44.02359" lon="3.51359">
        <ele>1234.2980723009</ele>
        <time>2015-05-31T16:34:21Z</time>
      </trkpt>
      <trkpt lat="44.02355" lon="3.51361">
        <ele>1233.4070309241</ele>
        <time>2015-05-31T16:34:26Z</time>
      </trkpt>
      <trkpt lat="44.02349" lon="3.51365">
        <ele>1233.4070309241</ele>
        <time>2015-05-31T16:34:33Z</time>
      </trkpt>
      <trkpt lat="44.02331" lon="3.51396">
        <ele>1232.8596493509</ele>
        <time>2015-05-31T16:34:56Z</time>
      </trkpt>
      <trkpt lat="44.02329" lon="3.51395">
        <ele>1232.8596493509</ele>
        <time>2015-05-31T16:35:01Z</time>
      </trkpt>
      <trkpt lat="44.0233" lon="3.51392">
        <ele>1232.8596493509</ele>
        <time>2015-05-31T16:35:10Z</time>
      </trkpt>
      <trkpt lat="44.02331" lon="3.51392">
        <ele>1232.8596493509</ele>
        <time>2015-05-31T16:35:11Z</time>
      </trkpt>
      <trkpt lat="44.02301" lon="3.51346">
        <ele>1231.9806879736</ele>
        <time>2015-05-31T16:35:56Z</time>
      </trkpt>
      <trkpt lat="44.02302" lon="3.51337">
        <ele>1231.9806879736</ele>
        <time>2015-05-31T16:36:06Z</time>
      </trkpt>
      <trkpt lat="44.02277" lon="3.51312">
        <ele>1231.1252682323</ele>
        <time>2015-05-31T16:36:37Z</time>
      </trkpt>
      <trkpt lat="44.02272" lon="3.51299">
        <ele>1230.2475542267</ele>
        <time>2015-05-31T16:36:51Z</time>
      </trkpt>
      <trkpt lat="44.0227" lon="3.51297">
        <ele>1230.2475542267</ele>
        <time>2015-05-31T16:36:56Z</time>
      </trkpt>
      <trkpt lat="44.02269" lon="3.51292">
        <ele>1230.2475542267</ele>
        <time>2015-05-31T16:37:01Z</time>
      </trkpt>
      <trkpt lat="44.02269" lon="3.51296">
        <ele>1230.2475542267</ele>
        <time>2015-05-31T16:37:06Z</time>
      </trkpt>
      <trkpt lat="44.02267" lon="3.51298">
        <ele>1229.3915028948</ele>
        <time>2015-05-31T16:37:11Z</time>
      </trkpt>
      <trkpt lat="44.02265" lon="3.51299">
        <ele>1229.3915028948</ele>
        <time>2015-05-31T16:37:16Z</time>
      </trkpt>
      <trkpt lat="44.02235" lon="3.51295">
        <ele>1227.6753756771</ele>
        <time>2015-05-31T16:37:56Z</time>
      </trkpt>
      <trkpt lat="44.02236" lon="3.51294">
        <ele>1227.6753756771</ele>
        <time>2015-05-31T16:38:01Z</time>
      </trkpt>
      <trkpt lat="44.02238" lon="3.51299">
        <ele>1227.6753756771</ele>
        <time>2015-05-31T16:38:08Z</time>
      </trkpt>
      <trkpt lat="44.02241" lon="3.51305">
        <ele>1225.9129883948</ele>
        <time>2015-05-31T16:38:16Z</time>
      </trkpt>
      <trkpt lat="44.02227" lon="3.51358">
        <ele>1224.0081670241</ele>
        <time>2015-05-31T16:38:56Z</time>
      </trkpt>
      <trkpt lat="44.02224" lon="3.51362">
        <ele>1224.0081670241</ele>
        <time>2015-05-31T16:39:01Z</time>
      </trkpt>
      <trkpt lat="44.0222" lon="3.51365">
        <ele>1224.0081670241</ele>
        <time>2015-05-31T16:39:09Z</time>
      </trkpt>
      <trkpt lat="44.02214" lon="3.51374">
        <ele>1222.3044576773</ele>
        <time>2015-05-31T16:39:11Z</time>
      </trkpt>
      <trkpt lat="44.02203" lon="3.51393">
        <ele>1220.0531063569</ele>
        <time>2015-05-31T16:39:44Z</time>
      </trkpt>
      <trkpt lat="44.02203" lon="3.51392">
        <ele>1220.0531063569</ele>
        <time>2015-05-31T16:39:46Z</time>
      </trkpt>
      <trkpt lat="44.02201" lon="3.51385">
        <ele>1220.0531063569</ele>
        <time>2015-05-31T16:39:51Z</time>
      </trkpt>
      <trkpt lat="44.02199" lon="3.51378">
        <ele>1218.0029344909</ele>
        <time>2015-05-31T16:39:56Z</time>
      </trkpt>
      <trkpt lat="44.02197" lon="3.51372">
        <ele>1218.0029344909</ele>
        <time>2015-05-31T16:40:01Z</time>
      </trkpt>
      <trkpt lat="44.02196" lon="3.51365">
        <ele>1216.1121494587</ele>
        <time>2015-05-31T16:40:06Z</time>
      </trkpt>
      <trkpt lat="44.02193" lon="3.51357">
        <ele>1216.1121494587</ele>
        <time>2015-05-31T16:40:11Z</time>
      </trkpt>
      <trkpt lat="44.02189" lon="3.5135">
        <ele>1214.2982743969</ele>
        <time>2015-05-31T16:40:16Z</time>
      </trkpt>
      <trkpt lat="44.02186" lon="3.51342">
        <ele>1214.2982743969</ele>
        <time>2015-05-31T16:40:21Z</time>
      </trkpt>
      <trkpt lat="44.02185" lon="3.51332">
        <ele>1212.5854807173</ele>
        <time>2015-05-31T16:40:26Z</time>
      </trkpt>
      <trkpt lat="44.0218" lon="3.51328">
        <ele>1212.5854807173</ele>
        <time>2015-05-31T16:40:31Z</time>
      </trkpt>
      <trkpt lat="44.02173" lon="3.51322">
        <ele>1210.8949327269</ele>
        <time>2015-05-31T16:40:36Z</time>
      </trkpt>
      <trkpt lat="44.02168" lon="3.51319">
        <ele>1210.8949327269</ele>
        <time>2015-05-31T16:40:41Z</time>
      </trkpt>
      <trkpt lat="44.02165" lon="3.51313">
        <ele>1209.1966897981</ele>
        <time>2015-05-31T16:40:46Z</time>
      </trkpt>
      <trkpt lat="44.02165" lon="3.51313">
        <ele>1209.1966897981</ele>
        <time>2015-05-31T16:40:51Z</time>
      </trkpt>
      <trkpt lat="44.02157" lon="3.51318">
        <ele>1207.6791355927</ele>
        <time>2015-05-31T16:41:01Z</time>
      </trkpt>
      <trkpt lat="44.02154" lon="3.5132">
        <ele>1207.6791355927</ele>
        <time>2015-05-31T16:41:11Z</time>
      </trkpt>
      <trkpt lat="44.02151" lon="3.51319">
        <ele>1207.6791355927</ele>
        <time>2015-05-31T16:41:16Z</time>
      </trkpt>
      <trkpt lat="44.02152" lon="3.51318">
        <ele>1207.6791355927</ele>
        <time>2015-05-31T16:41:21Z</time>
      </trkpt>
      <trkpt lat="44.02148" lon="3.51311">
        <ele>1206.3577268819</ele>
        <time>2015-05-31T16:41:26Z</time>
      </trkpt>
      <trkpt lat="44.0214" lon="3.51304">
        <ele>1205.1020693244</ele>
        <time>2015-05-31T16:41:31Z</time>
      </trkpt>
      <trkpt lat="44.02138" lon="3.51299">
        <ele>1205.1020693244</ele>
        <time>2015-05-31T16:41:36Z</time>
      </trkpt>
      <trkpt lat="44.02137" lon="3.51298">
        <ele>1205.1020693244</ele>
        <time>2015-05-31T16:41:41Z</time>
      </trkpt>
      <trkpt lat="44.02135" lon="3.51296">
        <ele>1205.1020693244</ele>
        <time>2015-05-31T16:41:46Z</time>
      </trkpt>
      <trkpt lat="44.02132" lon="3.5129">
        <ele>1203.93522543</ele>
        <time>2015-05-31T16:41:51Z</time>
      </trkpt>
      <trkpt lat="44.02132" lon="3.51286">
        <ele>1203.93522543</ele>
        <time>2015-05-31T16:41:56Z</time>
      </trkpt>
      <trkpt lat="44.02128" lon="3.51285">
        <ele>1203.93522543</ele>
        <time>2015-05-31T16:42:01Z</time>
      </trkpt>
      <trkpt lat="44.02123" lon="3.51284">
        <ele>1203.0656171823</ele>
        <time>2015-05-31T16:42:06Z</time>
      </trkpt>
      <trkpt lat="44.02115" lon="3.51282">
        <ele>1203.0656171823</ele>
        <time>2015-05-31T16:42:11Z</time>
      </trkpt>
      <trkpt lat="44.02108" lon="3.51282">
        <ele>1202.411677002</ele>
        <time>2015-05-31T16:42:16Z</time>
      </trkpt>
      <trkpt lat="44.02107" lon="3.51283">
        <ele>1202.411677002</ele>
        <time>2015-05-31T16:42:21Z</time>
      </trkpt>
      <trkpt lat="44.02111" lon="3.51285">
        <ele>1202.411677002</ele>
        <time>2015-05-31T16:42:36Z</time>
      </trkpt>
      <trkpt lat="44.02103" lon="3.51283">
        <ele>1201.5080981203</ele>
        <time>2015-05-31T16:42:41Z</time>
      </trkpt>
      <trkpt lat="44.02099" lon="3.51283">
        <ele>1201.5080981203</ele>
        <time>2015-05-31T16:42:46Z</time>
      </trkpt>
      <trkpt lat="44.02093" lon="3.51285">
        <ele>1200.6594046622</ele>
        <time>2015-05-31T16:42:51Z</time>
      </trkpt>
      <trkpt lat="44.02086" lon="3.51282">
        <ele>1200.6594046622</ele>
        <time>2015-05-31T16:42:56Z</time>
      </trkpt>
      <trkpt lat="44.02082" lon="3.5128">
        <ele>1199.6287867889</ele>
        <time>2015-05-31T16:43:01Z</time>
      </trkpt>
      <trkpt lat="44.02079" lon="3.51279">
        <ele>1199.6287867889</ele>
        <time>2015-05-31T16:43:06Z</time>
      </trkpt>
      <trkpt lat="44.02075" lon="3.51279">
        <ele>1199.6287867889</ele>
        <time>2015-05-31T16:43:11Z</time>
      </trkpt>
      <trkpt lat="44.02068" lon="3.5128">
        <ele>1198.3702712841</ele>
        <time>2015-05-31T16:43:16Z</time>
      </trkpt>
      <trkpt lat="44.02065" lon="3.5128">
        <ele>1198.3702712841</ele>
        <time>2015-05-31T16:43:21Z</time>
      </trkpt>
      <trkpt lat="44.02057" lon="3.51281">
        <ele>1197.0436590789</ele>
        <time>2015-05-31T16:43:26Z</time>
      </trkpt>
      <trkpt lat="44.02053" lon="3.51282">
        <ele>1197.0436590789</ele>
        <time>2015-05-31T16:43:31Z</time>
      </trkpt>
      <trkpt lat="44.02047" lon="3.51287">
        <ele>1195.6963312583</ele>
        <time>2015-05-31T16:43:36Z</time>
      </trkpt>
      <trkpt lat="44.02045" lon="3.51288">
        <ele>1195.6963312583</ele>
        <time>2015-05-31T16:43:41Z</time>
      </trkpt>
      <trkpt lat="44.02039" lon="3.51291">
        <ele>1194.3722549121</ele>
        <time>2015-05-31T16:43:46Z</time>
      </trkpt>
      <trkpt lat="44.02035" lon="3.51293">
        <ele>1194.3722549121</ele>
        <time>2015-05-31T16:43:51Z</time>
      </trkpt>
      <trkpt lat="44.0203" lon="3.51293">
        <ele>1194.3722549121</ele>
        <time>2015-05-31T16:43:56Z</time>
      </trkpt>
      <trkpt lat="44.02025" lon="3.51294">
        <ele>1192.8527121166</ele>
        <time>2015-05-31T16:44:01Z</time>
      </trkpt>
      <trkpt lat="44.02019" lon="3.51297">
        <ele>1192.8527121166</ele>
        <time>2015-05-31T16:44:06Z</time>
      </trkpt>
      <trkpt lat="44.02014" lon="3.51301">
        <ele>1191.2958892692</ele>
        <time>2015-05-31T16:44:11Z</time>
      </trkpt>
      <trkpt lat="44.02008" lon="3.51306">
        <ele>1191.2958892692</ele>
        <time>2015-05-31T16:44:16Z</time>
      </trkpt>
      <trkpt lat="44.02002" lon="3.51312">
        <ele>1189.8052355233</ele>
        <time>2015-05-31T16:44:21Z</time>
      </trkpt>
      <trkpt lat="44.01996" lon="3.51315">
        <ele>1189.8052355233</ele>
        <time>2015-05-31T16:44:26Z</time>
      </trkpt>
      <trkpt lat="44.01993" lon="3.51318">
        <ele>1188.3899605294</ele>
        <time>2015-05-31T16:44:31Z</time>
      </trkpt>
      <trkpt lat="44.01986" lon="3.51323">
        <ele>1188.3899605294</ele>
        <time>2015-05-31T16:44:36Z</time>
      </trkpt>
      <trkpt lat="44.01982" lon="3.51325">
        <ele>1187.0007538239</ele>
        <time>2015-05-31T16:44:41Z</time>
      </trkpt>
      <trkpt lat="44.01976" lon="3.51327">
        <ele>1187.0007538239</ele>
        <time>2015-05-31T16:44:46Z</time>
      </trkpt>
      <trkpt lat="44.01971" lon="3.51329">
        <ele>1185.6927448664</ele>
        <time>2015-05-31T16:44:51Z</time>
      </trkpt>
      <trkpt lat="44.01966" lon="3.51331">
        <ele>1185.6927448664</ele>
        <time>2015-05-31T16:44:56Z</time>
      </trkpt>
      <trkpt lat="44.0196" lon="3.51332">
        <ele>1184.387099319</ele>
        <time>2015-05-31T16:45:01Z</time>
      </trkpt>
      <trkpt lat="44.01955" lon="3.51331">
        <ele>1184.387099319</ele>
        <time>2015-05-31T16:45:06Z</time>
      </trkpt>
      <trkpt lat="44.01949" lon="3.51331">
        <ele>1182.9387264296</ele>
        <time>2015-05-31T16:45:11Z</time>
      </trkpt>
      <trkpt lat="44.01944" lon="3.5133">
        <ele>1182.9387264296</ele>
        <time>2015-05-31T16:45:16Z</time>
      </trkpt>
      <trkpt lat="44.01938" lon="3.5133">
        <ele>1181.5018319103</ele>
        <time>2015-05-31T16:45:21Z</time>
      </trkpt>
      <trkpt lat="44.01933" lon="3.51328">
        <ele>1181.5018319103</ele>
        <time>2015-05-31T16:45:26Z</time>
      </trkpt>
      <trkpt lat="44.01927" lon="3.51327">
        <ele>1180.0319328077</ele>
        <time>2015-05-31T16:45:31Z</time>
      </trkpt>
      <trkpt lat="44.01922" lon="3.51325">
        <ele>1180.0319328077</ele>
        <time>2015-05-31T16:45:36Z</time>
      </trkpt>
      <trkpt lat="44.01918" lon="3.51323">
        <ele>1178.5743891516</ele>
        <time>2015-05-31T16:45:41Z</time>
      </trkpt>
      <trkpt lat="44.01913" lon="3.51322">
        <ele>1178.5743891516</ele>
        <time>2015-05-31T16:45:46Z</time>
      </trkpt>
      <trkpt lat="44.01909" lon="3.51321">
        <ele>1177.1135655357</ele>
        <time>2015-05-31T16:45:51Z</time>
      </trkpt>
      <trkpt lat="44.01903" lon="3.5132">
        <ele>1177.1135655357</ele>
        <time>2015-05-31T16:45:56Z</time>
      </trkpt>
      <trkpt lat="44.01899" lon="3.51317">
        <ele>1175.6638221334</ele>
        <time>2015-05-31T16:46:01Z</time>
      </trkpt>
      <trkpt lat="44.01893" lon="3.51314">
        <ele>1175.6638221334</ele>
        <time>2015-05-31T16:46:06Z</time>
      </trkpt>
      <trkpt lat="44.01889" lon="3.51313">
        <ele>1174.2528596303</ele>
        <time>2015-05-31T16:46:11Z</time>
      </trkpt>
      <trkpt lat="44.01884" lon="3.51311">
        <ele>1174.2528596303</ele>
        <time>2015-05-31T16:46:16Z</time>
      </trkpt>
      <trkpt lat="44.01879" lon="3.51309">
        <ele>1172.9062503704</ele>
        <time>2015-05-31T16:46:21Z</time>
      </trkpt>
      <trkpt lat="44.01874" lon="3.51306">
        <ele>1172.9062503704</ele>
        <time>2015-05-31T16:46:26Z</time>
      </trkpt>
      <trkpt lat="44.01871" lon="3.51302">
        <ele>1171.6042897906</ele>
        <time>2015-05-31T16:46:31Z</time>
      </trkpt>
      <trkpt lat="44.01865" lon="3.513">
        <ele>1171.6042897906</ele>
        <time>2015-05-31T16:46:36Z</time>
      </trkpt>
      <trkpt lat="44.0186" lon="3.51296">
        <ele>1170.3718449337</ele>
        <time>2015-05-31T16:46:41Z</time>
      </trkpt>
      <trkpt lat="44.01854" lon="3.51294">
        <ele>1170.3718449337</ele>
        <time>2015-05-31T16:46:46Z</time>
      </trkpt>
      <trkpt lat="44.0185" lon="3.51293">
        <ele>1169.1885446699</ele>
        <time>2015-05-31T16:46:51Z</time>
      </trkpt>
      <trkpt lat="44.01843" lon="3.51292">
        <ele>1169.1885446699</ele>
        <time>2015-05-31T16:46:56Z</time>
      </trkpt>
      <trkpt lat="44.01837" lon="3.51293">
        <ele>1168.0498057078</ele>
        <time>2015-05-31T16:47:01Z</time>
      </trkpt>
      <trkpt lat="44.0183" lon="3.51294">
        <ele>1168.0498057078</ele>
        <time>2015-05-31T16:47:06Z</time>
      </trkpt>
      <trkpt lat="44.01825" lon="3.51293">
        <ele>1166.8936315141</ele>
        <time>2015-05-31T16:47:11Z</time>
      </trkpt>
      <trkpt lat="44.01821" lon="3.51293">
        <ele>1166.8936315141</ele>
        <time>2015-05-31T16:47:16Z</time>
      </trkpt>
      <trkpt lat="44.01815" lon="3.51292">
        <ele>1165.7491164648</ele>
        <time>2015-05-31T16:47:21Z</time>
      </trkpt>
      <trkpt lat="44.01809" lon="3.51291">
        <ele>1165.7491164648</ele>
        <time>2015-05-31T16:47:26Z</time>
      </trkpt>
      <trkpt lat="44.01805" lon="3.51289">
        <ele>1164.6576187313</ele>
        <time>2015-05-31T16:47:31Z</time>
      </trkpt>
      <trkpt lat="44.01797" lon="3.51288">
        <ele>1164.6576187313</ele>
        <time>2015-05-31T16:47:36Z</time>
      </trkpt>
      <trkpt lat="44.01793" lon="3.51287">
        <ele>1163.7005673385</ele>
        <time>2015-05-31T16:47:41Z</time>
      </trkpt>
      <trkpt lat="44.01786" lon="3.51286">
        <ele>1163.7005673385</ele>
        <time>2015-05-31T16:47:46Z</time>
      </trkpt>
      <trkpt lat="44.01782" lon="3.51286">
        <ele>1162.9242367023</ele>
        <time>2015-05-31T16:47:51Z</time>
      </trkpt>
      <trkpt lat="44.01775" lon="3.51286">
        <ele>1162.9242367023</ele>
        <time>2015-05-31T16:47:56Z</time>
      </trkpt>
      <trkpt lat="44.0177" lon="3.51286">
        <ele>1162.1980907068</ele>
        <time>2015-05-31T16:48:01Z</time>
      </trkpt>
      <trkpt lat="44.01763" lon="3.51287">
        <ele>1162.1980907068</ele>
        <time>2015-05-31T16:48:06Z</time>
      </trkpt>
      <trkpt lat="44.01759" lon="3.51287">
        <ele>1161.4875405314</ele>
        <time>2015-05-31T16:48:11Z</time>
      </trkpt>
      <trkpt lat="44.01749" lon="3.51288">
        <ele>1160.8758193246</ele>
        <time>2015-05-31T16:48:19Z</time>
      </trkpt>
      <trkpt lat="44.01748" lon="3.51287">
        <ele>1160.8758193246</ele>
        <time>2015-05-31T16:48:21Z</time>
      </trkpt>
      <trkpt lat="44.01741" lon="3.51289">
        <ele>1160.8758193246</ele>
        <time>2015-05-31T16:48:26Z</time>
      </trkpt>
      <trkpt lat="44.01734" lon="3.5129">
        <ele>1160.23805273</ele>
        <time>2015-05-31T16:48:31Z</time>
      </trkpt>
      <trkpt lat="44.01726" lon="3.51291">
        <ele>1160.23805273</ele>
        <time>2015-05-31T16:48:36Z</time>
      </trkpt>
      <trkpt lat="44.01721" lon="3.51294">
        <ele>1159.646000462</ele>
        <time>2015-05-31T16:48:41Z</time>
      </trkpt>
      <trkpt lat="44.01712" lon="3.51295">
        <ele>1159.646000462</ele>
        <time>2015-05-31T16:48:49Z</time>
      </trkpt>
      <trkpt lat="44.017" lon="3.51296">
        <ele>1159.0940138239</ele>
        <time>2015-05-31T16:48:56Z</time>
      </trkpt>
      <trkpt lat="44.01693" lon="3.51297">
        <ele>1159.0940138239</ele>
        <time>2015-05-31T16:49:01Z</time>
      </trkpt>
      <trkpt lat="44.01687" lon="3.51299">
        <ele>1158.6632637898</ele>
        <time>2015-05-31T16:49:06Z</time>
      </trkpt>
      <trkpt lat="44.01681" lon="3.51301">
        <ele>1158.6632637898</ele>
        <time>2015-05-31T16:49:11Z</time>
      </trkpt>
      <trkpt lat="44.01675" lon="3.51301">
        <ele>1158.3710280997</ele>
        <time>2015-05-31T16:49:16Z</time>
      </trkpt>
      <trkpt lat="44.01674" lon="3.51302">
        <ele>1158.3710280997</ele>
        <time>2015-05-31T16:49:21Z</time>
      </trkpt>
      <trkpt lat="44.01618" lon="3.5131">
        <ele>1158.0888734925</ele>
        <time>2015-05-31T16:49:57Z</time>
      </trkpt>
      <trkpt lat="44.01614" lon="3.51312">
        <ele>1158.0888734925</ele>
        <time>2015-05-31T16:50:04Z</time>
      </trkpt>
      <trkpt lat="44.01562" lon="3.51311">
        <ele>1157.7122459305</ele>
        <time>2015-05-31T16:50:41Z</time>
      </trkpt>
      <trkpt lat="44.01553" lon="3.51311">
        <ele>1157.7122459305</ele>
        <time>2015-05-31T16:50:46Z</time>
      </trkpt>
      <trkpt lat="44.0154" lon="3.51315">
        <ele>1157.1734242472</ele>
        <time>2015-05-31T16:50:57Z</time>
      </trkpt>
      <trkpt lat="44.01534" lon="3.51319">
        <ele>1157.1734242472</ele>
        <time>2015-05-31T16:51:06Z</time>
      </trkpt>
      <trkpt lat="44.01455" lon="3.51323">
        <ele>1155.6463939913</ele>
        <time>2015-05-31T16:52:01Z</time>
      </trkpt>
      <trkpt lat="44.01449" lon="3.51324">
        <ele>1155.6463939913</ele>
        <time>2015-05-31T16:52:06Z</time>
      </trkpt>
      <trkpt lat="44.01442" lon="3.51327">
        <ele>1154.1988684479</ele>
        <time>2015-05-31T16:52:11Z</time>
      </trkpt>
      <trkpt lat="44.01437" lon="3.5133">
        <ele>1154.1988684479</ele>
        <time>2015-05-31T16:52:16Z</time>
      </trkpt>
      <trkpt lat="44.0143" lon="3.51332">
        <ele>1152.7535433475</ele>
        <time>2015-05-31T16:52:21Z</time>
      </trkpt>
      <trkpt lat="44.0142" lon="3.51344">
        <ele>1151.0082648753</ele>
        <time>2015-05-31T16:52:31Z</time>
      </trkpt>
      <trkpt lat="44.01416" lon="3.51351">
        <ele>1151.0082648753</ele>
        <time>2015-05-31T16:52:36Z</time>
      </trkpt>
      <trkpt lat="44.01412" lon="3.51354">
        <ele>1149.1739430623</ele>
        <time>2015-05-31T16:52:41Z</time>
      </trkpt>
      <trkpt lat="44.01406" lon="3.51358">
        <ele>1149.1739430623</ele>
        <time>2015-05-31T16:52:46Z</time>
      </trkpt>
      <trkpt lat="44.01402" lon="3.51359">
        <ele>1147.5183410855</ele>
        <time>2015-05-31T16:52:51Z</time>
      </trkpt>
      <trkpt lat="44.01399" lon="3.51361">
        <ele>1147.5183410855</ele>
        <time>2015-05-31T16:52:56Z</time>
      </trkpt>
      <trkpt lat="44.01392" lon="3.51366">
        <ele>1145.8423400882</ele>
        <time>2015-05-31T16:53:01Z</time>
      </trkpt>
      <trkpt lat="44.01385" lon="3.51368">
        <ele>1145.8423400882</ele>
        <time>2015-05-31T16:53:06Z</time>
      </trkpt>
      <trkpt lat="44.0138" lon="3.5137">
        <ele>1144.0047651259</ele>
        <time>2015-05-31T16:53:11Z</time>
      </trkpt>
      <trkpt lat="44.01375" lon="3.51375">
        <ele>1144.0047651259</ele>
        <time>2015-05-31T16:53:16Z</time>
      </trkpt>
      <trkpt lat="44.01373" lon="3.51377">
        <ele>1144.0047651259</ele>
        <time>2015-05-31T16:53:21Z</time>
      </trkpt>
      <trkpt lat="44.01373" lon="3.51377">
        <ele>1144.0047651259</ele>
        <time>2015-05-31T16:53:26Z</time>
      </trkpt>
      <trkpt lat="44.01366" lon="3.5138">
        <ele>1142.2211512013</ele>
        <time>2015-05-31T16:53:41Z</time>
      </trkpt>
      <trkpt lat="44.0136" lon="3.51385">
        <ele>1142.2211512013</ele>
        <time>2015-05-31T16:53:46Z</time>
      </trkpt>
      <trkpt lat="44.01358" lon="3.51388">
        <ele>1140.6910620499</ele>
        <time>2015-05-31T16:53:51Z</time>
      </trkpt>
      <trkpt lat="44.01353" lon="3.51395">
        <ele>1140.6910620499</ele>
        <time>2015-05-31T16:53:56Z</time>
      </trkpt>
      <trkpt lat="44.01349" lon="3.51401">
        <ele>1139.4113539154</ele>
        <time>2015-05-31T16:54:01Z</time>
      </trkpt>
      <trkpt lat="44.01345" lon="3.51404">
        <ele>1139.4113539154</ele>
        <time>2015-05-31T16:54:06Z</time>
      </trkpt>
      <trkpt lat="44.01341" lon="3.51408">
        <ele>1138.3351826602</ele>
        <time>2015-05-31T16:54:11Z</time>
      </trkpt>
      <trkpt lat="44.01338" lon="3.51409">
        <ele>1138.3351826602</ele>
        <time>2015-05-31T16:54:16Z</time>
      </trkpt>
      <trkpt lat="44.01337" lon="3.5141">
        <ele>1138.3351826602</ele>
        <time>2015-05-31T16:54:21Z</time>
      </trkpt>
      <trkpt lat="44.01335" lon="3.51412">
        <ele>1138.3351826602</ele>
        <time>2015-05-31T16:54:26Z</time>
      </trkpt>
      <trkpt lat="44.01333" lon="3.51412">
        <ele>1137.2600544335</ele>
        <time>2015-05-31T16:54:31Z</time>
      </trkpt>
      <trkpt lat="44.01331" lon="3.51413">
        <ele>1137.2600544335</ele>
        <time>2015-05-31T16:54:36Z</time>
      </trkpt>
      <trkpt lat="44.01329" lon="3.51414">
        <ele>1137.2600544335</ele>
        <time>2015-05-31T16:54:41Z</time>
      </trkpt>
      <trkpt lat="44.01328" lon="3.51415">
        <ele>1137.2600544335</ele>
        <time>2015-05-31T16:54:52Z</time>
      </trkpt>
      <trkpt lat="44.01322" lon="3.51409">
        <ele>1136.3153941349</ele>
        <time>2015-05-31T16:56:36Z</time>
      </trkpt>
      <trkpt lat="44.01322" lon="3.51408">
        <ele>1136.3153941349</ele>
        <time>2015-05-31T16:56:46Z</time>
      </trkpt>
      <trkpt lat="44.0131" lon="3.51406">
        <ele>1135.5342893683</ele>
        <time>2015-05-31T16:57:01Z</time>
      </trkpt>
      <trkpt lat="44.01306" lon="3.51408">
        <ele>1135.5342893683</ele>
        <time>2015-05-31T16:57:06Z</time>
      </trkpt>
      <trkpt lat="44.01299" lon="3.51409">
        <ele>1134.8748873764</ele>
        <time>2015-05-31T16:57:11Z</time>
      </trkpt>
      <trkpt lat="44.01295" lon="3.5141">
        <ele>1134.8748873764</ele>
        <time>2015-05-31T16:57:16Z</time>
      </trkpt>
      <trkpt lat="44.01289" lon="3.5141">
        <ele>1134.3268979044</ele>
        <time>2015-05-31T16:57:24Z</time>
      </trkpt>
      <trkpt lat="44.01282" lon="3.51411">
        <ele>1134.3268979044</ele>
        <time>2015-05-31T16:57:26Z</time>
      </trkpt>
      <trkpt lat="44.01254" lon="3.51414">
        <ele>1133.7940178473</ele>
        <time>2015-05-31T16:57:51Z</time>
      </trkpt>
      <trkpt lat="44.0125" lon="3.51416">
        <ele>1133.7940178473</ele>
        <time>2015-05-31T16:58:00Z</time>
      </trkpt>
      <trkpt lat="44.01242" lon="3.51421">
        <ele>1133.3311015578</ele>
        <time>2015-05-31T16:58:01Z</time>
      </trkpt>
      <trkpt lat="44.01236" lon="3.51423">
        <ele>1133.3311015578</ele>
        <time>2015-05-31T16:58:06Z</time>
      </trkpt>
      <trkpt lat="44.0123" lon="3.51421">
        <ele>1132.9023292259</ele>
        <time>2015-05-31T16:58:11Z</time>
      </trkpt>
      <trkpt lat="44.01224" lon="3.51417">
        <ele>1132.9023292259</ele>
        <time>2015-05-31T16:58:16Z</time>
      </trkpt>
      <trkpt lat="44.01217" lon="3.51415">
        <ele>1132.4456167246</ele>
        <time>2015-05-31T16:58:21Z</time>
      </trkpt>
      <trkpt lat="44.01212" lon="3.51416">
        <ele>1132.4456167246</ele>
        <time>2015-05-31T16:58:32Z</time>
      </trkpt>
      <trkpt lat="44.01199" lon="3.51415">
        <ele>1131.9467784872</ele>
        <time>2015-05-31T16:58:42Z</time>
      </trkpt>
      <trkpt lat="44.01176" lon="3.51419">
        <ele>1131.3784075649</ele>
        <time>2015-05-31T16:58:54Z</time>
      </trkpt>
      <trkpt lat="44.01174" lon="3.51419">
        <ele>1131.3784075649</ele>
        <time>2015-05-31T16:58:56Z</time>
      </trkpt>
      <trkpt lat="44.01168" lon="3.51416">
        <ele>1131.3784075649</ele>
        <time>2015-05-31T16:59:02Z</time>
      </trkpt>
      <trkpt lat="44.01155" lon="3.5138">
        <ele>1130.2397698196</ele>
        <time>2015-05-31T16:59:32Z</time>
      </trkpt>
      <trkpt lat="44.01137" lon="3.51373">
        <ele>1128.8179239344</ele>
        <time>2015-05-31T16:59:51Z</time>
      </trkpt>
      <trkpt lat="44.01139" lon="3.51371">
        <ele>1128.8179239344</ele>
        <time>2015-05-31T17:00:00Z</time>
      </trkpt>
      <trkpt lat="44.01149" lon="3.51406">
        <ele>1126.8032197724</ele>
        <time>2015-05-31T17:00:26Z</time>
      </trkpt>
      <trkpt lat="44.01133" lon="3.51404">
        <ele>1124.6165846914</ele>
        <time>2015-05-31T17:00:48Z</time>
      </trkpt>
      <trkpt lat="44.01122" lon="3.51398">
        <ele>1122.475588851</ele>
        <time>2015-05-31T17:00:54Z</time>
      </trkpt>
      <trkpt lat="44.01121" lon="3.51397">
        <ele>1122.475588851</ele>
        <time>2015-05-31T17:01:00Z</time>
      </trkpt>
      <trkpt lat="44.01111" lon="3.51388">
        <ele>1120.1781859705</ele>
        <time>2015-05-31T17:01:06Z</time>
      </trkpt>
      <trkpt lat="44.01087" lon="3.51367">
        <ele>1117.9987620277</ele>
        <time>2015-05-31T17:01:59Z</time>
      </trkpt>
      <trkpt lat="44.01065" lon="3.51349">
        <ele>1115.2688895198</ele>
        <time>2015-05-31T17:02:06Z</time>
      </trkpt>
      <trkpt lat="44.01059" lon="3.51344">
        <ele>1115.2688895198</ele>
        <time>2015-05-31T17:02:11Z</time>
      </trkpt>
      <trkpt lat="44.01055" lon="3.51339">
        <ele>1112.8551078721</ele>
        <time>2015-05-31T17:02:16Z</time>
      </trkpt>
      <trkpt lat="44.0105" lon="3.51334">
        <ele>1112.8551078721</ele>
        <time>2015-05-31T17:02:21Z</time>
      </trkpt>
      <trkpt lat="44.01045" lon="3.51328">
        <ele>1110.6947135941</ele>
        <time>2015-05-31T17:02:26Z</time>
      </trkpt>
      <trkpt lat="44.01039" lon="3.51324">
        <ele>1110.6947135941</ele>
        <time>2015-05-31T17:02:31Z</time>
      </trkpt>
      <trkpt lat="44.01038" lon="3.5132">
        <ele>1108.6568011414</ele>
        <time>2015-05-31T17:02:36Z</time>
      </trkpt>
      <trkpt lat="44.01039" lon="3.51319">
        <ele>1108.6568011414</ele>
        <time>2015-05-31T17:02:41Z</time>
      </trkpt>
      <trkpt lat="44.01034" lon="3.51314">
        <ele>1108.6568011414</ele>
        <time>2015-05-31T17:02:51Z</time>
      </trkpt>
      <trkpt lat="44.01029" lon="3.51309">
        <ele>1106.7638004451</ele>
        <time>2015-05-31T17:02:56Z</time>
      </trkpt>
      <trkpt lat="44.01025" lon="3.51307">
        <ele>1106.7638004451</ele>
        <time>2015-05-31T17:03:01Z</time>
      </trkpt>
      <trkpt lat="44.01019" lon="3.51302">
        <ele>1105.0648569537</ele>
        <time>2015-05-31T17:03:06Z</time>
      </trkpt>
      <trkpt lat="44.01012" lon="3.51299">
        <ele>1105.0648569537</ele>
        <time>2015-05-31T17:03:11Z</time>
      </trkpt>
      <trkpt lat="44.01007" lon="3.51296">
        <ele>1103.5472623295</ele>
        <time>2015-05-31T17:03:16Z</time>
      </trkpt>
      <trkpt lat="44.01001" lon="3.51292">
        <ele>1103.5472623295</ele>
        <time>2015-05-31T17:03:21Z</time>
      </trkpt>
      <trkpt lat="44.00994" lon="3.51286">
        <ele>1102.0545663893</ele>
        <time>2015-05-31T17:03:26Z</time>
      </trkpt>
      <trkpt lat="44.00989" lon="3.51282">
        <ele>1102.0545663893</ele>
        <time>2015-05-31T17:03:31Z</time>
      </trkpt>
      <trkpt lat="44.00983" lon="3.51278">
        <ele>1100.4416866049</ele>
        <time>2015-05-31T17:03:36Z</time>
      </trkpt>
      <trkpt lat="44.0098" lon="3.51275">
        <ele>1100.4416866049</ele>
        <time>2015-05-31T17:03:41Z</time>
      </trkpt>
      <trkpt lat="44.00975" lon="3.5127">
        <ele>1098.7185919318</ele>
        <time>2015-05-31T17:03:46Z</time>
      </trkpt>
      <trkpt lat="44.00971" lon="3.51266">
        <ele>1098.7185919318</ele>
        <time>2015-05-31T17:03:51Z</time>
      </trkpt>
      <trkpt lat="44.00966" lon="3.51262">
        <ele>1096.8659519637</ele>
        <time>2015-05-31T17:03:56Z</time>
      </trkpt>
      <trkpt lat="44.00963" lon="3.51258">
        <ele>1096.8659519637</ele>
        <time>2015-05-31T17:04:01Z</time>
      </trkpt>
      <trkpt lat="44.00959" lon="3.51248">
        <ele>1094.952632329</ele>
        <time>2015-05-31T17:04:17Z</time>
      </trkpt>
      <trkpt lat="44.00957" lon="3.51258">
        <ele>1094.952632329</ele>
        <time>2015-05-31T17:04:36Z</time>
      </trkpt>
      <trkpt lat="44.00955" lon="3.5126">
        <ele>1093.316367034</ele>
        <time>2015-05-31T17:04:41Z</time>
      </trkpt>
      <trkpt lat="44.00953" lon="3.51262">
        <ele>1093.316367034</ele>
        <time>2015-05-31T17:04:46Z</time>
      </trkpt>
      <trkpt lat="44.0095" lon="3.51264">
        <ele>1093.316367034</ele>
        <time>2015-05-31T17:04:51Z</time>
      </trkpt>
      <trkpt lat="44.00946" lon="3.51265">
        <ele>1091.8801489459</ele>
        <time>2015-05-31T17:04:56Z</time>
      </trkpt>
      <trkpt lat="44.00944" lon="3.51266">
        <ele>1091.8801489459</ele>
        <time>2015-05-31T17:05:01Z</time>
      </trkpt>
      <trkpt lat="44.00942" lon="3.51269">
        <ele>1091.8801489459</ele>
        <time>2015-05-31T17:05:06Z</time>
      </trkpt>
      <trkpt lat="44.0094" lon="3.51272">
        <ele>1091.8801489459</ele>
        <time>2015-05-31T17:05:11Z</time>
      </trkpt>
      <trkpt lat="44.00934" lon="3.51272">
        <ele>1090.6296582952</ele>
        <time>2015-05-31T17:05:19Z</time>
      </trkpt>
      <trkpt lat="44.00934" lon="3.51272">
        <ele>1090.6296582952</ele>
        <time>2015-05-31T17:05:24Z</time>
      </trkpt>
      <trkpt lat="44.0093" lon="3.51274">
        <ele>1090.6296582952</ele>
        <time>2015-05-31T17:06:06Z</time>
      </trkpt>
      <trkpt lat="44.00929" lon="3.5128">
        <ele>1089.7239898187</ele>
        <time>2015-05-31T17:06:16Z</time>
      </trkpt>
      <trkpt lat="44.00957" lon="3.51293">
        <ele>1088.7763272908</ele>
        <time>2015-05-31T17:07:21Z</time>
      </trkpt>
      <trkpt lat="44.0096" lon="3.51293">
        <ele>1088.7763272908</ele>
        <time>2015-05-31T17:07:26Z</time>
      </trkpt>
      <trkpt lat="44.00979" lon="3.51281">
        <ele>1087.9759705337</ele>
        <time>2015-05-31T17:07:51Z</time>
      </trkpt>
      <trkpt lat="44.0099" lon="3.51279">
        <ele>1087.2961119276</ele>
        <time>2015-05-31T17:08:07Z</time>
      </trkpt>
      <trkpt lat="44.01001" lon="3.51278">
        <ele>1086.7403720199</ele>
        <time>2015-05-31T17:08:21Z</time>
      </trkpt>
      <trkpt lat="44.01005" lon="3.51283">
        <ele>1086.7403720199</ele>
        <time>2015-05-31T17:08:26Z</time>
      </trkpt>
      <trkpt lat="44.0106" lon="3.51345">
        <ele>1086.7873073716</ele>
        <time>2015-05-31T17:09:26Z</time>
      </trkpt>
      <trkpt lat="44.01068" lon="3.51352">
        <ele>1087.0283666714</ele>
        <time>2015-05-31T17:09:33Z</time>
      </trkpt>
      <trkpt lat="44.01069" lon="3.51355">
        <ele>1087.0283666714</ele>
        <time>2015-05-31T17:09:36Z</time>
      </trkpt>
      <trkpt lat="44.0107" lon="3.51354">
        <ele>1087.0283666714</ele>
        <time>2015-05-31T17:09:41Z</time>
      </trkpt>
      <trkpt lat="44.01072" lon="3.51362">
        <ele>1087.7185600989</ele>
        <time>2015-05-31T17:09:46Z</time>
      </trkpt>
      <trkpt lat="44.01074" lon="3.5137">
        <ele>1087.7185600989</ele>
        <time>2015-05-31T17:09:51Z</time>
      </trkpt>
      <trkpt lat="44.01075" lon="3.51373">
        <ele>1087.7185600989</ele>
        <time>2015-05-31T17:09:56Z</time>
      </trkpt>
      <trkpt lat="44.01077" lon="3.51369">
        <ele>1088.6750013314</ele>
        <time>2015-05-31T17:10:01Z</time>
      </trkpt>
      <trkpt lat="44.01081" lon="3.51366">
        <ele>1088.6750013314</ele>
        <time>2015-05-31T17:10:06Z</time>
      </trkpt>
      <trkpt lat="44.01092" lon="3.51371">
        <ele>1090.0878044258</ele>
        <time>2015-05-31T17:10:16Z</time>
      </trkpt>
      <trkpt lat="44.01097" lon="3.51375">
        <ele>1090.0878044258</ele>
        <time>2015-05-31T17:10:21Z</time>
      </trkpt>
      <trkpt lat="44.01101" lon="3.5138">
        <ele>1091.6275002403</ele>
        <time>2015-05-31T17:10:26Z</time>
      </trkpt>
      <trkpt lat="44.01106" lon="3.51384">
        <ele>1091.6275002403</ele>
        <time>2015-05-31T17:10:31Z</time>
      </trkpt>
      <trkpt lat="44.01112" lon="3.51387">
        <ele>1093.3776364884</ele>
        <time>2015-05-31T17:10:36Z</time>
      </trkpt>
      <trkpt lat="44.01116" lon="3.51389">
        <ele>1093.3776364884</ele>
        <time>2015-05-31T17:10:41Z</time>
      </trkpt>
      <trkpt lat="44.01119" lon="3.5139">
        <ele>1093.3776364884</ele>
        <time>2015-05-31T17:10:46Z</time>
      </trkpt>
      <trkpt lat="44.01122" lon="3.51394">
        <ele>1095.3286553832</ele>
        <time>2015-05-31T17:10:51Z</time>
      </trkpt>
      <trkpt lat="44.01127" lon="3.51397">
        <ele>1095.3286553832</ele>
        <time>2015-05-31T17:10:56Z</time>
      </trkpt>
      <trkpt lat="44.01131" lon="3.51402">
        <ele>1097.4424233886</ele>
        <time>2015-05-31T17:11:01Z</time>
      </trkpt>
      <trkpt lat="44.01134" lon="3.51407">
        <ele>1097.4424233886</ele>
        <time>2015-05-31T17:11:06Z</time>
      </trkpt>
      <trkpt lat="44.01138" lon="3.51413">
        <ele>1099.6832782529</ele>
        <time>2015-05-31T17:11:11Z</time>
      </trkpt>
      <trkpt lat="44.01142" lon="3.51418">
        <ele>1099.6832782529</ele>
        <time>2015-05-31T17:11:16Z</time>
      </trkpt>
      <trkpt lat="44.01146" lon="3.51423">
        <ele>1102.0611991525</ele>
        <time>2015-05-31T17:11:21Z</time>
      </trkpt>
      <trkpt lat="44.01151" lon="3.51424">
        <ele>1102.0611991525</ele>
        <time>2015-05-31T17:11:26Z</time>
      </trkpt>
      <trkpt lat="44.01154" lon="3.51429">
        <ele>1104.3834543247</ele>
        <time>2015-05-31T17:11:31Z</time>
      </trkpt>
      <trkpt lat="44.01159" lon="3.51436">
        <ele>1104.3834543247</ele>
        <time>2015-05-31T17:11:36Z</time>
      </trkpt>
      <trkpt lat="44.01163" lon="3.51442">
        <ele>1106.7167936654</ele>
        <time>2015-05-31T17:11:41Z</time>
      </trkpt>
      <trkpt lat="44.01168" lon="3.51446">
        <ele>1106.7167936654</ele>
        <time>2015-05-31T17:11:46Z</time>
      </trkpt>
      <trkpt lat="44.01173" lon="3.51452">
        <ele>1108.9502923987</ele>
        <time>2015-05-31T17:11:51Z</time>
      </trkpt>
      <trkpt lat="44.01176" lon="3.51458">
        <ele>1108.9502923987</ele>
        <time>2015-05-31T17:11:56Z</time>
      </trkpt>
      <trkpt lat="44.01183" lon="3.51464">
        <ele>1110.9816601156</ele>
        <time>2015-05-31T17:12:01Z</time>
      </trkpt>
      <trkpt lat="44.0119" lon="3.51471">
        <ele>1110.9816601156</ele>
        <time>2015-05-31T17:12:06Z</time>
      </trkpt>
      <trkpt lat="44.01195" lon="3.51475">
        <ele>1112.803370261</ele>
        <time>2015-05-31T17:12:11Z</time>
      </trkpt>
      <trkpt lat="44.01199" lon="3.51481">
        <ele>1112.803370261</ele>
        <time>2015-05-31T17:12:16Z</time>
      </trkpt>
      <trkpt lat="44.01204" lon="3.51487">
        <ele>1114.4524941027</ele>
        <time>2015-05-31T17:12:21Z</time>
      </trkpt>
      <trkpt lat="44.01211" lon="3.51493">
        <ele>1114.4524941027</ele>
        <time>2015-05-31T17:12:26Z</time>
      </trkpt>
      <trkpt lat="44.01218" lon="3.51496">
        <ele>1115.8632140783</ele>
        <time>2015-05-31T17:12:31Z</time>
      </trkpt>
      <trkpt lat="44.01226" lon="3.51498">
        <ele>1115.8632140783</ele>
        <time>2015-05-31T17:12:40Z</time>
      </trkpt>
      <trkpt lat="44.01287" lon="3.51515">
        <ele>1116.2693001663</ele>
        <time>2015-05-31T17:13:27Z</time>
      </trkpt>
      <trkpt lat="44.01291" lon="3.51517">
        <ele>1116.2693001663</ele>
        <time>2015-05-31T17:13:31Z</time>
      </trkpt>
      <trkpt lat="44.01297" lon="3.51523">
        <ele>1116.6211315962</ele>
        <time>2015-05-31T17:13:36Z</time>
      </trkpt>
      <trkpt lat="44.01302" lon="3.51529">
        <ele>1116.6211315962</ele>
        <time>2015-05-31T17:13:41Z</time>
      </trkpt>
      <trkpt lat="44.01309" lon="3.51531">
        <ele>1116.7908666237</ele>
        <time>2015-05-31T17:13:46Z</time>
      </trkpt>
      <trkpt lat="44.01314" lon="3.51534">
        <ele>1116.7908666237</ele>
        <time>2015-05-31T17:13:57Z</time>
      </trkpt>
      <trkpt lat="44.01349" lon="3.51564">
        <ele>1115.9834513281</ele>
        <time>2015-05-31T17:14:26Z</time>
      </trkpt>
      <trkpt lat="44.0137" lon="3.51597">
        <ele>1114.502770751</ele>
        <time>2015-05-31T17:15:26Z</time>
      </trkpt>
      <trkpt lat="44.01384" lon="3.51627">
        <ele>1113.0359619895</ele>
        <time>2015-05-31T17:15:33Z</time>
      </trkpt>
      <trkpt lat="44.01406" lon="3.5165">
        <ele>1111.3839561442</ele>
        <time>2015-05-31T17:15:51Z</time>
      </trkpt>
      <trkpt lat="44.01431" lon="3.5167">
        <ele>1109.5647143575</ele>
        <time>2015-05-31T17:16:13Z</time>
      </trkpt>
      <trkpt lat="44.01433" lon="3.51672">
        <ele>1109.5647143575</ele>
        <time>2015-05-31T17:16:16Z</time>
      </trkpt>
      <trkpt lat="44.01442" lon="3.51674">
        <ele>1107.7251557936</ele>
        <time>2015-05-31T17:16:21Z</time>
      </trkpt>
      <trkpt lat="44.0145" lon="3.5168">
        <ele>1107.7251557936</ele>
        <time>2015-05-31T17:16:26Z</time>
      </trkpt>
      <trkpt lat="44.01454" lon="3.51685">
        <ele>1105.8718497464</ele>
        <time>2015-05-31T17:16:31Z</time>
      </trkpt>
      <trkpt lat="44.01461" lon="3.51691">
        <ele>1105.8718497464</ele>
        <time>2015-05-31T17:16:36Z</time>
      </trkpt>
      <trkpt lat="44.01465" lon="3.51694">
        <ele>1103.9245187654</ele>
        <time>2015-05-31T17:16:45Z</time>
      </trkpt>
      <trkpt lat="44.01484" lon="3.51707">
        <ele>1101.3479326731</ele>
        <time>2015-05-31T17:17:07Z</time>
      </trkpt>
      <trkpt lat="44.01489" lon="3.51709">
        <ele>1101.3479326731</ele>
        <time>2015-05-31T17:17:11Z</time>
      </trkpt>
      <trkpt lat="44.01496" lon="3.51712">
        <ele>1098.7432097393</ele>
        <time>2015-05-31T17:17:16Z</time>
      </trkpt>
      <trkpt lat="44.01503" lon="3.51715">
        <ele>1098.7432097393</ele>
        <time>2015-05-31T17:17:21Z</time>
      </trkpt>
      <trkpt lat="44.01511" lon="3.51719">
        <ele>1096.1485884026</ele>
        <time>2015-05-31T17:17:26Z</time>
      </trkpt>
      <trkpt lat="44.01519" lon="3.51722">
        <ele>1096.1485884026</ele>
        <time>2015-05-31T17:17:31Z</time>
      </trkpt>
      <trkpt lat="44.01521" lon="3.51728">
        <ele>1093.570625616</ele>
        <time>2015-05-31T17:17:36Z</time>
      </trkpt>
      <trkpt lat="44.01526" lon="3.51732">
        <ele>1093.570625616</ele>
        <time>2015-05-31T17:17:41Z</time>
      </trkpt>
      <trkpt lat="44.01534" lon="3.51737">
        <ele>1090.9144296765</ele>
        <time>2015-05-31T17:17:46Z</time>
      </trkpt>
      <trkpt lat="44.0154" lon="3.51741">
        <ele>1090.9144296765</ele>
        <time>2015-05-31T17:17:51Z</time>
      </trkpt>
      <trkpt lat="44.01546" lon="3.51743">
        <ele>1088.2075265527</ele>
        <time>2015-05-31T17:17:56Z</time>
      </trkpt>
      <trkpt lat="44.01549" lon="3.5175">
        <ele>1088.2075265527</ele>
        <time>2015-05-31T17:18:01Z</time>
      </trkpt>
      <trkpt lat="44.01553" lon="3.51757">
        <ele>1085.360194295</ele>
        <time>2015-05-31T17:18:06Z</time>
      </trkpt>
      <trkpt lat="44.01585" lon="3.51768">
        <ele>1082.0878436513</ele>
        <time>2015-05-31T17:18:32Z</time>
      </trkpt>
      <trkpt lat="44.01589" lon="3.51769">
        <ele>1082.0878436513</ele>
        <time>2015-05-31T17:18:41Z</time>
      </trkpt>
      <trkpt lat="44.016" lon="3.51777">
        <ele>1078.8340148474</ele>
        <time>2015-05-31T17:18:46Z</time>
      </trkpt>
      <trkpt lat="44.01603" lon="3.51782">
        <ele>1078.8340148474</ele>
        <time>2015-05-31T17:18:51Z</time>
      </trkpt>
      <trkpt lat="44.01611" lon="3.51785">
        <ele>1075.5483285167</ele>
        <time>2015-05-31T17:18:59Z</time>
      </trkpt>
      <trkpt lat="44.0162" lon="3.51789">
        <ele>1072.356983573</ele>
        <time>2015-05-31T17:19:01Z</time>
      </trkpt>
      <trkpt lat="44.01654" lon="3.51811">
        <ele>1069.0306169349</ele>
        <time>2015-05-31T17:19:31Z</time>
      </trkpt>
      <trkpt lat="44.01665" lon="3.51815">
        <ele>1066.2359990384</ele>
        <time>2015-05-31T17:19:36Z</time>
      </trkpt>
      <trkpt lat="44.0167" lon="3.51817">
        <ele>1066.2359990384</ele>
        <time>2015-05-31T17:19:41Z</time>
      </trkpt>
      <trkpt lat="44.01674" lon="3.51819">
        <ele>1063.9551573765</ele>
        <time>2015-05-31T17:19:46Z</time>
      </trkpt>
      <trkpt lat="44.01678" lon="3.51823">
        <ele>1063.9551573765</ele>
        <time>2015-05-31T17:19:51Z</time>
      </trkpt>
      <trkpt lat="44.01684" lon="3.51826">
        <ele>1062.2274559086</ele>
        <time>2015-05-31T17:19:56Z</time>
      </trkpt>
      <trkpt lat="44.01688" lon="3.51827">
        <ele>1062.2274559086</ele>
        <time>2015-05-31T17:20:01Z</time>
      </trkpt>
      <trkpt lat="44.01692" lon="3.5183">
        <ele>1062.2274559086</ele>
        <time>2015-05-31T17:20:06Z</time>
      </trkpt>
      <trkpt lat="44.01699" lon="3.51832">
        <ele>1060.8282269683</ele>
        <time>2015-05-31T17:20:11Z</time>
      </trkpt>
      <trkpt lat="44.01706" lon="3.51833">
        <ele>1060.8282269683</ele>
        <time>2015-05-31T17:20:16Z</time>
      </trkpt>
      <trkpt lat="44.01711" lon="3.51835">
        <ele>1059.5770225102</ele>
        <time>2015-05-31T17:20:21Z</time>
      </trkpt>
      <trkpt lat="44.01716" lon="3.51839">
        <ele>1059.5770225102</ele>
        <time>2015-05-31T17:20:26Z</time>
      </trkpt>
      <trkpt lat="44.01722" lon="3.51845">
        <ele>1058.4357560303</ele>
        <time>2015-05-31T17:20:31Z</time>
      </trkpt>
      <trkpt lat="44.01729" lon="3.51849">
        <ele>1058.4357560303</ele>
        <time>2015-05-31T17:20:36Z</time>
      </trkpt>
      <trkpt lat="44.01735" lon="3.51857">
        <ele>1057.3398375752</ele>
        <time>2015-05-31T17:20:41Z</time>
      </trkpt>
      <trkpt lat="44.01742" lon="3.51859">
        <ele>1057.3398375752</ele>
        <time>2015-05-31T17:20:46Z</time>
      </trkpt>
      <trkpt lat="44.01744" lon="3.51866">
        <ele>1056.3011889391</ele>
        <time>2015-05-31T17:20:51Z</time>
      </trkpt>
      <trkpt lat="44.01749" lon="3.51876">
        <ele>1055.445833012</ele>
        <time>2015-05-31T17:20:56Z</time>
      </trkpt>
      <trkpt lat="44.01751" lon="3.5188">
        <ele>1055.445833012</ele>
        <time>2015-05-31T17:21:01Z</time>
      </trkpt>
      <trkpt lat="44.01758" lon="3.51889">
        <ele>1054.5440128887</ele>
        <time>2015-05-31T17:21:06Z</time>
      </trkpt>
      <trkpt lat="44.01763" lon="3.51892">
        <ele>1054.5440128887</ele>
        <time>2015-05-31T17:21:11Z</time>
      </trkpt>
      <trkpt lat="44.01768" lon="3.51895">
        <ele>1053.5269598596</ele>
        <time>2015-05-31T17:21:16Z</time>
      </trkpt>
      <trkpt lat="44.01773" lon="3.51898">
        <ele>1053.5269598596</ele>
        <time>2015-05-31T17:21:21Z</time>
      </trkpt>
      <trkpt lat="44.01779" lon="3.51901">
        <ele>1052.6193815188</ele>
        <time>2015-05-31T17:21:26Z</time>
      </trkpt>
      <trkpt lat="44.01783" lon="3.51903">
        <ele>1052.6193815188</ele>
        <time>2015-05-31T17:21:31Z</time>
      </trkpt>
      <trkpt lat="44.01787" lon="3.51906">
        <ele>1052.6193815188</ele>
        <time>2015-05-31T17:21:36Z</time>
      </trkpt>
      <trkpt lat="44.01792" lon="3.51913">
        <ele>1051.6255488305</ele>
        <time>2015-05-31T17:21:41Z</time>
      </trkpt>
      <trkpt lat="44.01798" lon="3.51919">
        <ele>1051.6255488305</ele>
        <time>2015-05-31T17:21:46Z</time>
      </trkpt>
      <trkpt lat="44.01803" lon="3.51923">
        <ele>1050.5227726472</ele>
        <time>2015-05-31T17:21:51Z</time>
      </trkpt>
      <trkpt lat="44.01807" lon="3.51927">
        <ele>1050.5227726472</ele>
        <time>2015-05-31T17:21:56Z</time>
      </trkpt>
      <trkpt lat="44.01811" lon="3.5193">
        <ele>1049.4055308117</ele>
        <time>2015-05-31T17:22:01Z</time>
      </trkpt>
      <trkpt lat="44.01818" lon="3.51935">
        <ele>1049.4055308117</ele>
        <time>2015-05-31T17:22:06Z</time>
      </trkpt>
      <trkpt lat="44.01825" lon="3.51942">
        <ele>1048.2748480472</ele>
        <time>2015-05-31T17:22:11Z</time>
      </trkpt>
      <trkpt lat="44.01831" lon="3.51944">
        <ele>1048.2748480472</ele>
        <time>2015-05-31T17:22:16Z</time>
      </trkpt>
      <trkpt lat="44.01839" lon="3.51947">
        <ele>1047.1460427956</ele>
        <time>2015-05-31T17:22:21Z</time>
      </trkpt>
      <trkpt lat="44.01845" lon="3.51954">
        <ele>1047.1460427956</ele>
        <time>2015-05-31T17:22:26Z</time>
      </trkpt>
      <trkpt lat="44.01848" lon="3.51957">
        <ele>1046.1052852562</ele>
        <time>2015-05-31T17:22:31Z</time>
      </trkpt>
      <trkpt lat="44.01855" lon="3.51958">
        <ele>1046.1052852562</ele>
        <time>2015-05-31T17:22:36Z</time>
      </trkpt>
      <trkpt lat="44.01857" lon="3.51961">
        <ele>1045.2609242667</ele>
        <time>2015-05-31T17:22:41Z</time>
      </trkpt>
      <trkpt lat="44.01867" lon="3.51965">
        <ele>1044.5398055171</ele>
        <time>2015-05-31T17:22:46Z</time>
      </trkpt>
      <trkpt lat="44.01872" lon="3.51966">
        <ele>1044.5398055171</ele>
        <time>2015-05-31T17:22:51Z</time>
      </trkpt>
      <trkpt lat="44.01876" lon="3.51969">
        <ele>1044.0178622163</ele>
        <time>2015-05-31T17:22:56Z</time>
      </trkpt>
      <trkpt lat="44.01881" lon="3.5197">
        <ele>1044.0178622163</ele>
        <time>2015-05-31T17:23:01Z</time>
      </trkpt>
      <trkpt lat="44.01885" lon="3.51973">
        <ele>1043.7216144331</ele>
        <time>2015-05-31T17:23:12Z</time>
      </trkpt>
      <trkpt lat="44.0192" lon="3.51991">
        <ele>1043.6749677862</ele>
        <time>2015-05-31T17:23:31Z</time>
      </trkpt>
      <trkpt lat="44.01925" lon="3.51996">
        <ele>1043.6749677862</ele>
        <time>2015-05-31T17:23:36Z</time>
      </trkpt>
      <trkpt lat="44.01934" lon="3.52">
        <ele>1043.9425829212</ele>
        <time>2015-05-31T17:23:41Z</time>
      </trkpt>
      <trkpt lat="44.01941" lon="3.52006">
        <ele>1043.9425829212</ele>
        <time>2015-05-31T17:23:46Z</time>
      </trkpt>
      <trkpt lat="44.01949" lon="3.52008">
        <ele>1044.3673124585</ele>
        <time>2015-05-31T17:23:51Z</time>
      </trkpt>
      <trkpt lat="44.01956" lon="3.5201">
        <ele>1044.3673124585</ele>
        <time>2015-05-31T17:23:56Z</time>
      </trkpt>
      <trkpt lat="44.01961" lon="3.52013">
        <ele>1044.8463489534</ele>
        <time>2015-05-31T17:24:01Z</time>
      </trkpt>
      <trkpt lat="44.01966" lon="3.52014">
        <ele>1044.8463489534</ele>
        <time>2015-05-31T17:24:06Z</time>
      </trkpt>
      <trkpt lat="44.01973" lon="3.52017">
        <ele>1045.3995907135</ele>
        <time>2015-05-31T17:24:12Z</time>
      </trkpt>
      <trkpt lat="44.02014" lon="3.52035">
        <ele>1045.5841402485</ele>
        <time>2015-05-31T17:24:35Z</time>
      </trkpt>
      <trkpt lat="44.02051" lon="3.52044">
        <ele>1045.6680332168</ele>
        <time>2015-05-31T17:25:36Z</time>
      </trkpt>
      <trkpt lat="44.02064" lon="3.52043">
        <ele>1046.0008274281</ele>
        <time>2015-05-31T17:25:41Z</time>
      </trkpt>
      <trkpt lat="44.02078" lon="3.52044">
        <ele>1046.4734314575</ele>
        <time>2015-05-31T17:25:46Z</time>
      </trkpt>
      <trkpt lat="44.02083" lon="3.52043">
        <ele>1046.4734314575</ele>
        <time>2015-05-31T17:25:51Z</time>
      </trkpt>
      <trkpt lat="44.0209" lon="3.52042">
        <ele>1047.0709114292</ele>
        <time>2015-05-31T17:25:56Z</time>
      </trkpt>
      <trkpt lat="44.02098" lon="3.52043">
        <ele>1047.0709114292</ele>
        <time>2015-05-31T17:26:01Z</time>
      </trkpt>
      <trkpt lat="44.02106" lon="3.52047">
        <ele>1047.5053463619</ele>
        <time>2015-05-31T17:26:06Z</time>
      </trkpt>
      <trkpt lat="44.02113" lon="3.52049">
        <ele>1047.5053463619</ele>
        <time>2015-05-31T17:26:11Z</time>
      </trkpt>
      <trkpt lat="44.0212" lon="3.52053">
        <ele>1047.6546191577</ele>
        <time>2015-05-31T17:26:16Z</time>
      </trkpt>
      <trkpt lat="44.02125" lon="3.52059">
        <ele>1047.6546191577</ele>
        <time>2015-05-31T17:26:21Z</time>
      </trkpt>
      <trkpt lat="44.02128" lon="3.52062">
        <ele>1047.7523411926</ele>
        <time>2015-05-31T17:26:26Z</time>
      </trkpt>
      <trkpt lat="44.02131" lon="3.52066">
        <ele>1047.7523411926</ele>
        <time>2015-05-31T17:26:31Z</time>
      </trkpt>
      <trkpt lat="44.02134" lon="3.52074">
        <ele>1047.8134475431</ele>
        <time>2015-05-31T17:26:36Z</time>
      </trkpt>
      <trkpt lat="44.02137" lon="3.52082">
        <ele>1047.8134475431</ele>
        <time>2015-05-31T17:26:41Z</time>
      </trkpt>
      <trkpt lat="44.02138" lon="3.52089">
        <ele>1047.8663886829</ele>
        <time>2015-05-31T17:26:46Z</time>
      </trkpt>
      <trkpt lat="44.02142" lon="3.52094">
        <ele>1047.8663886829</ele>
        <time>2015-05-31T17:26:51Z</time>
      </trkpt>
      <trkpt lat="44.02146" lon="3.521">
        <ele>1047.9088263768</ele>
        <time>2015-05-31T17:26:56Z</time>
      </trkpt>
      <trkpt lat="44.0215" lon="3.52106">
        <ele>1047.9088263768</ele>
        <time>2015-05-31T17:27:01Z</time>
      </trkpt>
      <trkpt lat="44.02155" lon="3.52112">
        <ele>1047.938725439</ele>
        <time>2015-05-31T17:27:06Z</time>
      </trkpt>
      <trkpt lat="44.02158" lon="3.52118">
        <ele>1047.938725439</ele>
        <time>2015-05-31T17:27:11Z</time>
      </trkpt>
      <trkpt lat="44.02163" lon="3.52126">
        <ele>1047.954337893</ele>
        <time>2015-05-31T17:27:16Z</time>
      </trkpt>
      <trkpt lat="44.02168" lon="3.5214">
        <ele>1047.9830093038</ele>
        <time>2015-05-31T17:27:21Z</time>
      </trkpt>
      <trkpt lat="44.02174" lon="3.52146">
        <ele>1047.9830093038</ele>
        <time>2015-05-31T17:27:26Z</time>
      </trkpt>
      <trkpt lat="44.02179" lon="3.52149">
        <ele>1048.0213203307</ele>
        <time>2015-05-31T17:27:31Z</time>
      </trkpt>
      <trkpt lat="44.02183" lon="3.52151">
        <ele>1048.0213203307</ele>
        <time>2015-05-31T17:27:36Z</time>
      </trkpt>
      <trkpt lat="44.02188" lon="3.52154">
        <ele>1048.1094115753</ele>
        <time>2015-05-31T17:27:41Z</time>
      </trkpt>
      <trkpt lat="44.02194" lon="3.52155">
        <ele>1048.1094115753</ele>
        <time>2015-05-31T17:27:46Z</time>
      </trkpt>
      <trkpt lat="44.02197" lon="3.52159">
        <ele>1048.212381688</ele>
        <time>2015-05-31T17:27:51Z</time>
      </trkpt>
      <trkpt lat="44.02197" lon="3.52161">
        <ele>1048.212381688</ele>
        <time>2015-05-31T17:27:56Z</time>
      </trkpt>
      <trkpt lat="44.02198" lon="3.52166">
        <ele>1048.212381688</ele>
        <time>2015-05-31T17:28:01Z</time>
      </trkpt>
      <trkpt lat="44.022" lon="3.52171">
        <ele>1048.212381688</ele>
        <time>2015-05-31T17:28:06Z</time>
      </trkpt>
      <trkpt lat="44.02204" lon="3.52174">
        <ele>1048.2835416447</ele>
        <time>2015-05-31T17:28:11Z</time>
      </trkpt>
      <trkpt lat="44.02208" lon="3.52182">
        <ele>1048.2835416447</ele>
        <time>2015-05-31T17:28:16Z</time>
      </trkpt>
      <trkpt lat="44.02212" lon="3.52188">
        <ele>1048.3518775403</ele>
        <time>2015-05-31T17:28:21Z</time>
      </trkpt>
      <trkpt lat="44.02219" lon="3.52196">
        <ele>1048.3518775403</ele>
        <time>2015-05-31T17:28:26Z</time>
      </trkpt>
      <trkpt lat="44.0222" lon="3.52203">
        <ele>1048.4155313854</ele>
        <time>2015-05-31T17:28:31Z</time>
      </trkpt>
      <trkpt lat="44.02216" lon="3.52206">
        <ele>1048.4155313854</ele>
        <time>2015-05-31T17:28:36Z</time>
      </trkpt>
      <trkpt lat="44.02215" lon="3.52207">
        <ele>1048.4155313854</ele>
        <time>2015-05-31T17:28:41Z</time>
      </trkpt>
      <trkpt lat="44.02217" lon="3.52208">
        <ele>1048.4155313854</ele>
        <time>2015-05-31T17:28:46Z</time>
      </trkpt>
      <trkpt lat="44.02214" lon="3.52208">
        <ele>1048.5161264535</ele>
        <time>2015-05-31T17:28:51Z</time>
      </trkpt>
      <trkpt lat="44.02212" lon="3.52208">
        <ele>1048.5161264535</ele>
        <time>2015-05-31T17:28:56Z</time>
      </trkpt>
      <trkpt lat="44.02209" lon="3.52208">
        <ele>1048.5161264535</ele>
        <time>2015-05-31T17:29:01Z</time>
      </trkpt>
      <trkpt lat="44.02202" lon="3.5221">
        <ele>1048.6489883157</ele>
        <time>2015-05-31T17:29:06Z</time>
      </trkpt>
      <trkpt lat="44.02196" lon="3.52211">
        <ele>1048.6489883157</ele>
        <time>2015-05-31T17:29:11Z</time>
      </trkpt>
      <trkpt lat="44.0219" lon="3.52218">
        <ele>1048.8962577301</ele>
        <time>2015-05-31T17:29:16Z</time>
      </trkpt>
      <trkpt lat="44.02184" lon="3.52219">
        <ele>1048.8962577301</ele>
        <time>2015-05-31T17:29:21Z</time>
      </trkpt>
      <trkpt lat="44.02179" lon="3.52225">
        <ele>1049.1176481472</ele>
        <time>2015-05-31T17:29:26Z</time>
      </trkpt>
      <trkpt lat="44.02175" lon="3.52229">
        <ele>1049.1176481472</ele>
        <time>2015-05-31T17:29:31Z</time>
      </trkpt>
      <trkpt lat="44.02172" lon="3.52232">
        <ele>1049.1176481472</ele>
        <time>2015-05-31T17:29:36Z</time>
      </trkpt>
      <trkpt lat="44.02164" lon="3.5223">
        <ele>1049.1401105856</ele>
        <time>2015-05-31T17:29:41Z</time>
      </trkpt>
      <trkpt lat="44.02158" lon="3.52229">
        <ele>1049.1401105856</ele>
        <time>2015-05-31T17:29:46Z</time>
      </trkpt>
      <trkpt lat="44.02153" lon="3.52232">
        <ele>1049.1498242555</ele>
        <time>2015-05-31T17:29:51Z</time>
      </trkpt>
      <trkpt lat="44.02147" lon="3.52237">
        <ele>1049.1498242555</ele>
        <time>2015-05-31T17:29:56Z</time>
      </trkpt>
      <trkpt lat="44.02143" lon="3.52241">
        <ele>1049.1464831985</ele>
        <time>2015-05-31T17:30:01Z</time>
      </trkpt>
      <trkpt lat="44.02136" lon="3.52244">
        <ele>1049.1464831985</ele>
        <time>2015-05-31T17:30:06Z</time>
      </trkpt>
      <trkpt lat="44.02129" lon="3.52249">
        <ele>1049.2452159871</ele>
        <time>2015-05-31T17:30:11Z</time>
      </trkpt>
      <trkpt lat="44.02128" lon="3.52254">
        <ele>1049.2452159871</ele>
        <time>2015-05-31T17:30:16Z</time>
      </trkpt>
      <trkpt lat="44.02119" lon="3.52255">
        <ele>1049.5380804565</ele>
        <time>2015-05-31T17:30:31Z</time>
      </trkpt>
      <trkpt lat="44.02114" lon="3.52256">
        <ele>1049.5380804565</ele>
        <time>2015-05-31T17:30:36Z</time>
      </trkpt>
      <trkpt lat="44.02107" lon="3.52256">
        <ele>1049.807275712</ele>
        <time>2015-05-31T17:30:41Z</time>
      </trkpt>
      <trkpt lat="44.02104" lon="3.5226">
        <ele>1049.807275712</ele>
        <time>2015-05-31T17:30:46Z</time>
      </trkpt>
      <trkpt lat="44.02104" lon="3.52261">
        <ele>1049.807275712</ele>
        <time>2015-05-31T17:30:51Z</time>
      </trkpt>
      <trkpt lat="44.02101" lon="3.52262">
        <ele>1049.807275712</ele>
        <time>2015-05-31T17:30:56Z</time>
      </trkpt>
      <trkpt lat="44.02095" lon="3.52259">
        <ele>1049.735857387</ele>
        <time>2015-05-31T17:31:01Z</time>
      </trkpt>
      <trkpt lat="44.02093" lon="3.52257">
        <ele>1049.735857387</ele>
        <time>2015-05-31T17:31:06Z</time>
      </trkpt>
      <trkpt lat="44.02081" lon="3.52264">
        <ele>1049.4347072465</ele>
        <time>2015-05-31T17:31:16Z</time>
      </trkpt>
      <trkpt lat="44.02077" lon="3.52266">
        <ele>1049.4347072465</ele>
        <time>2015-05-31T17:31:21Z</time>
      </trkpt>
      <trkpt lat="44.02071" lon="3.52264">
        <ele>1049.036101517</ele>
        <time>2015-05-31T17:31:26Z</time>
      </trkpt>
      <trkpt lat="44.02061" lon="3.52262">
        <ele>1048.5908853144</ele>
        <time>2015-05-31T17:31:31Z</time>
      </trkpt>
      <trkpt lat="44.02052" lon="3.5226">
        <ele>1048.1175391296</ele>
        <time>2015-05-31T17:31:36Z</time>
      </trkpt>
      <trkpt lat="44.02047" lon="3.5226">
        <ele>1048.1175391296</ele>
        <time>2015-05-31T17:31:41Z</time>
      </trkpt>
      <trkpt lat="44.02041" lon="3.52262">
        <ele>1047.5468533641</ele>
        <time>2015-05-31T17:31:46Z</time>
      </trkpt>
      <trkpt lat="44.02037" lon="3.52269">
        <ele>1047.5468533641</ele>
        <time>2015-05-31T17:31:51Z</time>
      </trkpt>
      <trkpt lat="44.02034" lon="3.52272">
        <ele>1046.7573792834</ele>
        <time>2015-05-31T17:31:56Z</time>
      </trkpt>
      <trkpt lat="44.02028" lon="3.52271">
        <ele>1046.7573792834</ele>
        <time>2015-05-31T17:32:01Z</time>
      </trkpt>
      <trkpt lat="44.02026" lon="3.52269">
        <ele>1046.7573792834</ele>
        <time>2015-05-31T17:32:06Z</time>
      </trkpt>
      <trkpt lat="44.02018" lon="3.52267">
        <ele>1045.9975222932</ele>
        <time>2015-05-31T17:32:11Z</time>
      </trkpt>
      <trkpt lat="44.02011" lon="3.52267">
        <ele>1045.9975222932</ele>
        <time>2015-05-31T17:32:16Z</time>
      </trkpt>
      <trkpt lat="44.02005" lon="3.52267">
        <ele>1044.9641786386</ele>
        <time>2015-05-31T17:32:21Z</time>
      </trkpt>
      <trkpt lat="44.01999" lon="3.52269">
        <ele>1044.9641786386</ele>
        <time>2015-05-31T17:32:26Z</time>
      </trkpt>
      <trkpt lat="44.01991" lon="3.52269">
        <ele>1043.7952243837</ele>
        <time>2015-05-31T17:32:31Z</time>
      </trkpt>
      <trkpt lat="44.01986" lon="3.52272">
        <ele>1043.7952243837</ele>
        <time>2015-05-31T17:32:36Z</time>
      </trkpt>
      <trkpt lat="44.01982" lon="3.52273">
        <ele>1042.4746917385</ele>
        <time>2015-05-31T17:32:41Z</time>
      </trkpt>
      <trkpt lat="44.0198" lon="3.52276">
        <ele>1042.4746917385</ele>
        <time>2015-05-31T17:32:46Z</time>
      </trkpt>
      <trkpt lat="44.01976" lon="3.52277">
        <ele>1042.4746917385</ele>
        <time>2015-05-31T17:32:55Z</time>
      </trkpt>
      <trkpt lat="44.01943" lon="3.5229">
        <ele>1040.5847044911</ele>
        <time>2015-05-31T17:33:18Z</time>
      </trkpt>
      <trkpt lat="44.0194" lon="3.5229">
        <ele>1040.5847044911</ele>
        <time>2015-05-31T17:33:21Z</time>
      </trkpt>
      <trkpt lat="44.01938" lon="3.52285">
        <ele>1040.5847044911</ele>
        <time>2015-05-31T17:33:26Z</time>
      </trkpt>
      <trkpt lat="44.01935" lon="3.52284">
        <ele>1038.7916857108</ele>
        <time>2015-05-31T17:33:31Z</time>
      </trkpt>
      <trkpt lat="44.01933" lon="3.52282">
        <ele>1038.7916857108</ele>
        <time>2015-05-31T17:33:36Z</time>
      </trkpt>
      <trkpt lat="44.01876" lon="3.52277">
        <ele>1037.4390023332</ele>
        <time>2015-05-31T17:34:27Z</time>
      </trkpt>
      <trkpt lat="44.01871" lon="3.52277">
        <ele>1037.4390023332</ele>
        <time>2015-05-31T17:34:31Z</time>
      </trkpt>
      <trkpt lat="44.01868" lon="3.52278">
        <ele>1037.4390023332</ele>
        <time>2015-05-31T17:34:36Z</time>
      </trkpt>
      <trkpt lat="44.0186" lon="3.52276">
        <ele>1036.3103228933</ele>
        <time>2015-05-31T17:34:41Z</time>
      </trkpt>
      <trkpt lat="44.01837" lon="3.52278">
        <ele>1035.2910087916</ele>
        <time>2015-05-31T17:35:03Z</time>
      </trkpt>
      <trkpt lat="44.01794" lon="3.5226">
        <ele>1034.3897816865</ele>
        <time>2015-05-31T17:35:31Z</time>
      </trkpt>
      <trkpt lat="44.01783" lon="3.52261">
        <ele>1033.5711108056</ele>
        <time>2015-05-31T17:35:41Z</time>
      </trkpt>
      <trkpt lat="44.0178" lon="3.5226">
        <ele>1033.5711108056</ele>
        <time>2015-05-31T17:35:53Z</time>
      </trkpt>
      <trkpt lat="44.01723" lon="3.52274">
        <ele>1032.2397596397</ele>
        <time>2015-05-31T17:36:31Z</time>
      </trkpt>
      <trkpt lat="44.01713" lon="3.52276">
        <ele>1030.9264354923</ele>
        <time>2015-05-31T17:36:36Z</time>
      </trkpt>
      <trkpt lat="44.01708" lon="3.5228">
        <ele>1030.9264354923</ele>
        <time>2015-05-31T17:36:44Z</time>
      </trkpt>
      <trkpt lat="44.01697" lon="3.52278">
        <ele>1029.5174851897</ele>
        <time>2015-05-31T17:36:48Z</time>
      </trkpt>
      <trkpt lat="44.01647" lon="3.52282">
        <ele>1027.5187097508</ele>
        <time>2015-05-31T17:37:31Z</time>
      </trkpt>
      <trkpt lat="44.0164" lon="3.52282">
        <ele>1027.5187097508</ele>
        <time>2015-05-31T17:37:43Z</time>
      </trkpt>
      <trkpt lat="44.01634" lon="3.52284">
        <ele>1025.641099931</ele>
        <time>2015-05-31T17:38:00Z</time>
      </trkpt>
      <trkpt lat="44.01622" lon="3.52286">
        <ele>1023.9521466071</ele>
        <time>2015-05-31T17:38:01Z</time>
      </trkpt>
      <trkpt lat="44.01605" lon="3.52282">
        <ele>1022.2399606854</ele>
        <time>2015-05-31T17:38:06Z</time>
      </trkpt>
      <trkpt lat="44.01603" lon="3.52283">
        <ele>1022.2399606854</ele>
        <time>2015-05-31T17:38:11Z</time>
      </trkpt>
      <trkpt lat="44.01597" lon="3.52282">
        <ele>1022.2399606854</ele>
        <time>2015-05-31T17:38:16Z</time>
      </trkpt>
      <trkpt lat="44.01592" lon="3.52284">
        <ele>1020.4523069399</ele>
        <time>2015-05-31T17:38:21Z</time>
      </trkpt>
      <trkpt lat="44.01583" lon="3.52286">
        <ele>1020.4523069399</ele>
        <time>2015-05-31T17:38:26Z</time>
      </trkpt>
      <trkpt lat="44.01577" lon="3.52293">
        <ele>1018.3247390342</ele>
        <time>2015-05-31T17:38:31Z</time>
      </trkpt>
      <trkpt lat="44.0157" lon="3.52296">
        <ele>1018.3247390342</ele>
        <time>2015-05-31T17:38:36Z</time>
      </trkpt>
      <trkpt lat="44.01565" lon="3.52298">
        <ele>1015.8869024859</ele>
        <time>2015-05-31T17:38:41Z</time>
      </trkpt>
      <trkpt lat="44.01559" lon="3.52302">
        <ele>1015.8869024859</ele>
        <time>2015-05-31T17:38:46Z</time>
      </trkpt>
      <trkpt lat="44.01559" lon="3.52302">
        <ele>1015.8869024859</ele>
        <time>2015-05-31T17:38:51Z</time>
      </trkpt>
      <trkpt lat="44.01556" lon="3.52304">
        <ele>1013.2823188</ele>
        <time>2015-05-31T17:38:56Z</time>
      </trkpt>
      <trkpt lat="44.01551" lon="3.52307">
        <ele>1013.2823188</ele>
        <time>2015-05-31T17:39:01Z</time>
      </trkpt>
      <trkpt lat="44.01523" lon="3.5231">
        <ele>1010.2696314861</ele>
        <time>2015-05-31T17:39:31Z</time>
      </trkpt>
      <trkpt lat="44.01521" lon="3.52312">
        <ele>1010.2696314861</ele>
        <time>2015-05-31T17:39:36Z</time>
      </trkpt>
      <trkpt lat="44.01516" lon="3.52315">
        <ele>1010.2696314861</ele>
        <time>2015-05-31T17:39:41Z</time>
      </trkpt>
      <trkpt lat="44.01513" lon="3.52317">
        <ele>1007.231502795</ele>
        <time>2015-05-31T17:39:46Z</time>
      </trkpt>
      <trkpt lat="44.01511" lon="3.52317">
        <ele>1007.231502795</ele>
        <time>2015-05-31T17:39:51Z</time>
      </trkpt>
      <trkpt lat="44.01508" lon="3.52321">
        <ele>1007.231502795</ele>
        <time>2015-05-31T17:40:01Z</time>
      </trkpt>
      <trkpt lat="44.01509" lon="3.52326">
        <ele>1004.3494904214</ele>
        <time>2015-05-31T17:40:06Z</time>
      </trkpt>
      <trkpt lat="44.01504" lon="3.5233">
        <ele>1004.3494904214</ele>
        <time>2015-05-31T17:40:11Z</time>
      </trkpt>
      <trkpt lat="44.015" lon="3.5233">
        <ele>1001.7191802299</ele>
        <time>2015-05-31T17:40:16Z</time>
      </trkpt>
      <trkpt lat="44.01494" lon="3.52331">
        <ele>1001.7191802299</ele>
        <time>2015-05-31T17:40:21Z</time>
      </trkpt>
      <trkpt lat="44.01489" lon="3.52331">
        <ele>999.32740409098</ele>
        <time>2015-05-31T17:40:26Z</time>
      </trkpt>
      <trkpt lat="44.01487" lon="3.52334">
        <ele>999.32740409098</ele>
        <time>2015-05-31T17:40:31Z</time>
      </trkpt>
      <trkpt lat="44.01487" lon="3.52333">
        <ele>999.32740409098</ele>
        <time>2015-05-31T17:40:36Z</time>
      </trkpt>
      <trkpt lat="44.01478" lon="3.52337">
        <ele>996.93056065773</ele>
        <time>2015-05-31T17:41:01Z</time>
      </trkpt>
      <trkpt lat="44.01472" lon="3.52337">
        <ele>996.93056065773</ele>
        <time>2015-05-31T17:41:06Z</time>
      </trkpt>
      <trkpt lat="44.01467" lon="3.52336">
        <ele>994.85042401178</ele>
        <time>2015-05-31T17:41:11Z</time>
      </trkpt>
      <trkpt lat="44.01463" lon="3.52336">
        <ele>994.85042401178</ele>
        <time>2015-05-31T17:41:16Z</time>
      </trkpt>
      <trkpt lat="44.01456" lon="3.52339">
        <ele>993.02380831791</ele>
        <time>2015-05-31T17:41:21Z</time>
      </trkpt>
      <trkpt lat="44.01452" lon="3.52341">
        <ele>993.02380831791</ele>
        <time>2015-05-31T17:41:26Z</time>
      </trkpt>
      <trkpt lat="44.01449" lon="3.52342">
        <ele>993.02380831791</ele>
        <time>2015-05-31T17:41:31Z</time>
      </trkpt>
      <trkpt lat="44.01446" lon="3.52344">
        <ele>991.47777072541</ele>
        <time>2015-05-31T17:41:36Z</time>
      </trkpt>
      <trkpt lat="44.01442" lon="3.52343">
        <ele>991.47777072541</ele>
        <time>2015-05-31T17:41:41Z</time>
      </trkpt>
      <trkpt lat="44.01442" lon="3.52343">
        <ele>991.47777072541</ele>
        <time>2015-05-31T17:41:46Z</time>
      </trkpt>
      <trkpt lat="44.01441" lon="3.52345">
        <ele>991.47777072541</ele>
        <time>2015-05-31T17:42:01Z</time>
      </trkpt>
      <trkpt lat="44.01436" lon="3.52347">
        <ele>990.1211548941</ele>
        <time>2015-05-31T17:42:06Z</time>
      </trkpt>
      <trkpt lat="44.0143" lon="3.52348">
        <ele>990.1211548941</ele>
        <time>2015-05-31T17:42:11Z</time>
      </trkpt>
      <trkpt lat="44.0143" lon="3.52354">
        <ele>988.98411501109</ele>
        <time>2015-05-31T17:42:16Z</time>
      </trkpt>
      <trkpt lat="44.01431" lon="3.52356">
        <ele>988.98411501109</ele>
        <time>2015-05-31T17:42:21Z</time>
      </trkpt>
      <trkpt lat="44.01429" lon="3.52356">
        <ele>988.98411501109</ele>
        <time>2015-05-31T17:42:26Z</time>
      </trkpt>
      <trkpt lat="44.01424" lon="3.52352">
        <ele>988.06501707141</ele>
        <time>2015-05-31T17:42:31Z</time>
      </trkpt>
      <trkpt lat="44.0142" lon="3.52352">
        <ele>988.06501707141</ele>
        <time>2015-05-31T17:42:36Z</time>
      </trkpt>
      <trkpt lat="44.0142" lon="3.52352">
        <ele>988.06501707141</ele>
        <time>2015-05-31T17:42:41Z</time>
      </trkpt>
      <trkpt lat="44.01418" lon="3.52352">
        <ele>988.06501707141</ele>
        <time>2015-05-31T17:42:46Z</time>
      </trkpt>
      <trkpt lat="44.01416" lon="3.5235">
        <ele>988.06501707141</ele>
        <time>2015-05-31T17:43:00Z</time>
      </trkpt>
      <trkpt lat="44.01392" lon="3.52327">
        <ele>987.01574351724</ele>
        <time>2015-05-31T17:43:41Z</time>
      </trkpt>
      <trkpt lat="44.01388" lon="3.52326">
        <ele>987.01574351724</ele>
        <time>2015-05-31T17:43:46Z</time>
      </trkpt>
      <trkpt lat="44.01383" lon="3.52327">
        <ele>986.17691092507</ele>
        <time>2015-05-31T17:43:51Z</time>
      </trkpt>
      <trkpt lat="44.01378" lon="3.52327">
        <ele>986.17691092507</ele>
        <time>2015-05-31T17:43:56Z</time>
      </trkpt>
      <trkpt lat="44.01373" lon="3.52327">
        <ele>985.5175533851</ele>
        <time>2015-05-31T17:44:01Z</time>
      </trkpt>
      <trkpt lat="44.01371" lon="3.52332">
        <ele>985.5175533851</ele>
        <time>2015-05-31T17:44:06Z</time>
      </trkpt>
      <trkpt lat="44.01368" lon="3.52334">
        <ele>985.5175533851</ele>
        <time>2015-05-31T17:44:11Z</time>
      </trkpt>
      <trkpt lat="44.01365" lon="3.52337">
        <ele>985.03720620424</ele>
        <time>2015-05-31T17:44:16Z</time>
      </trkpt>
      <trkpt lat="44.01361" lon="3.5234">
        <ele>985.03720620424</ele>
        <time>2015-05-31T17:44:21Z</time>
      </trkpt>
      <trkpt lat="44.01355" lon="3.52345">
        <ele>984.61956737029</ele>
        <time>2015-05-31T17:44:26Z</time>
      </trkpt>
      <trkpt lat="44.01354" lon="3.52345">
        <ele>984.61956737029</ele>
        <time>2015-05-31T17:44:31Z</time>
      </trkpt>
      <trkpt lat="44.01351" lon="3.52351">
        <ele>984.61956737029</ele>
        <time>2015-05-31T17:45:01Z</time>
      </trkpt>
      <trkpt lat="44.01348" lon="3.52355">
        <ele>983.00374303069</ele>
        <time>2015-05-31T17:45:06Z</time>
      </trkpt>
      <trkpt lat="44.01345" lon="3.5236">
        <ele>983.00374303069</ele>
        <time>2015-05-31T17:45:11Z</time>
      </trkpt>
      <trkpt lat="44.01343" lon="3.52364">
        <ele>983.00374303069</ele>
        <time>2015-05-31T17:45:16Z</time>
      </trkpt>
      <trkpt lat="44.01343" lon="3.52363">
        <ele>983.00374303069</ele>
        <time>2015-05-31T17:45:21Z</time>
      </trkpt>
      <trkpt lat="44.01342" lon="3.52363">
        <ele>983.00374303069</ele>
        <time>2015-05-31T17:45:26Z</time>
      </trkpt>
      <trkpt lat="44.01332" lon="3.52371">
        <ele>981.57553184664</ele>
        <time>2015-05-31T17:45:51Z</time>
      </trkpt>
      <trkpt lat="44.01328" lon="3.52376">
        <ele>981.57553184664</ele>
        <time>2015-05-31T17:45:56Z</time>
      </trkpt>
      <trkpt lat="44.01326" lon="3.5238">
        <ele>981.57553184664</ele>
        <time>2015-05-31T17:46:01Z</time>
      </trkpt>
      <trkpt lat="44.01323" lon="3.52384">
        <ele>980.29252960922</ele>
        <time>2015-05-31T17:46:06Z</time>
      </trkpt>
      <trkpt lat="44.0132" lon="3.52386">
        <ele>980.29252960922</ele>
        <time>2015-05-31T17:46:11Z</time>
      </trkpt>
      <trkpt lat="44.01319" lon="3.52391">
        <ele>980.29252960922</ele>
        <time>2015-05-31T17:46:16Z</time>
      </trkpt>
      <trkpt lat="44.01318" lon="3.52394">
        <ele>979.20145785346</ele>
        <time>2015-05-31T17:46:21Z</time>
      </trkpt>
      <trkpt lat="44.01316" lon="3.52395">
        <ele>979.20145785346</ele>
        <time>2015-05-31T17:46:26Z</time>
      </trkpt>
      <trkpt lat="44.0131" lon="3.52398">
        <ele>979.20145785346</ele>
        <time>2015-05-31T17:46:31Z</time>
      </trkpt>
      <trkpt lat="44.01309" lon="3.52403">
        <ele>978.25855685309</ele>
        <time>2015-05-31T17:46:36Z</time>
      </trkpt>
      <trkpt lat="44.01307" lon="3.52406">
        <ele>978.25855685309</ele>
        <time>2015-05-31T17:46:41Z</time>
      </trkpt>
      <trkpt lat="44.01305" lon="3.52409">
        <ele>978.25855685309</ele>
        <time>2015-05-31T17:46:46Z</time>
      </trkpt>
      <trkpt lat="44.01303" lon="3.52414">
        <ele>977.45164975784</ele>
        <time>2015-05-31T17:46:51Z</time>
      </trkpt>
      <trkpt lat="44.01301" lon="3.52418">
        <ele>977.45164975784</ele>
        <time>2015-05-31T17:46:56Z</time>
      </trkpt>
      <trkpt lat="44.01298" lon="3.52422">
        <ele>977.45164975784</ele>
        <time>2015-05-31T17:47:01Z</time>
      </trkpt>
      <trkpt lat="44.01293" lon="3.52425">
        <ele>976.76904116605</ele>
        <time>2015-05-31T17:47:06Z</time>
      </trkpt>
      <trkpt lat="44.01291" lon="3.52424">
        <ele>976.76904116605</ele>
        <time>2015-05-31T17:47:11Z</time>
      </trkpt>
      <trkpt lat="44.01288" lon="3.52425">
        <ele>976.76904116605</ele>
        <time>2015-05-31T17:47:16Z</time>
      </trkpt>
      <trkpt lat="44.01286" lon="3.52425">
        <ele>976.76904116605</ele>
        <time>2015-05-31T17:47:21Z</time>
      </trkpt>
      <trkpt lat="44.01281" lon="3.52419">
        <ele>976.0698217806</ele>
        <time>2015-05-31T17:47:36Z</time>
      </trkpt>
      <trkpt lat="44.01277" lon="3.52418">
        <ele>976.0698217806</ele>
        <time>2015-05-31T17:47:41Z</time>
      </trkpt>
      <trkpt lat="44.01276" lon="3.52416">
        <ele>976.0698217806</ele>
        <time>2015-05-31T17:47:46Z</time>
      </trkpt>
      <trkpt lat="44.01273" lon="3.5242">
        <ele>975.41080780318</ele>
        <time>2015-05-31T17:47:51Z</time>
      </trkpt>
      <trkpt lat="44.01272" lon="3.52421">
        <ele>975.41080780318</ele>
        <time>2015-05-31T17:47:56Z</time>
      </trkpt>
      <trkpt lat="44.01269" lon="3.52423">
        <ele>975.41080780318</ele>
        <time>2015-05-31T17:48:01Z</time>
      </trkpt>
      <trkpt lat="44.01262" lon="3.52426">
        <ele>974.84451987943</ele>
        <time>2015-05-31T17:48:06Z</time>
      </trkpt>
      <trkpt lat="44.0126" lon="3.52426">
        <ele>974.84451987943</ele>
        <time>2015-05-31T17:48:11Z</time>
      </trkpt>
      <trkpt lat="44.01255" lon="3.52424">
        <ele>974.84451987943</ele>
        <time>2015-05-31T17:48:16Z</time>
      </trkpt>
      <trkpt lat="44.01252" lon="3.52424">
        <ele>974.34730328281</ele>
        <time>2015-05-31T17:48:21Z</time>
      </trkpt>
      <trkpt lat="44.0125" lon="3.52422">
        <ele>974.34730328281</ele>
        <time>2015-05-31T17:48:29Z</time>
      </trkpt>
      <trkpt lat="44.01237" lon="3.52424">
        <ele>973.94028648489</ele>
        <time>2015-05-31T17:48:51Z</time>
      </trkpt>
      <trkpt lat="44.01223" lon="3.52422">
        <ele>973.67162865488</ele>
        <time>2015-05-31T17:49:11Z</time>
      </trkpt>
      <trkpt lat="44.0122" lon="3.52417">
        <ele>973.67162865488</ele>
        <time>2015-05-31T17:49:16Z</time>
      </trkpt>
      <trkpt lat="44.01218" lon="3.52417">
        <ele>973.67162865488</ele>
        <time>2015-05-31T17:49:21Z</time>
      </trkpt>
      <trkpt lat="44.01212" lon="3.52414">
        <ele>973.55676234726</ele>
        <time>2015-05-31T17:49:26Z</time>
      </trkpt>
      <trkpt lat="44.01208" lon="3.52406">
        <ele>973.55676234726</ele>
        <time>2015-05-31T17:49:33Z</time>
      </trkpt>
      <trkpt lat="44.01204" lon="3.524">
        <ele>973.50870682992</ele>
        <time>2015-05-31T17:49:47Z</time>
      </trkpt>
      <trkpt lat="44.01207" lon="3.52407">
        <ele>973.50870682992</ele>
        <time>2015-05-31T17:49:51Z</time>
      </trkpt>
      <trkpt lat="44.01203" lon="3.52408">
        <ele>973.48995474932</ele>
        <time>2015-05-31T17:49:56Z</time>
      </trkpt>
      <trkpt lat="44.01207" lon="3.52403">
        <ele>973.48995474932</ele>
        <time>2015-05-31T17:50:06Z</time>
      </trkpt>
      <trkpt lat="44.01203" lon="3.52399">
        <ele>973.30719534427</ele>
        <time>2015-05-31T17:50:11Z</time>
      </trkpt>
      <trkpt lat="44.01198" lon="3.52396">
        <ele>973.30719534427</ele>
        <time>2015-05-31T17:50:16Z</time>
      </trkpt>
      <trkpt lat="44.01194" lon="3.52393">
        <ele>973.11328726632</ele>
        <time>2015-05-31T17:50:21Z</time>
      </trkpt>
      <trkpt lat="44.01185" lon="3.52389">
        <ele>972.96348446901</ele>
        <time>2015-05-31T17:50:26Z</time>
      </trkpt>
      <trkpt lat="44.01179" lon="3.52389">
        <ele>972.96348446901</ele>
        <time>2015-05-31T17:50:31Z</time>
      </trkpt>
      <trkpt lat="44.01176" lon="3.52392">
        <ele>972.96348446901</ele>
        <time>2015-05-31T17:50:36Z</time>
      </trkpt>
      <trkpt lat="44.01172" lon="3.5239">
        <ele>972.7648121977</ele>
        <time>2015-05-31T17:50:41Z</time>
      </trkpt>
      <trkpt lat="44.0117" lon="3.52393">
        <ele>972.7648121977</ele>
        <time>2015-05-31T17:50:46Z</time>
      </trkpt>
      <trkpt lat="44.01166" lon="3.52392">
        <ele>972.7648121977</ele>
        <time>2015-05-31T17:50:51Z</time>
      </trkpt>
      <trkpt lat="44.0116" lon="3.52388">
        <ele>972.38809875368</ele>
        <time>2015-05-31T17:50:56Z</time>
      </trkpt>
      <trkpt lat="44.01159" lon="3.52385">
        <ele>972.38809875368</ele>
        <time>2015-05-31T17:51:01Z</time>
      </trkpt>
      <trkpt lat="44.01143" lon="3.52377">
        <ele>971.39718810611</ele>
        <time>2015-05-31T17:51:41Z</time>
      </trkpt>
      <trkpt lat="44.01136" lon="3.52376">
        <ele>971.39718810611</ele>
        <time>2015-05-31T17:51:46Z</time>
      </trkpt>
      <trkpt lat="44.01131" lon="3.52376">
        <ele>970.45618243664</ele>
        <time>2015-05-31T17:51:51Z</time>
      </trkpt>
      <trkpt lat="44.01124" lon="3.52379">
        <ele>970.45618243664</ele>
        <time>2015-05-31T17:51:57Z</time>
      </trkpt>
      <trkpt lat="44.0112" lon="3.5238">
        <ele>969.58947553328</ele>
        <time>2015-05-31T17:52:01Z</time>
      </trkpt>
      <trkpt lat="44.01118" lon="3.5238">
        <ele>969.58947553328</ele>
        <time>2015-05-31T17:52:10Z</time>
      </trkpt>
      <trkpt lat="44.01112" lon="3.5238">
        <ele>969.58947553328</ele>
        <time>2015-05-31T17:52:11Z</time>
      </trkpt>
      <trkpt lat="44.01106" lon="3.52384">
        <ele>968.2863183862</ele>
        <time>2015-05-31T17:52:16Z</time>
      </trkpt>
      <trkpt lat="44.01102" lon="3.5239">
        <ele>968.2863183862</ele>
        <time>2015-05-31T17:52:21Z</time>
      </trkpt>
      <trkpt lat="44.01098" lon="3.52394">
        <ele>964.43189866108</ele>
        <time>2015-05-31T17:52:26Z</time>
      </trkpt>
      <trkpt lat="44.01093" lon="3.52394">
        <ele>964.43189866108</ele>
        <time>2015-05-31T17:52:31Z</time>
      </trkpt>
      <trkpt lat="44.01089" lon="3.52394">
        <ele>959.90731783137</ele>
        <time>2015-05-31T17:52:36Z</time>
      </trkpt>
      <trkpt lat="44.01088" lon="3.52398">
        <ele>959.90731783137</ele>
        <time>2015-05-31T17:52:41Z</time>
      </trkpt>
      <trkpt lat="44.01086" lon="3.52403">
        <ele>959.90731783137</ele>
        <time>2015-05-31T17:52:46Z</time>
      </trkpt>
      <trkpt lat="44.01086" lon="3.52408">
        <ele>954.51189791116</ele>
        <time>2015-05-31T17:52:51Z</time>
      </trkpt>
      <trkpt lat="44.01083" lon="3.52413">
        <ele>954.51189791116</ele>
        <time>2015-05-31T17:52:56Z</time>
      </trkpt>
      <trkpt lat="44.0108" lon="3.52412">
        <ele>954.51189791116</ele>
        <time>2015-05-31T17:53:01Z</time>
      </trkpt>
      <trkpt lat="44.01075" lon="3.52412">
        <ele>949.14297758288</ele>
        <time>2015-05-31T17:53:06Z</time>
      </trkpt>
      <trkpt lat="44.01071" lon="3.52415">
        <ele>949.14297758288</ele>
        <time>2015-05-31T17:53:11Z</time>
      </trkpt>
      <trkpt lat="44.01066" lon="3.52414">
        <ele>944.06983638367</ele>
        <time>2015-05-31T17:53:16Z</time>
      </trkpt>
      <trkpt lat="44.01061" lon="3.52412">
        <ele>944.06983638367</ele>
        <time>2015-05-31T17:53:21Z</time>
      </trkpt>
      <trkpt lat="44.01058" lon="3.52414">
        <ele>944.06983638367</ele>
        <time>2015-05-31T17:53:26Z</time>
      </trkpt>
      <trkpt lat="44.01055" lon="3.52419">
        <ele>939.03668944392</ele>
        <time>2015-05-31T17:53:31Z</time>
      </trkpt>
      <trkpt lat="44.0105" lon="3.52423">
        <ele>939.03668944392</ele>
        <time>2015-05-31T17:53:36Z</time>
      </trkpt>
      <trkpt lat="44.01048" lon="3.52424">
        <ele>939.03668944392</ele>
        <time>2015-05-31T17:53:41Z</time>
      </trkpt>
      <trkpt lat="44.01048" lon="3.52424">
        <ele>939.03668944392</ele>
        <time>2015-05-31T17:53:46Z</time>
      </trkpt>
      <trkpt lat="44.01049" lon="3.52423">
        <ele>934.3251367326</ele>
        <time>2015-05-31T17:53:51Z</time>
      </trkpt>
      <trkpt lat="44.01053" lon="3.5242">
        <ele>934.3251367326</ele>
        <time>2015-05-31T17:53:56Z</time>
      </trkpt>
      <trkpt lat="44.01056" lon="3.52415">
        <ele>930.2094841484</ele>
        <time>2015-05-31T17:54:01Z</time>
      </trkpt>
      <trkpt lat="44.01061" lon="3.5241">
        <ele>930.2094841484</ele>
        <time>2015-05-31T17:54:06Z</time>
      </trkpt>
      <trkpt lat="44.01062" lon="3.52405">
        <ele>926.62503530593</ele>
        <time>2015-05-31T17:54:11Z</time>
      </trkpt>
      <trkpt lat="44.01066" lon="3.52401">
        <ele>926.62503530593</ele>
        <time>2015-05-31T17:54:16Z</time>
      </trkpt>
      <trkpt lat="44.01067" lon="3.52397">
        <ele>926.62503530593</ele>
        <time>2015-05-31T17:54:21Z</time>
      </trkpt>
      <trkpt lat="44.01068" lon="3.52392">
        <ele>923.32286211866</ele>
        <time>2015-05-31T17:54:26Z</time>
      </trkpt>
      <trkpt lat="44.0107" lon="3.52386">
        <ele>923.32286211866</ele>
        <time>2015-05-31T17:54:31Z</time>
      </trkpt>
      <trkpt lat="44.01075" lon="3.52382">
        <ele>920.27312799488</ele>
        <time>2015-05-31T17:54:36Z</time>
      </trkpt>
      <trkpt lat="44.01078" lon="3.5238">
        <ele>920.27312799488</ele>
        <time>2015-05-31T17:54:41Z</time>
      </trkpt>
      <trkpt lat="44.01079" lon="3.52375">
        <ele>920.27312799488</ele>
        <time>2015-05-31T17:54:46Z</time>
      </trkpt>
      <trkpt lat="44.01079" lon="3.52371">
        <ele>917.57701735452</ele>
        <time>2015-05-31T17:54:51Z</time>
      </trkpt>
      <trkpt lat="44.01082" lon="3.52368">
        <ele>917.57701735452</ele>
        <time>2015-05-31T17:54:56Z</time>
      </trkpt>
      <trkpt lat="44.01084" lon="3.52364">
        <ele>917.57701735452</ele>
        <time>2015-05-31T17:55:01Z</time>
      </trkpt>
      <trkpt lat="44.01083" lon="3.52359">
        <ele>915.11095947844</ele>
        <time>2015-05-31T17:55:06Z</time>
      </trkpt>
      <trkpt lat="44.01083" lon="3.52353">
        <ele>915.11095947844</ele>
        <time>2015-05-31T17:55:11Z</time>
      </trkpt>
      <trkpt lat="44.01082" lon="3.52346">
        <ele>912.9037656114</ele>
        <time>2015-05-31T17:55:16Z</time>
      </trkpt>
      <trkpt lat="44.01081" lon="3.5234">
        <ele>912.9037656114</ele>
        <time>2015-05-31T17:55:21Z</time>
      </trkpt>
      <trkpt lat="44.01078" lon="3.52335">
        <ele>912.9037656114</ele>
        <time>2015-05-31T17:55:26Z</time>
      </trkpt>
      <trkpt lat="44.01076" lon="3.52331">
        <ele>910.90919221453</ele>
        <time>2015-05-31T17:55:31Z</time>
      </trkpt>
      <trkpt lat="44.01077" lon="3.52328">
        <ele>910.90919221453</ele>
        <time>2015-05-31T17:55:36Z</time>
      </trkpt>
      <trkpt lat="44.01081" lon="3.52324">
        <ele>910.90919221453</ele>
        <time>2015-05-31T17:55:41Z</time>
      </trkpt>
      <trkpt lat="44.01083" lon="3.5232">
        <ele>909.12688006143</ele>
        <time>2015-05-31T17:55:46Z</time>
      </trkpt>
      <trkpt lat="44.01084" lon="3.52316">
        <ele>909.12688006143</ele>
        <time>2015-05-31T17:55:51Z</time>
      </trkpt>
      <trkpt lat="44.01084" lon="3.52315">
        <ele>909.12688006143</ele>
        <time>2015-05-31T17:55:56Z</time>
      </trkpt>
      <trkpt lat="44.01084" lon="3.52314">
        <ele>909.12688006143</ele>
        <time>2015-05-31T17:56:01Z</time>
      </trkpt>
      <trkpt lat="44.01082" lon="3.52308">
        <ele>909.12688006143</ele>
        <time>2015-05-31T17:56:06Z</time>
      </trkpt>
      <trkpt lat="44.01083" lon="3.52305">
        <ele>907.54134891552</ele>
        <time>2015-05-31T17:56:11Z</time>
      </trkpt>
      <trkpt lat="44.01082" lon="3.52301">
        <ele>907.54134891552</ele>
        <time>2015-05-31T17:56:16Z</time>
      </trkpt>
      <trkpt lat="44.01082" lon="3.52295">
        <ele>907.54134891552</ele>
        <time>2015-05-31T17:56:21Z</time>
      </trkpt>
      <trkpt lat="44.01079" lon="3.52289">
        <ele>906.18080659947</ele>
        <time>2015-05-31T17:56:26Z</time>
      </trkpt>
      <trkpt lat="44.01074" lon="3.5228">
        <ele>906.18080659947</ele>
        <time>2015-05-31T17:56:31Z</time>
      </trkpt>
      <trkpt lat="44.01071" lon="3.52277">
        <ele>905.0994613498</ele>
        <time>2015-05-31T17:56:36Z</time>
      </trkpt>
      <trkpt lat="44.01066" lon="3.52272">
        <ele>905.0994613498</ele>
        <time>2015-05-31T17:56:41Z</time>
      </trkpt>
      <trkpt lat="44.01063" lon="3.52267">
        <ele>904.28900641356</ele>
        <time>2015-05-31T17:56:46Z</time>
      </trkpt>
      <trkpt lat="44.01059" lon="3.52263">
        <ele>904.28900641356</ele>
        <time>2015-05-31T17:56:51Z</time>
      </trkpt>
      <trkpt lat="44.01057" lon="3.52261">
        <ele>904.28900641356</ele>
        <time>2015-05-31T17:56:56Z</time>
      </trkpt>
      <trkpt lat="44.01052" lon="3.52257">
        <ele>903.66883917629</ele>
        <time>2015-05-31T17:57:01Z</time>
      </trkpt>
      <trkpt lat="44.01051" lon="3.52257">
        <ele>903.66883917629</ele>
        <time>2015-05-31T17:57:06Z</time>
      </trkpt>
      <trkpt lat="44.01047" lon="3.52255">
        <ele>903.66883917629</ele>
        <time>2015-05-31T17:57:11Z</time>
      </trkpt>
      <trkpt lat="44.0104" lon="3.5225">
        <ele>903.04838019773</ele>
        <time>2015-05-31T17:57:21Z</time>
      </trkpt>
      <trkpt lat="44.01036" lon="3.52248">
        <ele>903.04838019773</ele>
        <time>2015-05-31T17:57:26Z</time>
      </trkpt>
      <trkpt lat="44.01029" lon="3.52244">
        <ele>902.58244738015</ele>
        <time>2015-05-31T17:57:31Z</time>
      </trkpt>
      <trkpt lat="44.01025" lon="3.52239">
        <ele>902.58244738015</ele>
        <time>2015-05-31T17:57:36Z</time>
      </trkpt>
      <trkpt lat="44.01019" lon="3.52236">
        <ele>902.28430952502</ele>
        <time>2015-05-31T17:57:41Z</time>
      </trkpt>
      <trkpt lat="44.01015" lon="3.52233">
        <ele>902.28430952502</ele>
        <time>2015-05-31T17:57:46Z</time>
      </trkpt>
      <trkpt lat="44.0101" lon="3.52231">
        <ele>902.18017470118</ele>
        <time>2015-05-31T17:57:51Z</time>
      </trkpt>
      <trkpt lat="44.01005" lon="3.52228">
        <ele>902.18017470118</ele>
        <time>2015-05-31T17:57:56Z</time>
      </trkpt>
      <trkpt lat="44.01" lon="3.52225">
        <ele>902.27936039293</ele>
        <time>2015-05-31T17:58:01Z</time>
      </trkpt>
      <trkpt lat="44.00997" lon="3.52223">
        <ele>902.27936039293</ele>
        <time>2015-05-31T17:58:06Z</time>
      </trkpt>
      <trkpt lat="44.00993" lon="3.52221">
        <ele>902.27936039293</ele>
        <time>2015-05-31T17:58:11Z</time>
      </trkpt>
      <trkpt lat="44.00985" lon="3.52213">
        <ele>902.5755248852</ele>
        <time>2015-05-31T17:58:16Z</time>
      </trkpt>
      <trkpt lat="44.00982" lon="3.52212">
        <ele>902.5755248852</ele>
        <time>2015-05-31T17:58:21Z</time>
      </trkpt>
      <trkpt lat="44.00978" lon="3.52214">
        <ele>902.5755248852</ele>
        <time>2015-05-31T17:58:26Z</time>
      </trkpt>
      <trkpt lat="44.0097" lon="3.52211">
        <ele>903.0622635681</ele>
        <time>2015-05-31T17:58:31Z</time>
      </trkpt>
      <trkpt lat="44.00961" lon="3.5221">
        <ele>903.66109317256</ele>
        <time>2015-05-31T17:58:36Z</time>
      </trkpt>
      <trkpt lat="44.00955" lon="3.52211">
        <ele>903.66109317256</ele>
        <time>2015-05-31T17:58:41Z</time>
      </trkpt>
      <trkpt lat="44.00949" lon="3.52213">
        <ele>904.41432858477</ele>
        <time>2015-05-31T17:58:46Z</time>
      </trkpt>
      <trkpt lat="44.00944" lon="3.52215">
        <ele>904.41432858477</ele>
        <time>2015-05-31T17:58:51Z</time>
      </trkpt>
      <trkpt lat="44.00939" lon="3.52217">
        <ele>905.25994065475</ele>
        <time>2015-05-31T17:58:56Z</time>
      </trkpt>
      <trkpt lat="44.00935" lon="3.52218">
        <ele>905.25994065475</ele>
        <time>2015-05-31T17:59:01Z</time>
      </trkpt>
      <trkpt lat="44.00929" lon="3.52216">
        <ele>906.21234526654</ele>
        <time>2015-05-31T17:59:06Z</time>
      </trkpt>
      <trkpt lat="44.00925" lon="3.52214">
        <ele>906.21234526654</ele>
        <time>2015-05-31T17:59:11Z</time>
      </trkpt>
      <trkpt lat="44.00921" lon="3.52212">
        <ele>906.21234526654</ele>
        <time>2015-05-31T17:59:16Z</time>
      </trkpt>
      <trkpt lat="44.00918" lon="3.52211">
        <ele>907.25588548936</ele>
        <time>2015-05-31T17:59:21Z</time>
      </trkpt>
      <trkpt lat="44.00914" lon="3.52211">
        <ele>907.25588548936</ele>
        <time>2015-05-31T17:59:26Z</time>
      </trkpt>
      <trkpt lat="44.00909" lon="3.52208">
        <ele>908.37592220112</ele>
        <time>2015-05-31T17:59:31Z</time>
      </trkpt>
      <trkpt lat="44.00902" lon="3.52205">
        <ele>908.37592220112</ele>
        <time>2015-05-31T17:59:36Z</time>
      </trkpt>
      <trkpt lat="44.00895" lon="3.52202">
        <ele>909.55881491959</ele>
        <time>2015-05-31T17:59:41Z</time>
      </trkpt>
      <trkpt lat="44.00888" lon="3.52199">
        <ele>909.55881491959</ele>
        <time>2015-05-31T17:59:46Z</time>
      </trkpt>
      <trkpt lat="44.00886" lon="3.52196">
        <ele>910.76307808716</ele>
        <time>2015-05-31T17:59:51Z</time>
      </trkpt>
      <trkpt lat="44.00886" lon="3.52193">
        <ele>910.76307808716</ele>
        <time>2015-05-31T17:59:56Z</time>
      </trkpt>
      <trkpt lat="44.00885" lon="3.52192">
        <ele>910.76307808716</ele>
        <time>2015-05-31T18:00:01Z</time>
      </trkpt>
      <trkpt lat="44.00881" lon="3.52186">
        <ele>910.76307808716</ele>
        <time>2015-05-31T18:00:06Z</time>
      </trkpt>
      <trkpt lat="44.00879" lon="3.52182">
        <ele>911.9936111119</ele>
        <time>2015-05-31T18:00:11Z</time>
      </trkpt>
      <trkpt lat="44.00881" lon="3.52181">
        <ele>911.9936111119</ele>
        <time>2015-05-31T18:00:16Z</time>
      </trkpt>
      <trkpt lat="44.00883" lon="3.52177">
        <ele>911.9936111119</ele>
        <time>2015-05-31T18:00:21Z</time>
      </trkpt>
      <trkpt lat="44.00886" lon="3.52174">
        <ele>913.2262330784</ele>
        <time>2015-05-31T18:00:26Z</time>
      </trkpt>
      <trkpt lat="44.0089" lon="3.5217">
        <ele>913.2262330784</ele>
        <time>2015-05-31T18:00:31Z</time>
      </trkpt>
      <trkpt lat="44.00896" lon="3.52168">
        <ele>914.43871923545</ele>
        <time>2015-05-31T18:00:36Z</time>
      </trkpt>
      <trkpt lat="44.00902" lon="3.52166">
        <ele>914.43871923545</ele>
        <time>2015-05-31T18:00:41Z</time>
      </trkpt>
      <trkpt lat="44.00908" lon="3.5216">
        <ele>915.61072848942</ele>
        <time>2015-05-31T18:00:46Z</time>
      </trkpt>
      <trkpt lat="44.00917" lon="3.52152">
        <ele>916.65167380951</ele>
        <time>2015-05-31T18:00:51Z</time>
      </trkpt>
      <trkpt lat="44.0092" lon="3.5215">
        <ele>916.65167380951</ele>
        <time>2015-05-31T18:00:56Z</time>
      </trkpt>
      <trkpt lat="44.00925" lon="3.52142">
        <ele>917.52143104622</ele>
        <time>2015-05-31T18:01:01Z</time>
      </trkpt>
      <trkpt lat="44.00928" lon="3.52137">
        <ele>917.52143104622</ele>
        <time>2015-05-31T18:01:06Z</time>
      </trkpt>
      <trkpt lat="44.00932" lon="3.52132">
        <ele>918.14028126128</ele>
        <time>2015-05-31T18:01:11Z</time>
      </trkpt>
      <trkpt lat="44.00936" lon="3.52131">
        <ele>918.14028126128</ele>
        <time>2015-05-31T18:01:16Z</time>
      </trkpt>
      <trkpt lat="44.0094" lon="3.5213">
        <ele>918.14028126128</ele>
        <time>2015-05-31T18:01:21Z</time>
      </trkpt>
      <trkpt lat="44.00944" lon="3.5213">
        <ele>918.72350013141</ele>
        <time>2015-05-31T18:01:26Z</time>
      </trkpt>
      <trkpt lat="44.00948" lon="3.5213">
        <ele>918.72350013141</ele>
        <time>2015-05-31T18:01:31Z</time>
      </trkpt>
      <trkpt lat="44.00952" lon="3.52129">
        <ele>918.72350013141</ele>
        <time>2015-05-31T18:01:36Z</time>
      </trkpt>
      <trkpt lat="44.00957" lon="3.52129">
        <ele>919.26910551146</ele>
        <time>2015-05-31T18:01:41Z</time>
      </trkpt>
      <trkpt lat="44.00961" lon="3.52128">
        <ele>919.26910551146</ele>
        <time>2015-05-31T18:01:46Z</time>
      </trkpt>
      <trkpt lat="44.00967" lon="3.52127">
        <ele>919.77557629892</ele>
        <time>2015-05-31T18:01:51Z</time>
      </trkpt>
      <trkpt lat="44.00973" lon="3.52129">
        <ele>919.77557629892</ele>
        <time>2015-05-31T18:01:56Z</time>
      </trkpt>
      <trkpt lat="44.00978" lon="3.52126">
        <ele>920.18417520793</ele>
        <time>2015-05-31T18:02:01Z</time>
      </trkpt>
      <trkpt lat="44.00982" lon="3.52124">
        <ele>920.18417520793</ele>
        <time>2015-05-31T18:02:06Z</time>
      </trkpt>
      <trkpt lat="44.00984" lon="3.52119">
        <ele>920.18417520793</ele>
        <time>2015-05-31T18:02:11Z</time>
      </trkpt>
      <trkpt lat="44.00984" lon="3.52118">
        <ele>920.39772351074</ele>
        <time>2015-05-31T18:02:16Z</time>
      </trkpt>
      <trkpt lat="44.00972" lon="3.52114">
        <ele>920.3557475762</ele>
        <time>2015-05-31T18:02:26Z</time>
      </trkpt>
      <trkpt lat="44.00967" lon="3.52112">
        <ele>920.3557475762</ele>
        <time>2015-05-31T18:02:31Z</time>
      </trkpt>
      <trkpt lat="44.00961" lon="3.52109">
        <ele>919.95988927161</ele>
        <time>2015-05-31T18:02:36Z</time>
      </trkpt>
      <trkpt lat="44.00956" lon="3.52107">
        <ele>919.95988927161</ele>
        <time>2015-05-31T18:02:41Z</time>
      </trkpt>
      <trkpt lat="44.00953" lon="3.52107">
        <ele>919.95988927161</ele>
        <time>2015-05-31T18:02:46Z</time>
      </trkpt>
      <trkpt lat="44.00953" lon="3.52106">
        <ele>919.95988927161</ele>
        <time>2015-05-31T18:02:59Z</time>
      </trkpt>
      <trkpt lat="44.00948" lon="3.52107">
        <ele>919.04813286532</ele>
        <time>2015-05-31T18:03:01Z</time>
      </trkpt>
      <trkpt lat="44.00948" lon="3.52106">
        <ele>919.04813286532</ele>
        <time>2015-05-31T18:03:06Z</time>
      </trkpt>
      <trkpt lat="44.00943" lon="3.52103">
        <ele>919.04813286532</ele>
        <time>2015-05-31T18:03:11Z</time>
      </trkpt>
      <trkpt lat="44.00941" lon="3.52102">
        <ele>919.04813286532</ele>
        <time>2015-05-31T18:03:16Z</time>
      </trkpt>
      <trkpt lat="44.00934" lon="3.52095">
        <ele>918.06283526096</ele>
        <time>2015-05-31T18:03:21Z</time>
      </trkpt>
      <trkpt lat="44.00929" lon="3.52094">
        <ele>918.06283526096</ele>
        <time>2015-05-31T18:03:26Z</time>
      </trkpt>
      <trkpt lat="44.00923" lon="3.52095">
        <ele>917.08276304252</ele>
        <time>2015-05-31T18:03:31Z</time>
      </trkpt>
      <trkpt lat="44.00919" lon="3.52092">
        <ele>917.08276304252</ele>
        <time>2015-05-31T18:03:36Z</time>
      </trkpt>
      <trkpt lat="44.00913" lon="3.52088">
        <ele>916.13778827027</ele>
        <time>2015-05-31T18:03:41Z</time>
      </trkpt>
      <trkpt lat="44.00911" lon="3.52085">
        <ele>916.13778827027</ele>
        <time>2015-05-31T18:03:46Z</time>
      </trkpt>
      <trkpt lat="44.00905" lon="3.52074">
        <ele>915.18355939886</ele>
        <time>2015-05-31T18:03:51Z</time>
      </trkpt>
      <trkpt lat="44.00904" lon="3.52068">
        <ele>915.18355939886</ele>
        <time>2015-05-31T18:03:56Z</time>
      </trkpt>
      <trkpt lat="44.00901" lon="3.52058">
        <ele>914.23676409209</ele>
        <time>2015-05-31T18:04:01Z</time>
      </trkpt>
      <trkpt lat="44.00896" lon="3.52049">
        <ele>914.23676409209</ele>
        <time>2015-05-31T18:04:06Z</time>
      </trkpt>
      <trkpt lat="44.00893" lon="3.52044">
        <ele>913.28411852421</ele>
        <time>2015-05-31T18:04:11Z</time>
      </trkpt>
      <trkpt lat="44.00885" lon="3.52042">
        <ele>913.28411852421</ele>
        <time>2015-05-31T18:04:16Z</time>
      </trkpt>
      <trkpt lat="44.0088" lon="3.52044">
        <ele>912.16930459156</ele>
        <time>2015-05-31T18:04:21Z</time>
      </trkpt>
      <trkpt lat="44.00876" lon="3.52044">
        <ele>912.16930459156</ele>
        <time>2015-05-31T18:04:26Z</time>
      </trkpt>
      <trkpt lat="44.00876" lon="3.52046">
        <ele>912.16930459156</ele>
        <time>2015-05-31T18:04:31Z</time>
      </trkpt>
      <trkpt lat="44.00875" lon="3.52046">
        <ele>912.16930459156</ele>
        <time>2015-05-31T18:04:36Z</time>
      </trkpt>
      <trkpt lat="44.00866" lon="3.52039">
        <ele>910.69036939683</ele>
        <time>2015-05-31T18:04:56Z</time>
      </trkpt>
      <trkpt lat="44.00864" lon="3.5203">
        <ele>910.69036939683</ele>
        <time>2015-05-31T18:05:06Z</time>
      </trkpt>
      <trkpt lat="44.00864" lon="3.52029">
        <ele>910.69036939683</ele>
        <time>2015-05-31T18:05:11Z</time>
      </trkpt>
      <trkpt lat="44.00855" lon="3.52019">
        <ele>908.64686345847</ele>
        <time>2015-05-31T18:05:41Z</time>
      </trkpt>
      <trkpt lat="44.00854" lon="3.52019">
        <ele>908.64686345847</ele>
        <time>2015-05-31T18:05:46Z</time>
      </trkpt>
      <trkpt lat="44.00849" lon="3.52029">
        <ele>906.50318885319</ele>
        <time>2015-05-31T18:06:21Z</time>
      </trkpt>
      <trkpt lat="44.0085" lon="3.52028">
        <ele>906.50318885319</ele>
        <time>2015-05-31T18:06:26Z</time>
      </trkpt>
      <trkpt lat="44.0085" lon="3.52011">
        <ele>904.47377370341</ele>
        <time>2015-05-31T18:06:46Z</time>
      </trkpt>
      <trkpt lat="44.00852" lon="3.52007">
        <ele>904.47377370341</ele>
        <time>2015-05-31T18:06:51Z</time>
      </trkpt>
      <trkpt lat="44.00852" lon="3.52006">
        <ele>904.47377370341</ele>
        <time>2015-05-31T18:06:56Z</time>
      </trkpt>
      <trkpt lat="44.00845" lon="3.52007">
        <ele>902.55522824484</ele>
        <time>2015-05-31T18:07:01Z</time>
      </trkpt>
      <trkpt lat="44.00839" lon="3.52005">
        <ele>902.55522824484</ele>
        <time>2015-05-31T18:07:06Z</time>
      </trkpt>
      <trkpt lat="44.00836" lon="3.52004">
        <ele>900.77291739983</ele>
        <time>2015-05-31T18:07:11Z</time>
      </trkpt>
      <trkpt lat="44.00832" lon="3.52002">
        <ele>900.77291739983</ele>
        <time>2015-05-31T18:07:16Z</time>
      </trkpt>
      <trkpt lat="44.00825" lon="3.52">
        <ele>899.09229692658</ele>
        <time>2015-05-31T18:07:21Z</time>
      </trkpt>
      <trkpt lat="44.0082" lon="3.51998">
        <ele>899.09229692658</ele>
        <time>2015-05-31T18:07:26Z</time>
      </trkpt>
      <trkpt lat="44.00816" lon="3.52">
        <ele>897.50986629136</ele>
        <time>2015-05-31T18:07:31Z</time>
      </trkpt>
      <trkpt lat="44.00812" lon="3.52">
        <ele>897.50986629136</ele>
        <time>2015-05-31T18:07:36Z</time>
      </trkpt>
      <trkpt lat="44.0081" lon="3.52">
        <ele>897.50986629136</ele>
        <time>2015-05-31T18:07:41Z</time>
      </trkpt>
      <trkpt lat="44.0081" lon="3.51999">
        <ele>897.50986629136</ele>
        <time>2015-05-31T18:07:46Z</time>
      </trkpt>
      <trkpt lat="44.00811" lon="3.51999">
        <ele>897.50986629136</ele>
        <time>2015-05-31T18:07:51Z</time>
      </trkpt>
      <trkpt lat="44.00805" lon="3.51988">
        <ele>895.73384324959</ele>
        <time>2015-05-31T18:08:11Z</time>
      </trkpt>
      <trkpt lat="44.00805" lon="3.51989">
        <ele>895.73384324959</ele>
        <time>2015-05-31T18:08:16Z</time>
      </trkpt>
      <trkpt lat="44.00797" lon="3.51989">
        <ele>895.73384324959</ele>
        <time>2015-05-31T18:08:56Z</time>
      </trkpt>
      <trkpt lat="44.00794" lon="3.51985">
        <ele>893.9122950365</ele>
        <time>2015-05-31T18:09:01Z</time>
      </trkpt>
      <trkpt lat="44.00793" lon="3.51982">
        <ele>893.9122950365</ele>
        <time>2015-05-31T18:09:06Z</time>
      </trkpt>
      <trkpt lat="44.00791" lon="3.51977">
        <ele>893.9122950365</ele>
        <time>2015-05-31T18:09:11Z</time>
      </trkpt>
      <trkpt lat="44.00786" lon="3.51972">
        <ele>892.16807019755</ele>
        <time>2015-05-31T18:09:21Z</time>
      </trkpt>
      <trkpt lat="44.00774" lon="3.5196">
        <ele>890.49942117385</ele>
        <time>2015-05-31T18:09:31Z</time>
      </trkpt>
      <trkpt lat="44.00771" lon="3.51957">
        <ele>890.49942117385</ele>
        <time>2015-05-31T18:09:36Z</time>
      </trkpt>
      <trkpt lat="44.00764" lon="3.51957">
        <ele>888.93326646385</ele>
        <time>2015-05-31T18:09:41Z</time>
      </trkpt>
      <trkpt lat="44.00761" lon="3.51951">
        <ele>888.93326646385</ele>
        <time>2015-05-31T18:09:51Z</time>
      </trkpt>
      <trkpt lat="44.00753" lon="3.51942">
        <ele>887.33565919519</ele>
        <time>2015-05-31T18:10:12Z</time>
      </trkpt>
      <trkpt lat="44.00745" lon="3.51939">
        <ele>887.33565919519</ele>
        <time>2015-05-31T18:10:22Z</time>
      </trkpt>
      <trkpt lat="44.00741" lon="3.51935">
        <ele>885.79866458178</ele>
        <time>2015-05-31T18:10:29Z</time>
      </trkpt>
      <trkpt lat="44.00737" lon="3.51932">
        <ele>885.79866458178</ele>
        <time>2015-05-31T18:10:31Z</time>
      </trkpt>
      <trkpt lat="44.00734" lon="3.51929">
        <ele>885.79866458178</ele>
        <time>2015-05-31T18:10:36Z</time>
      </trkpt>
      <trkpt lat="44.0073" lon="3.51927">
        <ele>884.4217400818</ele>
        <time>2015-05-31T18:10:41Z</time>
      </trkpt>
      <trkpt lat="44.00727" lon="3.51927">
        <ele>884.4217400818</ele>
        <time>2015-05-31T18:10:46Z</time>
      </trkpt>
      <trkpt lat="44.00718" lon="3.51926">
        <ele>883.19562238687</ele>
        <time>2015-05-31T18:10:51Z</time>
      </trkpt>
      <trkpt lat="44.00714" lon="3.51928">
        <ele>883.19562238687</ele>
        <time>2015-05-31T18:10:57Z</time>
      </trkpt>
      <trkpt lat="44.00713" lon="3.51928">
        <ele>883.19562238687</ele>
        <time>2015-05-31T18:11:01Z</time>
      </trkpt>
      <trkpt lat="44.00711" lon="3.51929">
        <ele>883.19562238687</ele>
        <time>2015-05-31T18:11:06Z</time>
      </trkpt>
      <trkpt lat="44.00704" lon="3.51919">
        <ele>880.69892513844</ele>
        <time>2015-05-31T18:12:06Z</time>
      </trkpt>
      <trkpt lat="44.00698" lon="3.51914">
        <ele>880.69892513844</ele>
        <time>2015-05-31T18:12:11Z</time>
      </trkpt>
      <trkpt lat="44.00693" lon="3.51914">
        <ele>878.38508052136</ele>
        <time>2015-05-31T18:12:16Z</time>
      </trkpt>
      <trkpt lat="44.00687" lon="3.51914">
        <ele>878.38508052136</ele>
        <time>2015-05-31T18:12:21Z</time>
      </trkpt>
      <trkpt lat="44.00683" lon="3.51914">
        <ele>876.24549573834</ele>
        <time>2015-05-31T18:12:26Z</time>
      </trkpt>
      <trkpt lat="44.0068" lon="3.51911">
        <ele>876.24549573834</ele>
        <time>2015-05-31T18:12:31Z</time>
      </trkpt>
      <trkpt lat="44.00671" lon="3.51918">
        <ele>874.22838297688</ele>
        <time>2015-05-31T18:12:36Z</time>
      </trkpt>
      <trkpt lat="44.00668" lon="3.51919">
        <ele>874.22838297688</ele>
        <time>2015-05-31T18:12:41Z</time>
      </trkpt>
      <trkpt lat="44.00667" lon="3.51918">
        <ele>874.22838297688</ele>
        <time>2015-05-31T18:12:46Z</time>
      </trkpt>
      <trkpt lat="44.00664" lon="3.5192">
        <ele>874.22838297688</ele>
        <time>2015-05-31T18:12:51Z</time>
      </trkpt>
      <trkpt lat="44.00656" lon="3.51915">
        <ele>872.19883902527</ele>
        <time>2015-05-31T18:13:19Z</time>
      </trkpt>
      <trkpt lat="44.00648" lon="3.51919">
        <ele>872.19883902527</ele>
        <time>2015-05-31T18:13:46Z</time>
      </trkpt>
      <trkpt lat="44.00638" lon="3.51941">
        <ele>868.47538865974</ele>
        <time>2015-05-31T18:13:51Z</time>
      </trkpt>
      <trkpt lat="44.00638" lon="3.51942">
        <ele>868.47538865974</ele>
        <time>2015-05-31T18:13:56Z</time>
      </trkpt>
      <trkpt lat="44.00636" lon="3.51942">
        <ele>868.47538865974</ele>
        <time>2015-05-31T18:14:06Z</time>
      </trkpt>
      <trkpt lat="44.00633" lon="3.51941">
        <ele>868.47538865974</ele>
        <time>2015-05-31T18:14:11Z</time>
      </trkpt>
      <trkpt lat="44.00637" lon="3.5194">
        <ele>864.76161721173</ele>
        <time>2015-05-31T18:14:16Z</time>
      </trkpt>
      <trkpt lat="44.00642" lon="3.5194">
        <ele>864.76161721173</ele>
        <time>2015-05-31T18:14:21Z</time>
      </trkpt>
      <trkpt lat="44.00651" lon="3.51937">
        <ele>861.28115996013</ele>
        <time>2015-05-31T18:14:26Z</time>
      </trkpt>
      <trkpt lat="44.00659" lon="3.51936">
        <ele>861.28115996013</ele>
        <time>2015-05-31T18:14:31Z</time>
      </trkpt>
      <trkpt lat="44.00666" lon="3.51937">
        <ele>858.03866919376</ele>
        <time>2015-05-31T18:14:36Z</time>
      </trkpt>
      <trkpt lat="44.00667" lon="3.51938">
        <ele>858.03866919376</ele>
        <time>2015-05-31T18:14:41Z</time>
      </trkpt>
      <trkpt lat="44.00676" lon="3.51941">
        <ele>855.10968792309</ele>
        <time>2015-05-31T18:14:46Z</time>
      </trkpt>
      <trkpt lat="44.00682" lon="3.51942">
        <ele>855.10968792309</ele>
        <time>2015-05-31T18:14:51Z</time>
      </trkpt>
      <trkpt lat="44.00682" lon="3.51943">
        <ele>855.10968792309</ele>
        <time>2015-05-31T18:14:56Z</time>
      </trkpt>
      <trkpt lat="44.00683" lon="3.51946">
        <ele>852.28935562683</ele>
        <time>2015-05-31T18:15:01Z</time>
      </trkpt>
      <trkpt lat="44.00683" lon="3.51947">
        <ele>852.28935562683</ele>
        <time>2015-05-31T18:15:11Z</time>
      </trkpt>
      <trkpt lat="44.00681" lon="3.51943">
        <ele>852.28935562683</ele>
        <time>2015-05-31T18:15:16Z</time>
      </trkpt>
      <trkpt lat="44.00677" lon="3.5194">
        <ele>852.28935562683</ele>
        <time>2015-05-31T18:15:21Z</time>
      </trkpt>
      <trkpt lat="44.0067" lon="3.51938">
        <ele>849.38738703892</ele>
        <time>2015-05-31T18:15:26Z</time>
      </trkpt>
      <trkpt lat="44.00662" lon="3.51936">
        <ele>849.38738703892</ele>
        <time>2015-05-31T18:15:33Z</time>
      </trkpt>
      <trkpt lat="44.00658" lon="3.51937">
        <ele>846.68868793454</ele>
        <time>2015-05-31T18:15:36Z</time>
      </trkpt>
      <trkpt lat="44.0065" lon="3.51934">
        <ele>844.12503588738</ele>
        <time>2015-05-31T18:15:41Z</time>
      </trkpt>
      <trkpt lat="44.00643" lon="3.51933">
        <ele>844.12503588738</ele>
        <time>2015-05-31T18:15:46Z</time>
      </trkpt>
      <trkpt lat="44.00638" lon="3.51931">
        <ele>841.69031249982</ele>
        <time>2015-05-31T18:15:51Z</time>
      </trkpt>
      <trkpt lat="44.00632" lon="3.51927">
        <ele>841.69031249982</ele>
        <time>2015-05-31T18:15:56Z</time>
      </trkpt>
      <trkpt lat="44.00629" lon="3.51927">
        <ele>839.40713783903</ele>
        <time>2015-05-31T18:16:01Z</time>
      </trkpt>
      <trkpt lat="44.00622" lon="3.51925">
        <ele>839.40713783903</ele>
        <time>2015-05-31T18:16:06Z</time>
      </trkpt>
      <trkpt lat="44.00616" lon="3.51922">
        <ele>837.29587697548</ele>
        <time>2015-05-31T18:16:11Z</time>
      </trkpt>
      <trkpt lat="44.00609" lon="3.51918">
        <ele>837.29587697548</ele>
        <time>2015-05-31T18:16:16Z</time>
      </trkpt>
      <trkpt lat="44.00604" lon="3.51912">
        <ele>835.34593112659</ele>
        <time>2015-05-31T18:16:21Z</time>
      </trkpt>
      <trkpt lat="44.00597" lon="3.51909">
        <ele>835.34593112659</ele>
        <time>2015-05-31T18:16:26Z</time>
      </trkpt>
      <trkpt lat="44.00592" lon="3.5191">
        <ele>833.35952565693</ele>
        <time>2015-05-31T18:16:31Z</time>
      </trkpt>
      <trkpt lat="44.00586" lon="3.5191">
        <ele>833.35952565693</ele>
        <time>2015-05-31T18:16:36Z</time>
      </trkpt>
      <trkpt lat="44.00581" lon="3.51913">
        <ele>831.26865480774</ele>
        <time>2015-05-31T18:16:41Z</time>
      </trkpt>
      <trkpt lat="44.00576" lon="3.51916">
        <ele>831.26865480774</ele>
        <time>2015-05-31T18:16:46Z</time>
      </trkpt>
      <trkpt lat="44.00574" lon="3.51918">
        <ele>831.26865480774</ele>
        <time>2015-05-31T18:16:51Z</time>
      </trkpt>
      <trkpt lat="44.00572" lon="3.51922">
        <ele>828.95281286246</ele>
        <time>2015-05-31T18:16:56Z</time>
      </trkpt>
      <trkpt lat="44.00566" lon="3.5193">
        <ele>828.95281286246</ele>
        <time>2015-05-31T18:17:01Z</time>
      </trkpt>
      <trkpt lat="44.00562" lon="3.51934">
        <ele>826.58906163552</ele>
        <time>2015-05-31T18:17:06Z</time>
      </trkpt>
      <trkpt lat="44.00559" lon="3.51935">
        <ele>826.58906163552</ele>
        <time>2015-05-31T18:17:11Z</time>
      </trkpt>
      <trkpt lat="44.00557" lon="3.51935">
        <ele>826.58906163552</ele>
        <time>2015-05-31T18:17:16Z</time>
      </trkpt>
      <trkpt lat="44.00551" lon="3.51936">
        <ele>824.29822426308</ele>
        <time>2015-05-31T18:17:21Z</time>
      </trkpt>
      <trkpt lat="44.00542" lon="3.51937">
        <ele>824.29822426308</ele>
        <time>2015-05-31T18:17:26Z</time>
      </trkpt>
      <trkpt lat="44.0054" lon="3.51938">
        <ele>822.33602733202</ele>
        <time>2015-05-31T18:17:31Z</time>
      </trkpt>
      <trkpt lat="44.00529" lon="3.51944">
        <ele>819.62695495181</ele>
        <time>2015-05-31T18:17:36Z</time>
      </trkpt>
      <trkpt lat="44.00524" lon="3.51948">
        <ele>819.62695495181</ele>
        <time>2015-05-31T18:17:41Z</time>
      </trkpt>
      <trkpt lat="44.0052" lon="3.51952">
        <ele>816.6896406305</ele>
        <time>2015-05-31T18:17:46Z</time>
      </trkpt>
      <trkpt lat="44.00514" lon="3.51956">
        <ele>816.6896406305</ele>
        <time>2015-05-31T18:17:51Z</time>
      </trkpt>
      <trkpt lat="44.00507" lon="3.5196">
        <ele>813.61604202616</ele>
        <time>2015-05-31T18:17:56Z</time>
      </trkpt>
      <trkpt lat="44.00501" lon="3.5196">
        <ele>813.61604202616</ele>
        <time>2015-05-31T18:18:01Z</time>
      </trkpt>
      <trkpt lat="44.00496" lon="3.51959">
        <ele>810.40516037542</ele>
        <time>2015-05-31T18:18:06Z</time>
      </trkpt>
      <trkpt lat="44.00491" lon="3.51955">
        <ele>810.40516037542</ele>
        <time>2015-05-31T18:18:11Z</time>
      </trkpt>
      <trkpt lat="44.00486" lon="3.51951">
        <ele>807.12839295274</ele>
        <time>2015-05-31T18:18:16Z</time>
      </trkpt>
      <trkpt lat="44.00486" lon="3.51953">
        <ele>807.12839295274</ele>
        <time>2015-05-31T18:18:21Z</time>
      </trkpt>
      <trkpt lat="44.00486" lon="3.51953">
        <ele>807.12839295274</ele>
        <time>2015-05-31T18:19:22Z</time>
      </trkpt>
      <trkpt lat="44.0048" lon="3.5195">
        <ele>807.12839295274</ele>
        <time>2015-05-31T18:21:21Z</time>
      </trkpt>
      <trkpt lat="44.00477" lon="3.51948">
        <ele>804.12576906188</ele>
        <time>2015-05-31T18:21:26Z</time>
      </trkpt>
      <trkpt lat="44.00477" lon="3.51948">
        <ele>804.12576906188</ele>
        <time>2015-05-31T18:21:31Z</time>
      </trkpt>
      <trkpt lat="44.00477" lon="3.51948">
        <ele>804.12576906188</ele>
        <time>2015-05-31T18:21:36Z</time>
      </trkpt>
      <trkpt lat="44.00471" lon="3.51943">
        <ele>804.12576906188</ele>
        <time>2015-05-31T18:21:51Z</time>
      </trkpt>
      <trkpt lat="44.00396" lon="3.51848">
        <ele>801.52410661026</ele>
        <time>2015-05-31T18:22:01Z</time>
      </trkpt>
      <trkpt lat="44.00357" lon="3.51721">
        <ele>799.2955536358</ele>
        <time>2015-05-31T18:22:06Z</time>
      </trkpt>
      <trkpt lat="44.00345" lon="3.51709">
        <ele>797.41314374146</ele>
        <time>2015-05-31T18:22:11Z</time>
      </trkpt>
      <trkpt lat="44.0034" lon="3.517">
        <ele>797.41314374146</ele>
        <time>2015-05-31T18:22:16Z</time>
      </trkpt>
      <trkpt lat="44.00337" lon="3.51695">
        <ele>792.37772870231</ele>
        <time>2015-05-31T18:22:21Z</time>
      </trkpt>
      <trkpt lat="44.00333" lon="3.51691">
        <ele>792.37772870231</ele>
        <time>2015-05-31T18:22:26Z</time>
      </trkpt>
      <trkpt lat="44.00332" lon="3.5169">
        <ele>792.37772870231</ele>
        <time>2015-05-31T18:22:31Z</time>
      </trkpt>
      <trkpt lat="44.00308" lon="3.51673">
        <ele>787.70034052274</ele>
        <time>2015-05-31T18:25:11Z</time>
      </trkpt>
      <trkpt lat="44.0029" lon="3.51815">
        <ele>783.56340405936</ele>
        <time>2015-05-31T18:25:16Z</time>
      </trkpt>
      <trkpt lat="44.00277" lon="3.51839">
        <ele>779.93254842948</ele>
        <time>2015-05-31T18:25:31Z</time>
      </trkpt>
      <trkpt lat="44.00271" lon="3.51847">
        <ele>779.93254842948</ele>
        <time>2015-05-31T18:25:36Z</time>
      </trkpt>
      <trkpt lat="44.00269" lon="3.51855">
        <ele>770.77934314517</ele>
        <time>2015-05-31T18:25:41Z</time>
      </trkpt>
      <trkpt lat="44.00271" lon="3.51859">
        <ele>770.77934314517</ele>
        <time>2015-05-31T18:25:46Z</time>
      </trkpt>
      <trkpt lat="44.00269" lon="3.51858">
        <ele>770.77934314517</ele>
        <time>2015-05-31T18:25:51Z</time>
      </trkpt>
      <trkpt lat="44.00269" lon="3.51858">
        <ele>770.77934314517</ele>
        <time>2015-05-31T18:26:01Z</time>
      </trkpt>
      <trkpt lat="44.00295" lon="3.51872">
        <ele>762.52358471781</ele>
        <time>2015-05-31T18:26:31Z</time>
      </trkpt>
      <trkpt lat="44.00302" lon="3.51874">
        <ele>762.52358471781</ele>
        <time>2015-05-31T18:26:36Z</time>
      </trkpt>
      <trkpt lat="44.00306" lon="3.51876">
        <ele>755.24545085428</ele>
        <time>2015-05-31T18:26:41Z</time>
      </trkpt>
      <trkpt lat="44.0031" lon="3.5188">
        <ele>755.24545085428</ele>
        <time>2015-05-31T18:26:46Z</time>
      </trkpt>
      <trkpt lat="44.00315" lon="3.51884">
        <ele>748.85775570911</ele>
        <time>2015-05-31T18:26:51Z</time>
      </trkpt>
      <trkpt lat="44.00318" lon="3.51885">
        <ele>748.85775570911</ele>
        <time>2015-05-31T18:26:56Z</time>
      </trkpt>
      <trkpt lat="44.00323" lon="3.51888">
        <ele>748.85775570911</ele>
        <time>2015-05-31T18:27:01Z</time>
      </trkpt>
      <trkpt lat="44.00326" lon="3.51889">
        <ele>743.27698605133</ele>
        <time>2015-05-31T18:27:06Z</time>
      </trkpt>
      <trkpt lat="44.0033" lon="3.51892">
        <ele>743.27698605133</ele>
        <time>2015-05-31T18:27:11Z</time>
      </trkpt>
      <trkpt lat="44.00332" lon="3.51896">
        <ele>743.27698605133</ele>
        <time>2015-05-31T18:27:16Z</time>
      </trkpt>
      <trkpt lat="44.00336" lon="3.51902">
        <ele>738.43766174162</ele>
        <time>2015-05-31T18:27:21Z</time>
      </trkpt>
      <trkpt lat="44.00337" lon="3.51907">
        <ele>738.43766174162</ele>
        <time>2015-05-31T18:27:26Z</time>
      </trkpt>
      <trkpt lat="44.00341" lon="3.51913">
        <ele>734.32001074614</ele>
        <time>2015-05-31T18:27:31Z</time>
      </trkpt>
      <trkpt lat="44.00343" lon="3.51919">
        <ele>734.32001074614</ele>
        <time>2015-05-31T18:27:36Z</time>
      </trkpt>
      <trkpt lat="44.00345" lon="3.51921">
        <ele>734.32001074614</ele>
        <time>2015-05-31T18:27:41Z</time>
      </trkpt>
      <trkpt lat="44.00345" lon="3.51923">
        <ele>734.32001074614</ele>
        <time>2015-05-31T18:33:26Z</time>
      </trkpt>
      <trkpt lat="44.00347" lon="3.51927">
        <ele>730.87461284573</ele>
        <time>2015-05-31T18:33:31Z</time>
      </trkpt>
      <trkpt lat="44.00349" lon="3.51932">
        <ele>730.87461284573</ele>
        <time>2015-05-31T18:34:21Z</time>
      </trkpt>
      <trkpt lat="44.00354" lon="3.5197">
        <ele>727.96707981109</ele>
        <time>2015-05-31T18:34:26Z</time>
      </trkpt>
      <trkpt lat="44.00378" lon="3.51993">
        <ele>725.55762111172</ele>
        <time>2015-05-31T18:34:41Z</time>
      </trkpt>
      <trkpt lat="44.00422" lon="3.52033">
        <ele>723.60775791834</ele>
        <time>2015-05-31T18:34:46Z</time>
      </trkpt>
      <trkpt lat="44.00428" lon="3.52045">
        <ele>722.08035648354</ele>
        <time>2015-05-31T18:34:51Z</time>
      </trkpt>
      <trkpt lat="44.0042" lon="3.52052">
        <ele>720.93965812494</ele>
        <time>2015-05-31T18:34:56Z</time>
      </trkpt>
      <trkpt lat="44.00419" lon="3.52052">
        <ele>720.93965812494</ele>
        <time>2015-05-31T18:35:01Z</time>
      </trkpt>
      <trkpt lat="44.00415" lon="3.52065">
        <ele>720.15130537157</ele>
        <time>2015-05-31T18:35:11Z</time>
      </trkpt>
      <trkpt lat="44.00415" lon="3.52067">
        <ele>720.15130537157</ele>
        <time>2015-05-31T18:35:16Z</time>
      </trkpt>
      <trkpt lat="44.00415" lon="3.52067">
        <ele>720.15130537157</ele>
        <time>2015-05-31T18:35:36Z</time>
      </trkpt>
      <trkpt lat="44.00415" lon="3.52099">
        <ele>719.68236392777</ele>
        <time>2015-05-31T18:35:41Z</time>
      </trkpt>
      <trkpt lat="44.00407" lon="3.52117">
        <ele>719.50134019553</ele>
        <time>2015-05-31T18:35:46Z</time>
      </trkpt>
      <trkpt lat="44.00408" lon="3.52159">
        <ele>719.5781941743</ele>
        <time>2015-05-31T18:35:51Z</time>
      </trkpt>
      <trkpt lat="44.00407" lon="3.52161">
        <ele>719.5781941743</ele>
        <time>2015-05-31T18:35:56Z</time>
      </trkpt>
      <trkpt lat="44.00422" lon="3.52193">
        <ele>719.88434762892</ele>
        <time>2015-05-31T18:36:01Z</time>
      </trkpt>
      <trkpt lat="44.00444" lon="3.52241">
        <ele>720.39268748024</ele>
        <time>2015-05-31T18:36:06Z</time>
      </trkpt>
      <trkpt lat="44.00446" lon="3.52249">
        <ele>720.39268748024</ele>
        <time>2015-05-31T18:36:23Z</time>
      </trkpt>
      <trkpt lat="44.00447" lon="3.52268">
        <ele>721.07756443068</ele>
        <time>2015-05-31T18:36:26Z</time>
      </trkpt>
      <trkpt lat="44.00443" lon="3.52301">
        <ele>723.5144236178</ele>
        <time>2015-05-31T18:36:31Z</time>
      </trkpt>
      <trkpt lat="44.00444" lon="3.5231">
        <ele>723.5144236178</ele>
        <time>2015-05-31T18:36:36Z</time>
      </trkpt>
      <trkpt lat="44.00443" lon="3.52317">
        <ele>725.9877230519</ele>
        <time>2015-05-31T18:36:41Z</time>
      </trkpt>
      <trkpt lat="44.00444" lon="3.52327">
        <ele>725.9877230519</ele>
        <time>2015-05-31T18:36:46Z</time>
      </trkpt>
      <trkpt lat="44.00444" lon="3.52335">
        <ele>728.4787921393</ele>
        <time>2015-05-31T18:36:51Z</time>
      </trkpt>
      <trkpt lat="44.00443" lon="3.52344">
        <ele>728.4787921393</ele>
        <time>2015-05-31T18:36:56Z</time>
      </trkpt>
      <trkpt lat="44.00441" lon="3.52352">
        <ele>730.97045650779</ele>
        <time>2015-05-31T18:37:01Z</time>
      </trkpt>
      <trkpt lat="44.00441" lon="3.52358">
        <ele>730.97045650779</ele>
        <time>2015-05-31T18:37:06Z</time>
      </trkpt>
      <trkpt lat="44.00439" lon="3.52366">
        <ele>733.49024427922</ele>
        <time>2015-05-31T18:37:11Z</time>
      </trkpt>
      <trkpt lat="44.00437" lon="3.52372">
        <ele>733.49024427922</ele>
        <time>2015-05-31T18:37:16Z</time>
      </trkpt>
      <trkpt lat="44.00436" lon="3.52375">
        <ele>733.49024427922</ele>
        <time>2015-05-31T18:37:21Z</time>
      </trkpt>
      <trkpt lat="44.00435" lon="3.52379">
        <ele>735.97735642256</ele>
        <time>2015-05-31T18:37:26Z</time>
      </trkpt>
      <trkpt lat="44.00435" lon="3.52382">
        <ele>735.97735642256</ele>
        <time>2015-05-31T18:37:31Z</time>
      </trkpt>
      <trkpt lat="44.00436" lon="3.52388">
        <ele>735.97735642256</ele>
        <time>2015-05-31T18:37:36Z</time>
      </trkpt>
      <trkpt lat="44.00436" lon="3.5239">
        <ele>735.97735642256</ele>
        <time>2015-05-31T18:37:41Z</time>
      </trkpt>
      <trkpt lat="44.00435" lon="3.52393">
        <ele>738.41905410436</ele>
        <time>2015-05-31T18:37:46Z</time>
      </trkpt>
      <trkpt lat="44.00433" lon="3.52401">
        <ele>738.41905410436</ele>
        <time>2015-05-31T18:37:51Z</time>
      </trkpt>
      <trkpt lat="44.0043" lon="3.52407">
        <ele>740.77513345806</ele>
        <time>2015-05-31T18:37:56Z</time>
      </trkpt>
      <trkpt lat="44.00427" lon="3.52413">
        <ele>740.77513345806</ele>
        <time>2015-05-31T18:38:01Z</time>
      </trkpt>
      <trkpt lat="44.00427" lon="3.52415">
        <ele>740.77513345806</ele>
        <time>2015-05-31T18:38:06Z</time>
      </trkpt>
      <trkpt lat="44.0043" lon="3.5242">
        <ele>743.08095571404</ele>
        <time>2015-05-31T18:38:11Z</time>
      </trkpt>
      <trkpt lat="44.00426" lon="3.52421">
        <ele>743.08095571404</ele>
        <time>2015-05-31T18:38:16Z</time>
      </trkpt>
      <trkpt lat="44.00424" lon="3.52424">
        <ele>743.08095571404</ele>
        <time>2015-05-31T18:38:21Z</time>
      </trkpt>
      <trkpt lat="44.0042" lon="3.52429">
        <ele>745.29770466704</ele>
        <time>2015-05-31T18:38:26Z</time>
      </trkpt>
      <trkpt lat="44.00418" lon="3.52436">
        <ele>745.29770466704</ele>
        <time>2015-05-31T18:38:31Z</time>
      </trkpt>
      <trkpt lat="44.00417" lon="3.52441">
        <ele>747.43324928816</ele>
        <time>2015-05-31T18:38:36Z</time>
      </trkpt>
      <trkpt lat="44.00417" lon="3.52442">
        <ele>747.43324928816</ele>
        <time>2015-05-31T18:38:41Z</time>
      </trkpt>
      <trkpt lat="44.00414" lon="3.52457">
        <ele>749.52429397651</ele>
        <time>2015-05-31T18:38:46Z</time>
      </trkpt>
      <trkpt lat="44.00412" lon="3.52463">
        <ele>749.52429397651</ele>
        <time>2015-05-31T18:38:51Z</time>
      </trkpt>
      <trkpt lat="44.00409" lon="3.52468">
        <ele>751.53328975169</ele>
        <time>2015-05-31T18:38:56Z</time>
      </trkpt>
      <trkpt lat="44.00407" lon="3.52472">
        <ele>751.53328975169</ele>
        <time>2015-05-31T18:39:01Z</time>
      </trkpt>
      <trkpt lat="44.00402" lon="3.52479">
        <ele>753.48370196295</ele>
        <time>2015-05-31T18:39:06Z</time>
      </trkpt>
      <trkpt lat="44.00396" lon="3.52486">
        <ele>753.48370196295</ele>
        <time>2015-05-31T18:39:11Z</time>
      </trkpt>
      <trkpt lat="44.00391" lon="3.52492">
        <ele>755.35458995528</ele>
        <time>2015-05-31T18:39:16Z</time>
      </trkpt>
      <trkpt lat="44.00388" lon="3.525">
        <ele>755.35458995528</ele>
        <time>2015-05-31T18:39:21Z</time>
      </trkpt>
      <trkpt lat="44.00384" lon="3.52506">
        <ele>757.12716438657</ele>
        <time>2015-05-31T18:39:26Z</time>
      </trkpt>
      <trkpt lat="44.00381" lon="3.52514">
        <ele>757.12716438657</ele>
        <time>2015-05-31T18:39:31Z</time>
      </trkpt>
      <trkpt lat="44.00381" lon="3.52515">
        <ele>757.12716438657</ele>
        <time>2015-05-31T18:39:36Z</time>
      </trkpt>
      <trkpt lat="44.00379" lon="3.5252">
        <ele>758.75586065654</ele>
        <time>2015-05-31T18:39:41Z</time>
      </trkpt>
      <trkpt lat="44.00375" lon="3.52528">
        <ele>758.75586065654</ele>
        <time>2015-05-31T18:39:46Z</time>
      </trkpt>
      <trkpt lat="44.00372" lon="3.52534">
        <ele>760.28572148009</ele>
        <time>2015-05-31T18:39:51Z</time>
      </trkpt>
      <trkpt lat="44.00368" lon="3.52534">
        <ele>760.28572148009</ele>
        <time>2015-05-31T18:39:56Z</time>
      </trkpt>
      <trkpt lat="44.0036" lon="3.52535">
        <ele>761.68708915562</ele>
        <time>2015-05-31T18:40:01Z</time>
      </trkpt>
      <trkpt lat="44.00357" lon="3.52536">
        <ele>761.68708915562</ele>
        <time>2015-05-31T18:40:06Z</time>
      </trkpt>
      <trkpt lat="44.00351" lon="3.52542">
        <ele>762.9908712345</ele>
        <time>2015-05-31T18:40:11Z</time>
      </trkpt>
      <trkpt lat="44.00346" lon="3.5255">
        <ele>762.9908712345</ele>
        <time>2015-05-31T18:40:16Z</time>
      </trkpt>
      <trkpt lat="44.00343" lon="3.5256">
        <ele>764.125475564</ele>
        <time>2015-05-31T18:40:21Z</time>
      </trkpt>
      <trkpt lat="44.0034" lon="3.52568">
        <ele>764.125475564</ele>
        <time>2015-05-31T18:40:26Z</time>
      </trkpt>
      <trkpt lat="44.00338" lon="3.5258">
        <ele>765.05423207554</ele>
        <time>2015-05-31T18:40:31Z</time>
      </trkpt>
      <trkpt lat="44.00341" lon="3.52593">
        <ele>765.83056439367</ele>
        <time>2015-05-31T18:40:36Z</time>
      </trkpt>
      <trkpt lat="44.00343" lon="3.52601">
        <ele>765.83056439367</ele>
        <time>2015-05-31T18:40:41Z</time>
      </trkpt>
      <trkpt lat="44.00345" lon="3.52606">
        <ele>766.44709853726</ele>
        <time>2015-05-31T18:40:46Z</time>
      </trkpt>
      <trkpt lat="44.00347" lon="3.52615">
        <ele>766.44709853726</ele>
        <time>2015-05-31T18:40:51Z</time>
      </trkpt>
      <trkpt lat="44.0035" lon="3.52624">
        <ele>766.94101404128</ele>
        <time>2015-05-31T18:40:56Z</time>
      </trkpt>
      <trkpt lat="44.00352" lon="3.52631">
        <ele>766.94101404128</ele>
        <time>2015-05-31T18:41:01Z</time>
      </trkpt>
      <trkpt lat="44.00356" lon="3.52635">
        <ele>767.30418527376</ele>
        <time>2015-05-31T18:41:06Z</time>
      </trkpt>
      <trkpt lat="44.00357" lon="3.52642">
        <ele>767.30418527376</ele>
        <time>2015-05-31T18:41:11Z</time>
      </trkpt>
      <trkpt lat="44.00357" lon="3.52648">
        <ele>767.60180555388</ele>
        <time>2015-05-31T18:41:16Z</time>
      </trkpt>
      <trkpt lat="44.00357" lon="3.52656">
        <ele>767.60180555388</ele>
        <time>2015-05-31T18:41:21Z</time>
      </trkpt>
      <trkpt lat="44.00357" lon="3.52668">
        <ele>767.83710191125</ele>
        <time>2015-05-31T18:41:26Z</time>
      </trkpt>
      <trkpt lat="44.00356" lon="3.52677">
        <ele>767.83710191125</ele>
        <time>2015-05-31T18:41:31Z</time>
      </trkpt>
      <trkpt lat="44.00355" lon="3.52684">
        <ele>767.99909466819</ele>
        <time>2015-05-31T18:41:36Z</time>
      </trkpt>
      <trkpt lat="44.00353" lon="3.52694">
        <ele>767.99909466819</ele>
        <time>2015-05-31T18:41:41Z</time>
      </trkpt>
      <trkpt lat="44.0035" lon="3.52703">
        <ele>768.10688832439</ele>
        <time>2015-05-31T18:41:47Z</time>
      </trkpt>
      <trkpt lat="44.00348" lon="3.52709">
        <ele>768.10688832439</ele>
        <time>2015-05-31T18:41:51Z</time>
      </trkpt>
      <trkpt lat="44.00346" lon="3.52712">
        <ele>768.10688832439</ele>
        <time>2015-05-31T18:41:56Z</time>
      </trkpt>
      <trkpt lat="44.00347" lon="3.52719">
        <ele>768.14974662953</ele>
        <time>2015-05-31T18:42:01Z</time>
      </trkpt>
      <trkpt lat="44.00347" lon="3.52721">
        <ele>768.14974662953</ele>
        <time>2015-05-31T18:42:06Z</time>
      </trkpt>
      <trkpt lat="44.00348" lon="3.52728">
        <ele>768.14974662953</ele>
        <time>2015-05-31T18:42:11Z</time>
      </trkpt>
      <trkpt lat="44.0035" lon="3.5273">
        <ele>768.14974662953</ele>
        <time>2015-05-31T18:42:16Z</time>
      </trkpt>
      <trkpt lat="44.00348" lon="3.52734">
        <ele>768.03165329287</ele>
        <time>2015-05-31T18:42:21Z</time>
      </trkpt>
      <trkpt lat="44.00344" lon="3.52742">
        <ele>768.03165329287</ele>
        <time>2015-05-31T18:42:26Z</time>
      </trkpt>
      <trkpt lat="44.00344" lon="3.5275">
        <ele>767.82281784614</ele>
        <time>2015-05-31T18:42:32Z</time>
      </trkpt>
      <trkpt lat="44.00342" lon="3.52754">
        <ele>767.82281784614</ele>
        <time>2015-05-31T18:42:36Z</time>
      </trkpt>
      <trkpt lat="44.00342" lon="3.52769">
        <ele>767.51667274875</ele>
        <time>2015-05-31T18:42:41Z</time>
      </trkpt>
      <trkpt lat="44.00346" lon="3.52774">
        <ele>767.51667274875</ele>
        <time>2015-05-31T18:42:46Z</time>
      </trkpt>
      <trkpt lat="44.00348" lon="3.52778">
        <ele>767.12198117504</ele>
        <time>2015-05-31T18:42:51Z</time>
      </trkpt>
      <trkpt lat="44.00351" lon="3.52781">
        <ele>767.12198117504</ele>
        <time>2015-05-31T18:42:56Z</time>
      </trkpt>
      <trkpt lat="44.00353" lon="3.52784">
        <ele>767.12198117504</ele>
        <time>2015-05-31T18:43:01Z</time>
      </trkpt>
      <trkpt lat="44.00353" lon="3.52784">
        <ele>767.12198117504</ele>
        <time>2015-05-31T18:43:06Z</time>
      </trkpt>
      <trkpt lat="44.00348" lon="3.5279">
        <ele>766.63284661946</ele>
        <time>2015-05-31T18:43:11Z</time>
      </trkpt>
      <trkpt lat="44.00347" lon="3.52793">
        <ele>766.63284661946</ele>
        <time>2015-05-31T18:43:16Z</time>
      </trkpt>
      <trkpt lat="44.00344" lon="3.52797">
        <ele>766.63284661946</ele>
        <time>2015-05-31T18:43:21Z</time>
      </trkpt>
      <trkpt lat="44.00342" lon="3.52798">
        <ele>766.63284661946</ele>
        <time>2015-05-31T18:43:26Z</time>
      </trkpt>
      <trkpt lat="44.0034" lon="3.52797">
        <ele>766.02978899461</ele>
        <time>2015-05-31T18:43:31Z</time>
      </trkpt>
      <trkpt lat="44.00339" lon="3.52796">
        <ele>766.02978899461</ele>
        <time>2015-05-31T18:43:36Z</time>
      </trkpt>
      <trkpt lat="44.00335" lon="3.52793">
        <ele>766.02978899461</ele>
        <time>2015-05-31T18:43:41Z</time>
      </trkpt>
      <trkpt lat="44.00332" lon="3.52788">
        <ele>765.35283551464</ele>
        <time>2015-05-31T18:43:46Z</time>
      </trkpt>
      <trkpt lat="44.0033" lon="3.52787">
        <ele>765.35283551464</ele>
        <time>2015-05-31T18:43:51Z</time>
      </trkpt>
      <trkpt lat="44.00331" lon="3.52785">
        <ele>765.35283551464</ele>
        <time>2015-05-31T18:43:56Z</time>
      </trkpt>
      <trkpt lat="44.0033" lon="3.52782">
        <ele>765.35283551464</ele>
        <time>2015-05-31T18:44:01Z</time>
      </trkpt>
      <trkpt lat="44.00325" lon="3.52776">
        <ele>764.62496450392</ele>
        <time>2015-05-31T18:44:06Z</time>
      </trkpt>
      <trkpt lat="44.00319" lon="3.52772">
        <ele>764.62496450392</ele>
        <time>2015-05-31T18:44:11Z</time>
      </trkpt>
      <trkpt lat="44.00317" lon="3.52769">
        <ele>763.83886559911</ele>
        <time>2015-05-31T18:44:16Z</time>
      </trkpt>
      <trkpt lat="44.00312" lon="3.52767">
        <ele>763.83886559911</ele>
        <time>2015-05-31T18:44:21Z</time>
      </trkpt>
      <trkpt lat="44.00309" lon="3.52766">
        <ele>763.83886559911</ele>
        <time>2015-05-31T18:44:26Z</time>
      </trkpt>
      <trkpt lat="44.00303" lon="3.52763">
        <ele>763.0024024314</ele>
        <time>2015-05-31T18:44:31Z</time>
      </trkpt>
      <trkpt lat="44.00296" lon="3.52763">
        <ele>763.0024024314</ele>
        <time>2015-05-31T18:44:36Z</time>
      </trkpt>
      <trkpt lat="44.00289" lon="3.52761">
        <ele>762.12304919211</ele>
        <time>2015-05-31T18:44:41Z</time>
      </trkpt>
      <trkpt lat="44.00287" lon="3.52762">
        <ele>762.12304919211</ele>
        <time>2015-05-31T18:44:49Z</time>
      </trkpt>
      <trkpt lat="44.00282" lon="3.52759">
        <ele>762.12304919211</ele>
        <time>2015-05-31T18:44:51Z</time>
      </trkpt>
      <trkpt lat="44.00277" lon="3.52757">
        <ele>761.16464990098</ele>
        <time>2015-05-31T18:44:56Z</time>
      </trkpt>
      <trkpt lat="44.00274" lon="3.52756">
        <ele>761.16464990098</ele>
        <time>2015-05-31T18:45:01Z</time>
      </trkpt>
      <trkpt lat="44.0027" lon="3.52757">
        <ele>761.16464990098</ele>
        <time>2015-05-31T18:45:06Z</time>
      </trkpt>
      <trkpt lat="44.00268" lon="3.52759">
        <ele>760.13717711351</ele>
        <time>2015-05-31T18:45:11Z</time>
      </trkpt>
      <trkpt lat="44.00267" lon="3.52759">
        <ele>760.13717711351</ele>
        <time>2015-05-31T18:45:16Z</time>
      </trkpt>
      <trkpt lat="44.00261" lon="3.52763">
        <ele>760.13717711351</ele>
        <time>2015-05-31T18:45:26Z</time>
      </trkpt>
      <trkpt lat="44.00256" lon="3.52762">
        <ele>759.09330151516</ele>
        <time>2015-05-31T18:45:31Z</time>
      </trkpt>
      <trkpt lat="44.0025" lon="3.52757">
        <ele>759.09330151516</ele>
        <time>2015-05-31T18:45:36Z</time>
      </trkpt>
      <trkpt lat="44.00247" lon="3.52754">
        <ele>758.05303881893</ele>
        <time>2015-05-31T18:45:41Z</time>
      </trkpt>
      <trkpt lat="44.00242" lon="3.52751">
        <ele>758.05303881893</ele>
        <time>2015-05-31T18:45:46Z</time>
      </trkpt>
      <trkpt lat="44.00237" lon="3.52748">
        <ele>757.03490227978</ele>
        <time>2015-05-31T18:45:53Z</time>
      </trkpt>
      <trkpt lat="44.00235" lon="3.52745">
        <ele>757.03490227978</ele>
        <time>2015-05-31T18:45:56Z</time>
      </trkpt>
      <trkpt lat="44.00226" lon="3.5274">
        <ele>756.04153859297</ele>
        <time>2015-05-31T18:46:01Z</time>
      </trkpt>
      <trkpt lat="44.0022" lon="3.52738">
        <ele>756.04153859297</ele>
        <time>2015-05-31T18:46:06Z</time>
      </trkpt>
      <trkpt lat="44.00218" lon="3.52734">
        <ele>755.08969793902</ele>
        <time>2015-05-31T18:46:11Z</time>
      </trkpt>
      <trkpt lat="44.00216" lon="3.52733">
        <ele>755.08969793902</ele>
        <time>2015-05-31T18:46:16Z</time>
      </trkpt>
      <trkpt lat="44.00213" lon="3.52728">
        <ele>755.08969793902</ele>
        <time>2015-05-31T18:46:21Z</time>
      </trkpt>
      <trkpt lat="44.00209" lon="3.52726">
        <ele>754.09385271353</ele>
        <time>2015-05-31T18:46:26Z</time>
      </trkpt>
      <trkpt lat="44.00206" lon="3.52723">
        <ele>754.09385271353</ele>
        <time>2015-05-31T18:46:32Z</time>
      </trkpt>
      <trkpt lat="44.00202" lon="3.52722">
        <ele>754.09385271353</ele>
        <time>2015-05-31T18:46:36Z</time>
      </trkpt>
      <trkpt lat="44.00202" lon="3.52722">
        <ele>754.09385271353</ele>
        <time>2015-05-31T18:46:41Z</time>
      </trkpt>
      <trkpt lat="44.00195" lon="3.52708">
        <ele>753.17657597208</ele>
        <time>2015-05-31T18:47:06Z</time>
      </trkpt>
      <trkpt lat="44.00184" lon="3.52706">
        <ele>752.27821436549</ele>
        <time>2015-05-31T18:47:11Z</time>
      </trkpt>
      <trkpt lat="44.00177" lon="3.52707">
        <ele>752.27821436549</ele>
        <time>2015-05-31T18:47:16Z</time>
      </trkpt>
      <trkpt lat="44.00171" lon="3.52709">
        <ele>751.41542446237</ele>
        <time>2015-05-31T18:47:21Z</time>
      </trkpt>
      <trkpt lat="44.00165" lon="3.52711">
        <ele>751.41542446237</ele>
        <time>2015-05-31T18:47:26Z</time>
      </trkpt>
      <trkpt lat="44.00163" lon="3.52716">
        <ele>750.6034594817</ele>
        <time>2015-05-31T18:47:36Z</time>
      </trkpt>
      <trkpt lat="44.00162" lon="3.52715">
        <ele>750.6034594817</ele>
        <time>2015-05-31T18:47:41Z</time>
      </trkpt>
      <trkpt lat="44.00158" lon="3.52716">
        <ele>750.6034594817</ele>
        <time>2015-05-31T18:47:46Z</time>
      </trkpt>
      <trkpt lat="44.00152" lon="3.52722">
        <ele>749.87063650088</ele>
        <time>2015-05-31T18:47:51Z</time>
      </trkpt>
      <trkpt lat="44.00144" lon="3.52731">
        <ele>749.21406081213</ele>
        <time>2015-05-31T18:48:01Z</time>
      </trkpt>
      <trkpt lat="44.00142" lon="3.52735">
        <ele>749.21406081213</ele>
        <time>2015-05-31T18:48:06Z</time>
      </trkpt>
      <trkpt lat="44.00137" lon="3.52743">
        <ele>748.73162492505</ele>
        <time>2015-05-31T18:48:11Z</time>
      </trkpt>
      <trkpt lat="44.00136" lon="3.52751">
        <ele>748.73162492505</ele>
        <time>2015-05-31T18:48:16Z</time>
      </trkpt>
      <trkpt lat="44.00134" lon="3.52755">
        <ele>748.51345189298</ele>
        <time>2015-05-31T18:48:21Z</time>
      </trkpt>
      <trkpt lat="44.00133" lon="3.52763">
        <ele>748.51345189298</ele>
        <time>2015-05-31T18:48:26Z</time>
      </trkpt>
      <trkpt lat="44.00133" lon="3.52766">
        <ele>748.51345189298</ele>
        <time>2015-05-31T18:48:31Z</time>
      </trkpt>
      <trkpt lat="44.00131" lon="3.52776">
        <ele>748.6710369275</ele>
        <time>2015-05-31T18:48:36Z</time>
      </trkpt>
      <trkpt lat="44.0013" lon="3.52782">
        <ele>748.6710369275</ele>
        <time>2015-05-31T18:48:41Z</time>
      </trkpt>
      <trkpt lat="44.00127" lon="3.52788">
        <ele>749.03273465797</ele>
        <time>2015-05-31T18:48:46Z</time>
      </trkpt>
      <trkpt lat="44.00125" lon="3.52794">
        <ele>749.03273465797</ele>
        <time>2015-05-31T18:48:51Z</time>
      </trkpt>
      <trkpt lat="44.00123" lon="3.52803">
        <ele>749.58296797359</ele>
        <time>2015-05-31T18:48:56Z</time>
      </trkpt>
      <trkpt lat="44.00121" lon="3.52811">
        <ele>749.58296797359</ele>
        <time>2015-05-31T18:49:01Z</time>
      </trkpt>
      <trkpt lat="44.00122" lon="3.52817">
        <ele>750.27788108694</ele>
        <time>2015-05-31T18:49:06Z</time>
      </trkpt>
      <trkpt lat="44.00121" lon="3.52824">
        <ele>750.27788108694</ele>
        <time>2015-05-31T18:49:11Z</time>
      </trkpt>
      <trkpt lat="44.0012" lon="3.5283">
        <ele>751.03313748195</ele>
        <time>2015-05-31T18:49:16Z</time>
      </trkpt>
      <trkpt lat="44.00123" lon="3.5284">
        <ele>751.03313748195</ele>
        <time>2015-05-31T18:49:23Z</time>
      </trkpt>
      <trkpt lat="44.00121" lon="3.52851">
        <ele>751.72713934726</ele>
        <time>2015-05-31T18:49:26Z</time>
      </trkpt>
      <trkpt lat="44.00121" lon="3.52853">
        <ele>751.72713934726</ele>
        <time>2015-05-31T18:49:31Z</time>
      </trkpt>
      <trkpt lat="44.00122" lon="3.52861">
        <ele>751.72713934726</ele>
        <time>2015-05-31T18:49:36Z</time>
      </trkpt>
      <trkpt lat="44.00122" lon="3.52865">
        <ele>752.37704841572</ele>
        <time>2015-05-31T18:49:41Z</time>
      </trkpt>
      <trkpt lat="44.0012" lon="3.52878">
        <ele>753.24384263676</ele>
        <time>2015-05-31T18:49:46Z</time>
      </trkpt>
      <trkpt lat="44.00121" lon="3.52888">
        <ele>753.24384263676</ele>
        <time>2015-05-31T18:49:51Z</time>
      </trkpt>
      <trkpt lat="44.0012" lon="3.52896">
        <ele>754.10753739264</ele>
        <time>2015-05-31T18:49:56Z</time>
      </trkpt>
      <trkpt lat="44.0012" lon="3.52903">
        <ele>754.10753739264</ele>
        <time>2015-05-31T18:50:01Z</time>
      </trkpt>
      <trkpt lat="44.0012" lon="3.52904">
        <ele>754.10753739264</ele>
        <time>2015-05-31T18:50:06Z</time>
      </trkpt>
      <trkpt lat="44.0012" lon="3.52906">
        <ele>754.10753739264</ele>
        <time>2015-05-31T18:50:11Z</time>
      </trkpt>
      <trkpt lat="44.00121" lon="3.5291">
        <ele>754.96605354639</ele>
        <time>2015-05-31T18:50:16Z</time>
      </trkpt>
      <trkpt lat="44.0012" lon="3.52912">
        <ele>754.96605354639</ele>
        <time>2015-05-31T18:50:26Z</time>
      </trkpt>
      <trkpt lat="44.0012" lon="3.52915">
        <ele>754.96605354639</ele>
        <time>2015-05-31T18:50:31Z</time>
      </trkpt>
      <trkpt lat="44.00122" lon="3.52951">
        <ele>755.75982396691</ele>
        <time>2015-05-31T18:50:36Z</time>
      </trkpt>
      <trkpt lat="44.00124" lon="3.52965">
        <ele>757.01028120756</ele>
        <time>2015-05-31T18:50:41Z</time>
      </trkpt>
      <trkpt lat="44.00121" lon="3.52978">
        <ele>758.23373354939</ele>
        <time>2015-05-31T18:50:46Z</time>
      </trkpt>
      <trkpt lat="44.00121" lon="3.52982">
        <ele>758.23373354939</ele>
        <time>2015-05-31T18:50:51Z</time>
      </trkpt>
      <trkpt lat="44.00118" lon="3.52986">
        <ele>758.23373354939</ele>
        <time>2015-05-31T18:50:56Z</time>
      </trkpt>
      <trkpt lat="44.00119" lon="3.52991">
        <ele>759.52973342901</ele>
        <time>2015-05-31T18:51:01Z</time>
      </trkpt>
      <trkpt lat="44.00118" lon="3.52998">
        <ele>759.52973342901</ele>
        <time>2015-05-31T18:51:06Z</time>
      </trkpt>
      <trkpt lat="44.00114" lon="3.52999">
        <ele>760.88946187393</ele>
        <time>2015-05-31T18:51:11Z</time>
      </trkpt>
      <trkpt lat="44.00109" lon="3.53008">
        <ele>760.88946187393</ele>
        <time>2015-05-31T18:51:16Z</time>
      </trkpt>
      <trkpt lat="44.00109" lon="3.53013">
        <ele>762.30460085256</ele>
        <time>2015-05-31T18:51:21Z</time>
      </trkpt>
      <trkpt lat="44.00107" lon="3.53025">
        <ele>762.30460085256</ele>
        <time>2015-05-31T18:51:26Z</time>
      </trkpt>
      <trkpt lat="44.00106" lon="3.53033">
        <ele>763.81056175015</ele>
        <time>2015-05-31T18:51:35Z</time>
      </trkpt>
      <trkpt lat="44.00102" lon="3.53041">
        <ele>763.81056175015</ele>
        <time>2015-05-31T18:51:36Z</time>
      </trkpt>
      <trkpt lat="44.00099" lon="3.53048">
        <ele>765.3678931224</ele>
        <time>2015-05-31T18:51:46Z</time>
      </trkpt>
      <trkpt lat="44.00093" lon="3.53065">
        <ele>767.112888088</ele>
        <time>2015-05-31T18:51:51Z</time>
      </trkpt>
      <trkpt lat="44.0009" lon="3.53077">
        <ele>767.112888088</ele>
        <time>2015-05-31T18:51:56Z</time>
      </trkpt>
      <trkpt lat="44.00089" lon="3.53085">
        <ele>768.96961121571</ele>
        <time>2015-05-31T18:52:01Z</time>
      </trkpt>
      <trkpt lat="44.00088" lon="3.53095">
        <ele>768.96961121571</ele>
        <time>2015-05-31T18:52:06Z</time>
      </trkpt>
      <trkpt lat="44.00086" lon="3.53102">
        <ele>770.93952142438</ele>
        <time>2015-05-31T18:52:11Z</time>
      </trkpt>
      <trkpt lat="44.00087" lon="3.53113">
        <ele>770.93952142438</ele>
        <time>2015-05-31T18:52:16Z</time>
      </trkpt>
      <trkpt lat="44.00083" lon="3.53138">
        <ele>773.25431386254</ele>
        <time>2015-05-31T18:52:31Z</time>
      </trkpt>
      <trkpt lat="44.00082" lon="3.53144">
        <ele>773.25431386254</ele>
        <time>2015-05-31T18:52:36Z</time>
      </trkpt>
      <trkpt lat="44.0008" lon="3.53155">
        <ele>775.60898818619</ele>
        <time>2015-05-31T18:52:41Z</time>
      </trkpt>
      <trkpt lat="44.00079" lon="3.53166">
        <ele>775.60898818619</ele>
        <time>2015-05-31T18:52:46Z</time>
      </trkpt>
      <trkpt lat="44.00079" lon="3.53177">
        <ele>777.95151703882</ele>
        <time>2015-05-31T18:52:51Z</time>
      </trkpt>
      <trkpt lat="44.00076" lon="3.53187">
        <ele>777.95151703882</ele>
        <time>2015-05-31T18:52:56Z</time>
      </trkpt>
      <trkpt lat="44.00075" lon="3.53192">
        <ele>780.27707355065</ele>
        <time>2015-05-31T18:53:01Z</time>
      </trkpt>
      <trkpt lat="44.00074" lon="3.53204">
        <ele>780.27707355065</ele>
        <time>2015-05-31T18:53:06Z</time>
      </trkpt>
      <trkpt lat="44.00074" lon="3.53215">
        <ele>782.69664207051</ele>
        <time>2015-05-31T18:53:11Z</time>
      </trkpt>
      <trkpt lat="44.00071" lon="3.53222">
        <ele>782.69664207051</ele>
        <time>2015-05-31T18:53:16Z</time>
      </trkpt>
      <trkpt lat="44.0007" lon="3.53228">
        <ele>785.12557396933</ele>
        <time>2015-05-31T18:53:21Z</time>
      </trkpt>
      <trkpt lat="44.00069" lon="3.53242">
        <ele>787.4711366204</ele>
        <time>2015-05-31T18:53:26Z</time>
      </trkpt>
      <trkpt lat="44.00069" lon="3.53249">
        <ele>787.4711366204</ele>
        <time>2015-05-31T18:53:31Z</time>
      </trkpt>
      <trkpt lat="44.00069" lon="3.5325">
        <ele>787.4711366204</ele>
        <time>2015-05-31T18:53:36Z</time>
      </trkpt>
      <trkpt lat="44.00068" lon="3.53263">
        <ele>789.89277377838</ele>
        <time>2015-05-31T18:53:41Z</time>
      </trkpt>
      <trkpt lat="44.00064" lon="3.53273">
        <ele>789.89277377838</ele>
        <time>2015-05-31T18:53:46Z</time>
      </trkpt>
      <trkpt lat="44.00063" lon="3.53274">
        <ele>792.10581617892</ele>
        <time>2015-05-31T18:53:51Z</time>
      </trkpt>
      <trkpt lat="44.00062" lon="3.53286">
        <ele>792.10581617892</ele>
        <time>2015-05-31T18:53:56Z</time>
      </trkpt>
      <trkpt lat="44.00061" lon="3.53296">
        <ele>794.23634189561</ele>
        <time>2015-05-31T18:54:01Z</time>
      </trkpt>
      <trkpt lat="44.0006" lon="3.53307">
        <ele>794.23634189561</ele>
        <time>2015-05-31T18:54:06Z</time>
      </trkpt>
      <trkpt lat="44.0006" lon="3.53317">
        <ele>796.21420705992</ele>
        <time>2015-05-31T18:54:11Z</time>
      </trkpt>
      <trkpt lat="44.00057" lon="3.53325">
        <ele>796.21420705992</ele>
        <time>2015-05-31T18:54:16Z</time>
      </trkpt>
      <trkpt lat="44.00056" lon="3.53326">
        <ele>796.21420705992</ele>
        <time>2015-05-31T18:54:21Z</time>
      </trkpt>
      <trkpt lat="44.00052" lon="3.53351">
        <ele>797.96059098448</ele>
        <time>2015-05-31T18:54:26Z</time>
      </trkpt>
      <trkpt lat="44.00053" lon="3.53362">
        <ele>797.96059098448</ele>
        <time>2015-05-31T18:54:31Z</time>
      </trkpt>
      <trkpt lat="44.00058" lon="3.53376">
        <ele>799.40326427957</ele>
        <time>2015-05-31T18:54:36Z</time>
      </trkpt>
      <trkpt lat="44.00063" lon="3.53385">
        <ele>799.40326427957</ele>
        <time>2015-05-31T18:54:41Z</time>
      </trkpt>
      <trkpt lat="44.00063" lon="3.53395">
        <ele>800.54835919698</ele>
        <time>2015-05-31T18:54:46Z</time>
      </trkpt>
      <trkpt lat="44.00061" lon="3.53405">
        <ele>800.54835919698</ele>
        <time>2015-05-31T18:54:51Z</time>
      </trkpt>
      <trkpt lat="44.00061" lon="3.53408">
        <ele>801.51782353927</ele>
        <time>2015-05-31T18:54:56Z</time>
      </trkpt>
      <trkpt lat="44.00059" lon="3.53416">
        <ele>801.51782353927</ele>
        <time>2015-05-31T18:55:01Z</time>
      </trkpt>
      <trkpt lat="44.00059" lon="3.53423">
        <ele>802.36762961913</ele>
        <time>2015-05-31T18:55:06Z</time>
      </trkpt>
      <trkpt lat="44.00058" lon="3.53431">
        <ele>802.36762961913</ele>
        <time>2015-05-31T18:55:11Z</time>
      </trkpt>
      <trkpt lat="44.00057" lon="3.53432">
        <ele>802.36762961913</ele>
        <time>2015-05-31T18:55:16Z</time>
      </trkpt>
      <trkpt lat="44.00053" lon="3.53447">
        <ele>803.04922097992</ele>
        <time>2015-05-31T18:55:22Z</time>
      </trkpt>
      <trkpt lat="44.00055" lon="3.53457">
        <ele>803.04922097992</ele>
        <time>2015-05-31T18:55:26Z</time>
      </trkpt>
      <trkpt lat="44.00057" lon="3.53463">
        <ele>803.6190723548</ele>
        <time>2015-05-31T18:55:31Z</time>
      </trkpt>
      <trkpt lat="44.0006" lon="3.5347">
        <ele>803.6190723548</ele>
        <time>2015-05-31T18:55:36Z</time>
      </trkpt>
      <trkpt lat="44.00061" lon="3.53482">
        <ele>804.07228219367</ele>
        <time>2015-05-31T18:55:41Z</time>
      </trkpt>
      <trkpt lat="44.00062" lon="3.53493">
        <ele>804.07228219367</ele>
        <time>2015-05-31T18:55:46Z</time>
      </trkpt>
      <trkpt lat="44.00063" lon="3.53502">
        <ele>804.30384977133</ele>
        <time>2015-05-31T18:55:52Z</time>
      </trkpt>
      <trkpt lat="44.00066" lon="3.53511">
        <ele>804.30384977133</ele>
        <time>2015-05-31T18:55:56Z</time>
      </trkpt>
      <trkpt lat="44.00065" lon="3.53521">
        <ele>804.34688819954</ele>
        <time>2015-05-31T18:56:01Z</time>
      </trkpt>
      <trkpt lat="44.00067" lon="3.53529">
        <ele>804.34688819954</ele>
        <time>2015-05-31T18:56:06Z</time>
      </trkpt>
      <trkpt lat="44.00068" lon="3.53537">
        <ele>804.23267244382</ele>
        <time>2015-05-31T18:56:11Z</time>
      </trkpt>
      <trkpt lat="44.00067" lon="3.53542">
        <ele>804.23267244382</ele>
        <time>2015-05-31T18:56:16Z</time>
      </trkpt>
      <trkpt lat="44.00063" lon="3.53551">
        <ele>804.06272843901</ele>
        <time>2015-05-31T18:56:21Z</time>
      </trkpt>
      <trkpt lat="44.0006" lon="3.53556">
        <ele>804.06272843901</ele>
        <time>2015-05-31T18:56:26Z</time>
      </trkpt>
      <trkpt lat="44.00055" lon="3.53564">
        <ele>803.85926251575</ele>
        <time>2015-05-31T18:56:31Z</time>
      </trkpt>
      <trkpt lat="44.00052" lon="3.53568">
        <ele>803.85926251575</ele>
        <time>2015-05-31T18:56:36Z</time>
      </trkpt>
      <trkpt lat="44.00047" lon="3.53567">
        <ele>803.85926251575</ele>
        <time>2015-05-31T18:56:41Z</time>
      </trkpt>
      <trkpt lat="44.00042" lon="3.53568">
        <ele>803.61414537683</ele>
        <time>2015-05-31T18:56:46Z</time>
      </trkpt>
      <trkpt lat="44.00039" lon="3.53571">
        <ele>803.61414537683</ele>
        <time>2015-05-31T18:56:51Z</time>
      </trkpt>
      <trkpt lat="44.00035" lon="3.53573">
        <ele>803.61414537683</ele>
        <time>2015-05-31T18:56:56Z</time>
      </trkpt>
      <trkpt lat="44.00034" lon="3.53575">
        <ele>803.27673874714</ele>
        <time>2015-05-31T18:57:04Z</time>
      </trkpt>
      <trkpt lat="44.00021" lon="3.53589">
        <ele>802.90125838221</ele>
        <time>2015-05-31T18:57:06Z</time>
      </trkpt>
      <trkpt lat="44.0002" lon="3.53592">
        <ele>802.90125838221</ele>
        <time>2015-05-31T18:57:11Z</time>
      </trkpt>
      <trkpt lat="44.00013" lon="3.53599">
        <ele>802.48038482337</ele>
        <time>2015-05-31T18:57:16Z</time>
      </trkpt>
      <trkpt lat="44.00005" lon="3.53608">
        <ele>801.92097004985</ele>
        <time>2015-05-31T18:57:21Z</time>
      </trkpt>
      <trkpt lat="44.00001" lon="3.53615">
        <ele>801.92097004985</ele>
        <time>2015-05-31T18:57:26Z</time>
      </trkpt>
      <trkpt lat="43.99997" lon="3.53621">
        <ele>801.2235253885</ele>
        <time>2015-05-31T18:57:31Z</time>
      </trkpt>
      <trkpt lat="43.99993" lon="3.53628">
        <ele>801.2235253885</ele>
        <time>2015-05-31T18:57:36Z</time>
      </trkpt>
      <trkpt lat="43.99987" lon="3.53636">
        <ele>800.43209508954</ele>
        <time>2015-05-31T18:57:41Z</time>
      </trkpt>
      <trkpt lat="43.99985" lon="3.53637">
        <ele>800.43209508954</ele>
        <time>2015-05-31T18:57:46Z</time>
      </trkpt>
      <trkpt lat="43.99954" lon="3.5367">
        <ele>799.45798994876</ele>
        <time>2015-05-31T18:58:11Z</time>
      </trkpt>
      <trkpt lat="43.99951" lon="3.5367">
        <ele>799.45798994876</ele>
        <time>2015-05-31T18:58:16Z</time>
      </trkpt>
      <trkpt lat="43.99938" lon="3.53682">
        <ele>798.24829714701</ele>
        <time>2015-05-31T18:58:31Z</time>
      </trkpt>
      <trkpt lat="43.99935" lon="3.53689">
        <ele>798.24829714701</ele>
        <time>2015-05-31T18:58:36Z</time>
      </trkpt>
      <trkpt lat="43.9993" lon="3.53694">
        <ele>796.95632211859</ele>
        <time>2015-05-31T18:58:41Z</time>
      </trkpt>
      <trkpt lat="43.9993" lon="3.53695">
        <ele>796.95632211859</ele>
        <time>2015-05-31T18:58:46Z</time>
      </trkpt>
      <trkpt lat="43.9993" lon="3.53695">
        <ele>796.95632211859</ele>
        <time>2015-05-31T18:58:51Z</time>
      </trkpt>
      <trkpt lat="43.99929" lon="3.53695">
        <ele>796.95632211859</ele>
        <time>2015-05-31T18:58:56Z</time>
      </trkpt>
      <trkpt lat="43.99928" lon="3.53697">
        <ele>796.95632211859</ele>
        <time>2015-05-31T18:59:01Z</time>
      </trkpt>
      <trkpt lat="43.99927" lon="3.53697">
        <ele>796.95632211859</ele>
        <time>2015-05-31T18:59:06Z</time>
      </trkpt>
      <trkpt lat="43.99937" lon="3.53689">
        <ele>795.30631939386</ele>
        <time>2015-05-31T18:59:11Z</time>
      </trkpt>
      <trkpt lat="43.99943" lon="3.53687">
        <ele>795.30631939386</ele>
        <time>2015-05-31T18:59:16Z</time>
      </trkpt>
      <trkpt lat="43.99948" lon="3.53685">
        <ele>793.37514902184</ele>
        <time>2015-05-31T18:59:21Z</time>
      </trkpt>
      <trkpt lat="43.99958" lon="3.53674">
        <ele>790.80235517472</ele>
        <time>2015-05-31T18:59:26Z</time>
      </trkpt>
      <trkpt lat="43.99959" lon="3.53673">
        <ele>790.80235517472</ele>
        <time>2015-05-31T18:59:31Z</time>
      </trkpt>
    </trkseg>
  </trk>
</gpx>